<?xml version="1.0" encoding="UTF-8" standalone="no" ?>
<gpx xmlns="http://www.topografix.com/GPX/1/1" xmlns:xsi="http://www.w3.org/2001/XMLSchema-instance" xsi:schemaLocation="http://www.topografix.com/GPX/1/1 http://www.topografix.com/GPX/1/1/gpx.xsd" version="1.1" creator="VisuGPX - https://www.visugpx.com">
  <metadata>
    <name>GR738-J3</name>
  </metadata>
  <trk>
    <name><![CDATA[GR738-J3]]></name>
    <extensions>
      <line xmlns="http://www.topografix.com/GPX/gpx_style/0/2">
        <color>0000FF</color>
        <width>4</width>
      </line>
    </extensions>
    <trkseg>
      <trkpt lat="45.34393" lon="6.13173">
        <ele>1578</ele>
        <time>2023-08-10T05:04:28.000Z</time>
      </trkpt>
      <trkpt lat="45.34395" lon="6.13169">
        <ele>1577</ele>
        <time>2023-08-10T05:04:33.000Z</time>
      </trkpt>
      <trkpt lat="45.34395" lon="6.13166">
        <ele>1576.5999755859</ele>
        <time>2023-08-10T05:04:35.000Z</time>
      </trkpt>
      <trkpt lat="45.34396" lon="6.1316">
        <ele>1575.8000488281</ele>
        <time>2023-08-10T05:04:38.000Z</time>
      </trkpt>
      <trkpt lat="45.34398" lon="6.13154">
        <ele>1574.5999755859</ele>
        <time>2023-08-10T05:04:42.000Z</time>
      </trkpt>
      <trkpt lat="45.34398" lon="6.13153">
        <ele>1574.4000244141</ele>
        <time>2023-08-10T05:04:43.000Z</time>
      </trkpt>
      <trkpt lat="45.34399" lon="6.1315">
        <ele>1573.5999755859</ele>
        <time>2023-08-10T05:04:47.000Z</time>
      </trkpt>
      <trkpt lat="45.34401" lon="6.13143">
        <ele>1572.5999755859</ele>
        <time>2023-08-10T05:04:51.000Z</time>
      </trkpt>
      <trkpt lat="45.34404" lon="6.13135">
        <ele>1571.5999755859</ele>
        <time>2023-08-10T05:04:57.000Z</time>
      </trkpt>
      <trkpt lat="45.34405" lon="6.13132">
        <ele>1571.4000244141</ele>
        <time>2023-08-10T05:04:59.000Z</time>
      </trkpt>
      <trkpt lat="45.3441" lon="6.13124">
        <ele>1570.4000244141</ele>
        <time>2023-08-10T05:05:06.000Z</time>
      </trkpt>
      <trkpt lat="45.34413" lon="6.13122">
        <ele>1570</ele>
        <time>2023-08-10T05:05:09.000Z</time>
      </trkpt>
      <trkpt lat="45.34416" lon="6.1312">
        <ele>1569.4000244141</ele>
        <time>2023-08-10T05:05:14.000Z</time>
      </trkpt>
      <trkpt lat="45.34416" lon="6.13119">
        <ele>1568.4000244141</ele>
        <time>2023-08-10T05:05:18.000Z</time>
      </trkpt>
      <trkpt lat="45.34416" lon="6.13119">
        <ele>1568.1999511719</ele>
        <time>2023-08-10T05:05:19.000Z</time>
      </trkpt>
      <trkpt lat="45.34417" lon="6.13115">
        <ele>1567</ele>
        <time>2023-08-10T05:05:24.000Z</time>
      </trkpt>
      <trkpt lat="45.34419" lon="6.13112">
        <ele>1566</ele>
        <time>2023-08-10T05:05:28.000Z</time>
      </trkpt>
      <trkpt lat="45.34419" lon="6.13111">
        <ele>1565.8000488281</ele>
        <time>2023-08-10T05:05:29.000Z</time>
      </trkpt>
      <trkpt lat="45.34419" lon="6.13109">
        <ele>1564.8000488281</ele>
        <time>2023-08-10T05:05:33.000Z</time>
      </trkpt>
      <trkpt lat="45.3442" lon="6.13107">
        <ele>1563.5999755859</ele>
        <time>2023-08-10T05:05:38.000Z</time>
      </trkpt>
      <trkpt lat="45.34422" lon="6.13102">
        <ele>1562.5999755859</ele>
        <time>2023-08-10T05:05:43.000Z</time>
      </trkpt>
      <trkpt lat="45.34424" lon="6.131">
        <ele>1562</ele>
        <time>2023-08-10T05:05:46.000Z</time>
      </trkpt>
      <trkpt lat="45.34425" lon="6.13098">
        <ele>1561.4000244141</ele>
        <time>2023-08-10T05:05:48.000Z</time>
      </trkpt>
      <trkpt lat="45.34425" lon="6.13096">
        <ele>1560.5999755859</ele>
        <time>2023-08-10T05:05:53.000Z</time>
      </trkpt>
      <trkpt lat="45.34425" lon="6.13096">
        <ele>1560.4000244141</ele>
        <time>2023-08-10T05:05:54.000Z</time>
      </trkpt>
      <trkpt lat="45.34426" lon="6.13096">
        <ele>1559.1999511719</ele>
        <time>2023-08-10T05:06:02.000Z</time>
      </trkpt>
      <trkpt lat="45.3443" lon="6.13093">
        <ele>1558</ele>
        <time>2023-08-10T05:06:09.000Z</time>
      </trkpt>
      <trkpt lat="45.34431" lon="6.13092">
        <ele>1557.4000244141</ele>
        <time>2023-08-10T05:06:11.000Z</time>
      </trkpt>
      <trkpt lat="45.34432" lon="6.1309">
        <ele>1556.8000488281</ele>
        <time>2023-08-10T05:06:14.000Z</time>
      </trkpt>
      <trkpt lat="45.34434" lon="6.13084">
        <ele>1555.5999755859</ele>
        <time>2023-08-10T05:06:20.000Z</time>
      </trkpt>
      <trkpt lat="45.34435" lon="6.13082">
        <ele>1555.1999511719</ele>
        <time>2023-08-10T05:06:22.000Z</time>
      </trkpt>
      <trkpt lat="45.34436" lon="6.1308">
        <ele>1554.5999755859</ele>
        <time>2023-08-10T05:06:25.000Z</time>
      </trkpt>
      <trkpt lat="45.34437" lon="6.13074">
        <ele>1553.5999755859</ele>
        <time>2023-08-10T05:06:31.000Z</time>
      </trkpt>
      <trkpt lat="45.34438" lon="6.13061">
        <ele>1552.8000488281</ele>
        <time>2023-08-10T05:06:40.000Z</time>
      </trkpt>
      <trkpt lat="45.34443" lon="6.13049">
        <ele>1552.4000244141</ele>
        <time>2023-08-10T05:06:51.000Z</time>
      </trkpt>
      <trkpt lat="45.34444" lon="6.13041">
        <ele>1551.4000244141</ele>
        <time>2023-08-10T05:06:59.000Z</time>
      </trkpt>
      <trkpt lat="45.34444" lon="6.13037">
        <ele>1550.4000244141</ele>
        <time>2023-08-10T05:07:04.000Z</time>
      </trkpt>
      <trkpt lat="45.34444" lon="6.13037">
        <ele>1550.1999511719</ele>
        <time>2023-08-10T05:07:05.000Z</time>
      </trkpt>
      <trkpt lat="45.34444" lon="6.13032">
        <ele>1549</ele>
        <time>2023-08-10T05:07:10.000Z</time>
      </trkpt>
      <trkpt lat="45.34444" lon="6.13031">
        <ele>1548.8000488281</ele>
        <time>2023-08-10T05:07:12.000Z</time>
      </trkpt>
      <trkpt lat="45.34441" lon="6.13023">
        <ele>1548</ele>
        <time>2023-08-10T05:07:17.000Z</time>
      </trkpt>
      <trkpt lat="45.34441" lon="6.13022">
        <ele>1547.8000488281</ele>
        <time>2023-08-10T05:07:18.000Z</time>
      </trkpt>
      <trkpt lat="45.3444" lon="6.13009">
        <ele>1547</ele>
        <time>2023-08-10T05:07:27.000Z</time>
      </trkpt>
      <trkpt lat="45.3444" lon="6.13">
        <ele>1546</ele>
        <time>2023-08-10T05:07:35.000Z</time>
      </trkpt>
      <trkpt lat="45.3444" lon="6.12999">
        <ele>1546</ele>
        <time>2023-08-10T05:07:36.000Z</time>
      </trkpt>
      <trkpt lat="45.34436" lon="6.12991">
        <ele>1545.1999511719</ele>
        <time>2023-08-10T05:07:45.000Z</time>
      </trkpt>
      <trkpt lat="45.34435" lon="6.12987">
        <ele>1544.8000488281</ele>
        <time>2023-08-10T05:07:47.000Z</time>
      </trkpt>
      <trkpt lat="45.34438" lon="6.12976">
        <ele>1543.8000488281</ele>
        <time>2023-08-10T05:07:54.000Z</time>
      </trkpt>
      <trkpt lat="45.3444" lon="6.12965">
        <ele>1543</ele>
        <time>2023-08-10T05:08:02.000Z</time>
      </trkpt>
      <trkpt lat="45.34442" lon="6.12962">
        <ele>1542.5999755859</ele>
        <time>2023-08-10T05:08:07.000Z</time>
      </trkpt>
      <trkpt lat="45.34443" lon="6.12961">
        <ele>1542.5999755859</ele>
        <time>2023-08-10T05:08:09.000Z</time>
      </trkpt>
      <trkpt lat="45.34446" lon="6.12952">
        <ele>1541.5999755859</ele>
        <time>2023-08-10T05:08:23.000Z</time>
      </trkpt>
      <trkpt lat="45.34444" lon="6.12958">
        <ele>1541.5999755859</ele>
        <time>2023-08-10T05:08:33.000Z</time>
      </trkpt>
      <trkpt lat="45.34443" lon="6.12959">
        <ele>1541.1999511719</ele>
        <time>2023-08-10T05:08:41.000Z</time>
      </trkpt>
      <trkpt lat="45.34445" lon="6.1295">
        <ele>1540.5999755859</ele>
        <time>2023-08-10T05:08:48.000Z</time>
      </trkpt>
      <trkpt lat="45.34445" lon="6.12945">
        <ele>1540</ele>
        <time>2023-08-10T05:08:51.000Z</time>
      </trkpt>
      <trkpt lat="45.34447" lon="6.12942">
        <ele>1539.4000244141</ele>
        <time>2023-08-10T05:08:55.000Z</time>
      </trkpt>
      <trkpt lat="45.34448" lon="6.12938">
        <ele>1538.4000244141</ele>
        <time>2023-08-10T05:08:59.000Z</time>
      </trkpt>
      <trkpt lat="45.34448" lon="6.12937">
        <ele>1538.1999511719</ele>
        <time>2023-08-10T05:09:00.000Z</time>
      </trkpt>
      <trkpt lat="45.34451" lon="6.12936">
        <ele>1537.1999511719</ele>
        <time>2023-08-10T05:09:04.000Z</time>
      </trkpt>
      <trkpt lat="45.34452" lon="6.12933">
        <ele>1537</ele>
        <time>2023-08-10T05:09:05.000Z</time>
      </trkpt>
      <trkpt lat="45.34454" lon="6.12929">
        <ele>1536.1999511719</ele>
        <time>2023-08-10T05:09:10.000Z</time>
      </trkpt>
      <trkpt lat="45.34454" lon="6.1293">
        <ele>1536</ele>
        <time>2023-08-10T05:09:11.000Z</time>
      </trkpt>
      <trkpt lat="45.34459" lon="6.12922">
        <ele>1536.1999511719</ele>
        <time>2023-08-10T05:09:17.000Z</time>
      </trkpt>
      <trkpt lat="45.34461" lon="6.12916">
        <ele>1537</ele>
        <time>2023-08-10T05:09:22.000Z</time>
      </trkpt>
      <trkpt lat="45.34462" lon="6.12911">
        <ele>1536.8000488281</ele>
        <time>2023-08-10T05:09:24.000Z</time>
      </trkpt>
      <trkpt lat="45.34468" lon="6.12908">
        <ele>1536.1999511719</ele>
        <time>2023-08-10T05:09:29.000Z</time>
      </trkpt>
      <trkpt lat="45.3447" lon="6.12906">
        <ele>1536</ele>
        <time>2023-08-10T05:09:30.000Z</time>
      </trkpt>
      <trkpt lat="45.34478" lon="6.12902">
        <ele>1535.1999511719</ele>
        <time>2023-08-10T05:09:36.000Z</time>
      </trkpt>
      <trkpt lat="45.3448" lon="6.12901">
        <ele>1535</ele>
        <time>2023-08-10T05:09:37.000Z</time>
      </trkpt>
      <trkpt lat="45.34485" lon="6.12898">
        <ele>1533.8000488281</ele>
        <time>2023-08-10T05:09:43.000Z</time>
      </trkpt>
      <trkpt lat="45.34487" lon="6.12896">
        <ele>1533.5999755859</ele>
        <time>2023-08-10T05:09:45.000Z</time>
      </trkpt>
      <trkpt lat="45.34491" lon="6.12891">
        <ele>1532.8000488281</ele>
        <time>2023-08-10T05:09:49.000Z</time>
      </trkpt>
      <trkpt lat="45.34493" lon="6.12889">
        <ele>1531.5999755859</ele>
        <time>2023-08-10T05:09:54.000Z</time>
      </trkpt>
      <trkpt lat="45.34498" lon="6.12884">
        <ele>1530.4000244141</ele>
        <time>2023-08-10T05:09:59.000Z</time>
      </trkpt>
      <trkpt lat="45.345" lon="6.12883">
        <ele>1529.8000488281</ele>
        <time>2023-08-10T05:10:01.000Z</time>
      </trkpt>
      <trkpt lat="45.34502" lon="6.1288">
        <ele>1529</ele>
        <time>2023-08-10T05:10:05.000Z</time>
      </trkpt>
      <trkpt lat="45.34503" lon="6.12877">
        <ele>1528.5999755859</ele>
        <time>2023-08-10T05:10:08.000Z</time>
      </trkpt>
      <trkpt lat="45.34503" lon="6.12864">
        <ele>1528.5999755859</ele>
        <time>2023-08-10T05:10:16.000Z</time>
      </trkpt>
      <trkpt lat="45.34509" lon="6.12853">
        <ele>1528.1999511719</ele>
        <time>2023-08-10T05:10:23.000Z</time>
      </trkpt>
      <trkpt lat="45.3451" lon="6.12851">
        <ele>1528</ele>
        <time>2023-08-10T05:10:24.000Z</time>
      </trkpt>
      <trkpt lat="45.34514" lon="6.12843">
        <ele>1527</ele>
        <time>2023-08-10T05:10:31.000Z</time>
      </trkpt>
      <trkpt lat="45.34516" lon="6.12838">
        <ele>1527</ele>
        <time>2023-08-10T05:10:36.000Z</time>
      </trkpt>
      <trkpt lat="45.34518" lon="6.12838">
        <ele>1526.8000488281</ele>
        <time>2023-08-10T05:10:38.000Z</time>
      </trkpt>
      <trkpt lat="45.34525" lon="6.12837">
        <ele>1525.8000488281</ele>
        <time>2023-08-10T05:10:47.000Z</time>
      </trkpt>
      <trkpt lat="45.34524" lon="6.12834">
        <ele>1524.8000488281</ele>
        <time>2023-08-10T05:10:51.000Z</time>
      </trkpt>
      <trkpt lat="45.34524" lon="6.12834">
        <ele>1524.4000244141</ele>
        <time>2023-08-10T05:10:52.000Z</time>
      </trkpt>
      <trkpt lat="45.34528" lon="6.12832">
        <ele>1523.5999755859</ele>
        <time>2023-08-10T05:10:57.000Z</time>
      </trkpt>
      <trkpt lat="45.34529" lon="6.1283">
        <ele>1522.5999755859</ele>
        <time>2023-08-10T05:11:01.000Z</time>
      </trkpt>
      <trkpt lat="45.34529" lon="6.12829">
        <ele>1522.4000244141</ele>
        <time>2023-08-10T05:11:02.000Z</time>
      </trkpt>
      <trkpt lat="45.34532" lon="6.12827">
        <ele>1521.1999511719</ele>
        <time>2023-08-10T05:11:07.000Z</time>
      </trkpt>
      <trkpt lat="45.34534" lon="6.12826">
        <ele>1520.4000244141</ele>
        <time>2023-08-10T05:11:10.000Z</time>
      </trkpt>
      <trkpt lat="45.34534" lon="6.12825">
        <ele>1520.1999511719</ele>
        <time>2023-08-10T05:11:11.000Z</time>
      </trkpt>
      <trkpt lat="45.34535" lon="6.12823">
        <ele>1519.1999511719</ele>
        <time>2023-08-10T05:11:15.000Z</time>
      </trkpt>
      <trkpt lat="45.34538" lon="6.12819">
        <ele>1518</ele>
        <time>2023-08-10T05:11:20.000Z</time>
      </trkpt>
      <trkpt lat="45.3454" lon="6.12818">
        <ele>1517</ele>
        <time>2023-08-10T05:11:25.000Z</time>
      </trkpt>
      <trkpt lat="45.34541" lon="6.12815">
        <ele>1516.4000244141</ele>
        <time>2023-08-10T05:11:28.000Z</time>
      </trkpt>
      <trkpt lat="45.34541" lon="6.12815">
        <ele>1516</ele>
        <time>2023-08-10T05:11:30.000Z</time>
      </trkpt>
      <trkpt lat="45.34545" lon="6.12815">
        <ele>1514.5999755859</ele>
        <time>2023-08-10T05:11:35.000Z</time>
      </trkpt>
      <trkpt lat="45.34546" lon="6.12815">
        <ele>1514.5999755859</ele>
        <time>2023-08-10T05:11:36.000Z</time>
      </trkpt>
      <trkpt lat="45.34548" lon="6.12813">
        <ele>1513.5999755859</ele>
        <time>2023-08-10T05:11:40.000Z</time>
      </trkpt>
      <trkpt lat="45.3455" lon="6.12813">
        <ele>1512.5999755859</ele>
        <time>2023-08-10T05:11:44.000Z</time>
      </trkpt>
      <trkpt lat="45.34555" lon="6.1281">
        <ele>1511.1999511719</ele>
        <time>2023-08-10T05:11:50.000Z</time>
      </trkpt>
      <trkpt lat="45.34556" lon="6.12809">
        <ele>1510.1999511719</ele>
        <time>2023-08-10T05:11:55.000Z</time>
      </trkpt>
      <trkpt lat="45.3456" lon="6.12805">
        <ele>1509</ele>
        <time>2023-08-10T05:12:01.000Z</time>
      </trkpt>
      <trkpt lat="45.34562" lon="6.12803">
        <ele>1508</ele>
        <time>2023-08-10T05:12:05.000Z</time>
      </trkpt>
      <trkpt lat="45.34565" lon="6.12799">
        <ele>1507.1999511719</ele>
        <time>2023-08-10T05:12:09.000Z</time>
      </trkpt>
      <trkpt lat="45.34566" lon="6.12798">
        <ele>1507</ele>
        <time>2023-08-10T05:12:10.000Z</time>
      </trkpt>
      <trkpt lat="45.34571" lon="6.12793">
        <ele>1505.8000488281</ele>
        <time>2023-08-10T05:12:15.000Z</time>
      </trkpt>
      <trkpt lat="45.34574" lon="6.12786">
        <ele>1504.8000488281</ele>
        <time>2023-08-10T05:12:20.000Z</time>
      </trkpt>
      <trkpt lat="45.34575" lon="6.12784">
        <ele>1504</ele>
        <time>2023-08-10T05:12:24.000Z</time>
      </trkpt>
      <trkpt lat="45.34575" lon="6.12783">
        <ele>1503.8000488281</ele>
        <time>2023-08-10T05:12:26.000Z</time>
      </trkpt>
      <trkpt lat="45.34578" lon="6.12774">
        <ele>1503.4000244141</ele>
        <time>2023-08-10T05:12:32.000Z</time>
      </trkpt>
      <trkpt lat="45.34582" lon="6.12768">
        <ele>1502.4000244141</ele>
        <time>2023-08-10T05:12:38.000Z</time>
      </trkpt>
      <trkpt lat="45.34583" lon="6.12767">
        <ele>1502.4000244141</ele>
        <time>2023-08-10T05:12:39.000Z</time>
      </trkpt>
      <trkpt lat="45.34587" lon="6.12766">
        <ele>1501.5999755859</ele>
        <time>2023-08-10T05:12:44.000Z</time>
      </trkpt>
      <trkpt lat="45.34589" lon="6.12765">
        <ele>1501.4000244141</ele>
        <time>2023-08-10T05:12:46.000Z</time>
      </trkpt>
      <trkpt lat="45.34597" lon="6.1276">
        <ele>1499.1999511719</ele>
        <time>2023-08-10T05:12:54.000Z</time>
      </trkpt>
      <trkpt lat="45.34599" lon="6.12754">
        <ele>1498.4000244141</ele>
        <time>2023-08-10T05:12:58.000Z</time>
      </trkpt>
      <trkpt lat="45.34601" lon="6.1275">
        <ele>1497.1999511719</ele>
        <time>2023-08-10T05:13:04.000Z</time>
      </trkpt>
      <trkpt lat="45.34603" lon="6.12749">
        <ele>1496.5999755859</ele>
        <time>2023-08-10T05:13:06.000Z</time>
      </trkpt>
      <trkpt lat="45.34604" lon="6.12747">
        <ele>1496.4000244141</ele>
        <time>2023-08-10T05:13:08.000Z</time>
      </trkpt>
      <trkpt lat="45.34603" lon="6.12743">
        <ele>1495.4000244141</ele>
        <time>2023-08-10T05:13:12.000Z</time>
      </trkpt>
      <trkpt lat="45.34601" lon="6.12743">
        <ele>1495.4000244141</ele>
        <time>2023-08-10T05:13:13.000Z</time>
      </trkpt>
      <trkpt lat="45.34601" lon="6.12742">
        <ele>1495</ele>
        <time>2023-08-10T05:13:14.000Z</time>
      </trkpt>
      <trkpt lat="45.34597" lon="6.12743">
        <ele>1494</ele>
        <time>2023-08-10T05:13:19.000Z</time>
      </trkpt>
      <trkpt lat="45.34593" lon="6.12746">
        <ele>1493</ele>
        <time>2023-08-10T05:13:24.000Z</time>
      </trkpt>
      <trkpt lat="45.3459" lon="6.12747">
        <ele>1491.8000488281</ele>
        <time>2023-08-10T05:13:28.000Z</time>
      </trkpt>
      <trkpt lat="45.34584" lon="6.12748">
        <ele>1490.8000488281</ele>
        <time>2023-08-10T05:13:34.000Z</time>
      </trkpt>
      <trkpt lat="45.34579" lon="6.12747">
        <ele>1489.8000488281</ele>
        <time>2023-08-10T05:13:39.000Z</time>
      </trkpt>
      <trkpt lat="45.34575" lon="6.12748">
        <ele>1488.5999755859</ele>
        <time>2023-08-10T05:13:43.000Z</time>
      </trkpt>
      <trkpt lat="45.34574" lon="6.12748">
        <ele>1488.1999511719</ele>
        <time>2023-08-10T05:13:44.000Z</time>
      </trkpt>
      <trkpt lat="45.3457" lon="6.12748">
        <ele>1487.4000244141</ele>
        <time>2023-08-10T05:13:48.000Z</time>
      </trkpt>
      <trkpt lat="45.34567" lon="6.12749">
        <ele>1486.5999755859</ele>
        <time>2023-08-10T05:13:52.000Z</time>
      </trkpt>
      <trkpt lat="45.34566" lon="6.12749">
        <ele>1486.1999511719</ele>
        <time>2023-08-10T05:13:53.000Z</time>
      </trkpt>
      <trkpt lat="45.34563" lon="6.12748">
        <ele>1485</ele>
        <time>2023-08-10T05:13:58.000Z</time>
      </trkpt>
      <trkpt lat="45.34561" lon="6.12747">
        <ele>1484.4000244141</ele>
        <time>2023-08-10T05:14:02.000Z</time>
      </trkpt>
      <trkpt lat="45.34556" lon="6.12741">
        <ele>1482.8000488281</ele>
        <time>2023-08-10T05:14:08.000Z</time>
      </trkpt>
      <trkpt lat="45.34553" lon="6.12739">
        <ele>1482</ele>
        <time>2023-08-10T05:14:11.000Z</time>
      </trkpt>
      <trkpt lat="45.3455" lon="6.12737">
        <ele>1481.5999755859</ele>
        <time>2023-08-10T05:14:13.000Z</time>
      </trkpt>
      <trkpt lat="45.34546" lon="6.12734">
        <ele>1480.4000244141</ele>
        <time>2023-08-10T05:14:17.000Z</time>
      </trkpt>
      <trkpt lat="45.34545" lon="6.12733">
        <ele>1480.1999511719</ele>
        <time>2023-08-10T05:14:18.000Z</time>
      </trkpt>
      <trkpt lat="45.34543" lon="6.12731">
        <ele>1479.4000244141</ele>
        <time>2023-08-10T05:14:21.000Z</time>
      </trkpt>
      <trkpt lat="45.3454" lon="6.1273">
        <ele>1478.1999511719</ele>
        <time>2023-08-10T05:14:26.000Z</time>
      </trkpt>
      <trkpt lat="45.34536" lon="6.12729">
        <ele>1477.1999511719</ele>
        <time>2023-08-10T05:14:31.000Z</time>
      </trkpt>
      <trkpt lat="45.34534" lon="6.12728">
        <ele>1476.5999755859</ele>
        <time>2023-08-10T05:14:33.000Z</time>
      </trkpt>
      <trkpt lat="45.34532" lon="6.12729">
        <ele>1476.1999511719</ele>
        <time>2023-08-10T05:14:35.000Z</time>
      </trkpt>
      <trkpt lat="45.34532" lon="6.12728">
        <ele>1475.8000488281</ele>
        <time>2023-08-10T05:14:36.000Z</time>
      </trkpt>
      <trkpt lat="45.34528" lon="6.1273">
        <ele>1473.8000488281</ele>
        <time>2023-08-10T05:14:45.000Z</time>
      </trkpt>
      <trkpt lat="45.34528" lon="6.12731">
        <ele>1473.5999755859</ele>
        <time>2023-08-10T05:14:46.000Z</time>
      </trkpt>
      <trkpt lat="45.34522" lon="6.12725">
        <ele>1472.4000244141</ele>
        <time>2023-08-10T05:14:52.000Z</time>
      </trkpt>
      <trkpt lat="45.34521" lon="6.12723">
        <ele>1471.8000488281</ele>
        <time>2023-08-10T05:14:55.000Z</time>
      </trkpt>
      <trkpt lat="45.34521" lon="6.12722">
        <ele>1471.4000244141</ele>
        <time>2023-08-10T05:14:57.000Z</time>
      </trkpt>
      <trkpt lat="45.34524" lon="6.12721">
        <ele>1470</ele>
        <time>2023-08-10T05:15:02.000Z</time>
      </trkpt>
      <trkpt lat="45.34523" lon="6.12722">
        <ele>1470</ele>
        <time>2023-08-10T05:15:03.000Z</time>
      </trkpt>
      <trkpt lat="45.34534" lon="6.12713">
        <ele>1467.8000488281</ele>
        <time>2023-08-10T05:15:15.000Z</time>
      </trkpt>
      <trkpt lat="45.34535" lon="6.12713">
        <ele>1466.8000488281</ele>
        <time>2023-08-10T05:15:18.000Z</time>
      </trkpt>
      <trkpt lat="45.34537" lon="6.12711">
        <ele>1466.5999755859</ele>
        <time>2023-08-10T05:15:21.000Z</time>
      </trkpt>
      <trkpt lat="45.34545" lon="6.12702">
        <ele>1463</ele>
        <time>2023-08-10T05:15:36.000Z</time>
      </trkpt>
      <trkpt lat="45.34545" lon="6.12701">
        <ele>1463</ele>
        <time>2023-08-10T05:15:37.000Z</time>
      </trkpt>
      <trkpt lat="45.34546" lon="6.12698">
        <ele>1462.1999511719</ele>
        <time>2023-08-10T05:15:42.000Z</time>
      </trkpt>
      <trkpt lat="45.34546" lon="6.12697">
        <ele>1461.5999755859</ele>
        <time>2023-08-10T05:15:45.000Z</time>
      </trkpt>
      <trkpt lat="45.34547" lon="6.12696">
        <ele>1461</ele>
        <time>2023-08-10T05:15:47.000Z</time>
      </trkpt>
      <trkpt lat="45.3455" lon="6.12691">
        <ele>1460</ele>
        <time>2023-08-10T05:15:52.000Z</time>
      </trkpt>
      <trkpt lat="45.3455" lon="6.1269">
        <ele>1459.5999755859</ele>
        <time>2023-08-10T05:15:53.000Z</time>
      </trkpt>
      <trkpt lat="45.34552" lon="6.12688">
        <ele>1458.8000488281</ele>
        <time>2023-08-10T05:15:57.000Z</time>
      </trkpt>
      <trkpt lat="45.34553" lon="6.12687">
        <ele>1458.4000244141</ele>
        <time>2023-08-10T05:15:59.000Z</time>
      </trkpt>
      <trkpt lat="45.34554" lon="6.12687">
        <ele>1457.8000488281</ele>
        <time>2023-08-10T05:16:02.000Z</time>
      </trkpt>
      <trkpt lat="45.34562" lon="6.12679">
        <ele>1455.1999511719</ele>
        <time>2023-08-10T05:16:12.000Z</time>
      </trkpt>
      <trkpt lat="45.34564" lon="6.12675">
        <ele>1454</ele>
        <time>2023-08-10T05:16:16.000Z</time>
      </trkpt>
      <trkpt lat="45.34565" lon="6.12672">
        <ele>1452.5999755859</ele>
        <time>2023-08-10T05:16:21.000Z</time>
      </trkpt>
      <trkpt lat="45.34566" lon="6.12672">
        <ele>1452.4000244141</ele>
        <time>2023-08-10T05:16:23.000Z</time>
      </trkpt>
      <trkpt lat="45.34567" lon="6.12669">
        <ele>1451.5999755859</ele>
        <time>2023-08-10T05:16:27.000Z</time>
      </trkpt>
      <trkpt lat="45.34567" lon="6.12666">
        <ele>1450.5999755859</ele>
        <time>2023-08-10T05:16:30.000Z</time>
      </trkpt>
      <trkpt lat="45.34568" lon="6.12665">
        <ele>1450.5999755859</ele>
        <time>2023-08-10T05:16:32.000Z</time>
      </trkpt>
      <trkpt lat="45.34568" lon="6.12659">
        <ele>1449.4000244141</ele>
        <time>2023-08-10T05:16:37.000Z</time>
      </trkpt>
      <trkpt lat="45.34566" lon="6.12657">
        <ele>1448</ele>
        <time>2023-08-10T05:16:42.000Z</time>
      </trkpt>
      <trkpt lat="45.34565" lon="6.12657">
        <ele>1447.8000488281</ele>
        <time>2023-08-10T05:16:44.000Z</time>
      </trkpt>
      <trkpt lat="45.34564" lon="6.12654">
        <ele>1447.1999511719</ele>
        <time>2023-08-10T05:16:47.000Z</time>
      </trkpt>
      <trkpt lat="45.34559" lon="6.12648">
        <ele>1446</ele>
        <time>2023-08-10T05:16:52.000Z</time>
      </trkpt>
      <trkpt lat="45.34556" lon="6.12649">
        <ele>1444.8000488281</ele>
        <time>2023-08-10T05:16:58.000Z</time>
      </trkpt>
      <trkpt lat="45.3455" lon="6.12651">
        <ele>1443.8000488281</ele>
        <time>2023-08-10T05:17:06.000Z</time>
      </trkpt>
      <trkpt lat="45.34548" lon="6.12651">
        <ele>1443.5999755859</ele>
        <time>2023-08-10T05:17:08.000Z</time>
      </trkpt>
      <trkpt lat="45.34541" lon="6.12651">
        <ele>1442.5999755859</ele>
        <time>2023-08-10T05:17:12.000Z</time>
      </trkpt>
      <trkpt lat="45.34538" lon="6.1265">
        <ele>1441.4000244141</ele>
        <time>2023-08-10T05:17:17.000Z</time>
      </trkpt>
      <trkpt lat="45.34536" lon="6.12648">
        <ele>1440.1999511719</ele>
        <time>2023-08-10T05:17:21.000Z</time>
      </trkpt>
      <trkpt lat="45.34537" lon="6.12645">
        <ele>1439.5999755859</ele>
        <time>2023-08-10T05:17:24.000Z</time>
      </trkpt>
      <trkpt lat="45.34538" lon="6.12644">
        <ele>1439</ele>
        <time>2023-08-10T05:17:26.000Z</time>
      </trkpt>
      <trkpt lat="45.34539" lon="6.12639">
        <ele>1438</ele>
        <time>2023-08-10T05:17:31.000Z</time>
      </trkpt>
      <trkpt lat="45.34539" lon="6.12638">
        <ele>1437.5999755859</ele>
        <time>2023-08-10T05:17:32.000Z</time>
      </trkpt>
      <trkpt lat="45.34534" lon="6.12626">
        <ele>1437.4000244141</ele>
        <time>2023-08-10T05:17:39.000Z</time>
      </trkpt>
      <trkpt lat="45.3453" lon="6.12618">
        <ele>1438.4000244141</ele>
        <time>2023-08-10T05:17:47.000Z</time>
      </trkpt>
      <trkpt lat="45.34529" lon="6.12612">
        <ele>1439</ele>
        <time>2023-08-10T05:17:51.000Z</time>
      </trkpt>
      <trkpt lat="45.34529" lon="6.12608">
        <ele>1439</ele>
        <time>2023-08-10T05:17:55.000Z</time>
      </trkpt>
      <trkpt lat="45.3453" lon="6.12602">
        <ele>1437.5999755859</ele>
        <time>2023-08-10T05:18:01.000Z</time>
      </trkpt>
      <trkpt lat="45.3453" lon="6.12601">
        <ele>1437.4000244141</ele>
        <time>2023-08-10T05:18:03.000Z</time>
      </trkpt>
      <trkpt lat="45.34531" lon="6.126">
        <ele>1436.4000244141</ele>
        <time>2023-08-10T05:18:06.000Z</time>
      </trkpt>
      <trkpt lat="45.34534" lon="6.12598">
        <ele>1435.4000244141</ele>
        <time>2023-08-10T05:18:11.000Z</time>
      </trkpt>
      <trkpt lat="45.34534" lon="6.12598">
        <ele>1435</ele>
        <time>2023-08-10T05:18:12.000Z</time>
      </trkpt>
      <trkpt lat="45.34536" lon="6.12593">
        <ele>1434.4000244141</ele>
        <time>2023-08-10T05:18:16.000Z</time>
      </trkpt>
      <trkpt lat="45.34537" lon="6.12589">
        <ele>1433.1999511719</ele>
        <time>2023-08-10T05:18:20.000Z</time>
      </trkpt>
      <trkpt lat="45.34537" lon="6.12587">
        <ele>1433</ele>
        <time>2023-08-10T05:18:21.000Z</time>
      </trkpt>
      <trkpt lat="45.34539" lon="6.12585">
        <ele>1432.1999511719</ele>
        <time>2023-08-10T05:18:24.000Z</time>
      </trkpt>
      <trkpt lat="45.34542" lon="6.12581">
        <ele>1431.1999511719</ele>
        <time>2023-08-10T05:18:29.000Z</time>
      </trkpt>
      <trkpt lat="45.34542" lon="6.1258">
        <ele>1431</ele>
        <time>2023-08-10T05:18:30.000Z</time>
      </trkpt>
      <trkpt lat="45.34544" lon="6.12578">
        <ele>1430</ele>
        <time>2023-08-10T05:18:33.000Z</time>
      </trkpt>
      <trkpt lat="45.34547" lon="6.12575">
        <ele>1429</ele>
        <time>2023-08-10T05:18:38.000Z</time>
      </trkpt>
      <trkpt lat="45.34548" lon="6.12575">
        <ele>1428.5999755859</ele>
        <time>2023-08-10T05:18:39.000Z</time>
      </trkpt>
      <trkpt lat="45.34552" lon="6.12571">
        <ele>1427.8000488281</ele>
        <time>2023-08-10T05:18:43.000Z</time>
      </trkpt>
      <trkpt lat="45.34554" lon="6.12568">
        <ele>1427.1999511719</ele>
        <time>2023-08-10T05:18:46.000Z</time>
      </trkpt>
      <trkpt lat="45.34556" lon="6.12566">
        <ele>1426.8000488281</ele>
        <time>2023-08-10T05:18:48.000Z</time>
      </trkpt>
      <trkpt lat="45.34559" lon="6.12564">
        <ele>1425.4000244141</ele>
        <time>2023-08-10T05:18:53.000Z</time>
      </trkpt>
      <trkpt lat="45.3456" lon="6.12564">
        <ele>1425.4000244141</ele>
        <time>2023-08-10T05:18:54.000Z</time>
      </trkpt>
      <trkpt lat="45.34561" lon="6.12563">
        <ele>1424.5999755859</ele>
        <time>2023-08-10T05:18:57.000Z</time>
      </trkpt>
      <trkpt lat="45.34563" lon="6.12561">
        <ele>1423.4000244141</ele>
        <time>2023-08-10T05:19:01.000Z</time>
      </trkpt>
      <trkpt lat="45.34564" lon="6.1256">
        <ele>1422.8000488281</ele>
        <time>2023-08-10T05:19:03.000Z</time>
      </trkpt>
      <trkpt lat="45.34565" lon="6.12559">
        <ele>1422.1999511719</ele>
        <time>2023-08-10T05:19:05.000Z</time>
      </trkpt>
      <trkpt lat="45.34566" lon="6.12559">
        <ele>1422.1999511719</ele>
        <time>2023-08-10T05:19:06.000Z</time>
      </trkpt>
      <trkpt lat="45.34566" lon="6.1256">
        <ele>1421.8000488281</ele>
        <time>2023-08-10T05:19:07.000Z</time>
      </trkpt>
      <trkpt lat="45.34567" lon="6.1256">
        <ele>1421.4000244141</ele>
        <time>2023-08-10T05:19:09.000Z</time>
      </trkpt>
      <trkpt lat="45.34575" lon="6.12555">
        <ele>1419.4000244141</ele>
        <time>2023-08-10T05:19:18.000Z</time>
      </trkpt>
      <trkpt lat="45.34577" lon="6.12553">
        <ele>1418.8000488281</ele>
        <time>2023-08-10T05:19:20.000Z</time>
      </trkpt>
      <trkpt lat="45.34579" lon="6.12551">
        <ele>1417.5999755859</ele>
        <time>2023-08-10T05:19:25.000Z</time>
      </trkpt>
      <trkpt lat="45.34593" lon="6.12547">
        <ele>1414</ele>
        <time>2023-08-10T05:19:39.000Z</time>
      </trkpt>
      <trkpt lat="45.34596" lon="6.12546">
        <ele>1413</ele>
        <time>2023-08-10T05:19:44.000Z</time>
      </trkpt>
      <trkpt lat="45.34597" lon="6.12545">
        <ele>1412.4000244141</ele>
        <time>2023-08-10T05:19:46.000Z</time>
      </trkpt>
      <trkpt lat="45.34595" lon="6.12542">
        <ele>1411.8000488281</ele>
        <time>2023-08-10T05:19:50.000Z</time>
      </trkpt>
      <trkpt lat="45.34592" lon="6.12541">
        <ele>1410.4000244141</ele>
        <time>2023-08-10T05:19:54.000Z</time>
      </trkpt>
      <trkpt lat="45.34589" lon="6.12541">
        <ele>1409.1999511719</ele>
        <time>2023-08-10T05:19:58.000Z</time>
      </trkpt>
      <trkpt lat="45.34586" lon="6.12539">
        <ele>1408.5999755859</ele>
        <time>2023-08-10T05:20:01.000Z</time>
      </trkpt>
      <trkpt lat="45.34584" lon="6.12538">
        <ele>1408.1999511719</ele>
        <time>2023-08-10T05:20:03.000Z</time>
      </trkpt>
      <trkpt lat="45.34583" lon="6.12537">
        <ele>1407.5999755859</ele>
        <time>2023-08-10T05:20:05.000Z</time>
      </trkpt>
      <trkpt lat="45.34581" lon="6.12537">
        <ele>1407.1999511719</ele>
        <time>2023-08-10T05:20:07.000Z</time>
      </trkpt>
      <trkpt lat="45.34577" lon="6.12535">
        <ele>1406.4000244141</ele>
        <time>2023-08-10T05:20:10.000Z</time>
      </trkpt>
      <trkpt lat="45.34575" lon="6.12533">
        <ele>1406</ele>
        <time>2023-08-10T05:20:12.000Z</time>
      </trkpt>
      <trkpt lat="45.3457" lon="6.12531">
        <ele>1405.1999511719</ele>
        <time>2023-08-10T05:20:16.000Z</time>
      </trkpt>
      <trkpt lat="45.34569" lon="6.1253">
        <ele>1404.5999755859</ele>
        <time>2023-08-10T05:20:18.000Z</time>
      </trkpt>
      <trkpt lat="45.34568" lon="6.12529">
        <ele>1404</ele>
        <time>2023-08-10T05:20:21.000Z</time>
      </trkpt>
      <trkpt lat="45.34564" lon="6.1253">
        <ele>1402.8000488281</ele>
        <time>2023-08-10T05:20:27.000Z</time>
      </trkpt>
      <trkpt lat="45.34558" lon="6.12529">
        <ele>1401.8000488281</ele>
        <time>2023-08-10T05:20:32.000Z</time>
      </trkpt>
      <trkpt lat="45.34551" lon="6.12525">
        <ele>1400.8000488281</ele>
        <time>2023-08-10T05:20:38.000Z</time>
      </trkpt>
      <trkpt lat="45.34551" lon="6.12525">
        <ele>1400.5999755859</ele>
        <time>2023-08-10T05:20:39.000Z</time>
      </trkpt>
      <trkpt lat="45.34548" lon="6.12524">
        <ele>1399.5999755859</ele>
        <time>2023-08-10T05:20:44.000Z</time>
      </trkpt>
      <trkpt lat="45.34546" lon="6.12523">
        <ele>1399.1999511719</ele>
        <time>2023-08-10T05:20:46.000Z</time>
      </trkpt>
      <trkpt lat="45.34542" lon="6.12523">
        <ele>1398.5999755859</ele>
        <time>2023-08-10T05:20:50.000Z</time>
      </trkpt>
      <trkpt lat="45.3454" lon="6.12521">
        <ele>1397.5999755859</ele>
        <time>2023-08-10T05:20:54.000Z</time>
      </trkpt>
      <trkpt lat="45.34539" lon="6.12521">
        <ele>1397.5999755859</ele>
        <time>2023-08-10T05:20:55.000Z</time>
      </trkpt>
      <trkpt lat="45.34536" lon="6.12517">
        <ele>1396.1999511719</ele>
        <time>2023-08-10T05:20:59.000Z</time>
      </trkpt>
      <trkpt lat="45.34534" lon="6.12516">
        <ele>1396</ele>
        <time>2023-08-10T05:21:01.000Z</time>
      </trkpt>
      <trkpt lat="45.34532" lon="6.12516">
        <ele>1395.4000244141</ele>
        <time>2023-08-10T05:21:03.000Z</time>
      </trkpt>
      <trkpt lat="45.34527" lon="6.12514">
        <ele>1394.1999511719</ele>
        <time>2023-08-10T05:21:08.000Z</time>
      </trkpt>
      <trkpt lat="45.34525" lon="6.12514">
        <ele>1394</ele>
        <time>2023-08-10T05:21:09.000Z</time>
      </trkpt>
      <trkpt lat="45.34521" lon="6.12514">
        <ele>1393</ele>
        <time>2023-08-10T05:21:14.000Z</time>
      </trkpt>
      <trkpt lat="45.34517" lon="6.12513">
        <ele>1392.1999511719</ele>
        <time>2023-08-10T05:21:18.000Z</time>
      </trkpt>
      <trkpt lat="45.34516" lon="6.12512">
        <ele>1392</ele>
        <time>2023-08-10T05:21:19.000Z</time>
      </trkpt>
      <trkpt lat="45.34515" lon="6.1251">
        <ele>1391</ele>
        <time>2023-08-10T05:21:24.000Z</time>
      </trkpt>
      <trkpt lat="45.34512" lon="6.12509">
        <ele>1390.1999511719</ele>
        <time>2023-08-10T05:21:27.000Z</time>
      </trkpt>
      <trkpt lat="45.34511" lon="6.1251">
        <ele>1389.8000488281</ele>
        <time>2023-08-10T05:21:29.000Z</time>
      </trkpt>
      <trkpt lat="45.34507" lon="6.12516">
        <ele>1389</ele>
        <time>2023-08-10T05:21:34.000Z</time>
      </trkpt>
      <trkpt lat="45.34506" lon="6.12516">
        <ele>1388.8000488281</ele>
        <time>2023-08-10T05:21:35.000Z</time>
      </trkpt>
      <trkpt lat="45.345" lon="6.12517">
        <ele>1387.5999755859</ele>
        <time>2023-08-10T05:21:40.000Z</time>
      </trkpt>
      <trkpt lat="45.34499" lon="6.12516">
        <ele>1387</ele>
        <time>2023-08-10T05:21:43.000Z</time>
      </trkpt>
      <trkpt lat="45.34498" lon="6.12514">
        <ele>1386.5999755859</ele>
        <time>2023-08-10T05:21:45.000Z</time>
      </trkpt>
      <trkpt lat="45.34497" lon="6.12511">
        <ele>1385.1999511719</ele>
        <time>2023-08-10T05:21:50.000Z</time>
      </trkpt>
      <trkpt lat="45.34497" lon="6.12511">
        <ele>1385</ele>
        <time>2023-08-10T05:21:51.000Z</time>
      </trkpt>
      <trkpt lat="45.34497" lon="6.12511">
        <ele>1384</ele>
        <time>2023-08-10T05:21:55.000Z</time>
      </trkpt>
      <trkpt lat="45.34495" lon="6.1251">
        <ele>1383.1999511719</ele>
        <time>2023-08-10T05:21:59.000Z</time>
      </trkpt>
      <trkpt lat="45.34494" lon="6.12509">
        <ele>1383</ele>
        <time>2023-08-10T05:22:00.000Z</time>
      </trkpt>
      <trkpt lat="45.34492" lon="6.12507">
        <ele>1381.8000488281</ele>
        <time>2023-08-10T05:22:05.000Z</time>
      </trkpt>
      <trkpt lat="45.34492" lon="6.12505">
        <ele>1381.4000244141</ele>
        <time>2023-08-10T05:22:07.000Z</time>
      </trkpt>
      <trkpt lat="45.34489" lon="6.12505">
        <ele>1380.8000488281</ele>
        <time>2023-08-10T05:22:11.000Z</time>
      </trkpt>
      <trkpt lat="45.34489" lon="6.12505">
        <ele>1380.5999755859</ele>
        <time>2023-08-10T05:22:12.000Z</time>
      </trkpt>
      <trkpt lat="45.34487" lon="6.12506">
        <ele>1379.8000488281</ele>
        <time>2023-08-10T05:22:15.000Z</time>
      </trkpt>
      <trkpt lat="45.34484" lon="6.12503">
        <ele>1378.8000488281</ele>
        <time>2023-08-10T05:22:19.000Z</time>
      </trkpt>
      <trkpt lat="45.34484" lon="6.12501">
        <ele>1378.5999755859</ele>
        <time>2023-08-10T05:22:21.000Z</time>
      </trkpt>
      <trkpt lat="45.34483" lon="6.12495">
        <ele>1377.8000488281</ele>
        <time>2023-08-10T05:22:26.000Z</time>
      </trkpt>
      <trkpt lat="45.34483" lon="6.12493">
        <ele>1377.4000244141</ele>
        <time>2023-08-10T05:22:28.000Z</time>
      </trkpt>
      <trkpt lat="45.34484" lon="6.12489">
        <ele>1376.1999511719</ele>
        <time>2023-08-10T05:22:33.000Z</time>
      </trkpt>
      <trkpt lat="45.34485" lon="6.12489">
        <ele>1376</ele>
        <time>2023-08-10T05:22:35.000Z</time>
      </trkpt>
      <trkpt lat="45.34488" lon="6.12489">
        <ele>1375.1999511719</ele>
        <time>2023-08-10T05:22:38.000Z</time>
      </trkpt>
      <trkpt lat="45.3449" lon="6.1249">
        <ele>1374.1999511719</ele>
        <time>2023-08-10T05:22:42.000Z</time>
      </trkpt>
      <trkpt lat="45.34491" lon="6.1249">
        <ele>1374</ele>
        <time>2023-08-10T05:22:44.000Z</time>
      </trkpt>
      <trkpt lat="45.34491" lon="6.1249">
        <ele>1373.5999755859</ele>
        <time>2023-08-10T05:22:45.000Z</time>
      </trkpt>
      <trkpt lat="45.34493" lon="6.12489">
        <ele>1373</ele>
        <time>2023-08-10T05:22:49.000Z</time>
      </trkpt>
      <trkpt lat="45.34493" lon="6.12487">
        <ele>1372.8000488281</ele>
        <time>2023-08-10T05:22:51.000Z</time>
      </trkpt>
      <trkpt lat="45.34494" lon="6.12483">
        <ele>1372</ele>
        <time>2023-08-10T05:22:55.000Z</time>
      </trkpt>
      <trkpt lat="45.34495" lon="6.12478">
        <ele>1371</ele>
        <time>2023-08-10T05:22:59.000Z</time>
      </trkpt>
      <trkpt lat="45.34496" lon="6.12477">
        <ele>1370.8000488281</ele>
        <time>2023-08-10T05:23:00.000Z</time>
      </trkpt>
      <trkpt lat="45.34498" lon="6.12473">
        <ele>1369.8000488281</ele>
        <time>2023-08-10T05:23:06.000Z</time>
      </trkpt>
      <trkpt lat="45.34498" lon="6.12473">
        <ele>1369.5999755859</ele>
        <time>2023-08-10T05:23:07.000Z</time>
      </trkpt>
      <trkpt lat="45.345" lon="6.12471">
        <ele>1368.4000244141</ele>
        <time>2023-08-10T05:23:11.000Z</time>
      </trkpt>
      <trkpt lat="45.34504" lon="6.12469">
        <ele>1367.5999755859</ele>
        <time>2023-08-10T05:23:17.000Z</time>
      </trkpt>
      <trkpt lat="45.34508" lon="6.12464">
        <ele>1366.4000244141</ele>
        <time>2023-08-10T05:23:23.000Z</time>
      </trkpt>
      <trkpt lat="45.34508" lon="6.12464">
        <ele>1365.8000488281</ele>
        <time>2023-08-10T05:23:25.000Z</time>
      </trkpt>
      <trkpt lat="45.34508" lon="6.12464">
        <ele>1365.5999755859</ele>
        <time>2023-08-10T05:23:26.000Z</time>
      </trkpt>
      <trkpt lat="45.34508" lon="6.12462">
        <ele>1365.1999511719</ele>
        <time>2023-08-10T05:23:28.000Z</time>
      </trkpt>
      <trkpt lat="45.34507" lon="6.12461">
        <ele>1364.1999511719</ele>
        <time>2023-08-10T05:23:32.000Z</time>
      </trkpt>
      <trkpt lat="45.34505" lon="6.12459">
        <ele>1363.1999511719</ele>
        <time>2023-08-10T05:23:36.000Z</time>
      </trkpt>
      <trkpt lat="45.34501" lon="6.12456">
        <ele>1362</ele>
        <time>2023-08-10T05:23:40.000Z</time>
      </trkpt>
      <trkpt lat="45.34498" lon="6.12455">
        <ele>1361.8000488281</ele>
        <time>2023-08-10T05:23:45.000Z</time>
      </trkpt>
      <trkpt lat="45.34493" lon="6.12455">
        <ele>1361</ele>
        <time>2023-08-10T05:23:50.000Z</time>
      </trkpt>
      <trkpt lat="45.34489" lon="6.12453">
        <ele>1360</ele>
        <time>2023-08-10T05:23:54.000Z</time>
      </trkpt>
      <trkpt lat="45.34488" lon="6.12452">
        <ele>1360</ele>
        <time>2023-08-10T05:23:55.000Z</time>
      </trkpt>
      <trkpt lat="45.34483" lon="6.1245">
        <ele>1358.5999755859</ele>
        <time>2023-08-10T05:24:00.000Z</time>
      </trkpt>
      <trkpt lat="45.3448" lon="6.12449">
        <ele>1358.4000244141</ele>
        <time>2023-08-10T05:24:02.000Z</time>
      </trkpt>
      <trkpt lat="45.34477" lon="6.12449">
        <ele>1357.8000488281</ele>
        <time>2023-08-10T05:24:05.000Z</time>
      </trkpt>
      <trkpt lat="45.34472" lon="6.12446">
        <ele>1356.8000488281</ele>
        <time>2023-08-10T05:24:10.000Z</time>
      </trkpt>
      <trkpt lat="45.34471" lon="6.12446">
        <ele>1356.5999755859</ele>
        <time>2023-08-10T05:24:11.000Z</time>
      </trkpt>
      <trkpt lat="45.34466" lon="6.12445">
        <ele>1355.4000244141</ele>
        <time>2023-08-10T05:24:16.000Z</time>
      </trkpt>
      <trkpt lat="45.34465" lon="6.12449">
        <ele>1354.5999755859</ele>
        <time>2023-08-10T05:24:22.000Z</time>
      </trkpt>
      <trkpt lat="45.34466" lon="6.12458">
        <ele>1354.5999755859</ele>
        <time>2023-08-10T05:24:33.000Z</time>
      </trkpt>
      <trkpt lat="45.34463" lon="6.12461">
        <ele>1354.8000488281</ele>
        <time>2023-08-10T05:24:41.000Z</time>
      </trkpt>
      <trkpt lat="45.34458" lon="6.12461">
        <ele>1354.1999511719</ele>
        <time>2023-08-10T05:24:47.000Z</time>
      </trkpt>
      <trkpt lat="45.34457" lon="6.12462">
        <ele>1354.1999511719</ele>
        <time>2023-08-10T05:24:49.000Z</time>
      </trkpt>
      <trkpt lat="45.34453" lon="6.12464">
        <ele>1353.4000244141</ele>
        <time>2023-08-10T05:24:56.000Z</time>
      </trkpt>
      <trkpt lat="45.34452" lon="6.12464">
        <ele>1353</ele>
        <time>2023-08-10T05:24:58.000Z</time>
      </trkpt>
      <trkpt lat="45.34449" lon="6.12464">
        <ele>1352.1999511719</ele>
        <time>2023-08-10T05:25:03.000Z</time>
      </trkpt>
      <trkpt lat="45.34449" lon="6.12463">
        <ele>1352</ele>
        <time>2023-08-10T05:25:05.000Z</time>
      </trkpt>
      <trkpt lat="45.34445" lon="6.12461">
        <ele>1351</ele>
        <time>2023-08-10T05:25:09.000Z</time>
      </trkpt>
      <trkpt lat="45.34441" lon="6.1246">
        <ele>1350.4000244141</ele>
        <time>2023-08-10T05:25:13.000Z</time>
      </trkpt>
      <trkpt lat="45.3444" lon="6.1246">
        <ele>1350</ele>
        <time>2023-08-10T05:25:14.000Z</time>
      </trkpt>
      <trkpt lat="45.34438" lon="6.12461">
        <ele>1349</ele>
        <time>2023-08-10T05:25:19.000Z</time>
      </trkpt>
      <trkpt lat="45.34435" lon="6.12463">
        <ele>1348</ele>
        <time>2023-08-10T05:25:24.000Z</time>
      </trkpt>
      <trkpt lat="45.34436" lon="6.12466">
        <ele>1347</ele>
        <time>2023-08-10T05:25:32.000Z</time>
      </trkpt>
      <trkpt lat="45.34436" lon="6.12466">
        <ele>1347</ele>
        <time>2023-08-10T05:25:42.000Z</time>
      </trkpt>
      <trkpt lat="45.34434" lon="6.12466">
        <ele>1347</ele>
        <time>2023-08-10T05:25:48.000Z</time>
      </trkpt>
      <trkpt lat="45.34433" lon="6.12466">
        <ele>1347</ele>
        <time>2023-08-10T05:25:49.000Z</time>
      </trkpt>
      <trkpt lat="45.34432" lon="6.12469">
        <ele>1346.1999511719</ele>
        <time>2023-08-10T05:25:55.000Z</time>
      </trkpt>
      <trkpt lat="45.34431" lon="6.12471">
        <ele>1345.8000488281</ele>
        <time>2023-08-10T05:25:58.000Z</time>
      </trkpt>
      <trkpt lat="45.34427" lon="6.12476">
        <ele>1345.1999511719</ele>
        <time>2023-08-10T05:26:02.000Z</time>
      </trkpt>
      <trkpt lat="45.34423" lon="6.12478">
        <ele>1344.8000488281</ele>
        <time>2023-08-10T05:26:06.000Z</time>
      </trkpt>
      <trkpt lat="45.34417" lon="6.12478">
        <ele>1343.8000488281</ele>
        <time>2023-08-10T05:26:10.000Z</time>
      </trkpt>
      <trkpt lat="45.34415" lon="6.12479">
        <ele>1343.8000488281</ele>
        <time>2023-08-10T05:26:11.000Z</time>
      </trkpt>
      <trkpt lat="45.34408" lon="6.12476">
        <ele>1343.1999511719</ele>
        <time>2023-08-10T05:26:18.000Z</time>
      </trkpt>
      <trkpt lat="45.34406" lon="6.12473">
        <ele>1342.8000488281</ele>
        <time>2023-08-10T05:26:22.000Z</time>
      </trkpt>
      <trkpt lat="45.34406" lon="6.12473">
        <ele>1342.4000244141</ele>
        <time>2023-08-10T05:26:24.000Z</time>
      </trkpt>
      <trkpt lat="45.34404" lon="6.12473">
        <ele>1341.4000244141</ele>
        <time>2023-08-10T05:26:27.000Z</time>
      </trkpt>
      <trkpt lat="45.344" lon="6.12472">
        <ele>1340.5999755859</ele>
        <time>2023-08-10T05:26:31.000Z</time>
      </trkpt>
      <trkpt lat="45.34399" lon="6.12472">
        <ele>1340.5999755859</ele>
        <time>2023-08-10T05:26:32.000Z</time>
      </trkpt>
      <trkpt lat="45.34395" lon="6.1247">
        <ele>1339.1999511719</ele>
        <time>2023-08-10T05:26:37.000Z</time>
      </trkpt>
      <trkpt lat="45.34394" lon="6.1247">
        <ele>1339</ele>
        <time>2023-08-10T05:26:39.000Z</time>
      </trkpt>
      <trkpt lat="45.34392" lon="6.12469">
        <ele>1338.4000244141</ele>
        <time>2023-08-10T05:26:42.000Z</time>
      </trkpt>
      <trkpt lat="45.34389" lon="6.12466">
        <ele>1337.1999511719</ele>
        <time>2023-08-10T05:26:47.000Z</time>
      </trkpt>
      <trkpt lat="45.34387" lon="6.12465">
        <ele>1336</ele>
        <time>2023-08-10T05:26:54.000Z</time>
      </trkpt>
      <trkpt lat="45.34388" lon="6.12465">
        <ele>1336</ele>
        <time>2023-08-10T05:26:55.000Z</time>
      </trkpt>
      <trkpt lat="45.34386" lon="6.12462">
        <ele>1336</ele>
        <time>2023-08-10T05:27:02.000Z</time>
      </trkpt>
      <trkpt lat="45.34383" lon="6.12462">
        <ele>1335.4000244141</ele>
        <time>2023-08-10T05:27:10.000Z</time>
      </trkpt>
      <trkpt lat="45.34382" lon="6.12461">
        <ele>1335.1999511719</ele>
        <time>2023-08-10T05:27:12.000Z</time>
      </trkpt>
      <trkpt lat="45.34381" lon="6.1246">
        <ele>1334</ele>
        <time>2023-08-10T05:27:17.000Z</time>
      </trkpt>
      <trkpt lat="45.34382" lon="6.12457">
        <ele>1333.4000244141</ele>
        <time>2023-08-10T05:27:19.000Z</time>
      </trkpt>
      <trkpt lat="45.34382" lon="6.12453">
        <ele>1332.8000488281</ele>
        <time>2023-08-10T05:27:22.000Z</time>
      </trkpt>
      <trkpt lat="45.34382" lon="6.12452">
        <ele>1332</ele>
        <time>2023-08-10T05:27:27.000Z</time>
      </trkpt>
      <trkpt lat="45.34383" lon="6.12447">
        <ele>1330.5999755859</ele>
        <time>2023-08-10T05:27:32.000Z</time>
      </trkpt>
      <trkpt lat="45.34384" lon="6.12445">
        <ele>1330.1999511719</ele>
        <time>2023-08-10T05:27:34.000Z</time>
      </trkpt>
      <trkpt lat="45.34386" lon="6.12443">
        <ele>1329.4000244141</ele>
        <time>2023-08-10T05:27:37.000Z</time>
      </trkpt>
      <trkpt lat="45.34386" lon="6.12441">
        <ele>1328.1999511719</ele>
        <time>2023-08-10T05:27:41.000Z</time>
      </trkpt>
      <trkpt lat="45.34386" lon="6.1244">
        <ele>1328.1999511719</ele>
        <time>2023-08-10T05:27:42.000Z</time>
      </trkpt>
      <trkpt lat="45.34387" lon="6.12435">
        <ele>1327</ele>
        <time>2023-08-10T05:27:46.000Z</time>
      </trkpt>
      <trkpt lat="45.34386" lon="6.12428">
        <ele>1326.1999511719</ele>
        <time>2023-08-10T05:27:50.000Z</time>
      </trkpt>
      <trkpt lat="45.34385" lon="6.12427">
        <ele>1326</ele>
        <time>2023-08-10T05:27:51.000Z</time>
      </trkpt>
      <trkpt lat="45.34382" lon="6.12425">
        <ele>1325</ele>
        <time>2023-08-10T05:27:55.000Z</time>
      </trkpt>
      <trkpt lat="45.34381" lon="6.12425">
        <ele>1324.4000244141</ele>
        <time>2023-08-10T05:27:57.000Z</time>
      </trkpt>
      <trkpt lat="45.3438" lon="6.12426">
        <ele>1324.1999511719</ele>
        <time>2023-08-10T05:27:59.000Z</time>
      </trkpt>
      <trkpt lat="45.34379" lon="6.12427">
        <ele>1324</ele>
        <time>2023-08-10T05:28:00.000Z</time>
      </trkpt>
      <trkpt lat="45.34374" lon="6.12428">
        <ele>1323.1999511719</ele>
        <time>2023-08-10T05:28:05.000Z</time>
      </trkpt>
      <trkpt lat="45.34373" lon="6.12429">
        <ele>1323</ele>
        <time>2023-08-10T05:28:06.000Z</time>
      </trkpt>
      <trkpt lat="45.34369" lon="6.1243">
        <ele>1321.8000488281</ele>
        <time>2023-08-10T05:28:12.000Z</time>
      </trkpt>
      <trkpt lat="45.34368" lon="6.1243">
        <ele>1321.5999755859</ele>
        <time>2023-08-10T05:28:13.000Z</time>
      </trkpt>
      <trkpt lat="45.34368" lon="6.1243">
        <ele>1321.1999511719</ele>
        <time>2023-08-10T05:28:14.000Z</time>
      </trkpt>
      <trkpt lat="45.34366" lon="6.12429">
        <ele>1320.5999755859</ele>
        <time>2023-08-10T05:28:17.000Z</time>
      </trkpt>
      <trkpt lat="45.34364" lon="6.12426">
        <ele>1319.5999755859</ele>
        <time>2023-08-10T05:28:21.000Z</time>
      </trkpt>
      <trkpt lat="45.34363" lon="6.12425">
        <ele>1319.1999511719</ele>
        <time>2023-08-10T05:28:22.000Z</time>
      </trkpt>
      <trkpt lat="45.34361" lon="6.12424">
        <ele>1318.1999511719</ele>
        <time>2023-08-10T05:28:26.000Z</time>
      </trkpt>
      <trkpt lat="45.34358" lon="6.12425">
        <ele>1317.5999755859</ele>
        <time>2023-08-10T05:28:29.000Z</time>
      </trkpt>
      <trkpt lat="45.34357" lon="6.12425">
        <ele>1317.1999511719</ele>
        <time>2023-08-10T05:28:31.000Z</time>
      </trkpt>
      <trkpt lat="45.34352" lon="6.12425">
        <ele>1316</ele>
        <time>2023-08-10T05:28:36.000Z</time>
      </trkpt>
      <trkpt lat="45.34351" lon="6.12425">
        <ele>1315.8000488281</ele>
        <time>2023-08-10T05:28:37.000Z</time>
      </trkpt>
      <trkpt lat="45.34348" lon="6.12425">
        <ele>1314.8000488281</ele>
        <time>2023-08-10T05:28:41.000Z</time>
      </trkpt>
      <trkpt lat="45.34343" lon="6.12425">
        <ele>1314</ele>
        <time>2023-08-10T05:28:45.000Z</time>
      </trkpt>
      <trkpt lat="45.34342" lon="6.12425">
        <ele>1313.5999755859</ele>
        <time>2023-08-10T05:28:46.000Z</time>
      </trkpt>
      <trkpt lat="45.34337" lon="6.12423">
        <ele>1312.5999755859</ele>
        <time>2023-08-10T05:28:52.000Z</time>
      </trkpt>
      <trkpt lat="45.34337" lon="6.12423">
        <ele>1312.1999511719</ele>
        <time>2023-08-10T05:28:53.000Z</time>
      </trkpt>
      <trkpt lat="45.34335" lon="6.12423">
        <ele>1311.4000244141</ele>
        <time>2023-08-10T05:28:57.000Z</time>
      </trkpt>
      <trkpt lat="45.34331" lon="6.12424">
        <ele>1310.8000488281</ele>
        <time>2023-08-10T05:29:01.000Z</time>
      </trkpt>
      <trkpt lat="45.34331" lon="6.12424">
        <ele>1310.5999755859</ele>
        <time>2023-08-10T05:29:02.000Z</time>
      </trkpt>
      <trkpt lat="45.34327" lon="6.12424">
        <ele>1309.5999755859</ele>
        <time>2023-08-10T05:29:07.000Z</time>
      </trkpt>
      <trkpt lat="45.34326" lon="6.12425">
        <ele>1309</ele>
        <time>2023-08-10T05:29:09.000Z</time>
      </trkpt>
      <trkpt lat="45.34324" lon="6.12425">
        <ele>1308.4000244141</ele>
        <time>2023-08-10T05:29:12.000Z</time>
      </trkpt>
      <trkpt lat="45.34322" lon="6.12424">
        <ele>1307.4000244141</ele>
        <time>2023-08-10T05:29:15.000Z</time>
      </trkpt>
      <trkpt lat="45.34321" lon="6.12424">
        <ele>1307.1999511719</ele>
        <time>2023-08-10T05:29:16.000Z</time>
      </trkpt>
      <trkpt lat="45.34318" lon="6.12423">
        <ele>1306.1999511719</ele>
        <time>2023-08-10T05:29:20.000Z</time>
      </trkpt>
      <trkpt lat="45.34314" lon="6.12423">
        <ele>1305.4000244141</ele>
        <time>2023-08-10T05:29:24.000Z</time>
      </trkpt>
      <trkpt lat="45.34311" lon="6.12423">
        <ele>1304.8000488281</ele>
        <time>2023-08-10T05:29:26.000Z</time>
      </trkpt>
      <trkpt lat="45.34308" lon="6.12422">
        <ele>1303.8000488281</ele>
        <time>2023-08-10T05:29:31.000Z</time>
      </trkpt>
      <trkpt lat="45.34307" lon="6.12422">
        <ele>1303.5999755859</ele>
        <time>2023-08-10T05:29:33.000Z</time>
      </trkpt>
      <trkpt lat="45.34307" lon="6.12423">
        <ele>1302.4000244141</ele>
        <time>2023-08-10T05:29:36.000Z</time>
      </trkpt>
      <trkpt lat="45.34302" lon="6.12425">
        <ele>1301.5999755859</ele>
        <time>2023-08-10T05:29:41.000Z</time>
      </trkpt>
      <trkpt lat="45.34296" lon="6.12423">
        <ele>1300.4000244141</ele>
        <time>2023-08-10T05:29:46.000Z</time>
      </trkpt>
      <trkpt lat="45.34296" lon="6.12421">
        <ele>1300.1999511719</ele>
        <time>2023-08-10T05:29:47.000Z</time>
      </trkpt>
      <trkpt lat="45.34296" lon="6.12421">
        <ele>1300.1999511719</ele>
        <time>2023-08-10T05:29:48.000Z</time>
      </trkpt>
      <trkpt lat="45.34295" lon="6.12417">
        <ele>1299.1999511719</ele>
        <time>2023-08-10T05:29:52.000Z</time>
      </trkpt>
      <trkpt lat="45.34294" lon="6.12413">
        <ele>1298.1999511719</ele>
        <time>2023-08-10T05:29:57.000Z</time>
      </trkpt>
      <trkpt lat="45.34292" lon="6.12407">
        <ele>1297.1999511719</ele>
        <time>2023-08-10T05:30:01.000Z</time>
      </trkpt>
      <trkpt lat="45.34289" lon="6.12404">
        <ele>1296.4000244141</ele>
        <time>2023-08-10T05:30:05.000Z</time>
      </trkpt>
      <trkpt lat="45.34288" lon="6.12403">
        <ele>1296</ele>
        <time>2023-08-10T05:30:06.000Z</time>
      </trkpt>
      <trkpt lat="45.34286" lon="6.124">
        <ele>1294.8000488281</ele>
        <time>2023-08-10T05:30:10.000Z</time>
      </trkpt>
      <trkpt lat="45.34284" lon="6.12397">
        <ele>1294</ele>
        <time>2023-08-10T05:30:13.000Z</time>
      </trkpt>
      <trkpt lat="45.34283" lon="6.12397">
        <ele>1293.5999755859</ele>
        <time>2023-08-10T05:30:14.000Z</time>
      </trkpt>
      <trkpt lat="45.34281" lon="6.12397">
        <ele>1292.5999755859</ele>
        <time>2023-08-10T05:30:18.000Z</time>
      </trkpt>
      <trkpt lat="45.34279" lon="6.12398">
        <ele>1292</ele>
        <time>2023-08-10T05:30:21.000Z</time>
      </trkpt>
      <trkpt lat="45.34278" lon="6.12399">
        <ele>1291.4000244141</ele>
        <time>2023-08-10T05:30:23.000Z</time>
      </trkpt>
      <trkpt lat="45.34276" lon="6.12401">
        <ele>1290.4000244141</ele>
        <time>2023-08-10T05:30:28.000Z</time>
      </trkpt>
      <trkpt lat="45.34275" lon="6.12403">
        <ele>1290</ele>
        <time>2023-08-10T05:30:30.000Z</time>
      </trkpt>
      <trkpt lat="45.34272" lon="6.12407">
        <ele>1289.4000244141</ele>
        <time>2023-08-10T05:30:33.000Z</time>
      </trkpt>
      <trkpt lat="45.34268" lon="6.12414">
        <ele>1288.4000244141</ele>
        <time>2023-08-10T05:30:38.000Z</time>
      </trkpt>
      <trkpt lat="45.34267" lon="6.12417">
        <ele>1287.1999511719</ele>
        <time>2023-08-10T05:30:44.000Z</time>
      </trkpt>
      <trkpt lat="45.34266" lon="6.12418">
        <ele>1287</ele>
        <time>2023-08-10T05:30:45.000Z</time>
      </trkpt>
      <trkpt lat="45.34264" lon="6.1242">
        <ele>1286</ele>
        <time>2023-08-10T05:30:50.000Z</time>
      </trkpt>
      <trkpt lat="45.34261" lon="6.12422">
        <ele>1285.4000244141</ele>
        <time>2023-08-10T05:30:54.000Z</time>
      </trkpt>
      <trkpt lat="45.34259" lon="6.12424">
        <ele>1285</ele>
        <time>2023-08-10T05:30:56.000Z</time>
      </trkpt>
      <trkpt lat="45.34255" lon="6.12426">
        <ele>1283.8000488281</ele>
        <time>2023-08-10T05:31:02.000Z</time>
      </trkpt>
      <trkpt lat="45.34255" lon="6.12426">
        <ele>1283.5999755859</ele>
        <time>2023-08-10T05:31:03.000Z</time>
      </trkpt>
      <trkpt lat="45.34252" lon="6.12425">
        <ele>1282.8000488281</ele>
        <time>2023-08-10T05:31:07.000Z</time>
      </trkpt>
      <trkpt lat="45.34248" lon="6.12426">
        <ele>1281.5999755859</ele>
        <time>2023-08-10T05:31:12.000Z</time>
      </trkpt>
      <trkpt lat="45.34246" lon="6.12426">
        <ele>1281.5999755859</ele>
        <time>2023-08-10T05:31:13.000Z</time>
      </trkpt>
      <trkpt lat="45.3424" lon="6.1243">
        <ele>1280.4000244141</ele>
        <time>2023-08-10T05:31:18.000Z</time>
      </trkpt>
      <trkpt lat="45.34237" lon="6.12431">
        <ele>1280.1999511719</ele>
        <time>2023-08-10T05:31:21.000Z</time>
      </trkpt>
      <trkpt lat="45.34233" lon="6.12434">
        <ele>1279.5999755859</ele>
        <time>2023-08-10T05:31:25.000Z</time>
      </trkpt>
      <trkpt lat="45.34227" lon="6.12436">
        <ele>1279.1999511719</ele>
        <time>2023-08-10T05:31:30.000Z</time>
      </trkpt>
      <trkpt lat="45.34213" lon="6.12438">
        <ele>1278.5999755859</ele>
        <time>2023-08-10T05:31:41.000Z</time>
      </trkpt>
      <trkpt lat="45.3421" lon="6.12436">
        <ele>1278.4000244141</ele>
        <time>2023-08-10T05:31:44.000Z</time>
      </trkpt>
      <trkpt lat="45.34203" lon="6.12435">
        <ele>1278</ele>
        <time>2023-08-10T05:31:51.000Z</time>
      </trkpt>
      <trkpt lat="45.34196" lon="6.12436">
        <ele>1277.1999511719</ele>
        <time>2023-08-10T05:31:58.000Z</time>
      </trkpt>
      <trkpt lat="45.34194" lon="6.12435">
        <ele>1277.1999511719</ele>
        <time>2023-08-10T05:31:59.000Z</time>
      </trkpt>
      <trkpt lat="45.34188" lon="6.12435">
        <ele>1276.1999511719</ele>
        <time>2023-08-10T05:32:05.000Z</time>
      </trkpt>
      <trkpt lat="45.34186" lon="6.12435">
        <ele>1275.8000488281</ele>
        <time>2023-08-10T05:32:07.000Z</time>
      </trkpt>
      <trkpt lat="45.34184" lon="6.12434">
        <ele>1275</ele>
        <time>2023-08-10T05:32:11.000Z</time>
      </trkpt>
      <trkpt lat="45.34182" lon="6.12436">
        <ele>1274.4000244141</ele>
        <time>2023-08-10T05:32:15.000Z</time>
      </trkpt>
      <trkpt lat="45.34175" lon="6.12438">
        <ele>1274.4000244141</ele>
        <time>2023-08-10T05:32:22.000Z</time>
      </trkpt>
      <trkpt lat="45.34169" lon="6.12439">
        <ele>1275</ele>
        <time>2023-08-10T05:32:29.000Z</time>
      </trkpt>
      <trkpt lat="45.3416" lon="6.12435">
        <ele>1274.8000488281</ele>
        <time>2023-08-10T05:32:35.000Z</time>
      </trkpt>
      <trkpt lat="45.34154" lon="6.12432">
        <ele>1274.5999755859</ele>
        <time>2023-08-10T05:32:42.000Z</time>
      </trkpt>
      <trkpt lat="45.34149" lon="6.12427">
        <ele>1274.1999511719</ele>
        <time>2023-08-10T05:32:48.000Z</time>
      </trkpt>
      <trkpt lat="45.34142" lon="6.12423">
        <ele>1273.5999755859</ele>
        <time>2023-08-10T05:32:55.000Z</time>
      </trkpt>
      <trkpt lat="45.34133" lon="6.12422">
        <ele>1274.1999511719</ele>
        <time>2023-08-10T05:33:02.000Z</time>
      </trkpt>
      <trkpt lat="45.34123" lon="6.1242">
        <ele>1273.8000488281</ele>
        <time>2023-08-10T05:33:09.000Z</time>
      </trkpt>
      <trkpt lat="45.34114" lon="6.12421">
        <ele>1273.5999755859</ele>
        <time>2023-08-10T05:33:18.000Z</time>
      </trkpt>
      <trkpt lat="45.34109" lon="6.12419">
        <ele>1273</ele>
        <time>2023-08-10T05:33:24.000Z</time>
      </trkpt>
      <trkpt lat="45.34106" lon="6.1242">
        <ele>1272.8000488281</ele>
        <time>2023-08-10T05:33:27.000Z</time>
      </trkpt>
      <trkpt lat="45.34094" lon="6.12423">
        <ele>1272.8000488281</ele>
        <time>2023-08-10T05:33:37.000Z</time>
      </trkpt>
      <trkpt lat="45.34079" lon="6.12423">
        <ele>1272.4000244141</ele>
        <time>2023-08-10T05:33:50.000Z</time>
      </trkpt>
      <trkpt lat="45.34076" lon="6.12422">
        <ele>1271.8000488281</ele>
        <time>2023-08-10T05:33:55.000Z</time>
      </trkpt>
      <trkpt lat="45.34076" lon="6.12421">
        <ele>1270.8000488281</ele>
        <time>2023-08-10T05:33:59.000Z</time>
      </trkpt>
      <trkpt lat="45.34075" lon="6.12421">
        <ele>1269.8000488281</ele>
        <time>2023-08-10T05:34:04.000Z</time>
      </trkpt>
      <trkpt lat="45.3407" lon="6.1242">
        <ele>1269.1999511719</ele>
        <time>2023-08-10T05:34:10.000Z</time>
      </trkpt>
      <trkpt lat="45.34069" lon="6.12419">
        <ele>1268.5999755859</ele>
        <time>2023-08-10T05:34:12.000Z</time>
      </trkpt>
      <trkpt lat="45.34061" lon="6.12416">
        <ele>1268.1999511719</ele>
        <time>2023-08-10T05:34:17.000Z</time>
      </trkpt>
      <trkpt lat="45.34055" lon="6.12414">
        <ele>1267.8000488281</ele>
        <time>2023-08-10T05:34:24.000Z</time>
      </trkpt>
      <trkpt lat="45.34054" lon="6.12414">
        <ele>1267.5999755859</ele>
        <time>2023-08-10T05:34:25.000Z</time>
      </trkpt>
      <trkpt lat="45.3405" lon="6.12414">
        <ele>1266.1999511719</ele>
        <time>2023-08-10T05:34:29.000Z</time>
      </trkpt>
      <trkpt lat="45.34048" lon="6.12414">
        <ele>1266</ele>
        <time>2023-08-10T05:34:30.000Z</time>
      </trkpt>
      <trkpt lat="45.34042" lon="6.12412">
        <ele>1265.4000244141</ele>
        <time>2023-08-10T05:34:34.000Z</time>
      </trkpt>
      <trkpt lat="45.34036" lon="6.12408">
        <ele>1264.1999511719</ele>
        <time>2023-08-10T05:34:39.000Z</time>
      </trkpt>
      <trkpt lat="45.34035" lon="6.12407">
        <ele>1264</ele>
        <time>2023-08-10T05:34:40.000Z</time>
      </trkpt>
      <trkpt lat="45.34024" lon="6.12398">
        <ele>1263</ele>
        <time>2023-08-10T05:34:50.000Z</time>
      </trkpt>
      <trkpt lat="45.34023" lon="6.12398">
        <ele>1263</ele>
        <time>2023-08-10T05:34:51.000Z</time>
      </trkpt>
      <trkpt lat="45.34016" lon="6.12397">
        <ele>1262.8000488281</ele>
        <time>2023-08-10T05:34:58.000Z</time>
      </trkpt>
      <trkpt lat="45.34006" lon="6.12398">
        <ele>1262.5999755859</ele>
        <time>2023-08-10T05:35:07.000Z</time>
      </trkpt>
      <trkpt lat="45.33995" lon="6.124">
        <ele>1262.8000488281</ele>
        <time>2023-08-10T05:35:15.000Z</time>
      </trkpt>
      <trkpt lat="45.33985" lon="6.12401">
        <ele>1263.8000488281</ele>
        <time>2023-08-10T05:35:23.000Z</time>
      </trkpt>
      <trkpt lat="45.3398" lon="6.12403">
        <ele>1264</ele>
        <time>2023-08-10T05:35:27.000Z</time>
      </trkpt>
      <trkpt lat="45.33976" lon="6.12403">
        <ele>1264.4000244141</ele>
        <time>2023-08-10T05:35:31.000Z</time>
      </trkpt>
      <trkpt lat="45.3397" lon="6.12399">
        <ele>1263.5999755859</ele>
        <time>2023-08-10T05:35:38.000Z</time>
      </trkpt>
      <trkpt lat="45.33969" lon="6.12398">
        <ele>1263</ele>
        <time>2023-08-10T05:35:40.000Z</time>
      </trkpt>
      <trkpt lat="45.33964" lon="6.12396">
        <ele>1262</ele>
        <time>2023-08-10T05:35:44.000Z</time>
      </trkpt>
      <trkpt lat="45.33958" lon="6.12398">
        <ele>1261.1999511719</ele>
        <time>2023-08-10T05:35:52.000Z</time>
      </trkpt>
      <trkpt lat="45.33958" lon="6.12399">
        <ele>1261</ele>
        <time>2023-08-10T05:35:53.000Z</time>
      </trkpt>
      <trkpt lat="45.33954" lon="6.124">
        <ele>1260</ele>
        <time>2023-08-10T05:35:58.000Z</time>
      </trkpt>
      <trkpt lat="45.33953" lon="6.12399">
        <ele>1259.4000244141</ele>
        <time>2023-08-10T05:36:00.000Z</time>
      </trkpt>
      <trkpt lat="45.3395" lon="6.12398">
        <ele>1258.8000488281</ele>
        <time>2023-08-10T05:36:03.000Z</time>
      </trkpt>
      <trkpt lat="45.33945" lon="6.12396">
        <ele>1257.8000488281</ele>
        <time>2023-08-10T05:36:09.000Z</time>
      </trkpt>
      <trkpt lat="45.33944" lon="6.12396">
        <ele>1257.5999755859</ele>
        <time>2023-08-10T05:36:10.000Z</time>
      </trkpt>
      <trkpt lat="45.33937" lon="6.12396">
        <ele>1256.8000488281</ele>
        <time>2023-08-10T05:36:16.000Z</time>
      </trkpt>
      <trkpt lat="45.33935" lon="6.12396">
        <ele>1256.4000244141</ele>
        <time>2023-08-10T05:36:18.000Z</time>
      </trkpt>
      <trkpt lat="45.33931" lon="6.12396">
        <ele>1256.5999755859</ele>
        <time>2023-08-10T05:36:23.000Z</time>
      </trkpt>
      <trkpt lat="45.33927" lon="6.12393">
        <ele>1255.4000244141</ele>
        <time>2023-08-10T05:36:29.000Z</time>
      </trkpt>
      <trkpt lat="45.33924" lon="6.12391">
        <ele>1255</ele>
        <time>2023-08-10T05:36:31.000Z</time>
      </trkpt>
      <trkpt lat="45.33918" lon="6.12385">
        <ele>1254.4000244141</ele>
        <time>2023-08-10T05:36:38.000Z</time>
      </trkpt>
      <trkpt lat="45.33917" lon="6.12383">
        <ele>1253.8000488281</ele>
        <time>2023-08-10T05:36:40.000Z</time>
      </trkpt>
      <trkpt lat="45.33916" lon="6.12382">
        <ele>1253.1999511719</ele>
        <time>2023-08-10T05:36:43.000Z</time>
      </trkpt>
      <trkpt lat="45.33913" lon="6.12378">
        <ele>1252</ele>
        <time>2023-08-10T05:36:48.000Z</time>
      </trkpt>
      <trkpt lat="45.33912" lon="6.12375">
        <ele>1251.5999755859</ele>
        <time>2023-08-10T05:36:50.000Z</time>
      </trkpt>
      <trkpt lat="45.33909" lon="6.12371">
        <ele>1251</ele>
        <time>2023-08-10T05:36:53.000Z</time>
      </trkpt>
      <trkpt lat="45.33902" lon="6.12364">
        <ele>1250.1999511719</ele>
        <time>2023-08-10T05:36:59.000Z</time>
      </trkpt>
      <trkpt lat="45.33899" lon="6.12361">
        <ele>1249.8000488281</ele>
        <time>2023-08-10T05:37:02.000Z</time>
      </trkpt>
      <trkpt lat="45.33891" lon="6.12359">
        <ele>1249.1999511719</ele>
        <time>2023-08-10T05:37:08.000Z</time>
      </trkpt>
      <trkpt lat="45.33882" lon="6.12357">
        <ele>1248.8000488281</ele>
        <time>2023-08-10T05:37:16.000Z</time>
      </trkpt>
      <trkpt lat="45.3388" lon="6.12356">
        <ele>1248.5999755859</ele>
        <time>2023-08-10T05:37:18.000Z</time>
      </trkpt>
      <trkpt lat="45.33868" lon="6.12353">
        <ele>1247.8000488281</ele>
        <time>2023-08-10T05:37:28.000Z</time>
      </trkpt>
      <trkpt lat="45.33862" lon="6.12354">
        <ele>1246.8000488281</ele>
        <time>2023-08-10T05:37:35.000Z</time>
      </trkpt>
      <trkpt lat="45.3386" lon="6.12354">
        <ele>1246.4000244141</ele>
        <time>2023-08-10T05:37:37.000Z</time>
      </trkpt>
      <trkpt lat="45.33855" lon="6.12354">
        <ele>1245.5999755859</ele>
        <time>2023-08-10T05:37:43.000Z</time>
      </trkpt>
      <trkpt lat="45.33854" lon="6.12355">
        <ele>1245.1999511719</ele>
        <time>2023-08-10T05:37:46.000Z</time>
      </trkpt>
      <trkpt lat="45.3385" lon="6.12355">
        <ele>1244.5999755859</ele>
        <time>2023-08-10T05:37:53.000Z</time>
      </trkpt>
      <trkpt lat="45.33847" lon="6.12355">
        <ele>1244.1999511719</ele>
        <time>2023-08-10T05:37:56.000Z</time>
      </trkpt>
      <trkpt lat="45.33843" lon="6.12356">
        <ele>1243.5999755859</ele>
        <time>2023-08-10T05:38:01.000Z</time>
      </trkpt>
      <trkpt lat="45.33841" lon="6.12356">
        <ele>1243.4000244141</ele>
        <time>2023-08-10T05:38:02.000Z</time>
      </trkpt>
      <trkpt lat="45.33839" lon="6.12356">
        <ele>1243.1999511719</ele>
        <time>2023-08-10T05:38:04.000Z</time>
      </trkpt>
      <trkpt lat="45.33837" lon="6.12356">
        <ele>1242.8000488281</ele>
        <time>2023-08-10T05:38:07.000Z</time>
      </trkpt>
      <trkpt lat="45.33836" lon="6.12357">
        <ele>1242.4000244141</ele>
        <time>2023-08-10T05:38:09.000Z</time>
      </trkpt>
      <trkpt lat="45.33834" lon="6.12358">
        <ele>1241.8000488281</ele>
        <time>2023-08-10T05:38:11.000Z</time>
      </trkpt>
      <trkpt lat="45.33832" lon="6.12358">
        <ele>1241.4000244141</ele>
        <time>2023-08-10T05:38:13.000Z</time>
      </trkpt>
      <trkpt lat="45.33829" lon="6.12358">
        <ele>1240.1999511719</ele>
        <time>2023-08-10T05:38:17.000Z</time>
      </trkpt>
      <trkpt lat="45.33828" lon="6.12357">
        <ele>1239.4000244141</ele>
        <time>2023-08-10T05:38:20.000Z</time>
      </trkpt>
      <trkpt lat="45.33826" lon="6.12356">
        <ele>1239</ele>
        <time>2023-08-10T05:38:22.000Z</time>
      </trkpt>
      <trkpt lat="45.33825" lon="6.12357">
        <ele>1238</ele>
        <time>2023-08-10T05:38:28.000Z</time>
      </trkpt>
      <trkpt lat="45.33827" lon="6.12358">
        <ele>1237.8000488281</ele>
        <time>2023-08-10T05:38:36.000Z</time>
      </trkpt>
      <trkpt lat="45.33823" lon="6.1236">
        <ele>1238</ele>
        <time>2023-08-10T05:38:43.000Z</time>
      </trkpt>
      <trkpt lat="45.33818" lon="6.12365">
        <ele>1237</ele>
        <time>2023-08-10T05:38:51.000Z</time>
      </trkpt>
      <trkpt lat="45.33818" lon="6.12364">
        <ele>1236.8000488281</ele>
        <time>2023-08-10T05:38:52.000Z</time>
      </trkpt>
      <trkpt lat="45.33816" lon="6.12366">
        <ele>1236</ele>
        <time>2023-08-10T05:38:57.000Z</time>
      </trkpt>
      <trkpt lat="45.33815" lon="6.12366">
        <ele>1235.8000488281</ele>
        <time>2023-08-10T05:38:58.000Z</time>
      </trkpt>
      <trkpt lat="45.33813" lon="6.12367">
        <ele>1235.1999511719</ele>
        <time>2023-08-10T05:39:04.000Z</time>
      </trkpt>
      <trkpt lat="45.33813" lon="6.12367">
        <ele>1235.1999511719</ele>
        <time>2023-08-10T05:39:06.000Z</time>
      </trkpt>
      <trkpt lat="45.33813" lon="6.12366">
        <ele>1235.1999511719</ele>
        <time>2023-08-10T05:39:08.000Z</time>
      </trkpt>
      <trkpt lat="45.33812" lon="6.12363">
        <ele>1235.1999511719</ele>
        <time>2023-08-10T05:39:11.000Z</time>
      </trkpt>
      <trkpt lat="45.33808" lon="6.1236">
        <ele>1234.8000488281</ele>
        <time>2023-08-10T05:39:15.000Z</time>
      </trkpt>
      <trkpt lat="45.33804" lon="6.12356">
        <ele>1234</ele>
        <time>2023-08-10T05:39:19.000Z</time>
      </trkpt>
      <trkpt lat="45.33802" lon="6.12353">
        <ele>1233.8000488281</ele>
        <time>2023-08-10T05:39:20.000Z</time>
      </trkpt>
      <trkpt lat="45.33797" lon="6.12345">
        <ele>1232.8000488281</ele>
        <time>2023-08-10T05:39:26.000Z</time>
      </trkpt>
      <trkpt lat="45.33797" lon="6.12344">
        <ele>1232.5999755859</ele>
        <time>2023-08-10T05:39:27.000Z</time>
      </trkpt>
      <trkpt lat="45.33793" lon="6.12339">
        <ele>1231.5999755859</ele>
        <time>2023-08-10T05:39:33.000Z</time>
      </trkpt>
      <trkpt lat="45.33763" lon="6.12312">
        <ele>1229.8000488281</ele>
        <time>2023-08-10T05:40:01.000Z</time>
      </trkpt>
      <trkpt lat="45.33759" lon="6.12308">
        <ele>1229.5999755859</ele>
        <time>2023-08-10T05:40:03.000Z</time>
      </trkpt>
      <trkpt lat="45.33753" lon="6.12302">
        <ele>1229.1999511719</ele>
        <time>2023-08-10T05:40:07.000Z</time>
      </trkpt>
      <trkpt lat="45.33747" lon="6.12296">
        <ele>1228.5999755859</ele>
        <time>2023-08-10T05:40:14.000Z</time>
      </trkpt>
      <trkpt lat="45.3374" lon="6.12286">
        <ele>1227.4000244141</ele>
        <time>2023-08-10T05:40:23.000Z</time>
      </trkpt>
      <trkpt lat="45.33739" lon="6.12286">
        <ele>1227.1999511719</ele>
        <time>2023-08-10T05:40:24.000Z</time>
      </trkpt>
      <trkpt lat="45.33736" lon="6.12284">
        <ele>1226.4000244141</ele>
        <time>2023-08-10T05:40:29.000Z</time>
      </trkpt>
      <trkpt lat="45.33735" lon="6.12284">
        <ele>1226.1999511719</ele>
        <time>2023-08-10T05:40:30.000Z</time>
      </trkpt>
      <trkpt lat="45.33731" lon="6.12284">
        <ele>1225.1999511719</ele>
        <time>2023-08-10T05:40:36.000Z</time>
      </trkpt>
      <trkpt lat="45.33723" lon="6.12283">
        <ele>1224.4000244141</ele>
        <time>2023-08-10T05:40:43.000Z</time>
      </trkpt>
      <trkpt lat="45.33716" lon="6.12279">
        <ele>1224</ele>
        <time>2023-08-10T05:40:47.000Z</time>
      </trkpt>
      <trkpt lat="45.33709" lon="6.12276">
        <ele>1223.1999511719</ele>
        <time>2023-08-10T05:40:52.000Z</time>
      </trkpt>
      <trkpt lat="45.33707" lon="6.12274">
        <ele>1223</ele>
        <time>2023-08-10T05:40:54.000Z</time>
      </trkpt>
      <trkpt lat="45.33699" lon="6.12271">
        <ele>1221.8000488281</ele>
        <time>2023-08-10T05:40:59.000Z</time>
      </trkpt>
      <trkpt lat="45.33697" lon="6.1227">
        <ele>1221.4000244141</ele>
        <time>2023-08-10T05:41:01.000Z</time>
      </trkpt>
      <trkpt lat="45.3369" lon="6.12273">
        <ele>1219.8000488281</ele>
        <time>2023-08-10T05:41:11.000Z</time>
      </trkpt>
      <trkpt lat="45.33687" lon="6.12273">
        <ele>1219.1999511719</ele>
        <time>2023-08-10T05:41:14.000Z</time>
      </trkpt>
      <trkpt lat="45.33683" lon="6.12275">
        <ele>1218.5999755859</ele>
        <time>2023-08-10T05:41:17.000Z</time>
      </trkpt>
      <trkpt lat="45.33677" lon="6.12275">
        <ele>1217.8000488281</ele>
        <time>2023-08-10T05:41:22.000Z</time>
      </trkpt>
      <trkpt lat="45.33675" lon="6.12275">
        <ele>1217.5999755859</ele>
        <time>2023-08-10T05:41:23.000Z</time>
      </trkpt>
      <trkpt lat="45.33671" lon="6.12277">
        <ele>1216.1999511719</ele>
        <time>2023-08-10T05:41:28.000Z</time>
      </trkpt>
      <trkpt lat="45.3367" lon="6.12277">
        <ele>1215.5999755859</ele>
        <time>2023-08-10T05:41:30.000Z</time>
      </trkpt>
      <trkpt lat="45.3367" lon="6.12277">
        <ele>1215.1999511719</ele>
        <time>2023-08-10T05:41:31.000Z</time>
      </trkpt>
      <trkpt lat="45.33666" lon="6.12277">
        <ele>1214</ele>
        <time>2023-08-10T05:41:37.000Z</time>
      </trkpt>
      <trkpt lat="45.33659" lon="6.12276">
        <ele>1214</ele>
        <time>2023-08-10T05:41:45.000Z</time>
      </trkpt>
      <trkpt lat="45.3366" lon="6.12276">
        <ele>1213.8000488281</ele>
        <time>2023-08-10T05:41:52.000Z</time>
      </trkpt>
      <trkpt lat="45.33661" lon="6.12277">
        <ele>1213.5999755859</ele>
        <time>2023-08-10T05:42:01.000Z</time>
      </trkpt>
      <trkpt lat="45.33656" lon="6.12275">
        <ele>1213.4000244141</ele>
        <time>2023-08-10T05:42:07.000Z</time>
      </trkpt>
      <trkpt lat="45.33645" lon="6.12277">
        <ele>1213.1999511719</ele>
        <time>2023-08-10T05:42:15.000Z</time>
      </trkpt>
      <trkpt lat="45.33637" lon="6.12279">
        <ele>1213.4000244141</ele>
        <time>2023-08-10T05:42:22.000Z</time>
      </trkpt>
      <trkpt lat="45.33637" lon="6.12278">
        <ele>1213</ele>
        <time>2023-08-10T05:42:25.000Z</time>
      </trkpt>
      <trkpt lat="45.33636" lon="6.12278">
        <ele>1212.8000488281</ele>
        <time>2023-08-10T05:42:27.000Z</time>
      </trkpt>
      <trkpt lat="45.3363" lon="6.12279">
        <ele>1211.8000488281</ele>
        <time>2023-08-10T05:42:32.000Z</time>
      </trkpt>
      <trkpt lat="45.33626" lon="6.12282">
        <ele>1211.4000244141</ele>
        <time>2023-08-10T05:42:35.000Z</time>
      </trkpt>
      <trkpt lat="45.33622" lon="6.12285">
        <ele>1210.5999755859</ele>
        <time>2023-08-10T05:42:39.000Z</time>
      </trkpt>
      <trkpt lat="45.3362" lon="6.12288">
        <ele>1210.4000244141</ele>
        <time>2023-08-10T05:42:41.000Z</time>
      </trkpt>
      <trkpt lat="45.33618" lon="6.12294">
        <ele>1209.5999755859</ele>
        <time>2023-08-10T05:42:45.000Z</time>
      </trkpt>
      <trkpt lat="45.33619" lon="6.12297">
        <ele>1209.1999511719</ele>
        <time>2023-08-10T05:42:47.000Z</time>
      </trkpt>
      <trkpt lat="45.33616" lon="6.12303">
        <ele>1208.4000244141</ele>
        <time>2023-08-10T05:42:52.000Z</time>
      </trkpt>
      <trkpt lat="45.33616" lon="6.12305">
        <ele>1208</ele>
        <time>2023-08-10T05:42:54.000Z</time>
      </trkpt>
      <trkpt lat="45.33611" lon="6.12307">
        <ele>1207.4000244141</ele>
        <time>2023-08-10T05:42:58.000Z</time>
      </trkpt>
      <trkpt lat="45.33609" lon="6.12312">
        <ele>1206.8000488281</ele>
        <time>2023-08-10T05:43:01.000Z</time>
      </trkpt>
      <trkpt lat="45.33607" lon="6.12314">
        <ele>1206.4000244141</ele>
        <time>2023-08-10T05:43:03.000Z</time>
      </trkpt>
      <trkpt lat="45.33604" lon="6.12322">
        <ele>1205.1999511719</ele>
        <time>2023-08-10T05:43:09.000Z</time>
      </trkpt>
      <trkpt lat="45.33602" lon="6.12325">
        <ele>1204.1999511719</ele>
        <time>2023-08-10T05:43:14.000Z</time>
      </trkpt>
      <trkpt lat="45.33602" lon="6.12327">
        <ele>1203.1999511719</ele>
        <time>2023-08-10T05:43:18.000Z</time>
      </trkpt>
      <trkpt lat="45.336" lon="6.1233">
        <ele>1202</ele>
        <time>2023-08-10T05:43:22.000Z</time>
      </trkpt>
      <trkpt lat="45.33598" lon="6.12333">
        <ele>1200.5999755859</ele>
        <time>2023-08-10T05:43:26.000Z</time>
      </trkpt>
      <trkpt lat="45.33597" lon="6.12333">
        <ele>1199.5999755859</ele>
        <time>2023-08-10T05:43:30.000Z</time>
      </trkpt>
      <trkpt lat="45.33593" lon="6.12333">
        <ele>1198.5999755859</ele>
        <time>2023-08-10T05:43:34.000Z</time>
      </trkpt>
      <trkpt lat="45.33591" lon="6.12333">
        <ele>1198.4000244141</ele>
        <time>2023-08-10T05:43:35.000Z</time>
      </trkpt>
      <trkpt lat="45.33583" lon="6.12335">
        <ele>1197.1999511719</ele>
        <time>2023-08-10T05:43:40.000Z</time>
      </trkpt>
      <trkpt lat="45.33581" lon="6.12337">
        <ele>1196.5999755859</ele>
        <time>2023-08-10T05:43:43.000Z</time>
      </trkpt>
      <trkpt lat="45.33579" lon="6.12339">
        <ele>1196</ele>
        <time>2023-08-10T05:43:45.000Z</time>
      </trkpt>
      <trkpt lat="45.33575" lon="6.12346">
        <ele>1195</ele>
        <time>2023-08-10T05:43:51.000Z</time>
      </trkpt>
      <trkpt lat="45.33573" lon="6.1235">
        <ele>1195</ele>
        <time>2023-08-10T05:43:53.000Z</time>
      </trkpt>
      <trkpt lat="45.33569" lon="6.12357">
        <ele>1195</ele>
        <time>2023-08-10T05:43:58.000Z</time>
      </trkpt>
      <trkpt lat="45.33564" lon="6.12361">
        <ele>1195.1999511719</ele>
        <time>2023-08-10T05:44:04.000Z</time>
      </trkpt>
      <trkpt lat="45.33562" lon="6.12359">
        <ele>1195.1999511719</ele>
        <time>2023-08-10T05:44:12.000Z</time>
      </trkpt>
      <trkpt lat="45.33561" lon="6.12357">
        <ele>1195.1999511719</ele>
        <time>2023-08-10T05:44:14.000Z</time>
      </trkpt>
      <trkpt lat="45.3356" lon="6.12358">
        <ele>1195.1999511719</ele>
        <time>2023-08-10T05:44:19.000Z</time>
      </trkpt>
      <trkpt lat="45.33557" lon="6.12362">
        <ele>1195</ele>
        <time>2023-08-10T05:44:26.000Z</time>
      </trkpt>
      <trkpt lat="45.33549" lon="6.12367">
        <ele>1194.4000244141</ele>
        <time>2023-08-10T05:44:35.000Z</time>
      </trkpt>
      <trkpt lat="45.33546" lon="6.12368">
        <ele>1193.8000488281</ele>
        <time>2023-08-10T05:44:38.000Z</time>
      </trkpt>
      <trkpt lat="45.33543" lon="6.12367">
        <ele>1192.5999755859</ele>
        <time>2023-08-10T05:44:42.000Z</time>
      </trkpt>
      <trkpt lat="45.33543" lon="6.12367">
        <ele>1192.4000244141</ele>
        <time>2023-08-10T05:44:43.000Z</time>
      </trkpt>
      <trkpt lat="45.33541" lon="6.12366">
        <ele>1191.4000244141</ele>
        <time>2023-08-10T05:44:46.000Z</time>
      </trkpt>
      <trkpt lat="45.3354" lon="6.12367">
        <ele>1191.1999511719</ele>
        <time>2023-08-10T05:44:47.000Z</time>
      </trkpt>
      <trkpt lat="45.33539" lon="6.12368">
        <ele>1190.4000244141</ele>
        <time>2023-08-10T05:44:49.000Z</time>
      </trkpt>
      <trkpt lat="45.33538" lon="6.12369">
        <ele>1189.8000488281</ele>
        <time>2023-08-10T05:44:51.000Z</time>
      </trkpt>
      <trkpt lat="45.33536" lon="6.1237">
        <ele>1189.4000244141</ele>
        <time>2023-08-10T05:44:52.000Z</time>
      </trkpt>
      <trkpt lat="45.33535" lon="6.12369">
        <ele>1188.8000488281</ele>
        <time>2023-08-10T05:44:56.000Z</time>
      </trkpt>
      <trkpt lat="45.33534" lon="6.12369">
        <ele>1188.4000244141</ele>
        <time>2023-08-10T05:44:57.000Z</time>
      </trkpt>
      <trkpt lat="45.33533" lon="6.12368">
        <ele>1187.1999511719</ele>
        <time>2023-08-10T05:45:01.000Z</time>
      </trkpt>
      <trkpt lat="45.33532" lon="6.12364">
        <ele>1186</ele>
        <time>2023-08-10T05:45:05.000Z</time>
      </trkpt>
      <trkpt lat="45.33531" lon="6.12363">
        <ele>1185.5999755859</ele>
        <time>2023-08-10T05:45:06.000Z</time>
      </trkpt>
      <trkpt lat="45.33529" lon="6.12361">
        <ele>1184.8000488281</ele>
        <time>2023-08-10T05:45:09.000Z</time>
      </trkpt>
      <trkpt lat="45.33527" lon="6.12356">
        <ele>1183.8000488281</ele>
        <time>2023-08-10T05:45:13.000Z</time>
      </trkpt>
      <trkpt lat="45.33526" lon="6.12353">
        <ele>1183.1999511719</ele>
        <time>2023-08-10T05:45:16.000Z</time>
      </trkpt>
      <trkpt lat="45.33526" lon="6.12351">
        <ele>1182.4000244141</ele>
        <time>2023-08-10T05:45:18.000Z</time>
      </trkpt>
      <trkpt lat="45.33525" lon="6.12348">
        <ele>1181.1999511719</ele>
        <time>2023-08-10T05:45:23.000Z</time>
      </trkpt>
      <trkpt lat="45.33525" lon="6.12346">
        <ele>1180.5999755859</ele>
        <time>2023-08-10T05:45:25.000Z</time>
      </trkpt>
      <trkpt lat="45.33525" lon="6.12345">
        <ele>1180</ele>
        <time>2023-08-10T05:45:27.000Z</time>
      </trkpt>
      <trkpt lat="45.33525" lon="6.12342">
        <ele>1179.1999511719</ele>
        <time>2023-08-10T05:45:30.000Z</time>
      </trkpt>
      <trkpt lat="45.33524" lon="6.12342">
        <ele>1179</ele>
        <time>2023-08-10T05:45:31.000Z</time>
      </trkpt>
      <trkpt lat="45.33523" lon="6.12337">
        <ele>1178</ele>
        <time>2023-08-10T05:45:35.000Z</time>
      </trkpt>
      <trkpt lat="45.33521" lon="6.12333">
        <ele>1176.8000488281</ele>
        <time>2023-08-10T05:45:38.000Z</time>
      </trkpt>
      <trkpt lat="45.33518" lon="6.12329">
        <ele>1175.5999755859</ele>
        <time>2023-08-10T05:45:42.000Z</time>
      </trkpt>
      <trkpt lat="45.33516" lon="6.12327">
        <ele>1174.5999755859</ele>
        <time>2023-08-10T05:45:45.000Z</time>
      </trkpt>
      <trkpt lat="45.33516" lon="6.12327">
        <ele>1174.1999511719</ele>
        <time>2023-08-10T05:45:46.000Z</time>
      </trkpt>
      <trkpt lat="45.33516" lon="6.12325">
        <ele>1173.4000244141</ele>
        <time>2023-08-10T05:45:49.000Z</time>
      </trkpt>
      <trkpt lat="45.33517" lon="6.1232">
        <ele>1172.1999511719</ele>
        <time>2023-08-10T05:45:53.000Z</time>
      </trkpt>
      <trkpt lat="45.33517" lon="6.12315">
        <ele>1171.1999511719</ele>
        <time>2023-08-10T05:45:57.000Z</time>
      </trkpt>
      <trkpt lat="45.33517" lon="6.12314">
        <ele>1171</ele>
        <time>2023-08-10T05:45:58.000Z</time>
      </trkpt>
      <trkpt lat="45.33514" lon="6.12306">
        <ele>1169.8000488281</ele>
        <time>2023-08-10T05:46:03.000Z</time>
      </trkpt>
      <trkpt lat="45.3351" lon="6.12301">
        <ele>1168.8000488281</ele>
        <time>2023-08-10T05:46:07.000Z</time>
      </trkpt>
      <trkpt lat="45.33506" lon="6.12297">
        <ele>1167.4000244141</ele>
        <time>2023-08-10T05:46:11.000Z</time>
      </trkpt>
      <trkpt lat="45.33504" lon="6.12295">
        <ele>1166.4000244141</ele>
        <time>2023-08-10T05:46:14.000Z</time>
      </trkpt>
      <trkpt lat="45.33503" lon="6.12292">
        <ele>1165.4000244141</ele>
        <time>2023-08-10T05:46:19.000Z</time>
      </trkpt>
      <trkpt lat="45.33503" lon="6.1229">
        <ele>1165</ele>
        <time>2023-08-10T05:46:20.000Z</time>
      </trkpt>
      <trkpt lat="45.335" lon="6.12285">
        <ele>1164</ele>
        <time>2023-08-10T05:46:24.000Z</time>
      </trkpt>
      <trkpt lat="45.33497" lon="6.12283">
        <ele>1163</ele>
        <time>2023-08-10T05:46:28.000Z</time>
      </trkpt>
      <trkpt lat="45.33497" lon="6.12283">
        <ele>1162.5999755859</ele>
        <time>2023-08-10T05:46:29.000Z</time>
      </trkpt>
      <trkpt lat="45.33496" lon="6.12281">
        <ele>1161.8000488281</ele>
        <time>2023-08-10T05:46:33.000Z</time>
      </trkpt>
      <trkpt lat="45.33495" lon="6.12276">
        <ele>1160.5999755859</ele>
        <time>2023-08-10T05:46:37.000Z</time>
      </trkpt>
      <trkpt lat="45.33493" lon="6.1227">
        <ele>1159.4000244141</ele>
        <time>2023-08-10T05:46:41.000Z</time>
      </trkpt>
      <trkpt lat="45.3349" lon="6.12265">
        <ele>1158.5999755859</ele>
        <time>2023-08-10T05:46:45.000Z</time>
      </trkpt>
      <trkpt lat="45.3349" lon="6.12264">
        <ele>1158.4000244141</ele>
        <time>2023-08-10T05:46:46.000Z</time>
      </trkpt>
      <trkpt lat="45.33486" lon="6.12255">
        <ele>1157.1999511719</ele>
        <time>2023-08-10T05:46:52.000Z</time>
      </trkpt>
      <trkpt lat="45.33484" lon="6.12251">
        <ele>1156</ele>
        <time>2023-08-10T05:46:56.000Z</time>
      </trkpt>
      <trkpt lat="45.33483" lon="6.12248">
        <ele>1155</ele>
        <time>2023-08-10T05:46:59.000Z</time>
      </trkpt>
      <trkpt lat="45.33483" lon="6.12247">
        <ele>1154.8000488281</ele>
        <time>2023-08-10T05:47:00.000Z</time>
      </trkpt>
      <trkpt lat="45.33482" lon="6.12244">
        <ele>1153.8000488281</ele>
        <time>2023-08-10T05:47:04.000Z</time>
      </trkpt>
      <trkpt lat="45.33482" lon="6.12241">
        <ele>1152.5999755859</ele>
        <time>2023-08-10T05:47:08.000Z</time>
      </trkpt>
      <trkpt lat="45.33481" lon="6.12241">
        <ele>1152.1999511719</ele>
        <time>2023-08-10T05:47:10.000Z</time>
      </trkpt>
      <trkpt lat="45.3348" lon="6.12239">
        <ele>1152</ele>
        <time>2023-08-10T05:47:13.000Z</time>
      </trkpt>
      <trkpt lat="45.33481" lon="6.1224">
        <ele>1151.8000488281</ele>
        <time>2023-08-10T05:47:20.000Z</time>
      </trkpt>
      <trkpt lat="45.33478" lon="6.12232">
        <ele>1151.8000488281</ele>
        <time>2023-08-10T05:47:30.000Z</time>
      </trkpt>
      <trkpt lat="45.33478" lon="6.1223">
        <ele>1151.5999755859</ele>
        <time>2023-08-10T05:47:31.000Z</time>
      </trkpt>
      <trkpt lat="45.33477" lon="6.12227">
        <ele>1150.4000244141</ele>
        <time>2023-08-10T05:47:36.000Z</time>
      </trkpt>
      <trkpt lat="45.33477" lon="6.12225">
        <ele>1150</ele>
        <time>2023-08-10T05:47:37.000Z</time>
      </trkpt>
      <trkpt lat="45.33477" lon="6.12222">
        <ele>1149</ele>
        <time>2023-08-10T05:47:40.000Z</time>
      </trkpt>
      <trkpt lat="45.33477" lon="6.12219">
        <ele>1147.8000488281</ele>
        <time>2023-08-10T05:47:44.000Z</time>
      </trkpt>
      <trkpt lat="45.33476" lon="6.12215">
        <ele>1147.1999511719</ele>
        <time>2023-08-10T05:47:46.000Z</time>
      </trkpt>
      <trkpt lat="45.33475" lon="6.12214">
        <ele>1146.4000244141</ele>
        <time>2023-08-10T05:47:48.000Z</time>
      </trkpt>
      <trkpt lat="45.33475" lon="6.12212">
        <ele>1145.1999511719</ele>
        <time>2023-08-10T05:47:51.000Z</time>
      </trkpt>
      <trkpt lat="45.33475" lon="6.12211">
        <ele>1144.5999755859</ele>
        <time>2023-08-10T05:47:53.000Z</time>
      </trkpt>
      <trkpt lat="45.33475" lon="6.12208">
        <ele>1144.1999511719</ele>
        <time>2023-08-10T05:47:55.000Z</time>
      </trkpt>
      <trkpt lat="45.33475" lon="6.12204">
        <ele>1143</ele>
        <time>2023-08-10T05:47:59.000Z</time>
      </trkpt>
      <trkpt lat="45.33475" lon="6.122">
        <ele>1142</ele>
        <time>2023-08-10T05:48:02.000Z</time>
      </trkpt>
      <trkpt lat="45.33475" lon="6.12199">
        <ele>1141.8000488281</ele>
        <time>2023-08-10T05:48:03.000Z</time>
      </trkpt>
      <trkpt lat="45.33476" lon="6.12193">
        <ele>1140.8000488281</ele>
        <time>2023-08-10T05:48:07.000Z</time>
      </trkpt>
      <trkpt lat="45.33475" lon="6.12187">
        <ele>1139.8000488281</ele>
        <time>2023-08-10T05:48:12.000Z</time>
      </trkpt>
      <trkpt lat="45.33476" lon="6.12187">
        <ele>1139.5999755859</ele>
        <time>2023-08-10T05:48:13.000Z</time>
      </trkpt>
      <trkpt lat="45.33476" lon="6.12181">
        <ele>1138.4000244141</ele>
        <time>2023-08-10T05:48:17.000Z</time>
      </trkpt>
      <trkpt lat="45.33477" lon="6.12177">
        <ele>1137.4000244141</ele>
        <time>2023-08-10T05:48:20.000Z</time>
      </trkpt>
      <trkpt lat="45.33477" lon="6.12175">
        <ele>1137</ele>
        <time>2023-08-10T05:48:21.000Z</time>
      </trkpt>
      <trkpt lat="45.33478" lon="6.12172">
        <ele>1136.1999511719</ele>
        <time>2023-08-10T05:48:26.000Z</time>
      </trkpt>
      <trkpt lat="45.33479" lon="6.12171">
        <ele>1136</ele>
        <time>2023-08-10T05:48:27.000Z</time>
      </trkpt>
      <trkpt lat="45.3348" lon="6.12167">
        <ele>1135.1999511719</ele>
        <time>2023-08-10T05:48:31.000Z</time>
      </trkpt>
      <trkpt lat="45.33482" lon="6.12161">
        <ele>1134</ele>
        <time>2023-08-10T05:48:36.000Z</time>
      </trkpt>
      <trkpt lat="45.33482" lon="6.1216">
        <ele>1133.8000488281</ele>
        <time>2023-08-10T05:48:37.000Z</time>
      </trkpt>
      <trkpt lat="45.33484" lon="6.12155">
        <ele>1132.8000488281</ele>
        <time>2023-08-10T05:48:42.000Z</time>
      </trkpt>
      <trkpt lat="45.33485" lon="6.12152">
        <ele>1131.8000488281</ele>
        <time>2023-08-10T05:48:45.000Z</time>
      </trkpt>
      <trkpt lat="45.33486" lon="6.12149">
        <ele>1131.1999511719</ele>
        <time>2023-08-10T05:48:47.000Z</time>
      </trkpt>
      <trkpt lat="45.33486" lon="6.12148">
        <ele>1130.5999755859</ele>
        <time>2023-08-10T05:48:49.000Z</time>
      </trkpt>
      <trkpt lat="45.33487" lon="6.12143">
        <ele>1129.4000244141</ele>
        <time>2023-08-10T05:48:53.000Z</time>
      </trkpt>
      <trkpt lat="45.33487" lon="6.12138">
        <ele>1128.5999755859</ele>
        <time>2023-08-10T05:48:56.000Z</time>
      </trkpt>
      <trkpt lat="45.33487" lon="6.12137">
        <ele>1128.1999511719</ele>
        <time>2023-08-10T05:48:57.000Z</time>
      </trkpt>
      <trkpt lat="45.33486" lon="6.12132">
        <ele>1127</ele>
        <time>2023-08-10T05:49:00.000Z</time>
      </trkpt>
      <trkpt lat="45.33486" lon="6.12128">
        <ele>1125.8000488281</ele>
        <time>2023-08-10T05:49:05.000Z</time>
      </trkpt>
      <trkpt lat="45.33486" lon="6.12127">
        <ele>1125.5999755859</ele>
        <time>2023-08-10T05:49:06.000Z</time>
      </trkpt>
      <trkpt lat="45.33486" lon="6.12122">
        <ele>1124.8000488281</ele>
        <time>2023-08-10T05:49:10.000Z</time>
      </trkpt>
      <trkpt lat="45.33488" lon="6.12118">
        <ele>1123.5999755859</ele>
        <time>2023-08-10T05:49:14.000Z</time>
      </trkpt>
      <trkpt lat="45.33488" lon="6.12116">
        <ele>1123.4000244141</ele>
        <time>2023-08-10T05:49:15.000Z</time>
      </trkpt>
      <trkpt lat="45.3349" lon="6.12113">
        <ele>1122.4000244141</ele>
        <time>2023-08-10T05:49:18.000Z</time>
      </trkpt>
      <trkpt lat="45.33492" lon="6.1211">
        <ele>1121.4000244141</ele>
        <time>2023-08-10T05:49:22.000Z</time>
      </trkpt>
      <trkpt lat="45.33494" lon="6.12106">
        <ele>1120.4000244141</ele>
        <time>2023-08-10T05:49:25.000Z</time>
      </trkpt>
      <trkpt lat="45.33494" lon="6.12104">
        <ele>1120.1999511719</ele>
        <time>2023-08-10T05:49:26.000Z</time>
      </trkpt>
      <trkpt lat="45.33495" lon="6.12099">
        <ele>1119</ele>
        <time>2023-08-10T05:49:30.000Z</time>
      </trkpt>
      <trkpt lat="45.33495" lon="6.12096">
        <ele>1118</ele>
        <time>2023-08-10T05:49:33.000Z</time>
      </trkpt>
      <trkpt lat="45.33495" lon="6.12091">
        <ele>1116.8000488281</ele>
        <time>2023-08-10T05:49:37.000Z</time>
      </trkpt>
      <trkpt lat="45.33496" lon="6.12088">
        <ele>1116.1999511719</ele>
        <time>2023-08-10T05:49:39.000Z</time>
      </trkpt>
      <trkpt lat="45.33496" lon="6.12085">
        <ele>1115.8000488281</ele>
        <time>2023-08-10T05:49:41.000Z</time>
      </trkpt>
      <trkpt lat="45.33498" lon="6.12079">
        <ele>1114.5999755859</ele>
        <time>2023-08-10T05:49:46.000Z</time>
      </trkpt>
      <trkpt lat="45.33498" lon="6.12078">
        <ele>1114.4000244141</ele>
        <time>2023-08-10T05:49:48.000Z</time>
      </trkpt>
      <trkpt lat="45.33498" lon="6.12075">
        <ele>1113.5999755859</ele>
        <time>2023-08-10T05:49:51.000Z</time>
      </trkpt>
      <trkpt lat="45.33499" lon="6.12065">
        <ele>1112.4000244141</ele>
        <time>2023-08-10T05:49:56.000Z</time>
      </trkpt>
      <trkpt lat="45.33497" lon="6.12059">
        <ele>1111.4000244141</ele>
        <time>2023-08-10T05:50:00.000Z</time>
      </trkpt>
      <trkpt lat="45.33496" lon="6.12052">
        <ele>1110.4000244141</ele>
        <time>2023-08-10T05:50:04.000Z</time>
      </trkpt>
      <trkpt lat="45.33496" lon="6.1205">
        <ele>1109.5999755859</ele>
        <time>2023-08-10T05:50:06.000Z</time>
      </trkpt>
      <trkpt lat="45.33496" lon="6.12047">
        <ele>1109.1999511719</ele>
        <time>2023-08-10T05:50:08.000Z</time>
      </trkpt>
      <trkpt lat="45.33496" lon="6.12043">
        <ele>1108</ele>
        <time>2023-08-10T05:50:13.000Z</time>
      </trkpt>
      <trkpt lat="45.33495" lon="6.12043">
        <ele>1107.5999755859</ele>
        <time>2023-08-10T05:50:15.000Z</time>
      </trkpt>
      <trkpt lat="45.33494" lon="6.12043">
        <ele>1107.4000244141</ele>
        <time>2023-08-10T05:50:16.000Z</time>
      </trkpt>
      <trkpt lat="45.33494" lon="6.12043">
        <ele>1106.8000488281</ele>
        <time>2023-08-10T05:50:18.000Z</time>
      </trkpt>
      <trkpt lat="45.33494" lon="6.12038">
        <ele>1105.8000488281</ele>
        <time>2023-08-10T05:50:22.000Z</time>
      </trkpt>
      <trkpt lat="45.33495" lon="6.12032">
        <ele>1104.5999755859</ele>
        <time>2023-08-10T05:50:27.000Z</time>
      </trkpt>
      <trkpt lat="45.33495" lon="6.1203">
        <ele>1103.8000488281</ele>
        <time>2023-08-10T05:50:30.000Z</time>
      </trkpt>
      <trkpt lat="45.33495" lon="6.1203">
        <ele>1103.5999755859</ele>
        <time>2023-08-10T05:50:31.000Z</time>
      </trkpt>
      <trkpt lat="45.33491" lon="6.12027">
        <ele>1102.8000488281</ele>
        <time>2023-08-10T05:50:37.000Z</time>
      </trkpt>
      <trkpt lat="45.33491" lon="6.12025">
        <ele>1102.5999755859</ele>
        <time>2023-08-10T05:50:44.000Z</time>
      </trkpt>
      <trkpt lat="45.3349" lon="6.12026">
        <ele>1102.5999755859</ele>
        <time>2023-08-10T05:50:52.000Z</time>
      </trkpt>
      <trkpt lat="45.33488" lon="6.12028">
        <ele>1102.4000244141</ele>
        <time>2023-08-10T05:50:59.000Z</time>
      </trkpt>
      <trkpt lat="45.33489" lon="6.12024">
        <ele>1102.4000244141</ele>
        <time>2023-08-10T05:51:06.000Z</time>
      </trkpt>
      <trkpt lat="45.33488" lon="6.12025">
        <ele>1102.4000244141</ele>
        <time>2023-08-10T05:51:14.000Z</time>
      </trkpt>
      <trkpt lat="45.3349" lon="6.12028">
        <ele>1102.5999755859</ele>
        <time>2023-08-10T05:51:21.000Z</time>
      </trkpt>
      <trkpt lat="45.33489" lon="6.12027">
        <ele>1102.1999511719</ele>
        <time>2023-08-10T05:51:29.000Z</time>
      </trkpt>
      <trkpt lat="45.33488" lon="6.12025">
        <ele>1102</ele>
        <time>2023-08-10T05:51:36.000Z</time>
      </trkpt>
      <trkpt lat="45.33488" lon="6.12025">
        <ele>1102</ele>
        <time>2023-08-10T05:51:44.000Z</time>
      </trkpt>
      <trkpt lat="45.33488" lon="6.1203">
        <ele>1102.1999511719</ele>
        <time>2023-08-10T05:51:50.000Z</time>
      </trkpt>
      <trkpt lat="45.33487" lon="6.12027">
        <ele>1101.8000488281</ele>
        <time>2023-08-10T05:51:57.000Z</time>
      </trkpt>
      <trkpt lat="45.33487" lon="6.12032">
        <ele>1102</ele>
        <time>2023-08-10T05:52:05.000Z</time>
      </trkpt>
      <trkpt lat="45.33489" lon="6.12031">
        <ele>1101.8000488281</ele>
        <time>2023-08-10T05:52:17.000Z</time>
      </trkpt>
      <trkpt lat="45.3349" lon="6.12029">
        <ele>1102.4000244141</ele>
        <time>2023-08-10T05:52:28.000Z</time>
      </trkpt>
      <trkpt lat="45.33483" lon="6.12024">
        <ele>1102.4000244141</ele>
        <time>2023-08-10T05:52:34.000Z</time>
      </trkpt>
      <trkpt lat="45.33476" lon="6.12018">
        <ele>1102.1999511719</ele>
        <time>2023-08-10T05:52:41.000Z</time>
      </trkpt>
      <trkpt lat="45.33472" lon="6.12005">
        <ele>1102.1999511719</ele>
        <time>2023-08-10T05:52:47.000Z</time>
      </trkpt>
      <trkpt lat="45.33469" lon="6.11997">
        <ele>1102.5999755859</ele>
        <time>2023-08-10T05:52:54.000Z</time>
      </trkpt>
      <trkpt lat="45.33464" lon="6.11987">
        <ele>1103.4000244141</ele>
        <time>2023-08-10T05:53:00.000Z</time>
      </trkpt>
      <trkpt lat="45.33454" lon="6.11979">
        <ele>1103.1999511719</ele>
        <time>2023-08-10T05:53:08.000Z</time>
      </trkpt>
      <trkpt lat="45.33449" lon="6.11982">
        <ele>1103</ele>
        <time>2023-08-10T05:53:15.000Z</time>
      </trkpt>
      <trkpt lat="45.33446" lon="6.11982">
        <ele>1103.1999511719</ele>
        <time>2023-08-10T05:53:21.000Z</time>
      </trkpt>
      <trkpt lat="45.3344" lon="6.11982">
        <ele>1103.1999511719</ele>
        <time>2023-08-10T05:53:26.000Z</time>
      </trkpt>
      <trkpt lat="45.3343" lon="6.11986">
        <ele>1103.4000244141</ele>
        <time>2023-08-10T05:53:35.000Z</time>
      </trkpt>
      <trkpt lat="45.33416" lon="6.11995">
        <ele>1102.4000244141</ele>
        <time>2023-08-10T05:53:45.000Z</time>
      </trkpt>
      <trkpt lat="45.33404" lon="6.12003">
        <ele>1102.1999511719</ele>
        <time>2023-08-10T05:53:53.000Z</time>
      </trkpt>
      <trkpt lat="45.33391" lon="6.12009">
        <ele>1102.1999511719</ele>
        <time>2023-08-10T05:54:03.000Z</time>
      </trkpt>
      <trkpt lat="45.33382" lon="6.12012">
        <ele>1102</ele>
        <time>2023-08-10T05:54:10.000Z</time>
      </trkpt>
      <trkpt lat="45.33371" lon="6.12017">
        <ele>1101.5999755859</ele>
        <time>2023-08-10T05:54:18.000Z</time>
      </trkpt>
      <trkpt lat="45.33369" lon="6.12019">
        <ele>1101.4000244141</ele>
        <time>2023-08-10T05:54:20.000Z</time>
      </trkpt>
      <trkpt lat="45.33359" lon="6.12027">
        <ele>1101.4000244141</ele>
        <time>2023-08-10T05:54:29.000Z</time>
      </trkpt>
      <trkpt lat="45.33349" lon="6.12033">
        <ele>1101.5999755859</ele>
        <time>2023-08-10T05:54:37.000Z</time>
      </trkpt>
      <trkpt lat="45.33339" lon="6.1204">
        <ele>1101.4000244141</ele>
        <time>2023-08-10T05:54:45.000Z</time>
      </trkpt>
      <trkpt lat="45.33327" lon="6.1205">
        <ele>1101</ele>
        <time>2023-08-10T05:54:54.000Z</time>
      </trkpt>
      <trkpt lat="45.33319" lon="6.12054">
        <ele>1100.5999755859</ele>
        <time>2023-08-10T05:55:02.000Z</time>
      </trkpt>
      <trkpt lat="45.33314" lon="6.12056">
        <ele>1100.5999755859</ele>
        <time>2023-08-10T05:55:10.000Z</time>
      </trkpt>
      <trkpt lat="45.33315" lon="6.12057">
        <ele>1100.8000488281</ele>
        <time>2023-08-10T05:55:19.000Z</time>
      </trkpt>
      <trkpt lat="45.33313" lon="6.12056">
        <ele>1100.8000488281</ele>
        <time>2023-08-10T05:55:27.000Z</time>
      </trkpt>
      <trkpt lat="45.33313" lon="6.12059">
        <ele>1100.5999755859</ele>
        <time>2023-08-10T05:55:35.000Z</time>
      </trkpt>
      <trkpt lat="45.33313" lon="6.12054">
        <ele>1100.5999755859</ele>
        <time>2023-08-10T05:55:43.000Z</time>
      </trkpt>
      <trkpt lat="45.33308" lon="6.12052">
        <ele>1100.8000488281</ele>
        <time>2023-08-10T05:55:49.000Z</time>
      </trkpt>
      <trkpt lat="45.33306" lon="6.12053">
        <ele>1100.4000244141</ele>
        <time>2023-08-10T05:55:51.000Z</time>
      </trkpt>
      <trkpt lat="45.33303" lon="6.12053">
        <ele>1100</ele>
        <time>2023-08-10T05:55:55.000Z</time>
      </trkpt>
      <trkpt lat="45.33299" lon="6.12055">
        <ele>1099.4000244141</ele>
        <time>2023-08-10T05:56:01.000Z</time>
      </trkpt>
      <trkpt lat="45.33298" lon="6.12055">
        <ele>1099.4000244141</ele>
        <time>2023-08-10T05:56:02.000Z</time>
      </trkpt>
      <trkpt lat="45.33289" lon="6.12057">
        <ele>1098.1999511719</ele>
        <time>2023-08-10T05:56:10.000Z</time>
      </trkpt>
      <trkpt lat="45.33287" lon="6.12057">
        <ele>1098</ele>
        <time>2023-08-10T05:56:12.000Z</time>
      </trkpt>
      <trkpt lat="45.33278" lon="6.12057">
        <ele>1097.1999511719</ele>
        <time>2023-08-10T05:56:18.000Z</time>
      </trkpt>
      <trkpt lat="45.33275" lon="6.12058">
        <ele>1097</ele>
        <time>2023-08-10T05:56:20.000Z</time>
      </trkpt>
      <trkpt lat="45.3327" lon="6.1206">
        <ele>1096.1999511719</ele>
        <time>2023-08-10T05:56:24.000Z</time>
      </trkpt>
      <trkpt lat="45.33268" lon="6.12059">
        <ele>1096</ele>
        <time>2023-08-10T05:56:27.000Z</time>
      </trkpt>
      <trkpt lat="45.33259" lon="6.12055">
        <ele>1095</ele>
        <time>2023-08-10T05:56:34.000Z</time>
      </trkpt>
      <trkpt lat="45.33253" lon="6.12047">
        <ele>1094.1999511719</ele>
        <time>2023-08-10T05:56:41.000Z</time>
      </trkpt>
      <trkpt lat="45.33251" lon="6.12044">
        <ele>1094</ele>
        <time>2023-08-10T05:56:43.000Z</time>
      </trkpt>
      <trkpt lat="45.33248" lon="6.12038">
        <ele>1093.4000244141</ele>
        <time>2023-08-10T05:56:48.000Z</time>
      </trkpt>
      <trkpt lat="45.33244" lon="6.12031">
        <ele>1093</ele>
        <time>2023-08-10T05:56:53.000Z</time>
      </trkpt>
      <trkpt lat="45.33244" lon="6.1203">
        <ele>1092.8000488281</ele>
        <time>2023-08-10T05:56:56.000Z</time>
      </trkpt>
      <trkpt lat="45.33245" lon="6.12029">
        <ele>1093</ele>
        <time>2023-08-10T05:57:05.000Z</time>
      </trkpt>
      <trkpt lat="45.33242" lon="6.12026">
        <ele>1093</ele>
        <time>2023-08-10T05:57:13.000Z</time>
      </trkpt>
      <trkpt lat="45.33228" lon="6.1202">
        <ele>1093.1999511719</ele>
        <time>2023-08-10T05:57:25.000Z</time>
      </trkpt>
      <trkpt lat="45.33218" lon="6.12016">
        <ele>1093</ele>
        <time>2023-08-10T05:57:34.000Z</time>
      </trkpt>
      <trkpt lat="45.33212" lon="6.12011">
        <ele>1093.4000244141</ele>
        <time>2023-08-10T05:57:42.000Z</time>
      </trkpt>
      <trkpt lat="45.33209" lon="6.12006">
        <ele>1093.4000244141</ele>
        <time>2023-08-10T05:57:49.000Z</time>
      </trkpt>
      <trkpt lat="45.33204" lon="6.11995">
        <ele>1094</ele>
        <time>2023-08-10T05:57:55.000Z</time>
      </trkpt>
      <trkpt lat="45.33204" lon="6.11993">
        <ele>1094.1999511719</ele>
        <time>2023-08-10T05:57:56.000Z</time>
      </trkpt>
      <trkpt lat="45.33196" lon="6.11982">
        <ele>1094.5999755859</ele>
        <time>2023-08-10T05:58:03.000Z</time>
      </trkpt>
      <trkpt lat="45.33196" lon="6.11981">
        <ele>1095.1999511719</ele>
        <time>2023-08-10T05:58:06.000Z</time>
      </trkpt>
      <trkpt lat="45.33195" lon="6.11981">
        <ele>1095.4000244141</ele>
        <time>2023-08-10T05:58:09.000Z</time>
      </trkpt>
      <trkpt lat="45.33191" lon="6.1198">
        <ele>1096.1999511719</ele>
        <time>2023-08-10T05:58:16.000Z</time>
      </trkpt>
      <trkpt lat="45.33189" lon="6.1198">
        <ele>1096.5999755859</ele>
        <time>2023-08-10T05:58:19.000Z</time>
      </trkpt>
      <trkpt lat="45.33181" lon="6.11976">
        <ele>1097.1999511719</ele>
        <time>2023-08-10T05:58:25.000Z</time>
      </trkpt>
      <trkpt lat="45.33176" lon="6.11971">
        <ele>1097.4000244141</ele>
        <time>2023-08-10T05:58:29.000Z</time>
      </trkpt>
      <trkpt lat="45.33164" lon="6.11962">
        <ele>1098</ele>
        <time>2023-08-10T05:58:38.000Z</time>
      </trkpt>
      <trkpt lat="45.33163" lon="6.11962">
        <ele>1098.1999511719</ele>
        <time>2023-08-10T05:58:40.000Z</time>
      </trkpt>
      <trkpt lat="45.33157" lon="6.11961">
        <ele>1099</ele>
        <time>2023-08-10T05:58:46.000Z</time>
      </trkpt>
      <trkpt lat="45.33156" lon="6.1196">
        <ele>1099.1999511719</ele>
        <time>2023-08-10T05:58:47.000Z</time>
      </trkpt>
      <trkpt lat="45.33147" lon="6.11954">
        <ele>1100.4000244141</ele>
        <time>2023-08-10T05:58:55.000Z</time>
      </trkpt>
      <trkpt lat="45.33142" lon="6.11955">
        <ele>1101.4000244141</ele>
        <time>2023-08-10T05:59:02.000Z</time>
      </trkpt>
      <trkpt lat="45.33141" lon="6.11955">
        <ele>1101.4000244141</ele>
        <time>2023-08-10T05:59:03.000Z</time>
      </trkpt>
      <trkpt lat="45.33136" lon="6.11957">
        <ele>1102.1999511719</ele>
        <time>2023-08-10T05:59:11.000Z</time>
      </trkpt>
      <trkpt lat="45.33134" lon="6.11958">
        <ele>1102.4000244141</ele>
        <time>2023-08-10T05:59:13.000Z</time>
      </trkpt>
      <trkpt lat="45.3313" lon="6.11956">
        <ele>1102.8000488281</ele>
        <time>2023-08-10T05:59:19.000Z</time>
      </trkpt>
      <trkpt lat="45.33127" lon="6.11956">
        <ele>1103.4000244141</ele>
        <time>2023-08-10T05:59:23.000Z</time>
      </trkpt>
      <trkpt lat="45.3312" lon="6.11953">
        <ele>1103.5999755859</ele>
        <time>2023-08-10T05:59:34.000Z</time>
      </trkpt>
      <trkpt lat="45.33116" lon="6.1195">
        <ele>1104</ele>
        <time>2023-08-10T05:59:40.000Z</time>
      </trkpt>
      <trkpt lat="45.33115" lon="6.11948">
        <ele>1104.4000244141</ele>
        <time>2023-08-10T05:59:42.000Z</time>
      </trkpt>
      <trkpt lat="45.33111" lon="6.1194">
        <ele>1104.8000488281</ele>
        <time>2023-08-10T05:59:46.000Z</time>
      </trkpt>
      <trkpt lat="45.33104" lon="6.11925">
        <ele>1105.1999511719</ele>
        <time>2023-08-10T05:59:55.000Z</time>
      </trkpt>
      <trkpt lat="45.33104" lon="6.11922">
        <ele>1105.4000244141</ele>
        <time>2023-08-10T05:59:57.000Z</time>
      </trkpt>
      <trkpt lat="45.33104" lon="6.11919">
        <ele>1106.1999511719</ele>
        <time>2023-08-10T06:00:01.000Z</time>
      </trkpt>
      <trkpt lat="45.33104" lon="6.11916">
        <ele>1106.5999755859</ele>
        <time>2023-08-10T06:00:05.000Z</time>
      </trkpt>
      <trkpt lat="45.33104" lon="6.11911">
        <ele>1107.5999755859</ele>
        <time>2023-08-10T06:00:10.000Z</time>
      </trkpt>
      <trkpt lat="45.33104" lon="6.11909">
        <ele>1107.8000488281</ele>
        <time>2023-08-10T06:00:11.000Z</time>
      </trkpt>
      <trkpt lat="45.33106" lon="6.11903">
        <ele>1108.8000488281</ele>
        <time>2023-08-10T06:00:17.000Z</time>
      </trkpt>
      <trkpt lat="45.33106" lon="6.11903">
        <ele>1109.1999511719</ele>
        <time>2023-08-10T06:00:18.000Z</time>
      </trkpt>
      <trkpt lat="45.33109" lon="6.11898">
        <ele>1110</ele>
        <time>2023-08-10T06:00:22.000Z</time>
      </trkpt>
      <trkpt lat="45.3311" lon="6.11896">
        <ele>1110.5999755859</ele>
        <time>2023-08-10T06:00:26.000Z</time>
      </trkpt>
      <trkpt lat="45.33111" lon="6.11894">
        <ele>1111</ele>
        <time>2023-08-10T06:00:28.000Z</time>
      </trkpt>
      <trkpt lat="45.3311" lon="6.11891">
        <ele>1112</ele>
        <time>2023-08-10T06:00:34.000Z</time>
      </trkpt>
      <trkpt lat="45.33112" lon="6.11889">
        <ele>1113.1999511719</ele>
        <time>2023-08-10T06:00:38.000Z</time>
      </trkpt>
      <trkpt lat="45.33115" lon="6.11888">
        <ele>1113.8000488281</ele>
        <time>2023-08-10T06:00:42.000Z</time>
      </trkpt>
      <trkpt lat="45.33116" lon="6.11888">
        <ele>1114.1999511719</ele>
        <time>2023-08-10T06:00:44.000Z</time>
      </trkpt>
      <trkpt lat="45.33116" lon="6.11886">
        <ele>1115.1999511719</ele>
        <time>2023-08-10T06:00:49.000Z</time>
      </trkpt>
      <trkpt lat="45.33117" lon="6.11885">
        <ele>1115.4000244141</ele>
        <time>2023-08-10T06:00:50.000Z</time>
      </trkpt>
      <trkpt lat="45.33117" lon="6.11878">
        <ele>1116.4000244141</ele>
        <time>2023-08-10T06:00:55.000Z</time>
      </trkpt>
      <trkpt lat="45.33118" lon="6.11876">
        <ele>1116.8000488281</ele>
        <time>2023-08-10T06:00:57.000Z</time>
      </trkpt>
      <trkpt lat="45.33119" lon="6.11872">
        <ele>1117.5999755859</ele>
        <time>2023-08-10T06:01:01.000Z</time>
      </trkpt>
      <trkpt lat="45.3312" lon="6.11868">
        <ele>1118.1999511719</ele>
        <time>2023-08-10T06:01:04.000Z</time>
      </trkpt>
      <trkpt lat="45.33122" lon="6.11865">
        <ele>1118.5999755859</ele>
        <time>2023-08-10T06:01:07.000Z</time>
      </trkpt>
      <trkpt lat="45.33126" lon="6.11864">
        <ele>1119.8000488281</ele>
        <time>2023-08-10T06:01:13.000Z</time>
      </trkpt>
      <trkpt lat="45.33128" lon="6.11865">
        <ele>1121</ele>
        <time>2023-08-10T06:01:18.000Z</time>
      </trkpt>
      <trkpt lat="45.33129" lon="6.11863">
        <ele>1121.4000244141</ele>
        <time>2023-08-10T06:01:20.000Z</time>
      </trkpt>
      <trkpt lat="45.33131" lon="6.11858">
        <ele>1122</ele>
        <time>2023-08-10T06:01:24.000Z</time>
      </trkpt>
      <trkpt lat="45.33131" lon="6.11854">
        <ele>1122.8000488281</ele>
        <time>2023-08-10T06:01:28.000Z</time>
      </trkpt>
      <trkpt lat="45.33131" lon="6.11852">
        <ele>1123</ele>
        <time>2023-08-10T06:01:29.000Z</time>
      </trkpt>
      <trkpt lat="45.33132" lon="6.11848">
        <ele>1124.1999511719</ele>
        <time>2023-08-10T06:01:35.000Z</time>
      </trkpt>
      <trkpt lat="45.33133" lon="6.11845">
        <ele>1124.5999755859</ele>
        <time>2023-08-10T06:01:37.000Z</time>
      </trkpt>
      <trkpt lat="45.33133" lon="6.11845">
        <ele>1125.1999511719</ele>
        <time>2023-08-10T06:01:40.000Z</time>
      </trkpt>
      <trkpt lat="45.33133" lon="6.11846">
        <ele>1126</ele>
        <time>2023-08-10T06:01:44.000Z</time>
      </trkpt>
      <trkpt lat="45.33133" lon="6.11843">
        <ele>1126.4000244141</ele>
        <time>2023-08-10T06:01:46.000Z</time>
      </trkpt>
      <trkpt lat="45.33134" lon="6.1184">
        <ele>1127.4000244141</ele>
        <time>2023-08-10T06:01:50.000Z</time>
      </trkpt>
      <trkpt lat="45.33134" lon="6.11839">
        <ele>1127.5999755859</ele>
        <time>2023-08-10T06:01:51.000Z</time>
      </trkpt>
      <trkpt lat="45.33135" lon="6.11835">
        <ele>1128.5999755859</ele>
        <time>2023-08-10T06:01:57.000Z</time>
      </trkpt>
      <trkpt lat="45.33135" lon="6.11835">
        <ele>1128.8000488281</ele>
        <time>2023-08-10T06:01:58.000Z</time>
      </trkpt>
      <trkpt lat="45.33136" lon="6.11831">
        <ele>1129.8000488281</ele>
        <time>2023-08-10T06:02:03.000Z</time>
      </trkpt>
      <trkpt lat="45.33136" lon="6.11828">
        <ele>1130.4000244141</ele>
        <time>2023-08-10T06:02:06.000Z</time>
      </trkpt>
      <trkpt lat="45.33136" lon="6.11826">
        <ele>1130.8000488281</ele>
        <time>2023-08-10T06:02:09.000Z</time>
      </trkpt>
      <trkpt lat="45.33136" lon="6.11822">
        <ele>1132</ele>
        <time>2023-08-10T06:02:15.000Z</time>
      </trkpt>
      <trkpt lat="45.33136" lon="6.11815">
        <ele>1133</ele>
        <time>2023-08-10T06:02:21.000Z</time>
      </trkpt>
      <trkpt lat="45.33136" lon="6.11813">
        <ele>1133.1999511719</ele>
        <time>2023-08-10T06:02:23.000Z</time>
      </trkpt>
      <trkpt lat="45.33135" lon="6.1181">
        <ele>1134</ele>
        <time>2023-08-10T06:02:27.000Z</time>
      </trkpt>
      <trkpt lat="45.33136" lon="6.11807">
        <ele>1134.5999755859</ele>
        <time>2023-08-10T06:02:30.000Z</time>
      </trkpt>
      <trkpt lat="45.33136" lon="6.11804">
        <ele>1135.1999511719</ele>
        <time>2023-08-10T06:02:33.000Z</time>
      </trkpt>
      <trkpt lat="45.33137" lon="6.11799">
        <ele>1136</ele>
        <time>2023-08-10T06:02:39.000Z</time>
      </trkpt>
      <trkpt lat="45.33137" lon="6.11798">
        <ele>1136.4000244141</ele>
        <time>2023-08-10T06:02:40.000Z</time>
      </trkpt>
      <trkpt lat="45.33137" lon="6.11791">
        <ele>1137.4000244141</ele>
        <time>2023-08-10T06:02:46.000Z</time>
      </trkpt>
      <trkpt lat="45.33138" lon="6.11789">
        <ele>1137.8000488281</ele>
        <time>2023-08-10T06:02:48.000Z</time>
      </trkpt>
      <trkpt lat="45.33138" lon="6.11787">
        <ele>1138.5999755859</ele>
        <time>2023-08-10T06:02:52.000Z</time>
      </trkpt>
      <trkpt lat="45.33141" lon="6.11784">
        <ele>1139.1999511719</ele>
        <time>2023-08-10T06:02:56.000Z</time>
      </trkpt>
      <trkpt lat="45.33141" lon="6.11782">
        <ele>1139.5999755859</ele>
        <time>2023-08-10T06:02:58.000Z</time>
      </trkpt>
      <trkpt lat="45.33143" lon="6.11778">
        <ele>1140.8000488281</ele>
        <time>2023-08-10T06:03:04.000Z</time>
      </trkpt>
      <trkpt lat="45.33144" lon="6.11771">
        <ele>1141.8000488281</ele>
        <time>2023-08-10T06:03:10.000Z</time>
      </trkpt>
      <trkpt lat="45.33144" lon="6.11769">
        <ele>1142</ele>
        <time>2023-08-10T06:03:11.000Z</time>
      </trkpt>
      <trkpt lat="45.33144" lon="6.11767">
        <ele>1143</ele>
        <time>2023-08-10T06:03:16.000Z</time>
      </trkpt>
      <trkpt lat="45.33145" lon="6.11766">
        <ele>1143.1999511719</ele>
        <time>2023-08-10T06:03:18.000Z</time>
      </trkpt>
      <trkpt lat="45.33145" lon="6.11765">
        <ele>1144</ele>
        <time>2023-08-10T06:03:22.000Z</time>
      </trkpt>
      <trkpt lat="45.33146" lon="6.11763">
        <ele>1144.4000244141</ele>
        <time>2023-08-10T06:03:24.000Z</time>
      </trkpt>
      <trkpt lat="45.33146" lon="6.11761">
        <ele>1145.1999511719</ele>
        <time>2023-08-10T06:03:28.000Z</time>
      </trkpt>
      <trkpt lat="45.33146" lon="6.1176">
        <ele>1146</ele>
        <time>2023-08-10T06:03:33.000Z</time>
      </trkpt>
      <trkpt lat="45.33147" lon="6.11759">
        <ele>1146.1999511719</ele>
        <time>2023-08-10T06:03:34.000Z</time>
      </trkpt>
      <trkpt lat="45.33148" lon="6.11752">
        <ele>1147</ele>
        <time>2023-08-10T06:03:39.000Z</time>
      </trkpt>
      <trkpt lat="45.33148" lon="6.11751">
        <ele>1147.1999511719</ele>
        <time>2023-08-10T06:03:41.000Z</time>
      </trkpt>
      <trkpt lat="45.33147" lon="6.11749">
        <ele>1148.4000244141</ele>
        <time>2023-08-10T06:03:47.000Z</time>
      </trkpt>
      <trkpt lat="45.33146" lon="6.11741">
        <ele>1149.4000244141</ele>
        <time>2023-08-10T06:03:53.000Z</time>
      </trkpt>
      <trkpt lat="45.33146" lon="6.11739">
        <ele>1149.8000488281</ele>
        <time>2023-08-10T06:03:56.000Z</time>
      </trkpt>
      <trkpt lat="45.33145" lon="6.11737">
        <ele>1150.4000244141</ele>
        <time>2023-08-10T06:04:00.000Z</time>
      </trkpt>
      <trkpt lat="45.33145" lon="6.11729">
        <ele>1151.4000244141</ele>
        <time>2023-08-10T06:04:05.000Z</time>
      </trkpt>
      <trkpt lat="45.33145" lon="6.11727">
        <ele>1151.5999755859</ele>
        <time>2023-08-10T06:04:06.000Z</time>
      </trkpt>
      <trkpt lat="45.33147" lon="6.11723">
        <ele>1152.5999755859</ele>
        <time>2023-08-10T06:04:12.000Z</time>
      </trkpt>
      <trkpt lat="45.33147" lon="6.11722">
        <ele>1152.8000488281</ele>
        <time>2023-08-10T06:04:13.000Z</time>
      </trkpt>
      <trkpt lat="45.33146" lon="6.11713">
        <ele>1154</ele>
        <time>2023-08-10T06:04:20.000Z</time>
      </trkpt>
      <trkpt lat="45.33143" lon="6.11708">
        <ele>1155</ele>
        <time>2023-08-10T06:04:27.000Z</time>
      </trkpt>
      <trkpt lat="45.33143" lon="6.11708">
        <ele>1155.1999511719</ele>
        <time>2023-08-10T06:04:28.000Z</time>
      </trkpt>
      <trkpt lat="45.33142" lon="6.11704">
        <ele>1156.1999511719</ele>
        <time>2023-08-10T06:04:34.000Z</time>
      </trkpt>
      <trkpt lat="45.3314" lon="6.11702">
        <ele>1156.8000488281</ele>
        <time>2023-08-10T06:04:37.000Z</time>
      </trkpt>
      <trkpt lat="45.3314" lon="6.11701">
        <ele>1157.1999511719</ele>
        <time>2023-08-10T06:04:40.000Z</time>
      </trkpt>
      <trkpt lat="45.33138" lon="6.117">
        <ele>1158</ele>
        <time>2023-08-10T06:04:44.000Z</time>
      </trkpt>
      <trkpt lat="45.33138" lon="6.11698">
        <ele>1158.4000244141</ele>
        <time>2023-08-10T06:04:46.000Z</time>
      </trkpt>
      <trkpt lat="45.33134" lon="6.11691">
        <ele>1159.4000244141</ele>
        <time>2023-08-10T06:04:52.000Z</time>
      </trkpt>
      <trkpt lat="45.33135" lon="6.11691">
        <ele>1159.5999755859</ele>
        <time>2023-08-10T06:04:53.000Z</time>
      </trkpt>
      <trkpt lat="45.33132" lon="6.11686">
        <ele>1160.5999755859</ele>
        <time>2023-08-10T06:04:59.000Z</time>
      </trkpt>
      <trkpt lat="45.33128" lon="6.11681">
        <ele>1161.5999755859</ele>
        <time>2023-08-10T06:05:05.000Z</time>
      </trkpt>
      <trkpt lat="45.33127" lon="6.1168">
        <ele>1161.8000488281</ele>
        <time>2023-08-10T06:05:06.000Z</time>
      </trkpt>
      <trkpt lat="45.33125" lon="6.11677">
        <ele>1162.8000488281</ele>
        <time>2023-08-10T06:05:10.000Z</time>
      </trkpt>
      <trkpt lat="45.33125" lon="6.11678">
        <ele>1163.1999511719</ele>
        <time>2023-08-10T06:05:14.000Z</time>
      </trkpt>
      <trkpt lat="45.33123" lon="6.11676">
        <ele>1163.8000488281</ele>
        <time>2023-08-10T06:05:17.000Z</time>
      </trkpt>
      <trkpt lat="45.33121" lon="6.1167">
        <ele>1164.8000488281</ele>
        <time>2023-08-10T06:05:22.000Z</time>
      </trkpt>
      <trkpt lat="45.33121" lon="6.11669">
        <ele>1165</ele>
        <time>2023-08-10T06:05:23.000Z</time>
      </trkpt>
      <trkpt lat="45.33117" lon="6.11664">
        <ele>1166</ele>
        <time>2023-08-10T06:05:29.000Z</time>
      </trkpt>
      <trkpt lat="45.33117" lon="6.11664">
        <ele>1166.1999511719</ele>
        <time>2023-08-10T06:05:30.000Z</time>
      </trkpt>
      <trkpt lat="45.33118" lon="6.11664">
        <ele>1167.1999511719</ele>
        <time>2023-08-10T06:05:35.000Z</time>
      </trkpt>
      <trkpt lat="45.33116" lon="6.11661">
        <ele>1168.1999511719</ele>
        <time>2023-08-10T06:05:40.000Z</time>
      </trkpt>
      <trkpt lat="45.33116" lon="6.1166">
        <ele>1168.1999511719</ele>
        <time>2023-08-10T06:05:41.000Z</time>
      </trkpt>
      <trkpt lat="45.33114" lon="6.11656">
        <ele>1169.1999511719</ele>
        <time>2023-08-10T06:05:47.000Z</time>
      </trkpt>
      <trkpt lat="45.33112" lon="6.11654">
        <ele>1169.8000488281</ele>
        <time>2023-08-10T06:05:49.000Z</time>
      </trkpt>
      <trkpt lat="45.3311" lon="6.11652">
        <ele>1170.4000244141</ele>
        <time>2023-08-10T06:05:52.000Z</time>
      </trkpt>
      <trkpt lat="45.33107" lon="6.11648">
        <ele>1171.1999511719</ele>
        <time>2023-08-10T06:05:57.000Z</time>
      </trkpt>
      <trkpt lat="45.33107" lon="6.11647">
        <ele>1171.4000244141</ele>
        <time>2023-08-10T06:05:59.000Z</time>
      </trkpt>
      <trkpt lat="45.33107" lon="6.11643">
        <ele>1172.4000244141</ele>
        <time>2023-08-10T06:06:04.000Z</time>
      </trkpt>
      <trkpt lat="45.33108" lon="6.11641">
        <ele>1173</ele>
        <time>2023-08-10T06:06:07.000Z</time>
      </trkpt>
      <trkpt lat="45.33108" lon="6.11638">
        <ele>1173.5999755859</ele>
        <time>2023-08-10T06:06:09.000Z</time>
      </trkpt>
      <trkpt lat="45.33111" lon="6.11629">
        <ele>1174.8000488281</ele>
        <time>2023-08-10T06:06:16.000Z</time>
      </trkpt>
      <trkpt lat="45.33112" lon="6.11626">
        <ele>1175</ele>
        <time>2023-08-10T06:06:18.000Z</time>
      </trkpt>
      <trkpt lat="45.33115" lon="6.11615">
        <ele>1175.5999755859</ele>
        <time>2023-08-10T06:06:26.000Z</time>
      </trkpt>
      <trkpt lat="45.33111" lon="6.11608">
        <ele>1175.8000488281</ele>
        <time>2023-08-10T06:06:37.000Z</time>
      </trkpt>
      <trkpt lat="45.33117" lon="6.11607">
        <ele>1176</ele>
        <time>2023-08-10T06:06:43.000Z</time>
      </trkpt>
      <trkpt lat="45.33121" lon="6.11608">
        <ele>1176.4000244141</ele>
        <time>2023-08-10T06:06:48.000Z</time>
      </trkpt>
      <trkpt lat="45.33123" lon="6.11608">
        <ele>1176.8000488281</ele>
        <time>2023-08-10T06:06:50.000Z</time>
      </trkpt>
      <trkpt lat="45.33129" lon="6.11608">
        <ele>1178</ele>
        <time>2023-08-10T06:06:58.000Z</time>
      </trkpt>
      <trkpt lat="45.33129" lon="6.11608">
        <ele>1178.1999511719</ele>
        <time>2023-08-10T06:06:59.000Z</time>
      </trkpt>
      <trkpt lat="45.33132" lon="6.11606">
        <ele>1179</ele>
        <time>2023-08-10T06:07:05.000Z</time>
      </trkpt>
      <trkpt lat="45.33134" lon="6.11604">
        <ele>1179.5999755859</ele>
        <time>2023-08-10T06:07:08.000Z</time>
      </trkpt>
      <trkpt lat="45.33135" lon="6.11602">
        <ele>1180.1999511719</ele>
        <time>2023-08-10T06:07:11.000Z</time>
      </trkpt>
      <trkpt lat="45.33137" lon="6.11599">
        <ele>1181</ele>
        <time>2023-08-10T06:07:16.000Z</time>
      </trkpt>
      <trkpt lat="45.33138" lon="6.11598">
        <ele>1181.4000244141</ele>
        <time>2023-08-10T06:07:18.000Z</time>
      </trkpt>
      <trkpt lat="45.33143" lon="6.11598">
        <ele>1182.1999511719</ele>
        <time>2023-08-10T06:07:23.000Z</time>
      </trkpt>
      <trkpt lat="45.33144" lon="6.11598">
        <ele>1182.4000244141</ele>
        <time>2023-08-10T06:07:24.000Z</time>
      </trkpt>
      <trkpt lat="45.33148" lon="6.11594">
        <ele>1183.5999755859</ele>
        <time>2023-08-10T06:07:30.000Z</time>
      </trkpt>
      <trkpt lat="45.33148" lon="6.11592">
        <ele>1184</ele>
        <time>2023-08-10T06:07:32.000Z</time>
      </trkpt>
      <trkpt lat="45.33149" lon="6.11588">
        <ele>1184.8000488281</ele>
        <time>2023-08-10T06:07:37.000Z</time>
      </trkpt>
      <trkpt lat="45.3315" lon="6.11585">
        <ele>1185.5999755859</ele>
        <time>2023-08-10T06:07:41.000Z</time>
      </trkpt>
      <trkpt lat="45.3315" lon="6.11584">
        <ele>1185.8000488281</ele>
        <time>2023-08-10T06:07:42.000Z</time>
      </trkpt>
      <trkpt lat="45.33151" lon="6.11583">
        <ele>1186.5999755859</ele>
        <time>2023-08-10T06:07:47.000Z</time>
      </trkpt>
      <trkpt lat="45.33151" lon="6.11583">
        <ele>1186.8000488281</ele>
        <time>2023-08-10T06:07:48.000Z</time>
      </trkpt>
      <trkpt lat="45.33153" lon="6.11582">
        <ele>1188</ele>
        <time>2023-08-10T06:07:53.000Z</time>
      </trkpt>
      <trkpt lat="45.33154" lon="6.1158">
        <ele>1188.4000244141</ele>
        <time>2023-08-10T06:07:55.000Z</time>
      </trkpt>
      <trkpt lat="45.33155" lon="6.11581">
        <ele>1189</ele>
        <time>2023-08-10T06:07:58.000Z</time>
      </trkpt>
      <trkpt lat="45.33156" lon="6.11581">
        <ele>1189.5999755859</ele>
        <time>2023-08-10T06:08:02.000Z</time>
      </trkpt>
      <trkpt lat="45.33157" lon="6.11583">
        <ele>1190.1999511719</ele>
        <time>2023-08-10T06:08:05.000Z</time>
      </trkpt>
      <trkpt lat="45.33159" lon="6.11584">
        <ele>1191.1999511719</ele>
        <time>2023-08-10T06:08:10.000Z</time>
      </trkpt>
      <trkpt lat="45.3316" lon="6.11584">
        <ele>1191.4000244141</ele>
        <time>2023-08-10T06:08:11.000Z</time>
      </trkpt>
      <trkpt lat="45.33163" lon="6.11585">
        <ele>1192.5999755859</ele>
        <time>2023-08-10T06:08:17.000Z</time>
      </trkpt>
      <trkpt lat="45.33164" lon="6.11585">
        <ele>1192.8000488281</ele>
        <time>2023-08-10T06:08:18.000Z</time>
      </trkpt>
      <trkpt lat="45.33165" lon="6.11583">
        <ele>1193.8000488281</ele>
        <time>2023-08-10T06:08:23.000Z</time>
      </trkpt>
      <trkpt lat="45.33166" lon="6.1158">
        <ele>1194.4000244141</ele>
        <time>2023-08-10T06:08:27.000Z</time>
      </trkpt>
      <trkpt lat="45.33166" lon="6.1158">
        <ele>1194.8000488281</ele>
        <time>2023-08-10T06:08:29.000Z</time>
      </trkpt>
      <trkpt lat="45.33169" lon="6.11577">
        <ele>1195.8000488281</ele>
        <time>2023-08-10T06:08:34.000Z</time>
      </trkpt>
      <trkpt lat="45.3317" lon="6.11575">
        <ele>1196</ele>
        <time>2023-08-10T06:08:35.000Z</time>
      </trkpt>
      <trkpt lat="45.33172" lon="6.11575">
        <ele>1196.8000488281</ele>
        <time>2023-08-10T06:08:39.000Z</time>
      </trkpt>
      <trkpt lat="45.33172" lon="6.11575">
        <ele>1197.1999511719</ele>
        <time>2023-08-10T06:08:40.000Z</time>
      </trkpt>
      <trkpt lat="45.33176" lon="6.11574">
        <ele>1198.1999511719</ele>
        <time>2023-08-10T06:08:46.000Z</time>
      </trkpt>
      <trkpt lat="45.33178" lon="6.11573">
        <ele>1198.8000488281</ele>
        <time>2023-08-10T06:08:49.000Z</time>
      </trkpt>
      <trkpt lat="45.33181" lon="6.11572">
        <ele>1199.4000244141</ele>
        <time>2023-08-10T06:08:52.000Z</time>
      </trkpt>
      <trkpt lat="45.33183" lon="6.11569">
        <ele>1200</ele>
        <time>2023-08-10T06:08:55.000Z</time>
      </trkpt>
      <trkpt lat="45.33185" lon="6.11569">
        <ele>1200.5999755859</ele>
        <time>2023-08-10T06:08:58.000Z</time>
      </trkpt>
      <trkpt lat="45.33189" lon="6.11569">
        <ele>1201.5999755859</ele>
        <time>2023-08-10T06:09:03.000Z</time>
      </trkpt>
      <trkpt lat="45.3319" lon="6.11568">
        <ele>1201.8000488281</ele>
        <time>2023-08-10T06:09:04.000Z</time>
      </trkpt>
      <trkpt lat="45.33193" lon="6.11566">
        <ele>1202.8000488281</ele>
        <time>2023-08-10T06:09:10.000Z</time>
      </trkpt>
      <trkpt lat="45.33193" lon="6.11565">
        <ele>1203.1999511719</ele>
        <time>2023-08-10T06:09:12.000Z</time>
      </trkpt>
      <trkpt lat="45.33193" lon="6.11563">
        <ele>1203.8000488281</ele>
        <time>2023-08-10T06:09:15.000Z</time>
      </trkpt>
      <trkpt lat="45.33193" lon="6.11564">
        <ele>1204.5999755859</ele>
        <time>2023-08-10T06:09:19.000Z</time>
      </trkpt>
      <trkpt lat="45.33194" lon="6.11565">
        <ele>1205</ele>
        <time>2023-08-10T06:09:21.000Z</time>
      </trkpt>
      <trkpt lat="45.33199" lon="6.1157">
        <ele>1206</ele>
        <time>2023-08-10T06:09:27.000Z</time>
      </trkpt>
      <trkpt lat="45.33203" lon="6.11573">
        <ele>1207</ele>
        <time>2023-08-10T06:09:33.000Z</time>
      </trkpt>
      <trkpt lat="45.33204" lon="6.11573">
        <ele>1207.1999511719</ele>
        <time>2023-08-10T06:09:35.000Z</time>
      </trkpt>
      <trkpt lat="45.33206" lon="6.11571">
        <ele>1208.1999511719</ele>
        <time>2023-08-10T06:09:39.000Z</time>
      </trkpt>
      <trkpt lat="45.33208" lon="6.11568">
        <ele>1208.8000488281</ele>
        <time>2023-08-10T06:09:43.000Z</time>
      </trkpt>
      <trkpt lat="45.3321" lon="6.11566">
        <ele>1209.1999511719</ele>
        <time>2023-08-10T06:09:46.000Z</time>
      </trkpt>
      <trkpt lat="45.33212" lon="6.11565">
        <ele>1210.4000244141</ele>
        <time>2023-08-10T06:09:51.000Z</time>
      </trkpt>
      <trkpt lat="45.33212" lon="6.11565">
        <ele>1210.4000244141</ele>
        <time>2023-08-10T06:09:52.000Z</time>
      </trkpt>
      <trkpt lat="45.33214" lon="6.11564">
        <ele>1211.4000244141</ele>
        <time>2023-08-10T06:09:57.000Z</time>
      </trkpt>
      <trkpt lat="45.33218" lon="6.11564">
        <ele>1211.8000488281</ele>
        <time>2023-08-10T06:10:00.000Z</time>
      </trkpt>
      <trkpt lat="45.33225" lon="6.11564">
        <ele>1212.4000244141</ele>
        <time>2023-08-10T06:10:06.000Z</time>
      </trkpt>
      <trkpt lat="45.33228" lon="6.11564">
        <ele>1213</ele>
        <time>2023-08-10T06:10:09.000Z</time>
      </trkpt>
      <trkpt lat="45.33231" lon="6.11565">
        <ele>1213.5999755859</ele>
        <time>2023-08-10T06:10:14.000Z</time>
      </trkpt>
      <trkpt lat="45.33233" lon="6.11564">
        <ele>1213.5999755859</ele>
        <time>2023-08-10T06:10:17.000Z</time>
      </trkpt>
      <trkpt lat="45.33242" lon="6.11563">
        <ele>1214.1999511719</ele>
        <time>2023-08-10T06:10:25.000Z</time>
      </trkpt>
      <trkpt lat="45.33244" lon="6.11562">
        <ele>1214.5999755859</ele>
        <time>2023-08-10T06:10:30.000Z</time>
      </trkpt>
      <trkpt lat="45.33244" lon="6.1156">
        <ele>1214.8000488281</ele>
        <time>2023-08-10T06:10:33.000Z</time>
      </trkpt>
      <trkpt lat="45.3325" lon="6.11558">
        <ele>1215.5999755859</ele>
        <time>2023-08-10T06:10:40.000Z</time>
      </trkpt>
      <trkpt lat="45.33252" lon="6.11556">
        <ele>1215.5999755859</ele>
        <time>2023-08-10T06:10:42.000Z</time>
      </trkpt>
      <trkpt lat="45.33258" lon="6.11555">
        <ele>1216</ele>
        <time>2023-08-10T06:10:48.000Z</time>
      </trkpt>
      <trkpt lat="45.33266" lon="6.11552">
        <ele>1216.4000244141</ele>
        <time>2023-08-10T06:10:58.000Z</time>
      </trkpt>
      <trkpt lat="45.33269" lon="6.11549">
        <ele>1216.5999755859</ele>
        <time>2023-08-10T06:11:02.000Z</time>
      </trkpt>
      <trkpt lat="45.33272" lon="6.11544">
        <ele>1217.1999511719</ele>
        <time>2023-08-10T06:11:08.000Z</time>
      </trkpt>
      <trkpt lat="45.33275" lon="6.1154">
        <ele>1217.5999755859</ele>
        <time>2023-08-10T06:11:13.000Z</time>
      </trkpt>
      <trkpt lat="45.33278" lon="6.1154">
        <ele>1218</ele>
        <time>2023-08-10T06:11:16.000Z</time>
      </trkpt>
      <trkpt lat="45.3328" lon="6.11539">
        <ele>1218.8000488281</ele>
        <time>2023-08-10T06:11:21.000Z</time>
      </trkpt>
      <trkpt lat="45.33282" lon="6.11536">
        <ele>1219.5999755859</ele>
        <time>2023-08-10T06:11:26.000Z</time>
      </trkpt>
      <trkpt lat="45.33284" lon="6.11535">
        <ele>1220</ele>
        <time>2023-08-10T06:11:28.000Z</time>
      </trkpt>
      <trkpt lat="45.33289" lon="6.11531">
        <ele>1220.8000488281</ele>
        <time>2023-08-10T06:11:34.000Z</time>
      </trkpt>
      <trkpt lat="45.3329" lon="6.11531">
        <ele>1221</ele>
        <time>2023-08-10T06:11:35.000Z</time>
      </trkpt>
      <trkpt lat="45.33292" lon="6.11529">
        <ele>1222</ele>
        <time>2023-08-10T06:11:40.000Z</time>
      </trkpt>
      <trkpt lat="45.33293" lon="6.11529">
        <ele>1222.5999755859</ele>
        <time>2023-08-10T06:11:43.000Z</time>
      </trkpt>
      <trkpt lat="45.33295" lon="6.11527">
        <ele>1223.1999511719</ele>
        <time>2023-08-10T06:11:46.000Z</time>
      </trkpt>
      <trkpt lat="45.33298" lon="6.11523">
        <ele>1224.4000244141</ele>
        <time>2023-08-10T06:11:52.000Z</time>
      </trkpt>
      <trkpt lat="45.33301" lon="6.11521">
        <ele>1225.4000244141</ele>
        <time>2023-08-10T06:11:58.000Z</time>
      </trkpt>
      <trkpt lat="45.33302" lon="6.1152">
        <ele>1226</ele>
        <time>2023-08-10T06:12:01.000Z</time>
      </trkpt>
      <trkpt lat="45.33303" lon="6.11516">
        <ele>1226.5999755859</ele>
        <time>2023-08-10T06:12:05.000Z</time>
      </trkpt>
      <trkpt lat="45.33303" lon="6.11514">
        <ele>1227.8000488281</ele>
        <time>2023-08-10T06:12:10.000Z</time>
      </trkpt>
      <trkpt lat="45.33306" lon="6.11507">
        <ele>1228.8000488281</ele>
        <time>2023-08-10T06:12:16.000Z</time>
      </trkpt>
      <trkpt lat="45.33307" lon="6.11506">
        <ele>1229.1999511719</ele>
        <time>2023-08-10T06:12:18.000Z</time>
      </trkpt>
      <trkpt lat="45.33309" lon="6.11504">
        <ele>1230</ele>
        <time>2023-08-10T06:12:22.000Z</time>
      </trkpt>
      <trkpt lat="45.33309" lon="6.11502">
        <ele>1230.5999755859</ele>
        <time>2023-08-10T06:12:25.000Z</time>
      </trkpt>
      <trkpt lat="45.3331" lon="6.11502">
        <ele>1231</ele>
        <time>2023-08-10T06:12:28.000Z</time>
      </trkpt>
      <trkpt lat="45.33312" lon="6.11498">
        <ele>1231.5999755859</ele>
        <time>2023-08-10T06:12:32.000Z</time>
      </trkpt>
      <trkpt lat="45.33313" lon="6.11497">
        <ele>1232.1999511719</ele>
        <time>2023-08-10T06:12:35.000Z</time>
      </trkpt>
      <trkpt lat="45.33315" lon="6.11493">
        <ele>1232.8000488281</ele>
        <time>2023-08-10T06:12:40.000Z</time>
      </trkpt>
      <trkpt lat="45.33317" lon="6.11491">
        <ele>1233.1999511719</ele>
        <time>2023-08-10T06:12:42.000Z</time>
      </trkpt>
      <trkpt lat="45.33321" lon="6.11488">
        <ele>1234.1999511719</ele>
        <time>2023-08-10T06:12:48.000Z</time>
      </trkpt>
      <trkpt lat="45.33321" lon="6.11488">
        <ele>1234.4000244141</ele>
        <time>2023-08-10T06:12:49.000Z</time>
      </trkpt>
      <trkpt lat="45.33326" lon="6.11487">
        <ele>1235.4000244141</ele>
        <time>2023-08-10T06:12:55.000Z</time>
      </trkpt>
      <trkpt lat="45.33326" lon="6.11487">
        <ele>1235.8000488281</ele>
        <time>2023-08-10T06:12:56.000Z</time>
      </trkpt>
      <trkpt lat="45.33328" lon="6.11487">
        <ele>1236.5999755859</ele>
        <time>2023-08-10T06:13:00.000Z</time>
      </trkpt>
      <trkpt lat="45.3333" lon="6.11485">
        <ele>1237.1999511719</ele>
        <time>2023-08-10T06:13:04.000Z</time>
      </trkpt>
      <trkpt lat="45.33332" lon="6.11483">
        <ele>1237.5999755859</ele>
        <time>2023-08-10T06:13:07.000Z</time>
      </trkpt>
      <trkpt lat="45.33332" lon="6.11481">
        <ele>1238.4000244141</ele>
        <time>2023-08-10T06:13:11.000Z</time>
      </trkpt>
      <trkpt lat="45.33333" lon="6.11479">
        <ele>1238.8000488281</ele>
        <time>2023-08-10T06:13:13.000Z</time>
      </trkpt>
      <trkpt lat="45.33335" lon="6.11479">
        <ele>1239.8000488281</ele>
        <time>2023-08-10T06:13:18.000Z</time>
      </trkpt>
      <trkpt lat="45.33339" lon="6.1147">
        <ele>1241.1999511719</ele>
        <time>2023-08-10T06:13:26.000Z</time>
      </trkpt>
      <trkpt lat="45.33343" lon="6.1147">
        <ele>1242</ele>
        <time>2023-08-10T06:13:32.000Z</time>
      </trkpt>
      <trkpt lat="45.33343" lon="6.1147">
        <ele>1242.1999511719</ele>
        <time>2023-08-10T06:13:33.000Z</time>
      </trkpt>
      <trkpt lat="45.33347" lon="6.11465">
        <ele>1243.1999511719</ele>
        <time>2023-08-10T06:13:39.000Z</time>
      </trkpt>
      <trkpt lat="45.33348" lon="6.11465">
        <ele>1243.4000244141</ele>
        <time>2023-08-10T06:13:40.000Z</time>
      </trkpt>
      <trkpt lat="45.33349" lon="6.11463">
        <ele>1244.1999511719</ele>
        <time>2023-08-10T06:13:45.000Z</time>
      </trkpt>
      <trkpt lat="45.33349" lon="6.11462">
        <ele>1244.1999511719</ele>
        <time>2023-08-10T06:13:46.000Z</time>
      </trkpt>
      <trkpt lat="45.3335" lon="6.11452">
        <ele>1245.1999511719</ele>
        <time>2023-08-10T06:13:53.000Z</time>
      </trkpt>
      <trkpt lat="45.3335" lon="6.11451">
        <ele>1245.1999511719</ele>
        <time>2023-08-10T06:13:54.000Z</time>
      </trkpt>
      <trkpt lat="45.33351" lon="6.11446">
        <ele>1246.1999511719</ele>
        <time>2023-08-10T06:14:01.000Z</time>
      </trkpt>
      <trkpt lat="45.33355" lon="6.11439">
        <ele>1247.4000244141</ele>
        <time>2023-08-10T06:14:07.000Z</time>
      </trkpt>
      <trkpt lat="45.33358" lon="6.11437">
        <ele>1247.8000488281</ele>
        <time>2023-08-10T06:14:10.000Z</time>
      </trkpt>
      <trkpt lat="45.3336" lon="6.11435">
        <ele>1248.4000244141</ele>
        <time>2023-08-10T06:14:14.000Z</time>
      </trkpt>
      <trkpt lat="45.33362" lon="6.11436">
        <ele>1249.4000244141</ele>
        <time>2023-08-10T06:14:19.000Z</time>
      </trkpt>
      <trkpt lat="45.33362" lon="6.11436">
        <ele>1249.4000244141</ele>
        <time>2023-08-10T06:14:20.000Z</time>
      </trkpt>
      <trkpt lat="45.33366" lon="6.11434">
        <ele>1250.5999755859</ele>
        <time>2023-08-10T06:14:25.000Z</time>
      </trkpt>
      <trkpt lat="45.33366" lon="6.11433">
        <ele>1250.8000488281</ele>
        <time>2023-08-10T06:14:26.000Z</time>
      </trkpt>
      <trkpt lat="45.33368" lon="6.11433">
        <ele>1251.5999755859</ele>
        <time>2023-08-10T06:14:31.000Z</time>
      </trkpt>
      <trkpt lat="45.33368" lon="6.11432">
        <ele>1252</ele>
        <time>2023-08-10T06:14:33.000Z</time>
      </trkpt>
      <trkpt lat="45.3337" lon="6.11431">
        <ele>1252.8000488281</ele>
        <time>2023-08-10T06:14:37.000Z</time>
      </trkpt>
      <trkpt lat="45.33368" lon="6.1143">
        <ele>1253.4000244141</ele>
        <time>2023-08-10T06:14:41.000Z</time>
      </trkpt>
      <trkpt lat="45.33369" lon="6.11429">
        <ele>1253.8000488281</ele>
        <time>2023-08-10T06:14:43.000Z</time>
      </trkpt>
      <trkpt lat="45.33368" lon="6.11425">
        <ele>1254.5999755859</ele>
        <time>2023-08-10T06:14:48.000Z</time>
      </trkpt>
      <trkpt lat="45.33367" lon="6.11426">
        <ele>1255</ele>
        <time>2023-08-10T06:14:50.000Z</time>
      </trkpt>
      <trkpt lat="45.33364" lon="6.11426">
        <ele>1255.5999755859</ele>
        <time>2023-08-10T06:14:56.000Z</time>
      </trkpt>
      <trkpt lat="45.33363" lon="6.11427">
        <ele>1256</ele>
        <time>2023-08-10T06:15:00.000Z</time>
      </trkpt>
      <trkpt lat="45.3336" lon="6.11429">
        <ele>1257</ele>
        <time>2023-08-10T06:15:06.000Z</time>
      </trkpt>
      <trkpt lat="45.33359" lon="6.1143">
        <ele>1257</ele>
        <time>2023-08-10T06:15:07.000Z</time>
      </trkpt>
      <trkpt lat="45.33359" lon="6.11429">
        <ele>1258.1999511719</ele>
        <time>2023-08-10T06:15:13.000Z</time>
      </trkpt>
      <trkpt lat="45.33359" lon="6.11428">
        <ele>1258.4000244141</ele>
        <time>2023-08-10T06:15:14.000Z</time>
      </trkpt>
      <trkpt lat="45.33357" lon="6.11428">
        <ele>1259.4000244141</ele>
        <time>2023-08-10T06:15:20.000Z</time>
      </trkpt>
      <trkpt lat="45.33356" lon="6.11428">
        <ele>1259.5999755859</ele>
        <time>2023-08-10T06:15:22.000Z</time>
      </trkpt>
      <trkpt lat="45.33355" lon="6.11427">
        <ele>1260.4000244141</ele>
        <time>2023-08-10T06:15:27.000Z</time>
      </trkpt>
      <trkpt lat="45.33352" lon="6.11426">
        <ele>1261.4000244141</ele>
        <time>2023-08-10T06:15:33.000Z</time>
      </trkpt>
      <trkpt lat="45.33353" lon="6.11426">
        <ele>1261.5999755859</ele>
        <time>2023-08-10T06:15:34.000Z</time>
      </trkpt>
      <trkpt lat="45.33351" lon="6.11425">
        <ele>1262.4000244141</ele>
        <time>2023-08-10T06:15:38.000Z</time>
      </trkpt>
      <trkpt lat="45.33349" lon="6.11423">
        <ele>1263</ele>
        <time>2023-08-10T06:15:42.000Z</time>
      </trkpt>
      <trkpt lat="45.33347" lon="6.11421">
        <ele>1263.5999755859</ele>
        <time>2023-08-10T06:15:45.000Z</time>
      </trkpt>
      <trkpt lat="45.33344" lon="6.1142">
        <ele>1264.5999755859</ele>
        <time>2023-08-10T06:15:50.000Z</time>
      </trkpt>
      <trkpt lat="45.33343" lon="6.1142">
        <ele>1264.5999755859</ele>
        <time>2023-08-10T06:15:51.000Z</time>
      </trkpt>
      <trkpt lat="45.33339" lon="6.1142">
        <ele>1265.8000488281</ele>
        <time>2023-08-10T06:15:57.000Z</time>
      </trkpt>
      <trkpt lat="45.33338" lon="6.11421">
        <ele>1266</ele>
        <time>2023-08-10T06:15:58.000Z</time>
      </trkpt>
      <trkpt lat="45.33334" lon="6.11424">
        <ele>1266.8000488281</ele>
        <time>2023-08-10T06:16:03.000Z</time>
      </trkpt>
      <trkpt lat="45.33332" lon="6.11426">
        <ele>1267</ele>
        <time>2023-08-10T06:16:05.000Z</time>
      </trkpt>
      <trkpt lat="45.33328" lon="6.11424">
        <ele>1267.8000488281</ele>
        <time>2023-08-10T06:16:14.000Z</time>
      </trkpt>
      <trkpt lat="45.33328" lon="6.11423">
        <ele>1267.8000488281</ele>
        <time>2023-08-10T06:16:15.000Z</time>
      </trkpt>
      <trkpt lat="45.33329" lon="6.11424">
        <ele>1267.8000488281</ele>
        <time>2023-08-10T06:16:22.000Z</time>
      </trkpt>
      <trkpt lat="45.33329" lon="6.11422">
        <ele>1267.8000488281</ele>
        <time>2023-08-10T06:16:29.000Z</time>
      </trkpt>
      <trkpt lat="45.33328" lon="6.11427">
        <ele>1267.5999755859</ele>
        <time>2023-08-10T06:16:40.000Z</time>
      </trkpt>
      <trkpt lat="45.33326" lon="6.11426">
        <ele>1267.5999755859</ele>
        <time>2023-08-10T06:16:49.000Z</time>
      </trkpt>
      <trkpt lat="45.33326" lon="6.11425">
        <ele>1267.4000244141</ele>
        <time>2023-08-10T06:16:58.000Z</time>
      </trkpt>
      <trkpt lat="45.33327" lon="6.11428">
        <ele>1267.4000244141</ele>
        <time>2023-08-10T06:17:11.000Z</time>
      </trkpt>
      <trkpt lat="45.33328" lon="6.11432">
        <ele>1267.4000244141</ele>
        <time>2023-08-10T06:17:18.000Z</time>
      </trkpt>
      <trkpt lat="45.33324" lon="6.11431">
        <ele>1267.8000488281</ele>
        <time>2023-08-10T06:17:25.000Z</time>
      </trkpt>
      <trkpt lat="45.3332" lon="6.11427">
        <ele>1268.8000488281</ele>
        <time>2023-08-10T06:17:32.000Z</time>
      </trkpt>
      <trkpt lat="45.33317" lon="6.11425">
        <ele>1269.8000488281</ele>
        <time>2023-08-10T06:17:35.000Z</time>
      </trkpt>
      <trkpt lat="45.33316" lon="6.11425">
        <ele>1270</ele>
        <time>2023-08-10T06:17:37.000Z</time>
      </trkpt>
      <trkpt lat="45.33312" lon="6.11424">
        <ele>1271</ele>
        <time>2023-08-10T06:17:42.000Z</time>
      </trkpt>
      <trkpt lat="45.33311" lon="6.11424">
        <ele>1271.1999511719</ele>
        <time>2023-08-10T06:17:43.000Z</time>
      </trkpt>
      <trkpt lat="45.33308" lon="6.11419">
        <ele>1272.1999511719</ele>
        <time>2023-08-10T06:17:48.000Z</time>
      </trkpt>
      <trkpt lat="45.33308" lon="6.11418">
        <ele>1272.5999755859</ele>
        <time>2023-08-10T06:17:49.000Z</time>
      </trkpt>
      <trkpt lat="45.33307" lon="6.11416">
        <ele>1273.5999755859</ele>
        <time>2023-08-10T06:17:53.000Z</time>
      </trkpt>
      <trkpt lat="45.33308" lon="6.11416">
        <ele>1274.4000244141</ele>
        <time>2023-08-10T06:17:56.000Z</time>
      </trkpt>
      <trkpt lat="45.33307" lon="6.11415">
        <ele>1274.5999755859</ele>
        <time>2023-08-10T06:17:58.000Z</time>
      </trkpt>
      <trkpt lat="45.33303" lon="6.11416">
        <ele>1276</ele>
        <time>2023-08-10T06:18:04.000Z</time>
      </trkpt>
      <trkpt lat="45.333" lon="6.11415">
        <ele>1277</ele>
        <time>2023-08-10T06:18:09.000Z</time>
      </trkpt>
      <trkpt lat="45.33298" lon="6.11414">
        <ele>1277.4000244141</ele>
        <time>2023-08-10T06:18:11.000Z</time>
      </trkpt>
      <trkpt lat="45.33295" lon="6.11412">
        <ele>1278.4000244141</ele>
        <time>2023-08-10T06:18:15.000Z</time>
      </trkpt>
      <trkpt lat="45.33294" lon="6.11411">
        <ele>1279</ele>
        <time>2023-08-10T06:18:18.000Z</time>
      </trkpt>
      <trkpt lat="45.33293" lon="6.11411">
        <ele>1279.5999755859</ele>
        <time>2023-08-10T06:18:20.000Z</time>
      </trkpt>
      <trkpt lat="45.3329" lon="6.11411">
        <ele>1280.5999755859</ele>
        <time>2023-08-10T06:18:25.000Z</time>
      </trkpt>
      <trkpt lat="45.33287" lon="6.11413">
        <ele>1281.8000488281</ele>
        <time>2023-08-10T06:18:31.000Z</time>
      </trkpt>
      <trkpt lat="45.33285" lon="6.11413">
        <ele>1282.8000488281</ele>
        <time>2023-08-10T06:18:37.000Z</time>
      </trkpt>
      <trkpt lat="45.33283" lon="6.11412">
        <ele>1283.4000244141</ele>
        <time>2023-08-10T06:18:40.000Z</time>
      </trkpt>
      <trkpt lat="45.3328" lon="6.1141">
        <ele>1283.8000488281</ele>
        <time>2023-08-10T06:18:43.000Z</time>
      </trkpt>
      <trkpt lat="45.33278" lon="6.1141">
        <ele>1284.8000488281</ele>
        <time>2023-08-10T06:18:47.000Z</time>
      </trkpt>
      <trkpt lat="45.33278" lon="6.1141">
        <ele>1285</ele>
        <time>2023-08-10T06:18:48.000Z</time>
      </trkpt>
      <trkpt lat="45.33275" lon="6.1141">
        <ele>1286</ele>
        <time>2023-08-10T06:18:54.000Z</time>
      </trkpt>
      <trkpt lat="45.33274" lon="6.1141">
        <ele>1286.1999511719</ele>
        <time>2023-08-10T06:18:55.000Z</time>
      </trkpt>
      <trkpt lat="45.3327" lon="6.1141">
        <ele>1287</ele>
        <time>2023-08-10T06:19:00.000Z</time>
      </trkpt>
      <trkpt lat="45.33266" lon="6.1141">
        <ele>1287.8000488281</ele>
        <time>2023-08-10T06:19:04.000Z</time>
      </trkpt>
      <trkpt lat="45.33265" lon="6.11409">
        <ele>1288.4000244141</ele>
        <time>2023-08-10T06:19:06.000Z</time>
      </trkpt>
      <trkpt lat="45.33262" lon="6.11406">
        <ele>1289.1999511719</ele>
        <time>2023-08-10T06:19:11.000Z</time>
      </trkpt>
      <trkpt lat="45.33262" lon="6.11406">
        <ele>1289.4000244141</ele>
        <time>2023-08-10T06:19:12.000Z</time>
      </trkpt>
      <trkpt lat="45.33257" lon="6.11403">
        <ele>1290.1999511719</ele>
        <time>2023-08-10T06:19:18.000Z</time>
      </trkpt>
      <trkpt lat="45.33257" lon="6.11404">
        <ele>1290.4000244141</ele>
        <time>2023-08-10T06:19:19.000Z</time>
      </trkpt>
      <trkpt lat="45.33256" lon="6.11403">
        <ele>1291.4000244141</ele>
        <time>2023-08-10T06:19:24.000Z</time>
      </trkpt>
      <trkpt lat="45.33252" lon="6.11401">
        <ele>1292.4000244141</ele>
        <time>2023-08-10T06:19:30.000Z</time>
      </trkpt>
      <trkpt lat="45.33244" lon="6.11398">
        <ele>1293.4000244141</ele>
        <time>2023-08-10T06:19:37.000Z</time>
      </trkpt>
      <trkpt lat="45.3324" lon="6.11399">
        <ele>1294.1999511719</ele>
        <time>2023-08-10T06:19:44.000Z</time>
      </trkpt>
      <trkpt lat="45.3324" lon="6.11399">
        <ele>1294.4000244141</ele>
        <time>2023-08-10T06:19:45.000Z</time>
      </trkpt>
      <trkpt lat="45.33237" lon="6.11397">
        <ele>1294.8000488281</ele>
        <time>2023-08-10T06:19:50.000Z</time>
      </trkpt>
      <trkpt lat="45.3323" lon="6.11395">
        <ele>1295.5999755859</ele>
        <time>2023-08-10T06:19:57.000Z</time>
      </trkpt>
      <trkpt lat="45.33224" lon="6.11395">
        <ele>1296.5999755859</ele>
        <time>2023-08-10T06:20:03.000Z</time>
      </trkpt>
      <trkpt lat="45.33222" lon="6.11395">
        <ele>1297</ele>
        <time>2023-08-10T06:20:05.000Z</time>
      </trkpt>
      <trkpt lat="45.33219" lon="6.11397">
        <ele>1297.5999755859</ele>
        <time>2023-08-10T06:20:10.000Z</time>
      </trkpt>
      <trkpt lat="45.33218" lon="6.11398">
        <ele>1297.8000488281</ele>
        <time>2023-08-10T06:20:11.000Z</time>
      </trkpt>
      <trkpt lat="45.33213" lon="6.11401">
        <ele>1298.8000488281</ele>
        <time>2023-08-10T06:20:17.000Z</time>
      </trkpt>
      <trkpt lat="45.3321" lon="6.11403">
        <ele>1299.8000488281</ele>
        <time>2023-08-10T06:20:22.000Z</time>
      </trkpt>
      <trkpt lat="45.33208" lon="6.11402">
        <ele>1300.5999755859</ele>
        <time>2023-08-10T06:20:26.000Z</time>
      </trkpt>
      <trkpt lat="45.33207" lon="6.11401">
        <ele>1301.1999511719</ele>
        <time>2023-08-10T06:20:28.000Z</time>
      </trkpt>
      <trkpt lat="45.33204" lon="6.11397">
        <ele>1301.8000488281</ele>
        <time>2023-08-10T06:20:34.000Z</time>
      </trkpt>
      <trkpt lat="45.33204" lon="6.11396">
        <ele>1302.4000244141</ele>
        <time>2023-08-10T06:20:35.000Z</time>
      </trkpt>
      <trkpt lat="45.33202" lon="6.11394">
        <ele>1303</ele>
        <time>2023-08-10T06:20:41.000Z</time>
      </trkpt>
      <trkpt lat="45.33202" lon="6.11394">
        <ele>1303.1999511719</ele>
        <time>2023-08-10T06:20:42.000Z</time>
      </trkpt>
      <trkpt lat="45.332" lon="6.11396">
        <ele>1304.4000244141</ele>
        <time>2023-08-10T06:20:48.000Z</time>
      </trkpt>
      <trkpt lat="45.33199" lon="6.11395">
        <ele>1304.4000244141</ele>
        <time>2023-08-10T06:20:49.000Z</time>
      </trkpt>
      <trkpt lat="45.33194" lon="6.11394">
        <ele>1305.4000244141</ele>
        <time>2023-08-10T06:20:54.000Z</time>
      </trkpt>
      <trkpt lat="45.33194" lon="6.11394">
        <ele>1305.4000244141</ele>
        <time>2023-08-10T06:20:55.000Z</time>
      </trkpt>
      <trkpt lat="45.33192" lon="6.11389">
        <ele>1306.1999511719</ele>
        <time>2023-08-10T06:21:00.000Z</time>
      </trkpt>
      <trkpt lat="45.33192" lon="6.11388">
        <ele>1306.4000244141</ele>
        <time>2023-08-10T06:21:01.000Z</time>
      </trkpt>
      <trkpt lat="45.33191" lon="6.11378">
        <ele>1307.5999755859</ele>
        <time>2023-08-10T06:21:07.000Z</time>
      </trkpt>
      <trkpt lat="45.3319" lon="6.11377">
        <ele>1307.5999755859</ele>
        <time>2023-08-10T06:21:08.000Z</time>
      </trkpt>
      <trkpt lat="45.33187" lon="6.11376">
        <ele>1308.8000488281</ele>
        <time>2023-08-10T06:21:14.000Z</time>
      </trkpt>
      <trkpt lat="45.33187" lon="6.11376">
        <ele>1309</ele>
        <time>2023-08-10T06:21:15.000Z</time>
      </trkpt>
      <trkpt lat="45.33182" lon="6.11377">
        <ele>1310.1999511719</ele>
        <time>2023-08-10T06:21:20.000Z</time>
      </trkpt>
      <trkpt lat="45.33182" lon="6.11378">
        <ele>1310.8000488281</ele>
        <time>2023-08-10T06:21:23.000Z</time>
      </trkpt>
      <trkpt lat="45.33179" lon="6.11378">
        <ele>1311.1999511719</ele>
        <time>2023-08-10T06:21:26.000Z</time>
      </trkpt>
      <trkpt lat="45.33175" lon="6.11379">
        <ele>1311.8000488281</ele>
        <time>2023-08-10T06:21:30.000Z</time>
      </trkpt>
      <trkpt lat="45.33175" lon="6.11378">
        <ele>1312.5999755859</ele>
        <time>2023-08-10T06:21:32.000Z</time>
      </trkpt>
      <trkpt lat="45.33172" lon="6.11375">
        <ele>1313.4000244141</ele>
        <time>2023-08-10T06:21:37.000Z</time>
      </trkpt>
      <trkpt lat="45.3317" lon="6.11375">
        <ele>1313.5999755859</ele>
        <time>2023-08-10T06:21:38.000Z</time>
      </trkpt>
      <trkpt lat="45.33167" lon="6.11372">
        <ele>1314.4000244141</ele>
        <time>2023-08-10T06:21:42.000Z</time>
      </trkpt>
      <trkpt lat="45.33167" lon="6.11371">
        <ele>1314.5999755859</ele>
        <time>2023-08-10T06:21:44.000Z</time>
      </trkpt>
      <trkpt lat="45.33165" lon="6.11368">
        <ele>1315.4000244141</ele>
        <time>2023-08-10T06:21:49.000Z</time>
      </trkpt>
      <trkpt lat="45.33165" lon="6.11366">
        <ele>1316</ele>
        <time>2023-08-10T06:21:51.000Z</time>
      </trkpt>
      <trkpt lat="45.33162" lon="6.11362">
        <ele>1316.5999755859</ele>
        <time>2023-08-10T06:21:56.000Z</time>
      </trkpt>
      <trkpt lat="45.33162" lon="6.11361">
        <ele>1317</ele>
        <time>2023-08-10T06:21:58.000Z</time>
      </trkpt>
      <trkpt lat="45.33166" lon="6.11357">
        <ele>1317.8000488281</ele>
        <time>2023-08-10T06:22:04.000Z</time>
      </trkpt>
      <trkpt lat="45.33168" lon="6.11355">
        <ele>1318</ele>
        <time>2023-08-10T06:22:07.000Z</time>
      </trkpt>
      <trkpt lat="45.33168" lon="6.11353">
        <ele>1318.5999755859</ele>
        <time>2023-08-10T06:22:12.000Z</time>
      </trkpt>
      <trkpt lat="45.33169" lon="6.11352">
        <ele>1319.1999511719</ele>
        <time>2023-08-10T06:22:14.000Z</time>
      </trkpt>
      <trkpt lat="45.33174" lon="6.11349">
        <ele>1320.1999511719</ele>
        <time>2023-08-10T06:22:20.000Z</time>
      </trkpt>
      <trkpt lat="45.33177" lon="6.11347">
        <ele>1321.1999511719</ele>
        <time>2023-08-10T06:22:26.000Z</time>
      </trkpt>
      <trkpt lat="45.33179" lon="6.11345">
        <ele>1321.8000488281</ele>
        <time>2023-08-10T06:22:29.000Z</time>
      </trkpt>
      <trkpt lat="45.33181" lon="6.11344">
        <ele>1322.4000244141</ele>
        <time>2023-08-10T06:22:32.000Z</time>
      </trkpt>
      <trkpt lat="45.33184" lon="6.11342">
        <ele>1323</ele>
        <time>2023-08-10T06:22:36.000Z</time>
      </trkpt>
      <trkpt lat="45.33187" lon="6.11339">
        <ele>1323.5999755859</ele>
        <time>2023-08-10T06:22:39.000Z</time>
      </trkpt>
      <trkpt lat="45.33188" lon="6.11336">
        <ele>1324.4000244141</ele>
        <time>2023-08-10T06:22:44.000Z</time>
      </trkpt>
      <trkpt lat="45.33188" lon="6.11335">
        <ele>1324.4000244141</ele>
        <time>2023-08-10T06:22:45.000Z</time>
      </trkpt>
      <trkpt lat="45.3319" lon="6.11328">
        <ele>1325.5999755859</ele>
        <time>2023-08-10T06:22:52.000Z</time>
      </trkpt>
      <trkpt lat="45.33194" lon="6.11322">
        <ele>1326.5999755859</ele>
        <time>2023-08-10T06:22:59.000Z</time>
      </trkpt>
      <trkpt lat="45.33195" lon="6.11322">
        <ele>1326.8000488281</ele>
        <time>2023-08-10T06:23:00.000Z</time>
      </trkpt>
      <trkpt lat="45.33196" lon="6.1132">
        <ele>1328</ele>
        <time>2023-08-10T06:23:05.000Z</time>
      </trkpt>
      <trkpt lat="45.33199" lon="6.11316">
        <ele>1328.8000488281</ele>
        <time>2023-08-10T06:23:10.000Z</time>
      </trkpt>
      <trkpt lat="45.33199" lon="6.11316">
        <ele>1329</ele>
        <time>2023-08-10T06:23:11.000Z</time>
      </trkpt>
      <trkpt lat="45.33202" lon="6.11314">
        <ele>1330</ele>
        <time>2023-08-10T06:23:18.000Z</time>
      </trkpt>
      <trkpt lat="45.33203" lon="6.11312">
        <ele>1330.8000488281</ele>
        <time>2023-08-10T06:23:23.000Z</time>
      </trkpt>
      <trkpt lat="45.33204" lon="6.11311">
        <ele>1331.5999755859</ele>
        <time>2023-08-10T06:23:26.000Z</time>
      </trkpt>
      <trkpt lat="45.33205" lon="6.11309">
        <ele>1332.1999511719</ele>
        <time>2023-08-10T06:23:30.000Z</time>
      </trkpt>
      <trkpt lat="45.33206" lon="6.11305">
        <ele>1332.8000488281</ele>
        <time>2023-08-10T06:23:33.000Z</time>
      </trkpt>
      <trkpt lat="45.33206" lon="6.11303">
        <ele>1333.4000244141</ele>
        <time>2023-08-10T06:23:35.000Z</time>
      </trkpt>
      <trkpt lat="45.33209" lon="6.11301">
        <ele>1334.4000244141</ele>
        <time>2023-08-10T06:23:40.000Z</time>
      </trkpt>
      <trkpt lat="45.33209" lon="6.11301">
        <ele>1334.4000244141</ele>
        <time>2023-08-10T06:23:41.000Z</time>
      </trkpt>
      <trkpt lat="45.33212" lon="6.11294">
        <ele>1336.4000244141</ele>
        <time>2023-08-10T06:23:52.000Z</time>
      </trkpt>
      <trkpt lat="45.33214" lon="6.11291">
        <ele>1337.4000244141</ele>
        <time>2023-08-10T06:23:56.000Z</time>
      </trkpt>
      <trkpt lat="45.33214" lon="6.11291">
        <ele>1337.4000244141</ele>
        <time>2023-08-10T06:23:57.000Z</time>
      </trkpt>
      <trkpt lat="45.33214" lon="6.11291">
        <ele>1338.5999755859</ele>
        <time>2023-08-10T06:24:02.000Z</time>
      </trkpt>
      <trkpt lat="45.33215" lon="6.11289">
        <ele>1339</ele>
        <time>2023-08-10T06:24:04.000Z</time>
      </trkpt>
      <trkpt lat="45.33217" lon="6.11285">
        <ele>1339.8000488281</ele>
        <time>2023-08-10T06:24:08.000Z</time>
      </trkpt>
      <trkpt lat="45.33217" lon="6.11283">
        <ele>1340.1999511719</ele>
        <time>2023-08-10T06:24:10.000Z</time>
      </trkpt>
      <trkpt lat="45.33217" lon="6.11279">
        <ele>1340.5999755859</ele>
        <time>2023-08-10T06:24:14.000Z</time>
      </trkpt>
      <trkpt lat="45.33218" lon="6.11274">
        <ele>1341.4000244141</ele>
        <time>2023-08-10T06:24:18.000Z</time>
      </trkpt>
      <trkpt lat="45.33218" lon="6.11274">
        <ele>1341.8000488281</ele>
        <time>2023-08-10T06:24:19.000Z</time>
      </trkpt>
      <trkpt lat="45.33222" lon="6.11269">
        <ele>1343.1999511719</ele>
        <time>2023-08-10T06:24:25.000Z</time>
      </trkpt>
      <trkpt lat="45.33226" lon="6.11265">
        <ele>1344.1999511719</ele>
        <time>2023-08-10T06:24:31.000Z</time>
      </trkpt>
      <trkpt lat="45.33227" lon="6.11264">
        <ele>1345</ele>
        <time>2023-08-10T06:24:34.000Z</time>
      </trkpt>
      <trkpt lat="45.33228" lon="6.11264">
        <ele>1345.5999755859</ele>
        <time>2023-08-10T06:24:36.000Z</time>
      </trkpt>
      <trkpt lat="45.3323" lon="6.11263">
        <ele>1346.8000488281</ele>
        <time>2023-08-10T06:24:42.000Z</time>
      </trkpt>
      <trkpt lat="45.33231" lon="6.11262">
        <ele>1347.8000488281</ele>
        <time>2023-08-10T06:24:47.000Z</time>
      </trkpt>
      <trkpt lat="45.33232" lon="6.11261">
        <ele>1348.1999511719</ele>
        <time>2023-08-10T06:24:50.000Z</time>
      </trkpt>
      <trkpt lat="45.33232" lon="6.11261">
        <ele>1348.8000488281</ele>
        <time>2023-08-10T06:24:53.000Z</time>
      </trkpt>
      <trkpt lat="45.33235" lon="6.11256">
        <ele>1350</ele>
        <time>2023-08-10T06:24:58.000Z</time>
      </trkpt>
      <trkpt lat="45.33235" lon="6.11255">
        <ele>1350.1999511719</ele>
        <time>2023-08-10T06:24:59.000Z</time>
      </trkpt>
      <trkpt lat="45.3324" lon="6.11251">
        <ele>1351</ele>
        <time>2023-08-10T06:25:05.000Z</time>
      </trkpt>
      <trkpt lat="45.33242" lon="6.1125">
        <ele>1351.4000244141</ele>
        <time>2023-08-10T06:25:07.000Z</time>
      </trkpt>
      <trkpt lat="45.33244" lon="6.1125">
        <ele>1352.1999511719</ele>
        <time>2023-08-10T06:25:11.000Z</time>
      </trkpt>
      <trkpt lat="45.33246" lon="6.1125">
        <ele>1352.8000488281</ele>
        <time>2023-08-10T06:25:15.000Z</time>
      </trkpt>
      <trkpt lat="45.33247" lon="6.1125">
        <ele>1353.1999511719</ele>
        <time>2023-08-10T06:25:17.000Z</time>
      </trkpt>
      <trkpt lat="45.3325" lon="6.11249">
        <ele>1354</ele>
        <time>2023-08-10T06:25:21.000Z</time>
      </trkpt>
      <trkpt lat="45.33251" lon="6.11246">
        <ele>1354.1999511719</ele>
        <time>2023-08-10T06:25:24.000Z</time>
      </trkpt>
      <trkpt lat="45.33254" lon="6.11241">
        <ele>1354.8000488281</ele>
        <time>2023-08-10T06:25:28.000Z</time>
      </trkpt>
      <trkpt lat="45.33254" lon="6.11236">
        <ele>1355.4000244141</ele>
        <time>2023-08-10T06:25:33.000Z</time>
      </trkpt>
      <trkpt lat="45.33255" lon="6.11234">
        <ele>1355.8000488281</ele>
        <time>2023-08-10T06:25:36.000Z</time>
      </trkpt>
      <trkpt lat="45.33258" lon="6.11231">
        <ele>1356.5999755859</ele>
        <time>2023-08-10T06:25:41.000Z</time>
      </trkpt>
      <trkpt lat="45.33259" lon="6.11229">
        <ele>1356.8000488281</ele>
        <time>2023-08-10T06:25:43.000Z</time>
      </trkpt>
      <trkpt lat="45.33258" lon="6.11227">
        <ele>1357.8000488281</ele>
        <time>2023-08-10T06:25:48.000Z</time>
      </trkpt>
      <trkpt lat="45.33255" lon="6.11227">
        <ele>1358</ele>
        <time>2023-08-10T06:25:51.000Z</time>
      </trkpt>
      <trkpt lat="45.33252" lon="6.11226">
        <ele>1358.5999755859</ele>
        <time>2023-08-10T06:25:55.000Z</time>
      </trkpt>
      <trkpt lat="45.33253" lon="6.11222">
        <ele>1359.4000244141</ele>
        <time>2023-08-10T06:25:59.000Z</time>
      </trkpt>
      <trkpt lat="45.33255" lon="6.11218">
        <ele>1359.8000488281</ele>
        <time>2023-08-10T06:26:02.000Z</time>
      </trkpt>
      <trkpt lat="45.33257" lon="6.11212">
        <ele>1360.5999755859</ele>
        <time>2023-08-10T06:26:07.000Z</time>
      </trkpt>
      <trkpt lat="45.33257" lon="6.11209">
        <ele>1361</ele>
        <time>2023-08-10T06:26:09.000Z</time>
      </trkpt>
      <trkpt lat="45.3326" lon="6.11201">
        <ele>1362</ele>
        <time>2023-08-10T06:26:15.000Z</time>
      </trkpt>
      <trkpt lat="45.3326" lon="6.11194">
        <ele>1363.1999511719</ele>
        <time>2023-08-10T06:26:23.000Z</time>
      </trkpt>
      <trkpt lat="45.3326" lon="6.11193">
        <ele>1363.1999511719</ele>
        <time>2023-08-10T06:26:24.000Z</time>
      </trkpt>
      <trkpt lat="45.33262" lon="6.11191">
        <ele>1364.4000244141</ele>
        <time>2023-08-10T06:26:29.000Z</time>
      </trkpt>
      <trkpt lat="45.33262" lon="6.1119">
        <ele>1364.8000488281</ele>
        <time>2023-08-10T06:26:31.000Z</time>
      </trkpt>
      <trkpt lat="45.33265" lon="6.11187">
        <ele>1365.1999511719</ele>
        <time>2023-08-10T06:26:35.000Z</time>
      </trkpt>
      <trkpt lat="45.33268" lon="6.11183">
        <ele>1366.4000244141</ele>
        <time>2023-08-10T06:26:41.000Z</time>
      </trkpt>
      <trkpt lat="45.33269" lon="6.11178">
        <ele>1367.5999755859</ele>
        <time>2023-08-10T06:26:46.000Z</time>
      </trkpt>
      <trkpt lat="45.33271" lon="6.11173">
        <ele>1368.1999511719</ele>
        <time>2023-08-10T06:26:51.000Z</time>
      </trkpt>
      <trkpt lat="45.33271" lon="6.11171">
        <ele>1368.4000244141</ele>
        <time>2023-08-10T06:26:53.000Z</time>
      </trkpt>
      <trkpt lat="45.33273" lon="6.11167">
        <ele>1369.4000244141</ele>
        <time>2023-08-10T06:26:59.000Z</time>
      </trkpt>
      <trkpt lat="45.33273" lon="6.11166">
        <ele>1369.8000488281</ele>
        <time>2023-08-10T06:27:01.000Z</time>
      </trkpt>
      <trkpt lat="45.33274" lon="6.11162">
        <ele>1370.8000488281</ele>
        <time>2023-08-10T06:27:07.000Z</time>
      </trkpt>
      <trkpt lat="45.33274" lon="6.11156">
        <ele>1371.5999755859</ele>
        <time>2023-08-10T06:27:14.000Z</time>
      </trkpt>
      <trkpt lat="45.33274" lon="6.11155">
        <ele>1372</ele>
        <time>2023-08-10T06:27:15.000Z</time>
      </trkpt>
      <trkpt lat="45.33275" lon="6.1115">
        <ele>1373</ele>
        <time>2023-08-10T06:27:21.000Z</time>
      </trkpt>
      <trkpt lat="45.33276" lon="6.11148">
        <ele>1373.4000244141</ele>
        <time>2023-08-10T06:27:23.000Z</time>
      </trkpt>
      <trkpt lat="45.33279" lon="6.11143">
        <ele>1374.1999511719</ele>
        <time>2023-08-10T06:27:27.000Z</time>
      </trkpt>
      <trkpt lat="45.3328" lon="6.11138">
        <ele>1374.8000488281</ele>
        <time>2023-08-10T06:27:32.000Z</time>
      </trkpt>
      <trkpt lat="45.33282" lon="6.11135">
        <ele>1375.1999511719</ele>
        <time>2023-08-10T06:27:35.000Z</time>
      </trkpt>
      <trkpt lat="45.33287" lon="6.11129">
        <ele>1376.1999511719</ele>
        <time>2023-08-10T06:27:42.000Z</time>
      </trkpt>
      <trkpt lat="45.33287" lon="6.11129">
        <ele>1376.5999755859</ele>
        <time>2023-08-10T06:27:43.000Z</time>
      </trkpt>
      <trkpt lat="45.3329" lon="6.11126">
        <ele>1377.4000244141</ele>
        <time>2023-08-10T06:27:48.000Z</time>
      </trkpt>
      <trkpt lat="45.3329" lon="6.11124">
        <ele>1378.4000244141</ele>
        <time>2023-08-10T06:27:53.000Z</time>
      </trkpt>
      <trkpt lat="45.3329" lon="6.11123">
        <ele>1378.5999755859</ele>
        <time>2023-08-10T06:27:54.000Z</time>
      </trkpt>
      <trkpt lat="45.33292" lon="6.11117">
        <ele>1379.8000488281</ele>
        <time>2023-08-10T06:28:01.000Z</time>
      </trkpt>
      <trkpt lat="45.33294" lon="6.11105">
        <ele>1380.8000488281</ele>
        <time>2023-08-10T06:28:09.000Z</time>
      </trkpt>
      <trkpt lat="45.33296" lon="6.11098">
        <ele>1382</ele>
        <time>2023-08-10T06:28:16.000Z</time>
      </trkpt>
      <trkpt lat="45.33298" lon="6.11095">
        <ele>1383</ele>
        <time>2023-08-10T06:28:22.000Z</time>
      </trkpt>
      <trkpt lat="45.33298" lon="6.11095">
        <ele>1383.4000244141</ele>
        <time>2023-08-10T06:28:24.000Z</time>
      </trkpt>
      <trkpt lat="45.33301" lon="6.11092">
        <ele>1384</ele>
        <time>2023-08-10T06:28:28.000Z</time>
      </trkpt>
      <trkpt lat="45.33304" lon="6.11085">
        <ele>1385.1999511719</ele>
        <time>2023-08-10T06:28:34.000Z</time>
      </trkpt>
      <trkpt lat="45.33305" lon="6.1108">
        <ele>1386.1999511719</ele>
        <time>2023-08-10T06:28:40.000Z</time>
      </trkpt>
      <trkpt lat="45.33306" lon="6.11076">
        <ele>1387.1999511719</ele>
        <time>2023-08-10T06:28:46.000Z</time>
      </trkpt>
      <trkpt lat="45.33306" lon="6.11076">
        <ele>1387.1999511719</ele>
        <time>2023-08-10T06:28:47.000Z</time>
      </trkpt>
      <trkpt lat="45.3331" lon="6.11069">
        <ele>1388.1999511719</ele>
        <time>2023-08-10T06:28:53.000Z</time>
      </trkpt>
      <trkpt lat="45.3331" lon="6.11068">
        <ele>1388.4000244141</ele>
        <time>2023-08-10T06:28:55.000Z</time>
      </trkpt>
      <trkpt lat="45.3331" lon="6.11063">
        <ele>1389.4000244141</ele>
        <time>2023-08-10T06:29:02.000Z</time>
      </trkpt>
      <trkpt lat="45.3331" lon="6.11062">
        <ele>1389.5999755859</ele>
        <time>2023-08-10T06:29:03.000Z</time>
      </trkpt>
      <trkpt lat="45.33312" lon="6.11055">
        <ele>1390.4000244141</ele>
        <time>2023-08-10T06:29:09.000Z</time>
      </trkpt>
      <trkpt lat="45.33313" lon="6.11054">
        <ele>1391</ele>
        <time>2023-08-10T06:29:10.000Z</time>
      </trkpt>
      <trkpt lat="45.33315" lon="6.1105">
        <ele>1391.8000488281</ele>
        <time>2023-08-10T06:29:14.000Z</time>
      </trkpt>
      <trkpt lat="45.33317" lon="6.11046">
        <ele>1392.1999511719</ele>
        <time>2023-08-10T06:29:18.000Z</time>
      </trkpt>
      <trkpt lat="45.33314" lon="6.11041">
        <ele>1392.8000488281</ele>
        <time>2023-08-10T06:29:23.000Z</time>
      </trkpt>
      <trkpt lat="45.33312" lon="6.11039">
        <ele>1393</ele>
        <time>2023-08-10T06:29:26.000Z</time>
      </trkpt>
      <trkpt lat="45.3331" lon="6.11039">
        <ele>1393.5999755859</ele>
        <time>2023-08-10T06:29:29.000Z</time>
      </trkpt>
      <trkpt lat="45.33306" lon="6.11037">
        <ele>1395</ele>
        <time>2023-08-10T06:29:36.000Z</time>
      </trkpt>
      <trkpt lat="45.33303" lon="6.11035">
        <ele>1396</ele>
        <time>2023-08-10T06:29:42.000Z</time>
      </trkpt>
      <trkpt lat="45.33303" lon="6.11034">
        <ele>1396.1999511719</ele>
        <time>2023-08-10T06:29:43.000Z</time>
      </trkpt>
      <trkpt lat="45.33302" lon="6.1103">
        <ele>1397</ele>
        <time>2023-08-10T06:29:48.000Z</time>
      </trkpt>
      <trkpt lat="45.33301" lon="6.11028">
        <ele>1397.4000244141</ele>
        <time>2023-08-10T06:29:50.000Z</time>
      </trkpt>
      <trkpt lat="45.333" lon="6.11028">
        <ele>1398.1999511719</ele>
        <time>2023-08-10T06:29:54.000Z</time>
      </trkpt>
      <trkpt lat="45.33299" lon="6.11027">
        <ele>1398.8000488281</ele>
        <time>2023-08-10T06:29:57.000Z</time>
      </trkpt>
      <trkpt lat="45.33299" lon="6.11026">
        <ele>1399.1999511719</ele>
        <time>2023-08-10T06:29:59.000Z</time>
      </trkpt>
      <trkpt lat="45.33299" lon="6.11021">
        <ele>1400.1999511719</ele>
        <time>2023-08-10T06:30:04.000Z</time>
      </trkpt>
      <trkpt lat="45.33298" lon="6.11019">
        <ele>1400.4000244141</ele>
        <time>2023-08-10T06:30:05.000Z</time>
      </trkpt>
      <trkpt lat="45.33294" lon="6.11015">
        <ele>1401.4000244141</ele>
        <time>2023-08-10T06:30:11.000Z</time>
      </trkpt>
      <trkpt lat="45.33292" lon="6.11014">
        <ele>1402.5999755859</ele>
        <time>2023-08-10T06:30:17.000Z</time>
      </trkpt>
      <trkpt lat="45.33291" lon="6.11014">
        <ele>1403</ele>
        <time>2023-08-10T06:30:19.000Z</time>
      </trkpt>
      <trkpt lat="45.3329" lon="6.11012">
        <ele>1403.8000488281</ele>
        <time>2023-08-10T06:30:23.000Z</time>
      </trkpt>
      <trkpt lat="45.3329" lon="6.11011">
        <ele>1404</ele>
        <time>2023-08-10T06:30:25.000Z</time>
      </trkpt>
      <trkpt lat="45.33289" lon="6.11007">
        <ele>1404.5999755859</ele>
        <time>2023-08-10T06:30:30.000Z</time>
      </trkpt>
      <trkpt lat="45.33289" lon="6.11006">
        <ele>1405</ele>
        <time>2023-08-10T06:30:31.000Z</time>
      </trkpt>
      <trkpt lat="45.33287" lon="6.10999">
        <ele>1405.8000488281</ele>
        <time>2023-08-10T06:30:36.000Z</time>
      </trkpt>
      <trkpt lat="45.33286" lon="6.10997">
        <ele>1406</ele>
        <time>2023-08-10T06:30:38.000Z</time>
      </trkpt>
      <trkpt lat="45.33286" lon="6.10994">
        <ele>1406.5999755859</ele>
        <time>2023-08-10T06:30:43.000Z</time>
      </trkpt>
      <trkpt lat="45.33284" lon="6.10994">
        <ele>1407.4000244141</ele>
        <time>2023-08-10T06:30:51.000Z</time>
      </trkpt>
      <trkpt lat="45.33284" lon="6.10986">
        <ele>1407.4000244141</ele>
        <time>2023-08-10T06:31:00.000Z</time>
      </trkpt>
      <trkpt lat="45.33284" lon="6.10982">
        <ele>1408</ele>
        <time>2023-08-10T06:31:05.000Z</time>
      </trkpt>
      <trkpt lat="45.33284" lon="6.10982">
        <ele>1408.4000244141</ele>
        <time>2023-08-10T06:31:08.000Z</time>
      </trkpt>
      <trkpt lat="45.33283" lon="6.10979">
        <ele>1408.5999755859</ele>
        <time>2023-08-10T06:31:14.000Z</time>
      </trkpt>
      <trkpt lat="45.33283" lon="6.10977">
        <ele>1409</ele>
        <time>2023-08-10T06:31:17.000Z</time>
      </trkpt>
      <trkpt lat="45.33283" lon="6.10972">
        <ele>1409.1999511719</ele>
        <time>2023-08-10T06:31:21.000Z</time>
      </trkpt>
      <trkpt lat="45.33286" lon="6.1097">
        <ele>1409.1999511719</ele>
        <time>2023-08-10T06:31:29.000Z</time>
      </trkpt>
      <trkpt lat="45.33289" lon="6.10965">
        <ele>1409.1999511719</ele>
        <time>2023-08-10T06:31:35.000Z</time>
      </trkpt>
      <trkpt lat="45.33287" lon="6.10968">
        <ele>1409.1999511719</ele>
        <time>2023-08-10T06:31:44.000Z</time>
      </trkpt>
      <trkpt lat="45.33286" lon="6.10973">
        <ele>1409.1999511719</ele>
        <time>2023-08-10T06:31:50.000Z</time>
      </trkpt>
      <trkpt lat="45.33288" lon="6.1097">
        <ele>1409.1999511719</ele>
        <time>2023-08-10T06:31:57.000Z</time>
      </trkpt>
      <trkpt lat="45.33286" lon="6.10968">
        <ele>1409.1999511719</ele>
        <time>2023-08-10T06:32:09.000Z</time>
      </trkpt>
      <trkpt lat="45.33287" lon="6.10971">
        <ele>1409.1999511719</ele>
        <time>2023-08-10T06:32:14.000Z</time>
      </trkpt>
      <trkpt lat="45.33285" lon="6.10977">
        <ele>1409.1999511719</ele>
        <time>2023-08-10T06:32:22.000Z</time>
      </trkpt>
      <trkpt lat="45.33287" lon="6.10976">
        <ele>1409</ele>
        <time>2023-08-10T06:32:31.000Z</time>
      </trkpt>
      <trkpt lat="45.33284" lon="6.10977">
        <ele>1409</ele>
        <time>2023-08-10T06:32:40.000Z</time>
      </trkpt>
      <trkpt lat="45.33281" lon="6.10979">
        <ele>1409</ele>
        <time>2023-08-10T06:32:49.000Z</time>
      </trkpt>
      <trkpt lat="45.33285" lon="6.10973">
        <ele>1409</ele>
        <time>2023-08-10T06:32:57.000Z</time>
      </trkpt>
      <trkpt lat="45.33285" lon="6.10972">
        <ele>1408.5999755859</ele>
        <time>2023-08-10T06:33:06.000Z</time>
      </trkpt>
      <trkpt lat="45.33283" lon="6.10964">
        <ele>1409</ele>
        <time>2023-08-10T06:33:13.000Z</time>
      </trkpt>
      <trkpt lat="45.33277" lon="6.10963">
        <ele>1409</ele>
        <time>2023-08-10T06:33:22.000Z</time>
      </trkpt>
      <trkpt lat="45.33275" lon="6.10968">
        <ele>1409</ele>
        <time>2023-08-10T06:33:32.000Z</time>
      </trkpt>
      <trkpt lat="45.33289" lon="6.10975">
        <ele>1408.5999755859</ele>
        <time>2023-08-10T06:35:44.000Z</time>
      </trkpt>
      <trkpt lat="45.33298" lon="6.10965">
        <ele>1408.5999755859</ele>
        <time>2023-08-10T06:35:59.000Z</time>
      </trkpt>
      <trkpt lat="45.33304" lon="6.10969">
        <ele>1407.8000488281</ele>
        <time>2023-08-10T06:36:08.000Z</time>
      </trkpt>
      <trkpt lat="45.33304" lon="6.10976">
        <ele>1407.5999755859</ele>
        <time>2023-08-10T06:36:15.000Z</time>
      </trkpt>
      <trkpt lat="45.33302" lon="6.10975">
        <ele>1407.5999755859</ele>
        <time>2023-08-10T06:36:23.000Z</time>
      </trkpt>
      <trkpt lat="45.33301" lon="6.10971">
        <ele>1407.5999755859</ele>
        <time>2023-08-10T06:36:31.000Z</time>
      </trkpt>
      <trkpt lat="45.33301" lon="6.10968">
        <ele>1407.5999755859</ele>
        <time>2023-08-10T06:36:38.000Z</time>
      </trkpt>
      <trkpt lat="45.33298" lon="6.1097">
        <ele>1408</ele>
        <time>2023-08-10T06:36:44.000Z</time>
      </trkpt>
      <trkpt lat="45.33292" lon="6.10972">
        <ele>1408.4000244141</ele>
        <time>2023-08-10T06:36:51.000Z</time>
      </trkpt>
      <trkpt lat="45.33291" lon="6.10973">
        <ele>1408.4000244141</ele>
        <time>2023-08-10T06:36:58.000Z</time>
      </trkpt>
      <trkpt lat="45.33291" lon="6.10966">
        <ele>1408.4000244141</ele>
        <time>2023-08-10T06:37:05.000Z</time>
      </trkpt>
      <trkpt lat="45.33294" lon="6.1096">
        <ele>1408.4000244141</ele>
        <time>2023-08-10T06:37:13.000Z</time>
      </trkpt>
      <trkpt lat="45.33294" lon="6.1097">
        <ele>1408.4000244141</ele>
        <time>2023-08-10T06:37:21.000Z</time>
      </trkpt>
      <trkpt lat="45.33291" lon="6.10973">
        <ele>1408.4000244141</ele>
        <time>2023-08-10T06:37:24.000Z</time>
      </trkpt>
      <trkpt lat="45.33287" lon="6.10973">
        <ele>1408.4000244141</ele>
        <time>2023-08-10T06:37:27.000Z</time>
      </trkpt>
      <trkpt lat="45.33281" lon="6.10973">
        <ele>1408.4000244141</ele>
        <time>2023-08-10T06:37:33.000Z</time>
      </trkpt>
      <trkpt lat="45.33278" lon="6.10973">
        <ele>1408.4000244141</ele>
        <time>2023-08-10T06:37:40.000Z</time>
      </trkpt>
      <trkpt lat="45.33276" lon="6.10968">
        <ele>1408.4000244141</ele>
        <time>2023-08-10T06:37:47.000Z</time>
      </trkpt>
      <trkpt lat="45.33274" lon="6.10963">
        <ele>1409</ele>
        <time>2023-08-10T06:37:51.000Z</time>
      </trkpt>
      <trkpt lat="45.33274" lon="6.10963">
        <ele>1409</ele>
        <time>2023-08-10T06:37:52.000Z</time>
      </trkpt>
      <trkpt lat="45.3327" lon="6.10964">
        <ele>1409</ele>
        <time>2023-08-10T06:37:58.000Z</time>
      </trkpt>
      <trkpt lat="45.33268" lon="6.10961">
        <ele>1409</ele>
        <time>2023-08-10T06:38:04.000Z</time>
      </trkpt>
      <trkpt lat="45.33271" lon="6.10966">
        <ele>1409</ele>
        <time>2023-08-10T06:38:10.000Z</time>
      </trkpt>
      <trkpt lat="45.33271" lon="6.10966">
        <ele>1409</ele>
        <time>2023-08-10T06:38:14.000Z</time>
      </trkpt>
      <trkpt lat="45.33272" lon="6.10964">
        <ele>1409.1999511719</ele>
        <time>2023-08-10T06:38:16.000Z</time>
      </trkpt>
      <trkpt lat="45.33272" lon="6.10955">
        <ele>1409.5999755859</ele>
        <time>2023-08-10T06:38:23.000Z</time>
      </trkpt>
      <trkpt lat="45.33271" lon="6.10952">
        <ele>1409.8000488281</ele>
        <time>2023-08-10T06:38:25.000Z</time>
      </trkpt>
      <trkpt lat="45.33269" lon="6.10948">
        <ele>1411</ele>
        <time>2023-08-10T06:38:30.000Z</time>
      </trkpt>
      <trkpt lat="45.33268" lon="6.10949">
        <ele>1412.1999511719</ele>
        <time>2023-08-10T06:38:35.000Z</time>
      </trkpt>
      <trkpt lat="45.33267" lon="6.10946">
        <ele>1412.8000488281</ele>
        <time>2023-08-10T06:38:38.000Z</time>
      </trkpt>
      <trkpt lat="45.33265" lon="6.10944">
        <ele>1413</ele>
        <time>2023-08-10T06:38:40.000Z</time>
      </trkpt>
      <trkpt lat="45.33263" lon="6.10941">
        <ele>1413.5999755859</ele>
        <time>2023-08-10T06:38:44.000Z</time>
      </trkpt>
      <trkpt lat="45.33258" lon="6.10931">
        <ele>1414.1999511719</ele>
        <time>2023-08-10T06:38:52.000Z</time>
      </trkpt>
      <trkpt lat="45.33257" lon="6.10929">
        <ele>1414.4000244141</ele>
        <time>2023-08-10T06:38:54.000Z</time>
      </trkpt>
      <trkpt lat="45.33255" lon="6.10924">
        <ele>1415.4000244141</ele>
        <time>2023-08-10T06:38:58.000Z</time>
      </trkpt>
      <trkpt lat="45.33254" lon="6.10921">
        <ele>1415.5999755859</ele>
        <time>2023-08-10T06:39:01.000Z</time>
      </trkpt>
      <trkpt lat="45.33255" lon="6.10918">
        <ele>1416.4000244141</ele>
        <time>2023-08-10T06:39:05.000Z</time>
      </trkpt>
      <trkpt lat="45.33255" lon="6.10911">
        <ele>1417</ele>
        <time>2023-08-10T06:39:10.000Z</time>
      </trkpt>
      <trkpt lat="45.33254" lon="6.10909">
        <ele>1417.5999755859</ele>
        <time>2023-08-10T06:39:12.000Z</time>
      </trkpt>
      <trkpt lat="45.33253" lon="6.10911">
        <ele>1418.1999511719</ele>
        <time>2023-08-10T06:39:16.000Z</time>
      </trkpt>
      <trkpt lat="45.33253" lon="6.10911">
        <ele>1418.5999755859</ele>
        <time>2023-08-10T06:39:17.000Z</time>
      </trkpt>
      <trkpt lat="45.3325" lon="6.10911">
        <ele>1419.5999755859</ele>
        <time>2023-08-10T06:39:22.000Z</time>
      </trkpt>
      <trkpt lat="45.33247" lon="6.10909">
        <ele>1420.8000488281</ele>
        <time>2023-08-10T06:39:28.000Z</time>
      </trkpt>
      <trkpt lat="45.33246" lon="6.10907">
        <ele>1420.8000488281</ele>
        <time>2023-08-10T06:39:29.000Z</time>
      </trkpt>
      <trkpt lat="45.33243" lon="6.109">
        <ele>1421.8000488281</ele>
        <time>2023-08-10T06:39:35.000Z</time>
      </trkpt>
      <trkpt lat="45.33243" lon="6.10899">
        <ele>1422</ele>
        <time>2023-08-10T06:39:36.000Z</time>
      </trkpt>
      <trkpt lat="45.33237" lon="6.10893">
        <ele>1422.8000488281</ele>
        <time>2023-08-10T06:39:44.000Z</time>
      </trkpt>
      <trkpt lat="45.33235" lon="6.1089">
        <ele>1424</ele>
        <time>2023-08-10T06:39:51.000Z</time>
      </trkpt>
      <trkpt lat="45.33237" lon="6.10884">
        <ele>1425</ele>
        <time>2023-08-10T06:39:57.000Z</time>
      </trkpt>
      <trkpt lat="45.3324" lon="6.10881">
        <ele>1425</ele>
        <time>2023-08-10T06:40:02.000Z</time>
      </trkpt>
      <trkpt lat="45.3324" lon="6.10882">
        <ele>1425.1999511719</ele>
        <time>2023-08-10T06:40:05.000Z</time>
      </trkpt>
      <trkpt lat="45.33239" lon="6.10885">
        <ele>1425</ele>
        <time>2023-08-10T06:40:13.000Z</time>
      </trkpt>
      <trkpt lat="45.33235" lon="6.10884">
        <ele>1425</ele>
        <time>2023-08-10T06:40:17.000Z</time>
      </trkpt>
      <trkpt lat="45.33235" lon="6.10883">
        <ele>1425</ele>
        <time>2023-08-10T06:40:18.000Z</time>
      </trkpt>
      <trkpt lat="45.33232" lon="6.10875">
        <ele>1425.8000488281</ele>
        <time>2023-08-10T06:40:26.000Z</time>
      </trkpt>
      <trkpt lat="45.33227" lon="6.10866">
        <ele>1426</ele>
        <time>2023-08-10T06:40:34.000Z</time>
      </trkpt>
      <trkpt lat="45.33225" lon="6.10862">
        <ele>1426</ele>
        <time>2023-08-10T06:40:37.000Z</time>
      </trkpt>
      <trkpt lat="45.33221" lon="6.10852">
        <ele>1426.5999755859</ele>
        <time>2023-08-10T06:40:44.000Z</time>
      </trkpt>
      <trkpt lat="45.33221" lon="6.10845">
        <ele>1427</ele>
        <time>2023-08-10T06:40:50.000Z</time>
      </trkpt>
      <trkpt lat="45.33221" lon="6.10844">
        <ele>1427.1999511719</ele>
        <time>2023-08-10T06:40:51.000Z</time>
      </trkpt>
      <trkpt lat="45.33219" lon="6.1083">
        <ele>1427.8000488281</ele>
        <time>2023-08-10T06:40:58.000Z</time>
      </trkpt>
      <trkpt lat="45.33218" lon="6.10825">
        <ele>1428</ele>
        <time>2023-08-10T06:41:01.000Z</time>
      </trkpt>
      <trkpt lat="45.33215" lon="6.10819">
        <ele>1428.4000244141</ele>
        <time>2023-08-10T06:41:05.000Z</time>
      </trkpt>
      <trkpt lat="45.33209" lon="6.10808">
        <ele>1429</ele>
        <time>2023-08-10T06:41:14.000Z</time>
      </trkpt>
      <trkpt lat="45.33208" lon="6.10807">
        <ele>1429.1999511719</ele>
        <time>2023-08-10T06:41:15.000Z</time>
      </trkpt>
      <trkpt lat="45.33204" lon="6.10798">
        <ele>1429.5999755859</ele>
        <time>2023-08-10T06:41:22.000Z</time>
      </trkpt>
      <trkpt lat="45.33197" lon="6.10789">
        <ele>1430.1999511719</ele>
        <time>2023-08-10T06:41:30.000Z</time>
      </trkpt>
      <trkpt lat="45.33193" lon="6.1078">
        <ele>1431</ele>
        <time>2023-08-10T06:41:39.000Z</time>
      </trkpt>
      <trkpt lat="45.33192" lon="6.10777">
        <ele>1431.1999511719</ele>
        <time>2023-08-10T06:41:41.000Z</time>
      </trkpt>
      <trkpt lat="45.33191" lon="6.10768">
        <ele>1432.1999511719</ele>
        <time>2023-08-10T06:41:48.000Z</time>
      </trkpt>
      <trkpt lat="45.33191" lon="6.10765">
        <ele>1432.4000244141</ele>
        <time>2023-08-10T06:41:50.000Z</time>
      </trkpt>
      <trkpt lat="45.3319" lon="6.10762">
        <ele>1433.1999511719</ele>
        <time>2023-08-10T06:41:55.000Z</time>
      </trkpt>
      <trkpt lat="45.33189" lon="6.1076">
        <ele>1433.8000488281</ele>
        <time>2023-08-10T06:41:56.000Z</time>
      </trkpt>
      <trkpt lat="45.33187" lon="6.10753">
        <ele>1434.8000488281</ele>
        <time>2023-08-10T06:42:01.000Z</time>
      </trkpt>
      <trkpt lat="45.33185" lon="6.10751">
        <ele>1435.8000488281</ele>
        <time>2023-08-10T06:42:05.000Z</time>
      </trkpt>
      <trkpt lat="45.33184" lon="6.10751">
        <ele>1436</ele>
        <time>2023-08-10T06:42:06.000Z</time>
      </trkpt>
      <trkpt lat="45.33179" lon="6.10747">
        <ele>1437</ele>
        <time>2023-08-10T06:42:13.000Z</time>
      </trkpt>
      <trkpt lat="45.3317" lon="6.10742">
        <ele>1438</ele>
        <time>2023-08-10T06:42:21.000Z</time>
      </trkpt>
      <trkpt lat="45.33167" lon="6.10738">
        <ele>1438.8000488281</ele>
        <time>2023-08-10T06:42:28.000Z</time>
      </trkpt>
      <trkpt lat="45.33166" lon="6.10738">
        <ele>1439</ele>
        <time>2023-08-10T06:42:30.000Z</time>
      </trkpt>
      <trkpt lat="45.3316" lon="6.10732">
        <ele>1439.5999755859</ele>
        <time>2023-08-10T06:42:34.000Z</time>
      </trkpt>
      <trkpt lat="45.33157" lon="6.10729">
        <ele>1440.1999511719</ele>
        <time>2023-08-10T06:42:37.000Z</time>
      </trkpt>
      <trkpt lat="45.33155" lon="6.10727">
        <ele>1441</ele>
        <time>2023-08-10T06:42:42.000Z</time>
      </trkpt>
      <trkpt lat="45.33154" lon="6.10726">
        <ele>1441.1999511719</ele>
        <time>2023-08-10T06:42:44.000Z</time>
      </trkpt>
      <trkpt lat="45.33148" lon="6.10726">
        <ele>1442.1999511719</ele>
        <time>2023-08-10T06:42:51.000Z</time>
      </trkpt>
      <trkpt lat="45.33147" lon="6.10726">
        <ele>1442.5999755859</ele>
        <time>2023-08-10T06:42:52.000Z</time>
      </trkpt>
      <trkpt lat="45.33144" lon="6.10725">
        <ele>1443.5999755859</ele>
        <time>2023-08-10T06:42:58.000Z</time>
      </trkpt>
      <trkpt lat="45.33143" lon="6.10725">
        <ele>1443.8000488281</ele>
        <time>2023-08-10T06:42:59.000Z</time>
      </trkpt>
      <trkpt lat="45.33141" lon="6.10724">
        <ele>1444.8000488281</ele>
        <time>2023-08-10T06:43:05.000Z</time>
      </trkpt>
      <trkpt lat="45.3314" lon="6.10723">
        <ele>1444.8000488281</ele>
        <time>2023-08-10T06:43:07.000Z</time>
      </trkpt>
      <trkpt lat="45.33137" lon="6.1072">
        <ele>1445.8000488281</ele>
        <time>2023-08-10T06:43:12.000Z</time>
      </trkpt>
      <trkpt lat="45.33133" lon="6.10716">
        <ele>1446.5999755859</ele>
        <time>2023-08-10T06:43:16.000Z</time>
      </trkpt>
      <trkpt lat="45.33132" lon="6.10715">
        <ele>1446.8000488281</ele>
        <time>2023-08-10T06:43:18.000Z</time>
      </trkpt>
      <trkpt lat="45.33127" lon="6.10712">
        <ele>1448</ele>
        <time>2023-08-10T06:43:24.000Z</time>
      </trkpt>
      <trkpt lat="45.33127" lon="6.10712">
        <ele>1448</ele>
        <time>2023-08-10T06:43:25.000Z</time>
      </trkpt>
      <trkpt lat="45.33126" lon="6.10711">
        <ele>1449.1999511719</ele>
        <time>2023-08-10T06:43:31.000Z</time>
      </trkpt>
      <trkpt lat="45.33124" lon="6.1071">
        <ele>1449.8000488281</ele>
        <time>2023-08-10T06:43:34.000Z</time>
      </trkpt>
      <trkpt lat="45.33123" lon="6.10709">
        <ele>1450</ele>
        <time>2023-08-10T06:43:36.000Z</time>
      </trkpt>
      <trkpt lat="45.33118" lon="6.10703">
        <ele>1451.4000244141</ele>
        <time>2023-08-10T06:43:43.000Z</time>
      </trkpt>
      <trkpt lat="45.33117" lon="6.10701">
        <ele>1451.8000488281</ele>
        <time>2023-08-10T06:43:45.000Z</time>
      </trkpt>
      <trkpt lat="45.33116" lon="6.10699">
        <ele>1452.4000244141</ele>
        <time>2023-08-10T06:43:49.000Z</time>
      </trkpt>
      <trkpt lat="45.33115" lon="6.10698">
        <ele>1453</ele>
        <time>2023-08-10T06:43:52.000Z</time>
      </trkpt>
      <trkpt lat="45.33112" lon="6.10697">
        <ele>1453.5999755859</ele>
        <time>2023-08-10T06:43:55.000Z</time>
      </trkpt>
      <trkpt lat="45.33106" lon="6.10695">
        <ele>1454.4000244141</ele>
        <time>2023-08-10T06:44:02.000Z</time>
      </trkpt>
      <trkpt lat="45.33104" lon="6.10694">
        <ele>1454.5999755859</ele>
        <time>2023-08-10T06:44:04.000Z</time>
      </trkpt>
      <trkpt lat="45.33102" lon="6.10691">
        <ele>1455.8000488281</ele>
        <time>2023-08-10T06:44:11.000Z</time>
      </trkpt>
      <trkpt lat="45.33098" lon="6.10689">
        <ele>1456.8000488281</ele>
        <time>2023-08-10T06:44:19.000Z</time>
      </trkpt>
      <trkpt lat="45.33097" lon="6.10689">
        <ele>1457</ele>
        <time>2023-08-10T06:44:21.000Z</time>
      </trkpt>
      <trkpt lat="45.33094" lon="6.10685">
        <ele>1457.8000488281</ele>
        <time>2023-08-10T06:44:28.000Z</time>
      </trkpt>
      <trkpt lat="45.33093" lon="6.10683">
        <ele>1458.1999511719</ele>
        <time>2023-08-10T06:44:31.000Z</time>
      </trkpt>
      <trkpt lat="45.33091" lon="6.10681">
        <ele>1459</ele>
        <time>2023-08-10T06:44:36.000Z</time>
      </trkpt>
      <trkpt lat="45.3309" lon="6.10681">
        <ele>1459</ele>
        <time>2023-08-10T06:44:41.000Z</time>
      </trkpt>
      <trkpt lat="45.33085" lon="6.10681">
        <ele>1459.4000244141</ele>
        <time>2023-08-10T06:44:49.000Z</time>
      </trkpt>
      <trkpt lat="45.33083" lon="6.10679">
        <ele>1460</ele>
        <time>2023-08-10T06:44:54.000Z</time>
      </trkpt>
      <trkpt lat="45.3308" lon="6.10676">
        <ele>1460.8000488281</ele>
        <time>2023-08-10T06:44:57.000Z</time>
      </trkpt>
      <trkpt lat="45.33079" lon="6.10673">
        <ele>1461</ele>
        <time>2023-08-10T06:45:00.000Z</time>
      </trkpt>
      <trkpt lat="45.33077" lon="6.1067">
        <ele>1462</ele>
        <time>2023-08-10T06:45:04.000Z</time>
      </trkpt>
      <trkpt lat="45.33076" lon="6.10669">
        <ele>1462.1999511719</ele>
        <time>2023-08-10T06:45:06.000Z</time>
      </trkpt>
      <trkpt lat="45.33075" lon="6.10669">
        <ele>1463</ele>
        <time>2023-08-10T06:45:10.000Z</time>
      </trkpt>
      <trkpt lat="45.33073" lon="6.1067">
        <ele>1463.4000244141</ele>
        <time>2023-08-10T06:45:12.000Z</time>
      </trkpt>
      <trkpt lat="45.33072" lon="6.10666">
        <ele>1464.1999511719</ele>
        <time>2023-08-10T06:45:17.000Z</time>
      </trkpt>
      <trkpt lat="45.33072" lon="6.10665">
        <ele>1464.1999511719</ele>
        <time>2023-08-10T06:45:18.000Z</time>
      </trkpt>
      <trkpt lat="45.33068" lon="6.10657">
        <ele>1465.4000244141</ele>
        <time>2023-08-10T06:45:26.000Z</time>
      </trkpt>
      <trkpt lat="45.33067" lon="6.10656">
        <ele>1465.5999755859</ele>
        <time>2023-08-10T06:45:27.000Z</time>
      </trkpt>
      <trkpt lat="45.33061" lon="6.10651">
        <ele>1466.5999755859</ele>
        <time>2023-08-10T06:45:34.000Z</time>
      </trkpt>
      <trkpt lat="45.33058" lon="6.10649">
        <ele>1466.8000488281</ele>
        <time>2023-08-10T06:45:37.000Z</time>
      </trkpt>
      <trkpt lat="45.33054" lon="6.10647">
        <ele>1467.5999755859</ele>
        <time>2023-08-10T06:45:42.000Z</time>
      </trkpt>
      <trkpt lat="45.33052" lon="6.10646">
        <ele>1468.4000244141</ele>
        <time>2023-08-10T06:45:46.000Z</time>
      </trkpt>
      <trkpt lat="45.33049" lon="6.10646">
        <ele>1468.8000488281</ele>
        <time>2023-08-10T06:45:49.000Z</time>
      </trkpt>
      <trkpt lat="45.33045" lon="6.10646">
        <ele>1469.8000488281</ele>
        <time>2023-08-10T06:45:55.000Z</time>
      </trkpt>
      <trkpt lat="45.33045" lon="6.10645">
        <ele>1470</ele>
        <time>2023-08-10T06:45:56.000Z</time>
      </trkpt>
      <trkpt lat="45.33041" lon="6.10645">
        <ele>1471</ele>
        <time>2023-08-10T06:46:02.000Z</time>
      </trkpt>
      <trkpt lat="45.33039" lon="6.10645">
        <ele>1471.4000244141</ele>
        <time>2023-08-10T06:46:05.000Z</time>
      </trkpt>
      <trkpt lat="45.33038" lon="6.10647">
        <ele>1472</ele>
        <time>2023-08-10T06:46:09.000Z</time>
      </trkpt>
      <trkpt lat="45.33037" lon="6.10648">
        <ele>1472</ele>
        <time>2023-08-10T06:46:10.000Z</time>
      </trkpt>
      <trkpt lat="45.33035" lon="6.10652">
        <ele>1473</ele>
        <time>2023-08-10T06:46:14.000Z</time>
      </trkpt>
      <trkpt lat="45.33034" lon="6.10653">
        <ele>1473</ele>
        <time>2023-08-10T06:46:15.000Z</time>
      </trkpt>
      <trkpt lat="45.3303" lon="6.10657">
        <ele>1473.8000488281</ele>
        <time>2023-08-10T06:46:21.000Z</time>
      </trkpt>
      <trkpt lat="45.3303" lon="6.10658">
        <ele>1474</ele>
        <time>2023-08-10T06:46:23.000Z</time>
      </trkpt>
      <trkpt lat="45.33026" lon="6.10658">
        <ele>1475.1999511719</ele>
        <time>2023-08-10T06:46:30.000Z</time>
      </trkpt>
      <trkpt lat="45.33025" lon="6.10658">
        <ele>1475.1999511719</ele>
        <time>2023-08-10T06:46:31.000Z</time>
      </trkpt>
      <trkpt lat="45.33022" lon="6.10655">
        <ele>1476.4000244141</ele>
        <time>2023-08-10T06:46:37.000Z</time>
      </trkpt>
      <trkpt lat="45.3302" lon="6.10655">
        <ele>1476.8000488281</ele>
        <time>2023-08-10T06:46:40.000Z</time>
      </trkpt>
      <trkpt lat="45.33016" lon="6.10658">
        <ele>1477.1999511719</ele>
        <time>2023-08-10T06:46:44.000Z</time>
      </trkpt>
      <trkpt lat="45.33013" lon="6.1066">
        <ele>1478.4000244141</ele>
        <time>2023-08-10T06:46:48.000Z</time>
      </trkpt>
      <trkpt lat="45.33012" lon="6.1066">
        <ele>1478.5999755859</ele>
        <time>2023-08-10T06:46:49.000Z</time>
      </trkpt>
      <trkpt lat="45.33012" lon="6.10657">
        <ele>1479.5999755859</ele>
        <time>2023-08-10T06:46:55.000Z</time>
      </trkpt>
      <trkpt lat="45.33012" lon="6.10657">
        <ele>1479.8000488281</ele>
        <time>2023-08-10T06:46:56.000Z</time>
      </trkpt>
      <trkpt lat="45.33011" lon="6.10656">
        <ele>1480.4000244141</ele>
        <time>2023-08-10T06:47:01.000Z</time>
      </trkpt>
      <trkpt lat="45.33011" lon="6.10657">
        <ele>1481</ele>
        <time>2023-08-10T06:47:03.000Z</time>
      </trkpt>
      <trkpt lat="45.33009" lon="6.10659">
        <ele>1481.5999755859</ele>
        <time>2023-08-10T06:47:08.000Z</time>
      </trkpt>
      <trkpt lat="45.33006" lon="6.10659">
        <ele>1482.4000244141</ele>
        <time>2023-08-10T06:47:13.000Z</time>
      </trkpt>
      <trkpt lat="45.33007" lon="6.10659">
        <ele>1482.8000488281</ele>
        <time>2023-08-10T06:47:15.000Z</time>
      </trkpt>
      <trkpt lat="45.33005" lon="6.10656">
        <ele>1482.8000488281</ele>
        <time>2023-08-10T06:47:23.000Z</time>
      </trkpt>
      <trkpt lat="45.33002" lon="6.10652">
        <ele>1482.8000488281</ele>
        <time>2023-08-10T06:47:30.000Z</time>
      </trkpt>
      <trkpt lat="45.33001" lon="6.10653">
        <ele>1482.8000488281</ele>
        <time>2023-08-10T06:47:31.000Z</time>
      </trkpt>
      <trkpt lat="45.32995" lon="6.10657">
        <ele>1483</ele>
        <time>2023-08-10T06:47:37.000Z</time>
      </trkpt>
      <trkpt lat="45.32992" lon="6.10657">
        <ele>1484.1999511719</ele>
        <time>2023-08-10T06:47:44.000Z</time>
      </trkpt>
      <trkpt lat="45.32992" lon="6.10656">
        <ele>1484.4000244141</ele>
        <time>2023-08-10T06:47:45.000Z</time>
      </trkpt>
      <trkpt lat="45.32989" lon="6.10653">
        <ele>1485.4000244141</ele>
        <time>2023-08-10T06:47:51.000Z</time>
      </trkpt>
      <trkpt lat="45.32988" lon="6.10653">
        <ele>1485.8000488281</ele>
        <time>2023-08-10T06:47:53.000Z</time>
      </trkpt>
      <trkpt lat="45.32986" lon="6.10654">
        <ele>1486.5999755859</ele>
        <time>2023-08-10T06:47:58.000Z</time>
      </trkpt>
      <trkpt lat="45.32983" lon="6.10655">
        <ele>1487</ele>
        <time>2023-08-10T06:48:01.000Z</time>
      </trkpt>
      <trkpt lat="45.32981" lon="6.10655">
        <ele>1487.5999755859</ele>
        <time>2023-08-10T06:48:05.000Z</time>
      </trkpt>
      <trkpt lat="45.32977" lon="6.10656">
        <ele>1488.4000244141</ele>
        <time>2023-08-10T06:48:10.000Z</time>
      </trkpt>
      <trkpt lat="45.32975" lon="6.10656">
        <ele>1488.5999755859</ele>
        <time>2023-08-10T06:48:13.000Z</time>
      </trkpt>
      <trkpt lat="45.32972" lon="6.10658">
        <ele>1489.4000244141</ele>
        <time>2023-08-10T06:48:18.000Z</time>
      </trkpt>
      <trkpt lat="45.32971" lon="6.10659">
        <ele>1489.8000488281</ele>
        <time>2023-08-10T06:48:21.000Z</time>
      </trkpt>
      <trkpt lat="45.32966" lon="6.10663">
        <ele>1490.4000244141</ele>
        <time>2023-08-10T06:48:26.000Z</time>
      </trkpt>
      <trkpt lat="45.32962" lon="6.10665">
        <ele>1490.8000488281</ele>
        <time>2023-08-10T06:48:30.000Z</time>
      </trkpt>
      <trkpt lat="45.3296" lon="6.10669">
        <ele>1491.4000244141</ele>
        <time>2023-08-10T06:48:35.000Z</time>
      </trkpt>
      <trkpt lat="45.32958" lon="6.10672">
        <ele>1492</ele>
        <time>2023-08-10T06:48:40.000Z</time>
      </trkpt>
      <trkpt lat="45.32954" lon="6.10677">
        <ele>1492.8000488281</ele>
        <time>2023-08-10T06:48:48.000Z</time>
      </trkpt>
      <trkpt lat="45.32953" lon="6.10677">
        <ele>1493</ele>
        <time>2023-08-10T06:48:49.000Z</time>
      </trkpt>
      <trkpt lat="45.32947" lon="6.10683">
        <ele>1494</ele>
        <time>2023-08-10T06:48:56.000Z</time>
      </trkpt>
      <trkpt lat="45.32946" lon="6.10684">
        <ele>1494.1999511719</ele>
        <time>2023-08-10T06:48:57.000Z</time>
      </trkpt>
      <trkpt lat="45.32942" lon="6.10688">
        <ele>1495.1999511719</ele>
        <time>2023-08-10T06:49:04.000Z</time>
      </trkpt>
      <trkpt lat="45.32942" lon="6.10689">
        <ele>1495.4000244141</ele>
        <time>2023-08-10T06:49:05.000Z</time>
      </trkpt>
      <trkpt lat="45.32938" lon="6.10689">
        <ele>1496.1999511719</ele>
        <time>2023-08-10T06:49:10.000Z</time>
      </trkpt>
      <trkpt lat="45.32938" lon="6.1069">
        <ele>1496.4000244141</ele>
        <time>2023-08-10T06:49:11.000Z</time>
      </trkpt>
      <trkpt lat="45.32937" lon="6.10694">
        <ele>1497.4000244141</ele>
        <time>2023-08-10T06:49:18.000Z</time>
      </trkpt>
      <trkpt lat="45.32938" lon="6.10702">
        <ele>1498.4000244141</ele>
        <time>2023-08-10T06:49:24.000Z</time>
      </trkpt>
      <trkpt lat="45.32938" lon="6.10704">
        <ele>1499</ele>
        <time>2023-08-10T06:49:27.000Z</time>
      </trkpt>
      <trkpt lat="45.32938" lon="6.10707">
        <ele>1499.5999755859</ele>
        <time>2023-08-10T06:49:31.000Z</time>
      </trkpt>
      <trkpt lat="45.32937" lon="6.10711">
        <ele>1500.1999511719</ele>
        <time>2023-08-10T06:49:36.000Z</time>
      </trkpt>
      <trkpt lat="45.32936" lon="6.10714">
        <ele>1500.5999755859</ele>
        <time>2023-08-10T06:49:38.000Z</time>
      </trkpt>
      <trkpt lat="45.32935" lon="6.10717">
        <ele>1501.5999755859</ele>
        <time>2023-08-10T06:49:44.000Z</time>
      </trkpt>
      <trkpt lat="45.32939" lon="6.10722">
        <ele>1502</ele>
        <time>2023-08-10T06:49:51.000Z</time>
      </trkpt>
      <trkpt lat="45.32941" lon="6.10732">
        <ele>1501.8000488281</ele>
        <time>2023-08-10T06:50:01.000Z</time>
      </trkpt>
      <trkpt lat="45.32941" lon="6.10735">
        <ele>1501.4000244141</ele>
        <time>2023-08-10T06:50:11.000Z</time>
      </trkpt>
      <trkpt lat="45.32941" lon="6.10736">
        <ele>1501.4000244141</ele>
        <time>2023-08-10T06:50:20.000Z</time>
      </trkpt>
      <trkpt lat="45.32947" lon="6.10735">
        <ele>1501</ele>
        <time>2023-08-10T06:50:29.000Z</time>
      </trkpt>
      <trkpt lat="45.32946" lon="6.1074">
        <ele>1501</ele>
        <time>2023-08-10T06:50:37.000Z</time>
      </trkpt>
      <trkpt lat="45.32939" lon="6.10744">
        <ele>1500.8000488281</ele>
        <time>2023-08-10T06:50:45.000Z</time>
      </trkpt>
      <trkpt lat="45.32931" lon="6.10743">
        <ele>1501.8000488281</ele>
        <time>2023-08-10T06:50:52.000Z</time>
      </trkpt>
      <trkpt lat="45.32922" lon="6.1074">
        <ele>1502.5999755859</ele>
        <time>2023-08-10T06:50:59.000Z</time>
      </trkpt>
      <trkpt lat="45.3292" lon="6.1074">
        <ele>1503.4000244141</ele>
        <time>2023-08-10T06:51:03.000Z</time>
      </trkpt>
      <trkpt lat="45.3292" lon="6.1074">
        <ele>1503.5999755859</ele>
        <time>2023-08-10T06:51:05.000Z</time>
      </trkpt>
      <trkpt lat="45.32917" lon="6.10741">
        <ele>1504.5999755859</ele>
        <time>2023-08-10T06:51:11.000Z</time>
      </trkpt>
      <trkpt lat="45.32916" lon="6.1074">
        <ele>1504.5999755859</ele>
        <time>2023-08-10T06:51:12.000Z</time>
      </trkpt>
      <trkpt lat="45.32909" lon="6.10739">
        <ele>1505.5999755859</ele>
        <time>2023-08-10T06:51:20.000Z</time>
      </trkpt>
      <trkpt lat="45.32907" lon="6.10739">
        <ele>1505.8000488281</ele>
        <time>2023-08-10T06:51:21.000Z</time>
      </trkpt>
      <trkpt lat="45.32901" lon="6.10748">
        <ele>1506</ele>
        <time>2023-08-10T06:51:29.000Z</time>
      </trkpt>
      <trkpt lat="45.329" lon="6.10755">
        <ele>1506</ele>
        <time>2023-08-10T06:51:39.000Z</time>
      </trkpt>
      <trkpt lat="45.32902" lon="6.10755">
        <ele>1505.8000488281</ele>
        <time>2023-08-10T06:51:49.000Z</time>
      </trkpt>
      <trkpt lat="45.32901" lon="6.10755">
        <ele>1505.8000488281</ele>
        <time>2023-08-10T06:51:56.000Z</time>
      </trkpt>
      <trkpt lat="45.32899" lon="6.1075">
        <ele>1505.8000488281</ele>
        <time>2023-08-10T06:52:09.000Z</time>
      </trkpt>
      <trkpt lat="45.32895" lon="6.10749">
        <ele>1506.4000244141</ele>
        <time>2023-08-10T06:52:17.000Z</time>
      </trkpt>
      <trkpt lat="45.32895" lon="6.10751">
        <ele>1507</ele>
        <time>2023-08-10T06:52:21.000Z</time>
      </trkpt>
      <trkpt lat="45.32893" lon="6.10754">
        <ele>1507.5999755859</ele>
        <time>2023-08-10T06:52:26.000Z</time>
      </trkpt>
      <trkpt lat="45.3289" lon="6.10757">
        <ele>1508</ele>
        <time>2023-08-10T06:52:31.000Z</time>
      </trkpt>
      <trkpt lat="45.32886" lon="6.10762">
        <ele>1509</ele>
        <time>2023-08-10T06:52:37.000Z</time>
      </trkpt>
      <trkpt lat="45.32886" lon="6.10763">
        <ele>1509</ele>
        <time>2023-08-10T06:52:38.000Z</time>
      </trkpt>
      <trkpt lat="45.32881" lon="6.10771">
        <ele>1510.1999511719</ele>
        <time>2023-08-10T06:52:45.000Z</time>
      </trkpt>
      <trkpt lat="45.3288" lon="6.10772">
        <ele>1510.4000244141</ele>
        <time>2023-08-10T06:52:46.000Z</time>
      </trkpt>
      <trkpt lat="45.32876" lon="6.10778">
        <ele>1511.1999511719</ele>
        <time>2023-08-10T06:52:53.000Z</time>
      </trkpt>
      <trkpt lat="45.32875" lon="6.1078">
        <ele>1511.4000244141</ele>
        <time>2023-08-10T06:52:55.000Z</time>
      </trkpt>
      <trkpt lat="45.3287" lon="6.10787">
        <ele>1512.4000244141</ele>
        <time>2023-08-10T06:53:02.000Z</time>
      </trkpt>
      <trkpt lat="45.32869" lon="6.10788">
        <ele>1512.5999755859</ele>
        <time>2023-08-10T06:53:04.000Z</time>
      </trkpt>
      <trkpt lat="45.32863" lon="6.10792">
        <ele>1513.4000244141</ele>
        <time>2023-08-10T06:53:10.000Z</time>
      </trkpt>
      <trkpt lat="45.32859" lon="6.10795">
        <ele>1513.8000488281</ele>
        <time>2023-08-10T06:53:14.000Z</time>
      </trkpt>
      <trkpt lat="45.32857" lon="6.10796">
        <ele>1514.4000244141</ele>
        <time>2023-08-10T06:53:17.000Z</time>
      </trkpt>
      <trkpt lat="45.32856" lon="6.10798">
        <ele>1515.4000244141</ele>
        <time>2023-08-10T06:53:22.000Z</time>
      </trkpt>
      <trkpt lat="45.32855" lon="6.10799">
        <ele>1515.5999755859</ele>
        <time>2023-08-10T06:53:24.000Z</time>
      </trkpt>
      <trkpt lat="45.32846" lon="6.10796">
        <ele>1516.4000244141</ele>
        <time>2023-08-10T06:53:31.000Z</time>
      </trkpt>
      <trkpt lat="45.32845" lon="6.10796">
        <ele>1516.5999755859</ele>
        <time>2023-08-10T06:53:32.000Z</time>
      </trkpt>
      <trkpt lat="45.32838" lon="6.10794">
        <ele>1517.5999755859</ele>
        <time>2023-08-10T06:53:38.000Z</time>
      </trkpt>
      <trkpt lat="45.32837" lon="6.10793">
        <ele>1517.8000488281</ele>
        <time>2023-08-10T06:53:41.000Z</time>
      </trkpt>
      <trkpt lat="45.32836" lon="6.10794">
        <ele>1518.5999755859</ele>
        <time>2023-08-10T06:53:45.000Z</time>
      </trkpt>
      <trkpt lat="45.32832" lon="6.10796">
        <ele>1519.1999511719</ele>
        <time>2023-08-10T06:53:50.000Z</time>
      </trkpt>
      <trkpt lat="45.32827" lon="6.10797">
        <ele>1519.8000488281</ele>
        <time>2023-08-10T06:53:54.000Z</time>
      </trkpt>
      <trkpt lat="45.32824" lon="6.10799">
        <ele>1520.4000244141</ele>
        <time>2023-08-10T06:53:58.000Z</time>
      </trkpt>
      <trkpt lat="45.32823" lon="6.108">
        <ele>1520.8000488281</ele>
        <time>2023-08-10T06:54:00.000Z</time>
      </trkpt>
      <trkpt lat="45.32821" lon="6.10798">
        <ele>1521.5999755859</ele>
        <time>2023-08-10T06:54:05.000Z</time>
      </trkpt>
      <trkpt lat="45.32822" lon="6.10795">
        <ele>1522</ele>
        <time>2023-08-10T06:54:07.000Z</time>
      </trkpt>
      <trkpt lat="45.3282" lon="6.10795">
        <ele>1522</ele>
        <time>2023-08-10T06:54:14.000Z</time>
      </trkpt>
      <trkpt lat="45.32821" lon="6.10797">
        <ele>1522</ele>
        <time>2023-08-10T06:54:22.000Z</time>
      </trkpt>
      <trkpt lat="45.32817" lon="6.10804">
        <ele>1523</ele>
        <time>2023-08-10T06:54:30.000Z</time>
      </trkpt>
      <trkpt lat="45.32817" lon="6.10806">
        <ele>1523.4000244141</ele>
        <time>2023-08-10T06:54:32.000Z</time>
      </trkpt>
      <trkpt lat="45.32815" lon="6.10809">
        <ele>1524</ele>
        <time>2023-08-10T06:54:36.000Z</time>
      </trkpt>
      <trkpt lat="45.32814" lon="6.10811">
        <ele>1524.5999755859</ele>
        <time>2023-08-10T06:54:39.000Z</time>
      </trkpt>
      <trkpt lat="45.32814" lon="6.10814">
        <ele>1525.1999511719</ele>
        <time>2023-08-10T06:54:44.000Z</time>
      </trkpt>
      <trkpt lat="45.32814" lon="6.1082">
        <ele>1526.4000244141</ele>
        <time>2023-08-10T06:54:50.000Z</time>
      </trkpt>
      <trkpt lat="45.32811" lon="6.1082">
        <ele>1527.4000244141</ele>
        <time>2023-08-10T06:54:55.000Z</time>
      </trkpt>
      <trkpt lat="45.3281" lon="6.10819">
        <ele>1527.8000488281</ele>
        <time>2023-08-10T06:54:58.000Z</time>
      </trkpt>
      <trkpt lat="45.32806" lon="6.1082">
        <ele>1528.4000244141</ele>
        <time>2023-08-10T06:55:02.000Z</time>
      </trkpt>
      <trkpt lat="45.32801" lon="6.10825">
        <ele>1529</ele>
        <time>2023-08-10T06:55:07.000Z</time>
      </trkpt>
      <trkpt lat="45.32798" lon="6.10828">
        <ele>1529.5999755859</ele>
        <time>2023-08-10T06:55:10.000Z</time>
      </trkpt>
      <trkpt lat="45.32794" lon="6.10831">
        <ele>1530.1999511719</ele>
        <time>2023-08-10T06:55:14.000Z</time>
      </trkpt>
      <trkpt lat="45.32791" lon="6.10835">
        <ele>1530.8000488281</ele>
        <time>2023-08-10T06:55:19.000Z</time>
      </trkpt>
      <trkpt lat="45.3279" lon="6.10836">
        <ele>1531</ele>
        <time>2023-08-10T06:55:21.000Z</time>
      </trkpt>
      <trkpt lat="45.32785" lon="6.10837">
        <ele>1531.8000488281</ele>
        <time>2023-08-10T06:55:27.000Z</time>
      </trkpt>
      <trkpt lat="45.32784" lon="6.10837">
        <ele>1532.1999511719</ele>
        <time>2023-08-10T06:55:29.000Z</time>
      </trkpt>
      <trkpt lat="45.32782" lon="6.10838">
        <ele>1532.8000488281</ele>
        <time>2023-08-10T06:55:33.000Z</time>
      </trkpt>
      <trkpt lat="45.32781" lon="6.10838">
        <ele>1533.4000244141</ele>
        <time>2023-08-10T06:55:36.000Z</time>
      </trkpt>
      <trkpt lat="45.32782" lon="6.10839">
        <ele>1534</ele>
        <time>2023-08-10T06:55:39.000Z</time>
      </trkpt>
      <trkpt lat="45.3278" lon="6.10841">
        <ele>1535</ele>
        <time>2023-08-10T06:55:46.000Z</time>
      </trkpt>
      <trkpt lat="45.32778" lon="6.10844">
        <ele>1536.1999511719</ele>
        <time>2023-08-10T06:55:52.000Z</time>
      </trkpt>
      <trkpt lat="45.32777" lon="6.10844">
        <ele>1536.4000244141</ele>
        <time>2023-08-10T06:55:54.000Z</time>
      </trkpt>
      <trkpt lat="45.32771" lon="6.10847">
        <ele>1537.1999511719</ele>
        <time>2023-08-10T06:56:00.000Z</time>
      </trkpt>
      <trkpt lat="45.32769" lon="6.10848">
        <ele>1537.5999755859</ele>
        <time>2023-08-10T06:56:02.000Z</time>
      </trkpt>
      <trkpt lat="45.32767" lon="6.1085">
        <ele>1538.4000244141</ele>
        <time>2023-08-10T06:56:06.000Z</time>
      </trkpt>
      <trkpt lat="45.32765" lon="6.10853">
        <ele>1539</ele>
        <time>2023-08-10T06:56:11.000Z</time>
      </trkpt>
      <trkpt lat="45.32765" lon="6.10854">
        <ele>1539.4000244141</ele>
        <time>2023-08-10T06:56:13.000Z</time>
      </trkpt>
      <trkpt lat="45.32762" lon="6.10857">
        <ele>1540.4000244141</ele>
        <time>2023-08-10T06:56:18.000Z</time>
      </trkpt>
      <trkpt lat="45.32762" lon="6.10857">
        <ele>1540.4000244141</ele>
        <time>2023-08-10T06:56:19.000Z</time>
      </trkpt>
      <trkpt lat="45.32761" lon="6.10858">
        <ele>1541.4000244141</ele>
        <time>2023-08-10T06:56:24.000Z</time>
      </trkpt>
      <trkpt lat="45.32756" lon="6.10861">
        <ele>1542.1999511719</ele>
        <time>2023-08-10T06:56:29.000Z</time>
      </trkpt>
      <trkpt lat="45.32755" lon="6.10861">
        <ele>1542.5999755859</ele>
        <time>2023-08-10T06:56:30.000Z</time>
      </trkpt>
      <trkpt lat="45.32748" lon="6.10864">
        <ele>1543.8000488281</ele>
        <time>2023-08-10T06:56:38.000Z</time>
      </trkpt>
      <trkpt lat="45.32746" lon="6.10865">
        <ele>1544</ele>
        <time>2023-08-10T06:56:40.000Z</time>
      </trkpt>
      <trkpt lat="45.32741" lon="6.10868">
        <ele>1544.8000488281</ele>
        <time>2023-08-10T06:56:45.000Z</time>
      </trkpt>
      <trkpt lat="45.32738" lon="6.1087">
        <ele>1545.1999511719</ele>
        <time>2023-08-10T06:56:49.000Z</time>
      </trkpt>
      <trkpt lat="45.32736" lon="6.10873">
        <ele>1546</ele>
        <time>2023-08-10T06:56:55.000Z</time>
      </trkpt>
      <trkpt lat="45.32733" lon="6.10877">
        <ele>1546.4000244141</ele>
        <time>2023-08-10T06:57:00.000Z</time>
      </trkpt>
      <trkpt lat="45.3273" lon="6.10882">
        <ele>1547</ele>
        <time>2023-08-10T06:57:07.000Z</time>
      </trkpt>
      <trkpt lat="45.3273" lon="6.10883">
        <ele>1547</ele>
        <time>2023-08-10T06:57:08.000Z</time>
      </trkpt>
      <trkpt lat="45.32724" lon="6.10884">
        <ele>1548</ele>
        <time>2023-08-10T06:57:16.000Z</time>
      </trkpt>
      <trkpt lat="45.32722" lon="6.10885">
        <ele>1548.4000244141</ele>
        <time>2023-08-10T06:57:18.000Z</time>
      </trkpt>
      <trkpt lat="45.32717" lon="6.10889">
        <ele>1549</ele>
        <time>2023-08-10T06:57:24.000Z</time>
      </trkpt>
      <trkpt lat="45.32716" lon="6.1089">
        <ele>1549.1999511719</ele>
        <time>2023-08-10T06:57:26.000Z</time>
      </trkpt>
      <trkpt lat="45.3271" lon="6.10898">
        <ele>1550</ele>
        <time>2023-08-10T06:57:33.000Z</time>
      </trkpt>
      <trkpt lat="45.32709" lon="6.10898">
        <ele>1550.1999511719</ele>
        <time>2023-08-10T06:57:34.000Z</time>
      </trkpt>
      <trkpt lat="45.32702" lon="6.10902">
        <ele>1551.1999511719</ele>
        <time>2023-08-10T06:57:41.000Z</time>
      </trkpt>
      <trkpt lat="45.32694" lon="6.10905">
        <ele>1552.1999511719</ele>
        <time>2023-08-10T06:57:49.000Z</time>
      </trkpt>
      <trkpt lat="45.32691" lon="6.10906">
        <ele>1553.4000244141</ele>
        <time>2023-08-10T06:57:55.000Z</time>
      </trkpt>
      <trkpt lat="45.32688" lon="6.10907">
        <ele>1554.1999511719</ele>
        <time>2023-08-10T06:58:00.000Z</time>
      </trkpt>
      <trkpt lat="45.32687" lon="6.10907">
        <ele>1554.4000244141</ele>
        <time>2023-08-10T06:58:02.000Z</time>
      </trkpt>
      <trkpt lat="45.32684" lon="6.1091">
        <ele>1555.4000244141</ele>
        <time>2023-08-10T06:58:09.000Z</time>
      </trkpt>
      <trkpt lat="45.32677" lon="6.10906">
        <ele>1556.4000244141</ele>
        <time>2023-08-10T06:58:17.000Z</time>
      </trkpt>
      <trkpt lat="45.32676" lon="6.10906">
        <ele>1556.4000244141</ele>
        <time>2023-08-10T06:58:18.000Z</time>
      </trkpt>
      <trkpt lat="45.32671" lon="6.10905">
        <ele>1557.5999755859</ele>
        <time>2023-08-10T06:58:25.000Z</time>
      </trkpt>
      <trkpt lat="45.3267" lon="6.10905">
        <ele>1557.5999755859</ele>
        <time>2023-08-10T06:58:26.000Z</time>
      </trkpt>
      <trkpt lat="45.32665" lon="6.10903">
        <ele>1558.4000244141</ele>
        <time>2023-08-10T06:58:33.000Z</time>
      </trkpt>
      <trkpt lat="45.32665" lon="6.10904">
        <ele>1558.5999755859</ele>
        <time>2023-08-10T06:58:34.000Z</time>
      </trkpt>
      <trkpt lat="45.32658" lon="6.10904">
        <ele>1559.5999755859</ele>
        <time>2023-08-10T06:58:42.000Z</time>
      </trkpt>
      <trkpt lat="45.32656" lon="6.10903">
        <ele>1559.5999755859</ele>
        <time>2023-08-10T06:58:44.000Z</time>
      </trkpt>
      <trkpt lat="45.32653" lon="6.10902">
        <ele>1560</ele>
        <time>2023-08-10T06:58:49.000Z</time>
      </trkpt>
      <trkpt lat="45.32642" lon="6.10906">
        <ele>1560.4000244141</ele>
        <time>2023-08-10T06:58:58.000Z</time>
      </trkpt>
      <trkpt lat="45.32639" lon="6.10907">
        <ele>1560.5999755859</ele>
        <time>2023-08-10T06:59:02.000Z</time>
      </trkpt>
      <trkpt lat="45.32633" lon="6.10906">
        <ele>1561</ele>
        <time>2023-08-10T06:59:07.000Z</time>
      </trkpt>
      <trkpt lat="45.32622" lon="6.10901">
        <ele>1561.4000244141</ele>
        <time>2023-08-10T06:59:15.000Z</time>
      </trkpt>
      <trkpt lat="45.32617" lon="6.109">
        <ele>1561.5999755859</ele>
        <time>2023-08-10T06:59:19.000Z</time>
      </trkpt>
      <trkpt lat="45.32612" lon="6.10899">
        <ele>1562.1999511719</ele>
        <time>2023-08-10T06:59:24.000Z</time>
      </trkpt>
      <trkpt lat="45.32605" lon="6.10897">
        <ele>1562.8000488281</ele>
        <time>2023-08-10T06:59:30.000Z</time>
      </trkpt>
      <trkpt lat="45.32602" lon="6.10896">
        <ele>1563.4000244141</ele>
        <time>2023-08-10T06:59:34.000Z</time>
      </trkpt>
      <trkpt lat="45.32598" lon="6.10893">
        <ele>1564</ele>
        <time>2023-08-10T06:59:38.000Z</time>
      </trkpt>
      <trkpt lat="45.32594" lon="6.1089">
        <ele>1564.8000488281</ele>
        <time>2023-08-10T06:59:44.000Z</time>
      </trkpt>
      <trkpt lat="45.32594" lon="6.1089">
        <ele>1565.1999511719</ele>
        <time>2023-08-10T06:59:45.000Z</time>
      </trkpt>
      <trkpt lat="45.32592" lon="6.10891">
        <ele>1566.1999511719</ele>
        <time>2023-08-10T06:59:51.000Z</time>
      </trkpt>
      <trkpt lat="45.32591" lon="6.10892">
        <ele>1566.5999755859</ele>
        <time>2023-08-10T06:59:53.000Z</time>
      </trkpt>
      <trkpt lat="45.32589" lon="6.10894">
        <ele>1567.1999511719</ele>
        <time>2023-08-10T06:59:58.000Z</time>
      </trkpt>
      <trkpt lat="45.32587" lon="6.10894">
        <ele>1567.5999755859</ele>
        <time>2023-08-10T07:00:02.000Z</time>
      </trkpt>
      <trkpt lat="45.32586" lon="6.10893">
        <ele>1568.4000244141</ele>
        <time>2023-08-10T07:00:06.000Z</time>
      </trkpt>
      <trkpt lat="45.32585" lon="6.10892">
        <ele>1569</ele>
        <time>2023-08-10T07:00:09.000Z</time>
      </trkpt>
      <trkpt lat="45.32582" lon="6.10893">
        <ele>1569.4000244141</ele>
        <time>2023-08-10T07:00:11.000Z</time>
      </trkpt>
      <trkpt lat="45.32581" lon="6.10893">
        <ele>1569.5999755859</ele>
        <time>2023-08-10T07:00:12.000Z</time>
      </trkpt>
      <trkpt lat="45.3258" lon="6.10894">
        <ele>1570.1999511719</ele>
        <time>2023-08-10T07:00:16.000Z</time>
      </trkpt>
      <trkpt lat="45.3258" lon="6.10894">
        <ele>1570.4000244141</ele>
        <time>2023-08-10T07:00:17.000Z</time>
      </trkpt>
      <trkpt lat="45.32575" lon="6.10897">
        <ele>1571.4000244141</ele>
        <time>2023-08-10T07:00:24.000Z</time>
      </trkpt>
      <trkpt lat="45.32574" lon="6.10897">
        <ele>1571.5999755859</ele>
        <time>2023-08-10T07:00:25.000Z</time>
      </trkpt>
      <trkpt lat="45.3257" lon="6.10899">
        <ele>1572.5999755859</ele>
        <time>2023-08-10T07:00:31.000Z</time>
      </trkpt>
      <trkpt lat="45.32569" lon="6.109">
        <ele>1572.8000488281</ele>
        <time>2023-08-10T07:00:33.000Z</time>
      </trkpt>
      <trkpt lat="45.32566" lon="6.10902">
        <ele>1573.5999755859</ele>
        <time>2023-08-10T07:00:39.000Z</time>
      </trkpt>
      <trkpt lat="45.32563" lon="6.10901">
        <ele>1574.1999511719</ele>
        <time>2023-08-10T07:00:42.000Z</time>
      </trkpt>
      <trkpt lat="45.3256" lon="6.109">
        <ele>1574.5999755859</ele>
        <time>2023-08-10T07:00:45.000Z</time>
      </trkpt>
      <trkpt lat="45.32555" lon="6.10898">
        <ele>1575.4000244141</ele>
        <time>2023-08-10T07:00:51.000Z</time>
      </trkpt>
      <trkpt lat="45.32554" lon="6.10897">
        <ele>1575.5999755859</ele>
        <time>2023-08-10T07:00:53.000Z</time>
      </trkpt>
      <trkpt lat="45.32553" lon="6.10893">
        <ele>1576.4000244141</ele>
        <time>2023-08-10T07:01:00.000Z</time>
      </trkpt>
      <trkpt lat="45.32553" lon="6.10893">
        <ele>1576.8000488281</ele>
        <time>2023-08-10T07:01:02.000Z</time>
      </trkpt>
      <trkpt lat="45.3255" lon="6.10894">
        <ele>1577.4000244141</ele>
        <time>2023-08-10T07:01:08.000Z</time>
      </trkpt>
      <trkpt lat="45.32545" lon="6.10896">
        <ele>1577.8000488281</ele>
        <time>2023-08-10T07:01:12.000Z</time>
      </trkpt>
      <trkpt lat="45.32543" lon="6.10897">
        <ele>1578.4000244141</ele>
        <time>2023-08-10T07:01:16.000Z</time>
      </trkpt>
      <trkpt lat="45.32539" lon="6.10898">
        <ele>1578.8000488281</ele>
        <time>2023-08-10T07:01:19.000Z</time>
      </trkpt>
      <trkpt lat="45.32536" lon="6.109">
        <ele>1579.4000244141</ele>
        <time>2023-08-10T07:01:23.000Z</time>
      </trkpt>
      <trkpt lat="45.32535" lon="6.10902">
        <ele>1580</ele>
        <time>2023-08-10T07:01:26.000Z</time>
      </trkpt>
      <trkpt lat="45.32532" lon="6.10902">
        <ele>1581</ele>
        <time>2023-08-10T07:01:33.000Z</time>
      </trkpt>
      <trkpt lat="45.32527" lon="6.109">
        <ele>1582</ele>
        <time>2023-08-10T07:01:40.000Z</time>
      </trkpt>
      <trkpt lat="45.32526" lon="6.10899">
        <ele>1582.4000244141</ele>
        <time>2023-08-10T07:01:42.000Z</time>
      </trkpt>
      <trkpt lat="45.32524" lon="6.109">
        <ele>1583.1999511719</ele>
        <time>2023-08-10T07:01:47.000Z</time>
      </trkpt>
      <trkpt lat="45.32523" lon="6.10902">
        <ele>1583.5999755859</ele>
        <time>2023-08-10T07:01:50.000Z</time>
      </trkpt>
      <trkpt lat="45.32517" lon="6.10904">
        <ele>1584.1999511719</ele>
        <time>2023-08-10T07:01:55.000Z</time>
      </trkpt>
      <trkpt lat="45.32516" lon="6.10904">
        <ele>1584.4000244141</ele>
        <time>2023-08-10T07:01:56.000Z</time>
      </trkpt>
      <trkpt lat="45.32512" lon="6.10903">
        <ele>1585.1999511719</ele>
        <time>2023-08-10T07:02:02.000Z</time>
      </trkpt>
      <trkpt lat="45.32512" lon="6.10902">
        <ele>1585.5999755859</ele>
        <time>2023-08-10T07:02:05.000Z</time>
      </trkpt>
      <trkpt lat="45.32509" lon="6.10901">
        <ele>1586.4000244141</ele>
        <time>2023-08-10T07:02:12.000Z</time>
      </trkpt>
      <trkpt lat="45.32507" lon="6.10901">
        <ele>1586.8000488281</ele>
        <time>2023-08-10T07:02:14.000Z</time>
      </trkpt>
      <trkpt lat="45.32505" lon="6.109">
        <ele>1587.4000244141</ele>
        <time>2023-08-10T07:02:19.000Z</time>
      </trkpt>
      <trkpt lat="45.32502" lon="6.109">
        <ele>1588.1999511719</ele>
        <time>2023-08-10T07:02:23.000Z</time>
      </trkpt>
      <trkpt lat="45.32501" lon="6.109">
        <ele>1588.4000244141</ele>
        <time>2023-08-10T07:02:25.000Z</time>
      </trkpt>
      <trkpt lat="45.32498" lon="6.109">
        <ele>1589.4000244141</ele>
        <time>2023-08-10T07:02:31.000Z</time>
      </trkpt>
      <trkpt lat="45.32498" lon="6.10899">
        <ele>1589.5999755859</ele>
        <time>2023-08-10T07:02:32.000Z</time>
      </trkpt>
      <trkpt lat="45.32496" lon="6.10902">
        <ele>1590.5999755859</ele>
        <time>2023-08-10T07:02:39.000Z</time>
      </trkpt>
      <trkpt lat="45.32496" lon="6.10902">
        <ele>1591</ele>
        <time>2023-08-10T07:02:41.000Z</time>
      </trkpt>
      <trkpt lat="45.32495" lon="6.10905">
        <ele>1591.8000488281</ele>
        <time>2023-08-10T07:02:46.000Z</time>
      </trkpt>
      <trkpt lat="45.32493" lon="6.10906">
        <ele>1592.4000244141</ele>
        <time>2023-08-10T07:02:50.000Z</time>
      </trkpt>
      <trkpt lat="45.3249" lon="6.10907">
        <ele>1593</ele>
        <time>2023-08-10T07:02:53.000Z</time>
      </trkpt>
      <trkpt lat="45.32485" lon="6.10911">
        <ele>1594</ele>
        <time>2023-08-10T07:02:58.000Z</time>
      </trkpt>
      <trkpt lat="45.32485" lon="6.10912">
        <ele>1594.1999511719</ele>
        <time>2023-08-10T07:02:59.000Z</time>
      </trkpt>
      <trkpt lat="45.32483" lon="6.10911">
        <ele>1595</ele>
        <time>2023-08-10T07:03:05.000Z</time>
      </trkpt>
      <trkpt lat="45.32483" lon="6.10911">
        <ele>1595.4000244141</ele>
        <time>2023-08-10T07:03:07.000Z</time>
      </trkpt>
      <trkpt lat="45.32482" lon="6.10909">
        <ele>1596</ele>
        <time>2023-08-10T07:03:10.000Z</time>
      </trkpt>
      <trkpt lat="45.32476" lon="6.10907">
        <ele>1597</ele>
        <time>2023-08-10T07:03:16.000Z</time>
      </trkpt>
      <trkpt lat="45.32472" lon="6.10904">
        <ele>1598.1999511719</ele>
        <time>2023-08-10T07:03:22.000Z</time>
      </trkpt>
      <trkpt lat="45.32471" lon="6.10904">
        <ele>1598.4000244141</ele>
        <time>2023-08-10T07:03:24.000Z</time>
      </trkpt>
      <trkpt lat="45.32463" lon="6.10903">
        <ele>1598.8000488281</ele>
        <time>2023-08-10T07:03:33.000Z</time>
      </trkpt>
      <trkpt lat="45.32456" lon="6.10902">
        <ele>1598.5999755859</ele>
        <time>2023-08-10T07:03:40.000Z</time>
      </trkpt>
      <trkpt lat="45.32452" lon="6.109">
        <ele>1599.1999511719</ele>
        <time>2023-08-10T07:03:44.000Z</time>
      </trkpt>
      <trkpt lat="45.32447" lon="6.10898">
        <ele>1599.4000244141</ele>
        <time>2023-08-10T07:03:48.000Z</time>
      </trkpt>
      <trkpt lat="45.32439" lon="6.10895">
        <ele>1600.4000244141</ele>
        <time>2023-08-10T07:03:57.000Z</time>
      </trkpt>
      <trkpt lat="45.32439" lon="6.10895">
        <ele>1600.4000244141</ele>
        <time>2023-08-10T07:03:58.000Z</time>
      </trkpt>
      <trkpt lat="45.32436" lon="6.10895">
        <ele>1601.4000244141</ele>
        <time>2023-08-10T07:04:03.000Z</time>
      </trkpt>
      <trkpt lat="45.32434" lon="6.10894">
        <ele>1602</ele>
        <time>2023-08-10T07:04:06.000Z</time>
      </trkpt>
      <trkpt lat="45.32431" lon="6.10889">
        <ele>1603.5999755859</ele>
        <time>2023-08-10T07:04:15.000Z</time>
      </trkpt>
      <trkpt lat="45.32429" lon="6.10888">
        <ele>1604.1999511719</ele>
        <time>2023-08-10T07:04:19.000Z</time>
      </trkpt>
      <trkpt lat="45.32426" lon="6.10887">
        <ele>1604.8000488281</ele>
        <time>2023-08-10T07:04:22.000Z</time>
      </trkpt>
      <trkpt lat="45.32423" lon="6.10887">
        <ele>1605.8000488281</ele>
        <time>2023-08-10T07:04:27.000Z</time>
      </trkpt>
      <trkpt lat="45.32418" lon="6.10886">
        <ele>1606.8000488281</ele>
        <time>2023-08-10T07:04:33.000Z</time>
      </trkpt>
      <trkpt lat="45.32418" lon="6.10885">
        <ele>1607.1999511719</ele>
        <time>2023-08-10T07:04:35.000Z</time>
      </trkpt>
      <trkpt lat="45.32415" lon="6.10884">
        <ele>1608</ele>
        <time>2023-08-10T07:04:41.000Z</time>
      </trkpt>
      <trkpt lat="45.32414" lon="6.10884">
        <ele>1608.4000244141</ele>
        <time>2023-08-10T07:04:44.000Z</time>
      </trkpt>
      <trkpt lat="45.32411" lon="6.10884">
        <ele>1609</ele>
        <time>2023-08-10T07:04:49.000Z</time>
      </trkpt>
      <trkpt lat="45.32409" lon="6.10884">
        <ele>1609.4000244141</ele>
        <time>2023-08-10T07:04:52.000Z</time>
      </trkpt>
      <trkpt lat="45.32404" lon="6.10883">
        <ele>1610.1999511719</ele>
        <time>2023-08-10T07:04:56.000Z</time>
      </trkpt>
      <trkpt lat="45.32402" lon="6.10882">
        <ele>1610.4000244141</ele>
        <time>2023-08-10T07:04:58.000Z</time>
      </trkpt>
      <trkpt lat="45.32399" lon="6.10881">
        <ele>1611.1999511719</ele>
        <time>2023-08-10T07:05:02.000Z</time>
      </trkpt>
      <trkpt lat="45.324" lon="6.10883">
        <ele>1611.5999755859</ele>
        <time>2023-08-10T07:05:05.000Z</time>
      </trkpt>
      <trkpt lat="45.32397" lon="6.10884">
        <ele>1612.1999511719</ele>
        <time>2023-08-10T07:05:10.000Z</time>
      </trkpt>
      <trkpt lat="45.32394" lon="6.10886">
        <ele>1612.8000488281</ele>
        <time>2023-08-10T07:05:13.000Z</time>
      </trkpt>
      <trkpt lat="45.32392" lon="6.10887">
        <ele>1613.4000244141</ele>
        <time>2023-08-10T07:05:17.000Z</time>
      </trkpt>
      <trkpt lat="45.32388" lon="6.1089">
        <ele>1614.1999511719</ele>
        <time>2023-08-10T07:05:24.000Z</time>
      </trkpt>
      <trkpt lat="45.32388" lon="6.1089">
        <ele>1614.4000244141</ele>
        <time>2023-08-10T07:05:26.000Z</time>
      </trkpt>
      <trkpt lat="45.3239" lon="6.10892">
        <ele>1614.4000244141</ele>
        <time>2023-08-10T07:05:34.000Z</time>
      </trkpt>
      <trkpt lat="45.3239" lon="6.10891">
        <ele>1614.4000244141</ele>
        <time>2023-08-10T07:05:45.000Z</time>
      </trkpt>
      <trkpt lat="45.32392" lon="6.10884">
        <ele>1614.1999511719</ele>
        <time>2023-08-10T07:05:56.000Z</time>
      </trkpt>
      <trkpt lat="45.32393" lon="6.10891">
        <ele>1614.1999511719</ele>
        <time>2023-08-10T07:06:04.000Z</time>
      </trkpt>
      <trkpt lat="45.32392" lon="6.10896">
        <ele>1614.8000488281</ele>
        <time>2023-08-10T07:06:12.000Z</time>
      </trkpt>
      <trkpt lat="45.32392" lon="6.109">
        <ele>1615.5999755859</ele>
        <time>2023-08-10T07:06:16.000Z</time>
      </trkpt>
      <trkpt lat="45.3239" lon="6.10904">
        <ele>1616.8000488281</ele>
        <time>2023-08-10T07:06:22.000Z</time>
      </trkpt>
      <trkpt lat="45.32389" lon="6.10908">
        <ele>1617.8000488281</ele>
        <time>2023-08-10T07:06:28.000Z</time>
      </trkpt>
      <trkpt lat="45.32389" lon="6.10908">
        <ele>1618.4000244141</ele>
        <time>2023-08-10T07:06:31.000Z</time>
      </trkpt>
      <trkpt lat="45.32389" lon="6.10909">
        <ele>1618.8000488281</ele>
        <time>2023-08-10T07:06:33.000Z</time>
      </trkpt>
      <trkpt lat="45.32387" lon="6.10914">
        <ele>1619.8000488281</ele>
        <time>2023-08-10T07:06:39.000Z</time>
      </trkpt>
      <trkpt lat="45.32387" lon="6.10914">
        <ele>1620</ele>
        <time>2023-08-10T07:06:40.000Z</time>
      </trkpt>
      <trkpt lat="45.32385" lon="6.10918">
        <ele>1621</ele>
        <time>2023-08-10T07:06:45.000Z</time>
      </trkpt>
      <trkpt lat="45.32385" lon="6.10922">
        <ele>1621.4000244141</ele>
        <time>2023-08-10T07:06:48.000Z</time>
      </trkpt>
      <trkpt lat="45.32385" lon="6.10925">
        <ele>1622</ele>
        <time>2023-08-10T07:06:51.000Z</time>
      </trkpt>
      <trkpt lat="45.32385" lon="6.1093">
        <ele>1623.1999511719</ele>
        <time>2023-08-10T07:06:57.000Z</time>
      </trkpt>
      <trkpt lat="45.32385" lon="6.10934">
        <ele>1624.1999511719</ele>
        <time>2023-08-10T07:07:04.000Z</time>
      </trkpt>
      <trkpt lat="45.32385" lon="6.10934">
        <ele>1624.4000244141</ele>
        <time>2023-08-10T07:07:05.000Z</time>
      </trkpt>
      <trkpt lat="45.32384" lon="6.10938">
        <ele>1625.4000244141</ele>
        <time>2023-08-10T07:07:10.000Z</time>
      </trkpt>
      <trkpt lat="45.32383" lon="6.1094">
        <ele>1625.8000488281</ele>
        <time>2023-08-10T07:07:12.000Z</time>
      </trkpt>
      <trkpt lat="45.32379" lon="6.10944">
        <ele>1626.4000244141</ele>
        <time>2023-08-10T07:07:17.000Z</time>
      </trkpt>
      <trkpt lat="45.32378" lon="6.10945">
        <ele>1627.1999511719</ele>
        <time>2023-08-10T07:07:21.000Z</time>
      </trkpt>
      <trkpt lat="45.32378" lon="6.10945">
        <ele>1627.4000244141</ele>
        <time>2023-08-10T07:07:23.000Z</time>
      </trkpt>
      <trkpt lat="45.32375" lon="6.10947">
        <ele>1628.4000244141</ele>
        <time>2023-08-10T07:07:28.000Z</time>
      </trkpt>
      <trkpt lat="45.32374" lon="6.10947">
        <ele>1628.5999755859</ele>
        <time>2023-08-10T07:07:29.000Z</time>
      </trkpt>
      <trkpt lat="45.32368" lon="6.10952">
        <ele>1629.8000488281</ele>
        <time>2023-08-10T07:07:36.000Z</time>
      </trkpt>
      <trkpt lat="45.32367" lon="6.10952">
        <ele>1630</ele>
        <time>2023-08-10T07:07:38.000Z</time>
      </trkpt>
      <trkpt lat="45.32364" lon="6.10954">
        <ele>1630.8000488281</ele>
        <time>2023-08-10T07:07:42.000Z</time>
      </trkpt>
      <trkpt lat="45.32359" lon="6.10957">
        <ele>1631.5999755859</ele>
        <time>2023-08-10T07:07:47.000Z</time>
      </trkpt>
      <trkpt lat="45.32358" lon="6.10958">
        <ele>1631.8000488281</ele>
        <time>2023-08-10T07:07:48.000Z</time>
      </trkpt>
      <trkpt lat="45.32356" lon="6.10957">
        <ele>1633</ele>
        <time>2023-08-10T07:07:54.000Z</time>
      </trkpt>
      <trkpt lat="45.32357" lon="6.10959">
        <ele>1633.1999511719</ele>
        <time>2023-08-10T07:07:55.000Z</time>
      </trkpt>
      <trkpt lat="45.32353" lon="6.10952">
        <ele>1634.1999511719</ele>
        <time>2023-08-10T07:08:00.000Z</time>
      </trkpt>
      <trkpt lat="45.32354" lon="6.10949">
        <ele>1634.8000488281</ele>
        <time>2023-08-10T07:08:04.000Z</time>
      </trkpt>
      <trkpt lat="45.32355" lon="6.10946">
        <ele>1635.4000244141</ele>
        <time>2023-08-10T07:08:07.000Z</time>
      </trkpt>
      <trkpt lat="45.32351" lon="6.10942">
        <ele>1636</ele>
        <time>2023-08-10T07:08:13.000Z</time>
      </trkpt>
      <trkpt lat="45.3235" lon="6.10943">
        <ele>1636.4000244141</ele>
        <time>2023-08-10T07:08:15.000Z</time>
      </trkpt>
      <trkpt lat="45.32347" lon="6.10948">
        <ele>1637.4000244141</ele>
        <time>2023-08-10T07:08:21.000Z</time>
      </trkpt>
      <trkpt lat="45.32346" lon="6.1095">
        <ele>1637.8000488281</ele>
        <time>2023-08-10T07:08:23.000Z</time>
      </trkpt>
      <trkpt lat="45.32342" lon="6.10954">
        <ele>1638.5999755859</ele>
        <time>2023-08-10T07:08:28.000Z</time>
      </trkpt>
      <trkpt lat="45.3234" lon="6.10956">
        <ele>1639.1999511719</ele>
        <time>2023-08-10T07:08:32.000Z</time>
      </trkpt>
      <trkpt lat="45.32339" lon="6.10956">
        <ele>1639.5999755859</ele>
        <time>2023-08-10T07:08:34.000Z</time>
      </trkpt>
      <trkpt lat="45.32334" lon="6.10952">
        <ele>1640.5999755859</ele>
        <time>2023-08-10T07:08:41.000Z</time>
      </trkpt>
      <trkpt lat="45.32328" lon="6.10947">
        <ele>1641.5999755859</ele>
        <time>2023-08-10T07:08:50.000Z</time>
      </trkpt>
      <trkpt lat="45.32327" lon="6.10947">
        <ele>1641.8000488281</ele>
        <time>2023-08-10T07:08:51.000Z</time>
      </trkpt>
      <trkpt lat="45.32323" lon="6.10946">
        <ele>1642.8000488281</ele>
        <time>2023-08-10T07:08:57.000Z</time>
      </trkpt>
      <trkpt lat="45.32322" lon="6.10945">
        <ele>1643</ele>
        <time>2023-08-10T07:08:58.000Z</time>
      </trkpt>
      <trkpt lat="45.32319" lon="6.10941">
        <ele>1644</ele>
        <time>2023-08-10T07:09:04.000Z</time>
      </trkpt>
      <trkpt lat="45.32318" lon="6.10938">
        <ele>1644.1999511719</ele>
        <time>2023-08-10T07:09:07.000Z</time>
      </trkpt>
      <trkpt lat="45.32316" lon="6.10936">
        <ele>1645</ele>
        <time>2023-08-10T07:09:11.000Z</time>
      </trkpt>
      <trkpt lat="45.32314" lon="6.10935">
        <ele>1645.4000244141</ele>
        <time>2023-08-10T07:09:15.000Z</time>
      </trkpt>
      <trkpt lat="45.32313" lon="6.10935">
        <ele>1646</ele>
        <time>2023-08-10T07:09:18.000Z</time>
      </trkpt>
      <trkpt lat="45.32311" lon="6.10934">
        <ele>1646.8000488281</ele>
        <time>2023-08-10T07:09:23.000Z</time>
      </trkpt>
      <trkpt lat="45.32311" lon="6.10934">
        <ele>1647</ele>
        <time>2023-08-10T07:09:24.000Z</time>
      </trkpt>
      <trkpt lat="45.32307" lon="6.10935">
        <ele>1648</ele>
        <time>2023-08-10T07:09:30.000Z</time>
      </trkpt>
      <trkpt lat="45.32305" lon="6.10937">
        <ele>1648.5999755859</ele>
        <time>2023-08-10T07:09:34.000Z</time>
      </trkpt>
      <trkpt lat="45.32302" lon="6.10937">
        <ele>1649</ele>
        <time>2023-08-10T07:09:38.000Z</time>
      </trkpt>
      <trkpt lat="45.323" lon="6.10939">
        <ele>1650.1999511719</ele>
        <time>2023-08-10T07:09:45.000Z</time>
      </trkpt>
      <trkpt lat="45.32299" lon="6.10939">
        <ele>1650.4000244141</ele>
        <time>2023-08-10T07:09:46.000Z</time>
      </trkpt>
      <trkpt lat="45.32296" lon="6.10941">
        <ele>1651.1999511719</ele>
        <time>2023-08-10T07:09:51.000Z</time>
      </trkpt>
      <trkpt lat="45.32294" lon="6.10941">
        <ele>1652</ele>
        <time>2023-08-10T07:09:55.000Z</time>
      </trkpt>
      <trkpt lat="45.32291" lon="6.10943">
        <ele>1653.4000244141</ele>
        <time>2023-08-10T07:10:03.000Z</time>
      </trkpt>
      <trkpt lat="45.32281" lon="6.1094">
        <ele>1658.5999755859</ele>
        <time>2023-08-10T07:10:29.000Z</time>
      </trkpt>
      <trkpt lat="45.3228" lon="6.10939">
        <ele>1659</ele>
        <time>2023-08-10T07:10:32.000Z</time>
      </trkpt>
      <trkpt lat="45.32275" lon="6.10938">
        <ele>1660.1999511719</ele>
        <time>2023-08-10T07:10:38.000Z</time>
      </trkpt>
      <trkpt lat="45.32266" lon="6.10937">
        <ele>1662.1999511719</ele>
        <time>2023-08-10T07:10:50.000Z</time>
      </trkpt>
      <trkpt lat="45.32267" lon="6.10938">
        <ele>1662.1999511719</ele>
        <time>2023-08-10T07:10:51.000Z</time>
      </trkpt>
      <trkpt lat="45.32258" lon="6.10936">
        <ele>1663.1999511719</ele>
        <time>2023-08-10T07:11:00.000Z</time>
      </trkpt>
      <trkpt lat="45.32257" lon="6.10936">
        <ele>1663.4000244141</ele>
        <time>2023-08-10T07:11:01.000Z</time>
      </trkpt>
      <trkpt lat="45.32242" lon="6.10935">
        <ele>1665.5999755859</ele>
        <time>2023-08-10T07:11:18.000Z</time>
      </trkpt>
      <trkpt lat="45.32237" lon="6.1093">
        <ele>1666</ele>
        <time>2023-08-10T07:11:25.000Z</time>
      </trkpt>
      <trkpt lat="45.32232" lon="6.1093">
        <ele>1665.5999755859</ele>
        <time>2023-08-10T07:11:33.000Z</time>
      </trkpt>
      <trkpt lat="45.3222" lon="6.10927">
        <ele>1666</ele>
        <time>2023-08-10T07:11:44.000Z</time>
      </trkpt>
      <trkpt lat="45.32217" lon="6.10924">
        <ele>1666.4000244141</ele>
        <time>2023-08-10T07:11:47.000Z</time>
      </trkpt>
      <trkpt lat="45.3221" lon="6.10922">
        <ele>1667</ele>
        <time>2023-08-10T07:11:53.000Z</time>
      </trkpt>
      <trkpt lat="45.32202" lon="6.10922">
        <ele>1667.5999755859</ele>
        <time>2023-08-10T07:12:01.000Z</time>
      </trkpt>
      <trkpt lat="45.32198" lon="6.10922">
        <ele>1668.5999755859</ele>
        <time>2023-08-10T07:12:07.000Z</time>
      </trkpt>
      <trkpt lat="45.32195" lon="6.10921">
        <ele>1669.4000244141</ele>
        <time>2023-08-10T07:12:11.000Z</time>
      </trkpt>
      <trkpt lat="45.32191" lon="6.10917">
        <ele>1669.5999755859</ele>
        <time>2023-08-10T07:12:17.000Z</time>
      </trkpt>
      <trkpt lat="45.32187" lon="6.10914">
        <ele>1669.5999755859</ele>
        <time>2023-08-10T07:12:22.000Z</time>
      </trkpt>
      <trkpt lat="45.32184" lon="6.10914">
        <ele>1670.8000488281</ele>
        <time>2023-08-10T07:12:32.000Z</time>
      </trkpt>
      <trkpt lat="45.32184" lon="6.10914">
        <ele>1671</ele>
        <time>2023-08-10T07:12:35.000Z</time>
      </trkpt>
      <trkpt lat="45.32098" lon="6.10916">
        <ele>1683.4000244141</ele>
        <time>2023-08-10T07:14:22.000Z</time>
      </trkpt>
      <trkpt lat="45.32098" lon="6.10916">
        <ele>1683.5999755859</ele>
        <time>2023-08-10T07:14:23.000Z</time>
      </trkpt>
      <trkpt lat="45.32096" lon="6.10915">
        <ele>1684</ele>
        <time>2023-08-10T07:14:26.000Z</time>
      </trkpt>
      <trkpt lat="45.32094" lon="6.10913">
        <ele>1684.5999755859</ele>
        <time>2023-08-10T07:14:32.000Z</time>
      </trkpt>
      <trkpt lat="45.32092" lon="6.10912">
        <ele>1684.5999755859</ele>
        <time>2023-08-10T07:14:42.000Z</time>
      </trkpt>
      <trkpt lat="45.32088" lon="6.10909">
        <ele>1684.4000244141</ele>
        <time>2023-08-10T07:14:48.000Z</time>
      </trkpt>
      <trkpt lat="45.32086" lon="6.10906">
        <ele>1684.8000488281</ele>
        <time>2023-08-10T07:14:53.000Z</time>
      </trkpt>
      <trkpt lat="45.32084" lon="6.10904">
        <ele>1685</ele>
        <time>2023-08-10T07:14:55.000Z</time>
      </trkpt>
      <trkpt lat="45.32076" lon="6.10896">
        <ele>1684.5999755859</ele>
        <time>2023-08-10T07:15:06.000Z</time>
      </trkpt>
      <trkpt lat="45.32069" lon="6.10892">
        <ele>1684.1999511719</ele>
        <time>2023-08-10T07:15:14.000Z</time>
      </trkpt>
      <trkpt lat="45.32063" lon="6.10889">
        <ele>1684.5999755859</ele>
        <time>2023-08-10T07:15:22.000Z</time>
      </trkpt>
      <trkpt lat="45.32055" lon="6.10884">
        <ele>1684.4000244141</ele>
        <time>2023-08-10T07:15:31.000Z</time>
      </trkpt>
      <trkpt lat="45.32048" lon="6.10882">
        <ele>1684.8000488281</ele>
        <time>2023-08-10T07:15:37.000Z</time>
      </trkpt>
      <trkpt lat="45.32041" lon="6.10878">
        <ele>1685</ele>
        <time>2023-08-10T07:15:45.000Z</time>
      </trkpt>
      <trkpt lat="45.32036" lon="6.10876">
        <ele>1684.8000488281</ele>
        <time>2023-08-10T07:15:53.000Z</time>
      </trkpt>
      <trkpt lat="45.32028" lon="6.10872">
        <ele>1684.4000244141</ele>
        <time>2023-08-10T07:16:02.000Z</time>
      </trkpt>
      <trkpt lat="45.32023" lon="6.10871">
        <ele>1685.1999511719</ele>
        <time>2023-08-10T07:16:09.000Z</time>
      </trkpt>
      <trkpt lat="45.32018" lon="6.10866">
        <ele>1685.8000488281</ele>
        <time>2023-08-10T07:16:16.000Z</time>
      </trkpt>
      <trkpt lat="45.3201" lon="6.1086">
        <ele>1686.4000244141</ele>
        <time>2023-08-10T07:16:25.000Z</time>
      </trkpt>
      <trkpt lat="45.32007" lon="6.10859">
        <ele>1686.8000488281</ele>
        <time>2023-08-10T07:16:31.000Z</time>
      </trkpt>
      <trkpt lat="45.32" lon="6.10858">
        <ele>1687.1999511719</ele>
        <time>2023-08-10T07:16:37.000Z</time>
      </trkpt>
      <trkpt lat="45.31996" lon="6.10857">
        <ele>1687.8000488281</ele>
        <time>2023-08-10T07:16:44.000Z</time>
      </trkpt>
      <trkpt lat="45.31995" lon="6.10856">
        <ele>1687.8000488281</ele>
        <time>2023-08-10T07:16:46.000Z</time>
      </trkpt>
      <trkpt lat="45.31989" lon="6.10851">
        <ele>1687.5999755859</ele>
        <time>2023-08-10T07:16:52.000Z</time>
      </trkpt>
      <trkpt lat="45.31985" lon="6.10848">
        <ele>1687.8000488281</ele>
        <time>2023-08-10T07:17:00.000Z</time>
      </trkpt>
      <trkpt lat="45.3198" lon="6.10845">
        <ele>1687.8000488281</ele>
        <time>2023-08-10T07:17:08.000Z</time>
      </trkpt>
      <trkpt lat="45.31972" lon="6.10839">
        <ele>1687.8000488281</ele>
        <time>2023-08-10T07:17:15.000Z</time>
      </trkpt>
      <trkpt lat="45.31969" lon="6.10836">
        <ele>1688.5999755859</ele>
        <time>2023-08-10T07:17:22.000Z</time>
      </trkpt>
      <trkpt lat="45.31963" lon="6.10832">
        <ele>1688.8000488281</ele>
        <time>2023-08-10T07:17:30.000Z</time>
      </trkpt>
      <trkpt lat="45.3196" lon="6.10829">
        <ele>1689</ele>
        <time>2023-08-10T07:17:34.000Z</time>
      </trkpt>
      <trkpt lat="45.31957" lon="6.10827">
        <ele>1689.1999511719</ele>
        <time>2023-08-10T07:17:38.000Z</time>
      </trkpt>
      <trkpt lat="45.31951" lon="6.10823">
        <ele>1689.5999755859</ele>
        <time>2023-08-10T07:17:45.000Z</time>
      </trkpt>
      <trkpt lat="45.31949" lon="6.10822">
        <ele>1690</ele>
        <time>2023-08-10T07:17:47.000Z</time>
      </trkpt>
      <trkpt lat="45.31944" lon="6.10813">
        <ele>1690.4000244141</ele>
        <time>2023-08-10T07:17:55.000Z</time>
      </trkpt>
      <trkpt lat="45.3194" lon="6.10809">
        <ele>1691</ele>
        <time>2023-08-10T07:18:02.000Z</time>
      </trkpt>
      <trkpt lat="45.31939" lon="6.10809">
        <ele>1691.1999511719</ele>
        <time>2023-08-10T07:18:03.000Z</time>
      </trkpt>
      <trkpt lat="45.31933" lon="6.10807">
        <ele>1692.1999511719</ele>
        <time>2023-08-10T07:18:09.000Z</time>
      </trkpt>
      <trkpt lat="45.3193" lon="6.10806">
        <ele>1692.4000244141</ele>
        <time>2023-08-10T07:18:11.000Z</time>
      </trkpt>
      <trkpt lat="45.31928" lon="6.10799">
        <ele>1692</ele>
        <time>2023-08-10T07:18:19.000Z</time>
      </trkpt>
      <trkpt lat="45.31925" lon="6.10793">
        <ele>1691.8000488281</ele>
        <time>2023-08-10T07:18:25.000Z</time>
      </trkpt>
      <trkpt lat="45.31917" lon="6.10786">
        <ele>1692.5999755859</ele>
        <time>2023-08-10T07:18:33.000Z</time>
      </trkpt>
      <trkpt lat="45.31913" lon="6.10785">
        <ele>1693.1999511719</ele>
        <time>2023-08-10T07:18:37.000Z</time>
      </trkpt>
      <trkpt lat="45.31911" lon="6.10784">
        <ele>1693.5999755859</ele>
        <time>2023-08-10T07:18:39.000Z</time>
      </trkpt>
      <trkpt lat="45.31909" lon="6.10784">
        <ele>1694.4000244141</ele>
        <time>2023-08-10T07:18:44.000Z</time>
      </trkpt>
      <trkpt lat="45.31908" lon="6.10784">
        <ele>1694.8000488281</ele>
        <time>2023-08-10T07:18:46.000Z</time>
      </trkpt>
      <trkpt lat="45.31906" lon="6.10782">
        <ele>1695.5999755859</ele>
        <time>2023-08-10T07:18:49.000Z</time>
      </trkpt>
      <trkpt lat="45.31901" lon="6.1078">
        <ele>1696.4000244141</ele>
        <time>2023-08-10T07:18:54.000Z</time>
      </trkpt>
      <trkpt lat="45.31901" lon="6.10781">
        <ele>1696.5999755859</ele>
        <time>2023-08-10T07:18:55.000Z</time>
      </trkpt>
      <trkpt lat="45.31892" lon="6.10775">
        <ele>1697.5999755859</ele>
        <time>2023-08-10T07:19:04.000Z</time>
      </trkpt>
      <trkpt lat="45.3189" lon="6.10774">
        <ele>1697.8000488281</ele>
        <time>2023-08-10T07:19:06.000Z</time>
      </trkpt>
      <trkpt lat="45.31886" lon="6.10771">
        <ele>1698</ele>
        <time>2023-08-10T07:19:10.000Z</time>
      </trkpt>
      <trkpt lat="45.31881" lon="6.10769">
        <ele>1698.8000488281</ele>
        <time>2023-08-10T07:19:16.000Z</time>
      </trkpt>
      <trkpt lat="45.31879" lon="6.10769">
        <ele>1698.8000488281</ele>
        <time>2023-08-10T07:19:18.000Z</time>
      </trkpt>
      <trkpt lat="45.31873" lon="6.10769">
        <ele>1699.1999511719</ele>
        <time>2023-08-10T07:19:26.000Z</time>
      </trkpt>
      <trkpt lat="45.31866" lon="6.1077">
        <ele>1699.8000488281</ele>
        <time>2023-08-10T07:19:34.000Z</time>
      </trkpt>
      <trkpt lat="45.31865" lon="6.1077">
        <ele>1700</ele>
        <time>2023-08-10T07:19:35.000Z</time>
      </trkpt>
      <trkpt lat="45.31859" lon="6.1077">
        <ele>1700.8000488281</ele>
        <time>2023-08-10T07:19:43.000Z</time>
      </trkpt>
      <trkpt lat="45.31859" lon="6.1077">
        <ele>1701</ele>
        <time>2023-08-10T07:19:44.000Z</time>
      </trkpt>
      <trkpt lat="45.31854" lon="6.10773">
        <ele>1702.1999511719</ele>
        <time>2023-08-10T07:19:51.000Z</time>
      </trkpt>
      <trkpt lat="45.31846" lon="6.10777">
        <ele>1702.8000488281</ele>
        <time>2023-08-10T07:19:58.000Z</time>
      </trkpt>
      <trkpt lat="45.31837" lon="6.10779">
        <ele>1703.1999511719</ele>
        <time>2023-08-10T07:20:06.000Z</time>
      </trkpt>
      <trkpt lat="45.31836" lon="6.10779">
        <ele>1703.1999511719</ele>
        <time>2023-08-10T07:20:07.000Z</time>
      </trkpt>
      <trkpt lat="45.31827" lon="6.10784">
        <ele>1704</ele>
        <time>2023-08-10T07:20:17.000Z</time>
      </trkpt>
      <trkpt lat="45.31824" lon="6.10785">
        <ele>1704.4000244141</ele>
        <time>2023-08-10T07:20:20.000Z</time>
      </trkpt>
      <trkpt lat="45.3182" lon="6.10786">
        <ele>1704.5999755859</ele>
        <time>2023-08-10T07:20:25.000Z</time>
      </trkpt>
      <trkpt lat="45.31814" lon="6.10789">
        <ele>1704.5999755859</ele>
        <time>2023-08-10T07:20:35.000Z</time>
      </trkpt>
      <trkpt lat="45.3181" lon="6.10795">
        <ele>1705.4000244141</ele>
        <time>2023-08-10T07:20:41.000Z</time>
      </trkpt>
      <trkpt lat="45.31808" lon="6.10797">
        <ele>1706</ele>
        <time>2023-08-10T07:20:44.000Z</time>
      </trkpt>
      <trkpt lat="45.31807" lon="6.10798">
        <ele>1706.4000244141</ele>
        <time>2023-08-10T07:20:46.000Z</time>
      </trkpt>
      <trkpt lat="45.31803" lon="6.10803">
        <ele>1706.1999511719</ele>
        <time>2023-08-10T07:20:51.000Z</time>
      </trkpt>
      <trkpt lat="45.31797" lon="6.10809">
        <ele>1706.5999755859</ele>
        <time>2023-08-10T07:21:00.000Z</time>
      </trkpt>
      <trkpt lat="45.31793" lon="6.10814">
        <ele>1707.5999755859</ele>
        <time>2023-08-10T07:21:07.000Z</time>
      </trkpt>
      <trkpt lat="45.31792" lon="6.10815">
        <ele>1707.8000488281</ele>
        <time>2023-08-10T07:21:08.000Z</time>
      </trkpt>
      <trkpt lat="45.31788" lon="6.10819">
        <ele>1708.1999511719</ele>
        <time>2023-08-10T07:21:14.000Z</time>
      </trkpt>
      <trkpt lat="45.31782" lon="6.10825">
        <ele>1708.8000488281</ele>
        <time>2023-08-10T07:21:25.000Z</time>
      </trkpt>
      <trkpt lat="45.31782" lon="6.10826">
        <ele>1708.8000488281</ele>
        <time>2023-08-10T07:21:26.000Z</time>
      </trkpt>
      <trkpt lat="45.31778" lon="6.10827">
        <ele>1708.8000488281</ele>
        <time>2023-08-10T07:21:33.000Z</time>
      </trkpt>
      <trkpt lat="45.31774" lon="6.1083">
        <ele>1709</ele>
        <time>2023-08-10T07:21:39.000Z</time>
      </trkpt>
      <trkpt lat="45.31772" lon="6.10831">
        <ele>1709.8000488281</ele>
        <time>2023-08-10T07:21:43.000Z</time>
      </trkpt>
      <trkpt lat="45.31768" lon="6.10833">
        <ele>1710.8000488281</ele>
        <time>2023-08-10T07:21:49.000Z</time>
      </trkpt>
      <trkpt lat="45.31767" lon="6.10833">
        <ele>1710.8000488281</ele>
        <time>2023-08-10T07:21:50.000Z</time>
      </trkpt>
      <trkpt lat="45.31757" lon="6.10835">
        <ele>1711.4000244141</ele>
        <time>2023-08-10T07:22:04.000Z</time>
      </trkpt>
      <trkpt lat="45.31751" lon="6.10837">
        <ele>1713</ele>
        <time>2023-08-10T07:22:13.000Z</time>
      </trkpt>
      <trkpt lat="45.31746" lon="6.10837">
        <ele>1713.5999755859</ele>
        <time>2023-08-10T07:22:19.000Z</time>
      </trkpt>
      <trkpt lat="45.31743" lon="6.10841">
        <ele>1714</ele>
        <time>2023-08-10T07:22:24.000Z</time>
      </trkpt>
      <trkpt lat="45.31731" lon="6.10844">
        <ele>1715.8000488281</ele>
        <time>2023-08-10T07:22:38.000Z</time>
      </trkpt>
      <trkpt lat="45.31723" lon="6.10843">
        <ele>1716.5999755859</ele>
        <time>2023-08-10T07:22:49.000Z</time>
      </trkpt>
      <trkpt lat="45.3172" lon="6.10842">
        <ele>1717.1999511719</ele>
        <time>2023-08-10T07:22:53.000Z</time>
      </trkpt>
      <trkpt lat="45.31717" lon="6.1084">
        <ele>1717.5999755859</ele>
        <time>2023-08-10T07:22:56.000Z</time>
      </trkpt>
      <trkpt lat="45.31712" lon="6.10837">
        <ele>1718.4000244141</ele>
        <time>2023-08-10T07:23:02.000Z</time>
      </trkpt>
      <trkpt lat="45.31709" lon="6.10835">
        <ele>1718.5999755859</ele>
        <time>2023-08-10T07:23:05.000Z</time>
      </trkpt>
      <trkpt lat="45.31703" lon="6.10831">
        <ele>1719.1999511719</ele>
        <time>2023-08-10T07:23:12.000Z</time>
      </trkpt>
      <trkpt lat="45.317" lon="6.10828">
        <ele>1719.4000244141</ele>
        <time>2023-08-10T07:23:15.000Z</time>
      </trkpt>
      <trkpt lat="45.31695" lon="6.10825">
        <ele>1719.5999755859</ele>
        <time>2023-08-10T07:23:20.000Z</time>
      </trkpt>
      <trkpt lat="45.3169" lon="6.10826">
        <ele>1720.1999511719</ele>
        <time>2023-08-10T07:23:25.000Z</time>
      </trkpt>
      <trkpt lat="45.31685" lon="6.10823">
        <ele>1720.4000244141</ele>
        <time>2023-08-10T07:23:33.000Z</time>
      </trkpt>
      <trkpt lat="45.3168" lon="6.10819">
        <ele>1720.5999755859</ele>
        <time>2023-08-10T07:23:39.000Z</time>
      </trkpt>
      <trkpt lat="45.31671" lon="6.10815">
        <ele>1720.4000244141</ele>
        <time>2023-08-10T07:23:47.000Z</time>
      </trkpt>
      <trkpt lat="45.31665" lon="6.1081">
        <ele>1720.8000488281</ele>
        <time>2023-08-10T07:23:55.000Z</time>
      </trkpt>
      <trkpt lat="45.31658" lon="6.10804">
        <ele>1721.1999511719</ele>
        <time>2023-08-10T07:24:04.000Z</time>
      </trkpt>
      <trkpt lat="45.3165" lon="6.10801">
        <ele>1721.1999511719</ele>
        <time>2023-08-10T07:24:13.000Z</time>
      </trkpt>
      <trkpt lat="45.31641" lon="6.10796">
        <ele>1721.1999511719</ele>
        <time>2023-08-10T07:24:21.000Z</time>
      </trkpt>
      <trkpt lat="45.31635" lon="6.10795">
        <ele>1721.1999511719</ele>
        <time>2023-08-10T07:24:28.000Z</time>
      </trkpt>
      <trkpt lat="45.31631" lon="6.10794">
        <ele>1721.4000244141</ele>
        <time>2023-08-10T07:24:32.000Z</time>
      </trkpt>
      <trkpt lat="45.31627" lon="6.10792">
        <ele>1721.5999755859</ele>
        <time>2023-08-10T07:24:35.000Z</time>
      </trkpt>
      <trkpt lat="45.31618" lon="6.10788">
        <ele>1722</ele>
        <time>2023-08-10T07:24:43.000Z</time>
      </trkpt>
      <trkpt lat="45.31611" lon="6.10784">
        <ele>1721.8000488281</ele>
        <time>2023-08-10T07:24:51.000Z</time>
      </trkpt>
      <trkpt lat="45.31605" lon="6.10781">
        <ele>1721.5999755859</ele>
        <time>2023-08-10T07:24:58.000Z</time>
      </trkpt>
      <trkpt lat="45.31604" lon="6.10782">
        <ele>1721.5999755859</ele>
        <time>2023-08-10T07:25:02.000Z</time>
      </trkpt>
      <trkpt lat="45.31603" lon="6.10782">
        <ele>1721.5999755859</ele>
        <time>2023-08-10T07:25:04.000Z</time>
      </trkpt>
      <trkpt lat="45.31601" lon="6.10783">
        <ele>1721.5999755859</ele>
        <time>2023-08-10T07:25:07.000Z</time>
      </trkpt>
      <trkpt lat="45.31602" lon="6.10783">
        <ele>1721.5999755859</ele>
        <time>2023-08-10T07:25:14.000Z</time>
      </trkpt>
      <trkpt lat="45.31602" lon="6.10786">
        <ele>1721.4000244141</ele>
        <time>2023-08-10T07:25:24.000Z</time>
      </trkpt>
      <trkpt lat="45.31603" lon="6.10784">
        <ele>1721.1999511719</ele>
        <time>2023-08-10T07:25:33.000Z</time>
      </trkpt>
      <trkpt lat="45.31595" lon="6.10786">
        <ele>1721.8000488281</ele>
        <time>2023-08-10T07:25:41.000Z</time>
      </trkpt>
      <trkpt lat="45.31591" lon="6.10786">
        <ele>1722.5999755859</ele>
        <time>2023-08-10T07:25:45.000Z</time>
      </trkpt>
      <trkpt lat="45.31587" lon="6.10787">
        <ele>1723.5999755859</ele>
        <time>2023-08-10T07:25:50.000Z</time>
      </trkpt>
      <trkpt lat="45.31586" lon="6.10788">
        <ele>1724</ele>
        <time>2023-08-10T07:25:53.000Z</time>
      </trkpt>
      <trkpt lat="45.31584" lon="6.10788">
        <ele>1724.8000488281</ele>
        <time>2023-08-10T07:25:58.000Z</time>
      </trkpt>
      <trkpt lat="45.31582" lon="6.1079">
        <ele>1725.1999511719</ele>
        <time>2023-08-10T07:26:01.000Z</time>
      </trkpt>
      <trkpt lat="45.31581" lon="6.10793">
        <ele>1725.4000244141</ele>
        <time>2023-08-10T07:26:09.000Z</time>
      </trkpt>
      <trkpt lat="45.31578" lon="6.10795">
        <ele>1725.5999755859</ele>
        <time>2023-08-10T07:26:16.000Z</time>
      </trkpt>
      <trkpt lat="45.31573" lon="6.10798">
        <ele>1725.5999755859</ele>
        <time>2023-08-10T07:26:23.000Z</time>
      </trkpt>
      <trkpt lat="45.31574" lon="6.108">
        <ele>1725.1999511719</ele>
        <time>2023-08-10T07:26:29.000Z</time>
      </trkpt>
      <trkpt lat="45.31573" lon="6.10803">
        <ele>1725.1999511719</ele>
        <time>2023-08-10T07:26:41.000Z</time>
      </trkpt>
      <trkpt lat="45.31572" lon="6.10806">
        <ele>1725</ele>
        <time>2023-08-10T07:26:48.000Z</time>
      </trkpt>
      <trkpt lat="45.31574" lon="6.10813">
        <ele>1724.4000244141</ele>
        <time>2023-08-10T07:26:57.000Z</time>
      </trkpt>
      <trkpt lat="45.31572" lon="6.1081">
        <ele>1724.4000244141</ele>
        <time>2023-08-10T07:27:08.000Z</time>
      </trkpt>
      <trkpt lat="45.31577" lon="6.10811">
        <ele>1724.4000244141</ele>
        <time>2023-08-10T07:27:16.000Z</time>
      </trkpt>
      <trkpt lat="45.31576" lon="6.1081">
        <ele>1724.4000244141</ele>
        <time>2023-08-10T07:27:26.000Z</time>
      </trkpt>
      <trkpt lat="45.31573" lon="6.10807">
        <ele>1724.1999511719</ele>
        <time>2023-08-10T07:27:32.000Z</time>
      </trkpt>
      <trkpt lat="45.31568" lon="6.10805">
        <ele>1723.8000488281</ele>
        <time>2023-08-10T07:27:39.000Z</time>
      </trkpt>
      <trkpt lat="45.31562" lon="6.10807">
        <ele>1722.8000488281</ele>
        <time>2023-08-10T07:27:47.000Z</time>
      </trkpt>
      <trkpt lat="45.3156" lon="6.10806">
        <ele>1722.5999755859</ele>
        <time>2023-08-10T07:27:49.000Z</time>
      </trkpt>
      <trkpt lat="45.31557" lon="6.10807">
        <ele>1721.8000488281</ele>
        <time>2023-08-10T07:28:00.000Z</time>
      </trkpt>
      <trkpt lat="45.31557" lon="6.10809">
        <ele>1721.8000488281</ele>
        <time>2023-08-10T07:28:08.000Z</time>
      </trkpt>
      <trkpt lat="45.3156" lon="6.10809">
        <ele>1722</ele>
        <time>2023-08-10T07:28:15.000Z</time>
      </trkpt>
      <trkpt lat="45.31556" lon="6.10804">
        <ele>1722</ele>
        <time>2023-08-10T07:28:20.000Z</time>
      </trkpt>
      <trkpt lat="45.31551" lon="6.10794">
        <ele>1722.1999511719</ele>
        <time>2023-08-10T07:28:28.000Z</time>
      </trkpt>
      <trkpt lat="45.31543" lon="6.10786">
        <ele>1722.1999511719</ele>
        <time>2023-08-10T07:28:36.000Z</time>
      </trkpt>
      <trkpt lat="45.3154" lon="6.10782">
        <ele>1722.5999755859</ele>
        <time>2023-08-10T07:28:41.000Z</time>
      </trkpt>
      <trkpt lat="45.31539" lon="6.10775">
        <ele>1722.5999755859</ele>
        <time>2023-08-10T07:28:48.000Z</time>
      </trkpt>
      <trkpt lat="45.31537" lon="6.10773">
        <ele>1722.4000244141</ele>
        <time>2023-08-10T07:28:57.000Z</time>
      </trkpt>
      <trkpt lat="45.31532" lon="6.10773">
        <ele>1722.4000244141</ele>
        <time>2023-08-10T07:29:05.000Z</time>
      </trkpt>
      <trkpt lat="45.31525" lon="6.10771">
        <ele>1722.5999755859</ele>
        <time>2023-08-10T07:29:15.000Z</time>
      </trkpt>
      <trkpt lat="45.31519" lon="6.1077">
        <ele>1723.1999511719</ele>
        <time>2023-08-10T07:29:21.000Z</time>
      </trkpt>
      <trkpt lat="45.31513" lon="6.10768">
        <ele>1723.5999755859</ele>
        <time>2023-08-10T07:29:27.000Z</time>
      </trkpt>
      <trkpt lat="45.3151" lon="6.10766">
        <ele>1723.1999511719</ele>
        <time>2023-08-10T07:29:34.000Z</time>
      </trkpt>
      <trkpt lat="45.31515" lon="6.10769">
        <ele>1723.4000244141</ele>
        <time>2023-08-10T07:29:42.000Z</time>
      </trkpt>
      <trkpt lat="45.31515" lon="6.10767">
        <ele>1723.5999755859</ele>
        <time>2023-08-10T07:29:46.000Z</time>
      </trkpt>
      <trkpt lat="45.31515" lon="6.10769">
        <ele>1723.5999755859</ele>
        <time>2023-08-10T07:29:50.000Z</time>
      </trkpt>
      <trkpt lat="45.31514" lon="6.10767">
        <ele>1723.8000488281</ele>
        <time>2023-08-10T07:30:04.000Z</time>
      </trkpt>
      <trkpt lat="45.31505" lon="6.10764">
        <ele>1723.1999511719</ele>
        <time>2023-08-10T07:30:13.000Z</time>
      </trkpt>
      <trkpt lat="45.31503" lon="6.10764">
        <ele>1722.5999755859</ele>
        <time>2023-08-10T07:30:18.000Z</time>
      </trkpt>
      <trkpt lat="45.31502" lon="6.10763">
        <ele>1722.5999755859</ele>
        <time>2023-08-10T07:30:19.000Z</time>
      </trkpt>
      <trkpt lat="45.31499" lon="6.10755">
        <ele>1722.5999755859</ele>
        <time>2023-08-10T07:30:27.000Z</time>
      </trkpt>
      <trkpt lat="45.31497" lon="6.1075">
        <ele>1722.5999755859</ele>
        <time>2023-08-10T07:30:32.000Z</time>
      </trkpt>
      <trkpt lat="45.31494" lon="6.10745">
        <ele>1722.5999755859</ele>
        <time>2023-08-10T07:30:37.000Z</time>
      </trkpt>
      <trkpt lat="45.31488" lon="6.10742">
        <ele>1722.8000488281</ele>
        <time>2023-08-10T07:30:45.000Z</time>
      </trkpt>
      <trkpt lat="45.31481" lon="6.10743">
        <ele>1723.4000244141</ele>
        <time>2023-08-10T07:30:54.000Z</time>
      </trkpt>
      <trkpt lat="45.31478" lon="6.10744">
        <ele>1723.5999755859</ele>
        <time>2023-08-10T07:30:58.000Z</time>
      </trkpt>
      <trkpt lat="45.31475" lon="6.10743">
        <ele>1724</ele>
        <time>2023-08-10T07:31:01.000Z</time>
      </trkpt>
      <trkpt lat="45.31474" lon="6.10743">
        <ele>1724.5999755859</ele>
        <time>2023-08-10T07:31:05.000Z</time>
      </trkpt>
      <trkpt lat="45.31471" lon="6.10741">
        <ele>1725.1999511719</ele>
        <time>2023-08-10T07:31:09.000Z</time>
      </trkpt>
      <trkpt lat="45.3147" lon="6.10742">
        <ele>1725.8000488281</ele>
        <time>2023-08-10T07:31:12.000Z</time>
      </trkpt>
      <trkpt lat="45.31468" lon="6.10742">
        <ele>1726.5999755859</ele>
        <time>2023-08-10T07:31:16.000Z</time>
      </trkpt>
      <trkpt lat="45.31467" lon="6.10742">
        <ele>1727</ele>
        <time>2023-08-10T07:31:18.000Z</time>
      </trkpt>
      <trkpt lat="45.31464" lon="6.10741">
        <ele>1728</ele>
        <time>2023-08-10T07:31:24.000Z</time>
      </trkpt>
      <trkpt lat="45.31461" lon="6.10739">
        <ele>1729.1999511719</ele>
        <time>2023-08-10T07:31:30.000Z</time>
      </trkpt>
      <trkpt lat="45.31461" lon="6.10739">
        <ele>1729.1999511719</ele>
        <time>2023-08-10T07:31:31.000Z</time>
      </trkpt>
      <trkpt lat="45.3146" lon="6.10739">
        <ele>1730.1999511719</ele>
        <time>2023-08-10T07:31:36.000Z</time>
      </trkpt>
      <trkpt lat="45.31459" lon="6.1074">
        <ele>1730.5999755859</ele>
        <time>2023-08-10T07:31:39.000Z</time>
      </trkpt>
      <trkpt lat="45.31459" lon="6.1074">
        <ele>1730.8000488281</ele>
        <time>2023-08-10T07:31:40.000Z</time>
      </trkpt>
      <trkpt lat="45.3146" lon="6.10739">
        <ele>1731.1999511719</ele>
        <time>2023-08-10T07:31:42.000Z</time>
      </trkpt>
      <trkpt lat="45.31458" lon="6.10736">
        <ele>1731.8000488281</ele>
        <time>2023-08-10T07:31:46.000Z</time>
      </trkpt>
      <trkpt lat="45.31457" lon="6.10736">
        <ele>1732.1999511719</ele>
        <time>2023-08-10T07:31:50.000Z</time>
      </trkpt>
      <trkpt lat="45.31455" lon="6.10735">
        <ele>1733</ele>
        <time>2023-08-10T07:31:54.000Z</time>
      </trkpt>
      <trkpt lat="45.31454" lon="6.10735">
        <ele>1733.1999511719</ele>
        <time>2023-08-10T07:31:56.000Z</time>
      </trkpt>
      <trkpt lat="45.31454" lon="6.10735">
        <ele>1734</ele>
        <time>2023-08-10T07:32:00.000Z</time>
      </trkpt>
      <trkpt lat="45.31454" lon="6.10735">
        <ele>1734.4000244141</ele>
        <time>2023-08-10T07:32:02.000Z</time>
      </trkpt>
      <trkpt lat="45.31451" lon="6.10733">
        <ele>1735.5999755859</ele>
        <time>2023-08-10T07:32:08.000Z</time>
      </trkpt>
      <trkpt lat="45.31449" lon="6.10733">
        <ele>1735.8000488281</ele>
        <time>2023-08-10T07:32:10.000Z</time>
      </trkpt>
      <trkpt lat="45.31448" lon="6.10733">
        <ele>1736.4000244141</ele>
        <time>2023-08-10T07:32:13.000Z</time>
      </trkpt>
      <trkpt lat="45.31448" lon="6.10733">
        <ele>1736.5999755859</ele>
        <time>2023-08-10T07:32:15.000Z</time>
      </trkpt>
      <trkpt lat="45.31446" lon="6.10732">
        <ele>1737.4000244141</ele>
        <time>2023-08-10T07:32:21.000Z</time>
      </trkpt>
      <trkpt lat="45.31445" lon="6.10732">
        <ele>1737.5999755859</ele>
        <time>2023-08-10T07:32:22.000Z</time>
      </trkpt>
      <trkpt lat="45.31446" lon="6.10731">
        <ele>1738.4000244141</ele>
        <time>2023-08-10T07:32:28.000Z</time>
      </trkpt>
      <trkpt lat="45.31446" lon="6.10732">
        <ele>1738.5999755859</ele>
        <time>2023-08-10T07:32:30.000Z</time>
      </trkpt>
      <trkpt lat="45.31445" lon="6.10732">
        <ele>1738.5999755859</ele>
        <time>2023-08-10T07:32:36.000Z</time>
      </trkpt>
      <trkpt lat="45.31446" lon="6.10734">
        <ele>1738.5999755859</ele>
        <time>2023-08-10T07:32:45.000Z</time>
      </trkpt>
      <trkpt lat="45.31443" lon="6.10732">
        <ele>1738.5999755859</ele>
        <time>2023-08-10T07:32:51.000Z</time>
      </trkpt>
      <trkpt lat="45.31439" lon="6.10727">
        <ele>1739.5999755859</ele>
        <time>2023-08-10T07:32:59.000Z</time>
      </trkpt>
      <trkpt lat="45.31438" lon="6.10726">
        <ele>1739.8000488281</ele>
        <time>2023-08-10T07:33:00.000Z</time>
      </trkpt>
      <trkpt lat="45.31433" lon="6.1072">
        <ele>1740.4000244141</ele>
        <time>2023-08-10T07:33:08.000Z</time>
      </trkpt>
      <trkpt lat="45.3143" lon="6.10721">
        <ele>1741</ele>
        <time>2023-08-10T07:33:12.000Z</time>
      </trkpt>
      <trkpt lat="45.31429" lon="6.1072">
        <ele>1741.5999755859</ele>
        <time>2023-08-10T07:33:16.000Z</time>
      </trkpt>
      <trkpt lat="45.31426" lon="6.1072">
        <ele>1742.1999511719</ele>
        <time>2023-08-10T07:33:19.000Z</time>
      </trkpt>
      <trkpt lat="45.31424" lon="6.10721">
        <ele>1743</ele>
        <time>2023-08-10T07:33:24.000Z</time>
      </trkpt>
      <trkpt lat="45.31424" lon="6.10721">
        <ele>1743.4000244141</ele>
        <time>2023-08-10T07:33:26.000Z</time>
      </trkpt>
      <trkpt lat="45.31421" lon="6.10721">
        <ele>1743.4000244141</ele>
        <time>2023-08-10T07:33:31.000Z</time>
      </trkpt>
      <trkpt lat="45.31413" lon="6.10721">
        <ele>1743.5999755859</ele>
        <time>2023-08-10T07:33:39.000Z</time>
      </trkpt>
      <trkpt lat="45.31407" lon="6.10725">
        <ele>1744.1999511719</ele>
        <time>2023-08-10T07:33:48.000Z</time>
      </trkpt>
      <trkpt lat="45.31406" lon="6.10727">
        <ele>1744.4000244141</ele>
        <time>2023-08-10T07:33:50.000Z</time>
      </trkpt>
      <trkpt lat="45.31405" lon="6.10726">
        <ele>1745.1999511719</ele>
        <time>2023-08-10T07:33:54.000Z</time>
      </trkpt>
      <trkpt lat="45.31403" lon="6.10726">
        <ele>1745.5999755859</ele>
        <time>2023-08-10T07:33:57.000Z</time>
      </trkpt>
      <trkpt lat="45.314" lon="6.10727">
        <ele>1746.5999755859</ele>
        <time>2023-08-10T07:34:02.000Z</time>
      </trkpt>
      <trkpt lat="45.31399" lon="6.10727">
        <ele>1746.8000488281</ele>
        <time>2023-08-10T07:34:03.000Z</time>
      </trkpt>
      <trkpt lat="45.31397" lon="6.10727">
        <ele>1747.5999755859</ele>
        <time>2023-08-10T07:34:08.000Z</time>
      </trkpt>
      <trkpt lat="45.31396" lon="6.10727">
        <ele>1748</ele>
        <time>2023-08-10T07:34:11.000Z</time>
      </trkpt>
      <trkpt lat="45.31395" lon="6.10725">
        <ele>1748.8000488281</ele>
        <time>2023-08-10T07:34:16.000Z</time>
      </trkpt>
      <trkpt lat="45.31393" lon="6.10723">
        <ele>1749</ele>
        <time>2023-08-10T07:34:19.000Z</time>
      </trkpt>
      <trkpt lat="45.31389" lon="6.10721">
        <ele>1749.1999511719</ele>
        <time>2023-08-10T07:34:25.000Z</time>
      </trkpt>
      <trkpt lat="45.31387" lon="6.1072">
        <ele>1749.8000488281</ele>
        <time>2023-08-10T07:34:29.000Z</time>
      </trkpt>
      <trkpt lat="45.31387" lon="6.10719">
        <ele>1750</ele>
        <time>2023-08-10T07:34:32.000Z</time>
      </trkpt>
      <trkpt lat="45.31384" lon="6.10714">
        <ele>1750.4000244141</ele>
        <time>2023-08-10T07:34:39.000Z</time>
      </trkpt>
      <trkpt lat="45.31383" lon="6.10711">
        <ele>1750.8000488281</ele>
        <time>2023-08-10T07:34:43.000Z</time>
      </trkpt>
      <trkpt lat="45.31382" lon="6.10709">
        <ele>1751</ele>
        <time>2023-08-10T07:34:45.000Z</time>
      </trkpt>
      <trkpt lat="45.31381" lon="6.10703">
        <ele>1752</ele>
        <time>2023-08-10T07:34:53.000Z</time>
      </trkpt>
      <trkpt lat="45.31379" lon="6.10694">
        <ele>1752.8000488281</ele>
        <time>2023-08-10T07:35:02.000Z</time>
      </trkpt>
      <trkpt lat="45.31378" lon="6.10684">
        <ele>1752.5999755859</ele>
        <time>2023-08-10T07:35:10.000Z</time>
      </trkpt>
      <trkpt lat="45.31377" lon="6.1068">
        <ele>1753</ele>
        <time>2023-08-10T07:35:14.000Z</time>
      </trkpt>
      <trkpt lat="45.31377" lon="6.10677">
        <ele>1753.1999511719</ele>
        <time>2023-08-10T07:35:16.000Z</time>
      </trkpt>
      <trkpt lat="45.31375" lon="6.10673">
        <ele>1754</ele>
        <time>2023-08-10T07:35:22.000Z</time>
      </trkpt>
      <trkpt lat="45.31374" lon="6.1067">
        <ele>1754.8000488281</ele>
        <time>2023-08-10T07:35:26.000Z</time>
      </trkpt>
      <trkpt lat="45.31373" lon="6.10667">
        <ele>1755</ele>
        <time>2023-08-10T07:35:28.000Z</time>
      </trkpt>
      <trkpt lat="45.31371" lon="6.1066">
        <ele>1755.4000244141</ele>
        <time>2023-08-10T07:35:35.000Z</time>
      </trkpt>
      <trkpt lat="45.31371" lon="6.10653">
        <ele>1756</ele>
        <time>2023-08-10T07:35:41.000Z</time>
      </trkpt>
      <trkpt lat="45.31369" lon="6.10643">
        <ele>1756.5999755859</ele>
        <time>2023-08-10T07:35:49.000Z</time>
      </trkpt>
      <trkpt lat="45.31368" lon="6.10637">
        <ele>1757.1999511719</ele>
        <time>2023-08-10T07:35:55.000Z</time>
      </trkpt>
      <trkpt lat="45.31368" lon="6.10637">
        <ele>1757.1999511719</ele>
        <time>2023-08-10T07:35:56.000Z</time>
      </trkpt>
      <trkpt lat="45.31367" lon="6.10635">
        <ele>1758.1999511719</ele>
        <time>2023-08-10T07:36:01.000Z</time>
      </trkpt>
      <trkpt lat="45.31367" lon="6.10632">
        <ele>1758.8000488281</ele>
        <time>2023-08-10T07:36:04.000Z</time>
      </trkpt>
      <trkpt lat="45.31365" lon="6.10624">
        <ele>1759.1999511719</ele>
        <time>2023-08-10T07:36:11.000Z</time>
      </trkpt>
      <trkpt lat="45.31365" lon="6.10623">
        <ele>1759.4000244141</ele>
        <time>2023-08-10T07:36:12.000Z</time>
      </trkpt>
      <trkpt lat="45.31363" lon="6.10618">
        <ele>1759.8000488281</ele>
        <time>2023-08-10T07:36:18.000Z</time>
      </trkpt>
      <trkpt lat="45.31362" lon="6.10614">
        <ele>1760.4000244141</ele>
        <time>2023-08-10T07:36:22.000Z</time>
      </trkpt>
      <trkpt lat="45.3136" lon="6.1061">
        <ele>1760.8000488281</ele>
        <time>2023-08-10T07:36:25.000Z</time>
      </trkpt>
      <trkpt lat="45.31359" lon="6.10605">
        <ele>1761.4000244141</ele>
        <time>2023-08-10T07:36:30.000Z</time>
      </trkpt>
      <trkpt lat="45.31359" lon="6.10605">
        <ele>1761.5999755859</ele>
        <time>2023-08-10T07:36:31.000Z</time>
      </trkpt>
      <trkpt lat="45.31359" lon="6.10599">
        <ele>1762.5999755859</ele>
        <time>2023-08-10T07:36:37.000Z</time>
      </trkpt>
      <trkpt lat="45.31359" lon="6.10596">
        <ele>1762.8000488281</ele>
        <time>2023-08-10T07:36:39.000Z</time>
      </trkpt>
      <trkpt lat="45.31364" lon="6.10586">
        <ele>1762.8000488281</ele>
        <time>2023-08-10T07:36:46.000Z</time>
      </trkpt>
      <trkpt lat="45.31368" lon="6.10574">
        <ele>1762.5999755859</ele>
        <time>2023-08-10T07:36:56.000Z</time>
      </trkpt>
      <trkpt lat="45.31368" lon="6.10568">
        <ele>1763.5999755859</ele>
        <time>2023-08-10T07:37:02.000Z</time>
      </trkpt>
      <trkpt lat="45.31367" lon="6.10561">
        <ele>1764.5999755859</ele>
        <time>2023-08-10T07:37:08.000Z</time>
      </trkpt>
      <trkpt lat="45.31367" lon="6.10559">
        <ele>1765</ele>
        <time>2023-08-10T07:37:10.000Z</time>
      </trkpt>
      <trkpt lat="45.31368" lon="6.10552">
        <ele>1765.8000488281</ele>
        <time>2023-08-10T07:37:14.000Z</time>
      </trkpt>
      <trkpt lat="45.31371" lon="6.10546">
        <ele>1766.4000244141</ele>
        <time>2023-08-10T07:37:19.000Z</time>
      </trkpt>
      <trkpt lat="45.31373" lon="6.10542">
        <ele>1766.8000488281</ele>
        <time>2023-08-10T07:37:24.000Z</time>
      </trkpt>
      <trkpt lat="45.31374" lon="6.10541">
        <ele>1767</ele>
        <time>2023-08-10T07:37:26.000Z</time>
      </trkpt>
      <trkpt lat="45.31377" lon="6.10535">
        <ele>1767</ele>
        <time>2023-08-10T07:37:33.000Z</time>
      </trkpt>
      <trkpt lat="45.31381" lon="6.10527">
        <ele>1766.5999755859</ele>
        <time>2023-08-10T07:37:40.000Z</time>
      </trkpt>
      <trkpt lat="45.31383" lon="6.10517">
        <ele>1765.8000488281</ele>
        <time>2023-08-10T07:37:48.000Z</time>
      </trkpt>
      <trkpt lat="45.31383" lon="6.10516">
        <ele>1765.8000488281</ele>
        <time>2023-08-10T07:37:49.000Z</time>
      </trkpt>
      <trkpt lat="45.31384" lon="6.10512">
        <ele>1764.8000488281</ele>
        <time>2023-08-10T07:37:55.000Z</time>
      </trkpt>
      <trkpt lat="45.31384" lon="6.10511">
        <ele>1764.5999755859</ele>
        <time>2023-08-10T07:37:56.000Z</time>
      </trkpt>
      <trkpt lat="45.31385" lon="6.10504">
        <ele>1764.1999511719</ele>
        <time>2023-08-10T07:38:02.000Z</time>
      </trkpt>
      <trkpt lat="45.31384" lon="6.10493">
        <ele>1765</ele>
        <time>2023-08-10T07:38:11.000Z</time>
      </trkpt>
      <trkpt lat="45.31382" lon="6.10492">
        <ele>1765.1999511719</ele>
        <time>2023-08-10T07:38:13.000Z</time>
      </trkpt>
      <trkpt lat="45.31381" lon="6.10493">
        <ele>1765.1999511719</ele>
        <time>2023-08-10T07:38:15.000Z</time>
      </trkpt>
      <trkpt lat="45.31378" lon="6.10492">
        <ele>1765.5999755859</ele>
        <time>2023-08-10T07:38:18.000Z</time>
      </trkpt>
      <trkpt lat="45.31377" lon="6.10492">
        <ele>1765.8000488281</ele>
        <time>2023-08-10T07:38:19.000Z</time>
      </trkpt>
      <trkpt lat="45.31376" lon="6.10493">
        <ele>1766.5999755859</ele>
        <time>2023-08-10T07:38:24.000Z</time>
      </trkpt>
      <trkpt lat="45.31372" lon="6.10491">
        <ele>1766.8000488281</ele>
        <time>2023-08-10T07:38:30.000Z</time>
      </trkpt>
      <trkpt lat="45.31365" lon="6.10485">
        <ele>1767.8000488281</ele>
        <time>2023-08-10T07:38:38.000Z</time>
      </trkpt>
      <trkpt lat="45.31365" lon="6.10485">
        <ele>1768</ele>
        <time>2023-08-10T07:38:43.000Z</time>
      </trkpt>
      <trkpt lat="45.31364" lon="6.10486">
        <ele>1768</ele>
        <time>2023-08-10T07:38:46.000Z</time>
      </trkpt>
      <trkpt lat="45.31365" lon="6.10485">
        <ele>1768</ele>
        <time>2023-08-10T07:38:53.000Z</time>
      </trkpt>
      <trkpt lat="45.31366" lon="6.10484">
        <ele>1768</ele>
        <time>2023-08-10T07:39:00.000Z</time>
      </trkpt>
      <trkpt lat="45.31365" lon="6.10483">
        <ele>1767.8000488281</ele>
        <time>2023-08-10T07:39:10.000Z</time>
      </trkpt>
      <trkpt lat="45.31364" lon="6.10484">
        <ele>1767.8000488281</ele>
        <time>2023-08-10T07:39:15.000Z</time>
      </trkpt>
      <trkpt lat="45.31362" lon="6.10483">
        <ele>1767.4000244141</ele>
        <time>2023-08-10T07:39:23.000Z</time>
      </trkpt>
      <trkpt lat="45.31362" lon="6.1048">
        <ele>1767</ele>
        <time>2023-08-10T07:39:33.000Z</time>
      </trkpt>
      <trkpt lat="45.31365" lon="6.10484">
        <ele>1767</ele>
        <time>2023-08-10T07:39:42.000Z</time>
      </trkpt>
      <trkpt lat="45.31365" lon="6.10484">
        <ele>1767</ele>
        <time>2023-08-10T07:39:44.000Z</time>
      </trkpt>
      <trkpt lat="45.31365" lon="6.10484">
        <ele>1766.8000488281</ele>
        <time>2023-08-10T07:39:53.000Z</time>
      </trkpt>
      <trkpt lat="45.31365" lon="6.10484">
        <ele>1766.8000488281</ele>
        <time>2023-08-10T07:40:02.000Z</time>
      </trkpt>
      <trkpt lat="45.31363" lon="6.10483">
        <ele>1766.8000488281</ele>
        <time>2023-08-10T07:40:14.000Z</time>
      </trkpt>
      <trkpt lat="45.31362" lon="6.10484">
        <ele>1766.5999755859</ele>
        <time>2023-08-10T07:40:27.000Z</time>
      </trkpt>
      <trkpt lat="45.31363" lon="6.10484">
        <ele>1766.5999755859</ele>
        <time>2023-08-10T07:40:35.000Z</time>
      </trkpt>
      <trkpt lat="45.31363" lon="6.10484">
        <ele>1766.5999755859</ele>
        <time>2023-08-10T07:40:42.000Z</time>
      </trkpt>
      <trkpt lat="45.31365" lon="6.10482">
        <ele>1766.5999755859</ele>
        <time>2023-08-10T07:40:50.000Z</time>
      </trkpt>
      <trkpt lat="45.31364" lon="6.10482">
        <ele>1766.4000244141</ele>
        <time>2023-08-10T07:41:08.000Z</time>
      </trkpt>
      <trkpt lat="45.31362" lon="6.10482">
        <ele>1766.4000244141</ele>
        <time>2023-08-10T07:41:26.000Z</time>
      </trkpt>
      <trkpt lat="45.31363" lon="6.10478">
        <ele>1766.4000244141</ele>
        <time>2023-08-10T07:41:37.000Z</time>
      </trkpt>
      <trkpt lat="45.31363" lon="6.10483">
        <ele>1766.1999511719</ele>
        <time>2023-08-10T07:41:45.000Z</time>
      </trkpt>
      <trkpt lat="45.31363" lon="6.10483">
        <ele>1766.1999511719</ele>
        <time>2023-08-10T07:41:53.000Z</time>
      </trkpt>
      <trkpt lat="45.31364" lon="6.10484">
        <ele>1766.1999511719</ele>
        <time>2023-08-10T07:42:01.000Z</time>
      </trkpt>
      <trkpt lat="45.31364" lon="6.10484">
        <ele>1766.1999511719</ele>
        <time>2023-08-10T07:42:12.000Z</time>
      </trkpt>
      <trkpt lat="45.31366" lon="6.10483">
        <ele>1766</ele>
        <time>2023-08-10T07:42:21.000Z</time>
      </trkpt>
      <trkpt lat="45.31366" lon="6.10481">
        <ele>1766</ele>
        <time>2023-08-10T07:42:32.000Z</time>
      </trkpt>
      <trkpt lat="45.31367" lon="6.10481">
        <ele>1766</ele>
        <time>2023-08-10T07:42:43.000Z</time>
      </trkpt>
      <trkpt lat="45.31366" lon="6.10483">
        <ele>1766</ele>
        <time>2023-08-10T07:42:53.000Z</time>
      </trkpt>
      <trkpt lat="45.31365" lon="6.10481">
        <ele>1766</ele>
        <time>2023-08-10T07:42:59.000Z</time>
      </trkpt>
      <trkpt lat="45.31365" lon="6.10481">
        <ele>1765.8000488281</ele>
        <time>2023-08-10T07:43:00.000Z</time>
      </trkpt>
      <trkpt lat="45.31364" lon="6.10481">
        <ele>1765.8000488281</ele>
        <time>2023-08-10T07:43:09.000Z</time>
      </trkpt>
      <trkpt lat="45.31363" lon="6.10482">
        <ele>1765.5999755859</ele>
        <time>2023-08-10T07:43:28.000Z</time>
      </trkpt>
      <trkpt lat="45.31363" lon="6.10484">
        <ele>1765.4000244141</ele>
        <time>2023-08-10T07:43:39.000Z</time>
      </trkpt>
      <trkpt lat="45.31365" lon="6.10481">
        <ele>1765.5999755859</ele>
        <time>2023-08-10T07:43:45.000Z</time>
      </trkpt>
      <trkpt lat="45.31364" lon="6.10482">
        <ele>1765.4000244141</ele>
        <time>2023-08-10T07:43:52.000Z</time>
      </trkpt>
      <trkpt lat="45.31363" lon="6.10482">
        <ele>1765.4000244141</ele>
        <time>2023-08-10T07:44:00.000Z</time>
      </trkpt>
      <trkpt lat="45.31365" lon="6.10482">
        <ele>1765.1999511719</ele>
        <time>2023-08-10T07:44:09.000Z</time>
      </trkpt>
      <trkpt lat="45.31367" lon="6.1048">
        <ele>1765.1999511719</ele>
        <time>2023-08-10T07:44:20.000Z</time>
      </trkpt>
      <trkpt lat="45.31362" lon="6.10483">
        <ele>1765</ele>
        <time>2023-08-10T07:44:29.000Z</time>
      </trkpt>
      <trkpt lat="45.31362" lon="6.10485">
        <ele>1765</ele>
        <time>2023-08-10T07:44:37.000Z</time>
      </trkpt>
      <trkpt lat="45.31363" lon="6.10484">
        <ele>1765</ele>
        <time>2023-08-10T07:44:40.000Z</time>
      </trkpt>
      <trkpt lat="45.31364" lon="6.10484">
        <ele>1764.8000488281</ele>
        <time>2023-08-10T07:44:48.000Z</time>
      </trkpt>
      <trkpt lat="45.31364" lon="6.10483">
        <ele>1764.8000488281</ele>
        <time>2023-08-10T07:44:56.000Z</time>
      </trkpt>
      <trkpt lat="45.31364" lon="6.10482">
        <ele>1764.8000488281</ele>
        <time>2023-08-10T07:45:04.000Z</time>
      </trkpt>
      <trkpt lat="45.31364" lon="6.10483">
        <ele>1764.8000488281</ele>
        <time>2023-08-10T07:45:13.000Z</time>
      </trkpt>
      <trkpt lat="45.31364" lon="6.10483">
        <ele>1764.8000488281</ele>
        <time>2023-08-10T07:45:21.000Z</time>
      </trkpt>
      <trkpt lat="45.31363" lon="6.10483">
        <ele>1764.8000488281</ele>
        <time>2023-08-10T07:45:30.000Z</time>
      </trkpt>
      <trkpt lat="45.31362" lon="6.10485">
        <ele>1764.5999755859</ele>
        <time>2023-08-10T07:45:40.000Z</time>
      </trkpt>
      <trkpt lat="45.31363" lon="6.10483">
        <ele>1764.5999755859</ele>
        <time>2023-08-10T07:45:48.000Z</time>
      </trkpt>
      <trkpt lat="45.31362" lon="6.10483">
        <ele>1764.5999755859</ele>
        <time>2023-08-10T07:45:56.000Z</time>
      </trkpt>
      <trkpt lat="45.3136" lon="6.10482">
        <ele>1764.5999755859</ele>
        <time>2023-08-10T07:46:04.000Z</time>
      </trkpt>
      <trkpt lat="45.31361" lon="6.10483">
        <ele>1764.5999755859</ele>
        <time>2023-08-10T07:46:14.000Z</time>
      </trkpt>
      <trkpt lat="45.3136" lon="6.10483">
        <ele>1764.5999755859</ele>
        <time>2023-08-10T07:46:23.000Z</time>
      </trkpt>
      <trkpt lat="45.31362" lon="6.10482">
        <ele>1764.8000488281</ele>
        <time>2023-08-10T07:46:31.000Z</time>
      </trkpt>
      <trkpt lat="45.31362" lon="6.10483">
        <ele>1764.5999755859</ele>
        <time>2023-08-10T07:46:39.000Z</time>
      </trkpt>
      <trkpt lat="45.31364" lon="6.10484">
        <ele>1764.5999755859</ele>
        <time>2023-08-10T07:46:48.000Z</time>
      </trkpt>
      <trkpt lat="45.31364" lon="6.10483">
        <ele>1764.5999755859</ele>
        <time>2023-08-10T07:46:56.000Z</time>
      </trkpt>
      <trkpt lat="45.31363" lon="6.10482">
        <ele>1764.5999755859</ele>
        <time>2023-08-10T07:47:03.000Z</time>
      </trkpt>
      <trkpt lat="45.31364" lon="6.10484">
        <ele>1764.5999755859</ele>
        <time>2023-08-10T07:47:11.000Z</time>
      </trkpt>
      <trkpt lat="45.31363" lon="6.10483">
        <ele>1764.5999755859</ele>
        <time>2023-08-10T07:47:17.000Z</time>
      </trkpt>
      <trkpt lat="45.31363" lon="6.10485">
        <ele>1764.5999755859</ele>
        <time>2023-08-10T07:47:25.000Z</time>
      </trkpt>
      <trkpt lat="45.31363" lon="6.10485">
        <ele>1764.8000488281</ele>
        <time>2023-08-10T07:47:37.000Z</time>
      </trkpt>
      <trkpt lat="45.31363" lon="6.10482">
        <ele>1764.8000488281</ele>
        <time>2023-08-10T07:47:55.000Z</time>
      </trkpt>
      <trkpt lat="45.31358" lon="6.10484">
        <ele>1764.8000488281</ele>
        <time>2023-08-10T07:48:07.000Z</time>
      </trkpt>
      <trkpt lat="45.3136" lon="6.10483">
        <ele>1765.4000244141</ele>
        <time>2023-08-10T07:48:12.000Z</time>
      </trkpt>
      <trkpt lat="45.31365" lon="6.10484">
        <ele>1765.4000244141</ele>
        <time>2023-08-10T07:48:19.000Z</time>
      </trkpt>
      <trkpt lat="45.31367" lon="6.10484">
        <ele>1765.4000244141</ele>
        <time>2023-08-10T07:48:27.000Z</time>
      </trkpt>
      <trkpt lat="45.31366" lon="6.10483">
        <ele>1765.5999755859</ele>
        <time>2023-08-10T07:48:34.000Z</time>
      </trkpt>
      <trkpt lat="45.31364" lon="6.10482">
        <ele>1765.5999755859</ele>
        <time>2023-08-10T07:48:42.000Z</time>
      </trkpt>
      <trkpt lat="45.31367" lon="6.10485">
        <ele>1765.1999511719</ele>
        <time>2023-08-10T07:48:51.000Z</time>
      </trkpt>
      <trkpt lat="45.3137" lon="6.10484">
        <ele>1765</ele>
        <time>2023-08-10T07:48:58.000Z</time>
      </trkpt>
      <trkpt lat="45.3137" lon="6.10485">
        <ele>1765</ele>
        <time>2023-08-10T07:49:05.000Z</time>
      </trkpt>
      <trkpt lat="45.31369" lon="6.10485">
        <ele>1765</ele>
        <time>2023-08-10T07:49:12.000Z</time>
      </trkpt>
      <trkpt lat="45.31368" lon="6.10482">
        <ele>1765</ele>
        <time>2023-08-10T07:49:20.000Z</time>
      </trkpt>
      <trkpt lat="45.3137" lon="6.10481">
        <ele>1765</ele>
        <time>2023-08-10T07:49:28.000Z</time>
      </trkpt>
      <trkpt lat="45.31369" lon="6.10483">
        <ele>1765</ele>
        <time>2023-08-10T07:49:36.000Z</time>
      </trkpt>
      <trkpt lat="45.31367" lon="6.10487">
        <ele>1765.1999511719</ele>
        <time>2023-08-10T07:49:43.000Z</time>
      </trkpt>
      <trkpt lat="45.31368" lon="6.10486">
        <ele>1765.1999511719</ele>
        <time>2023-08-10T07:49:53.000Z</time>
      </trkpt>
      <trkpt lat="45.31369" lon="6.10485">
        <ele>1765.4000244141</ele>
        <time>2023-08-10T07:50:00.000Z</time>
      </trkpt>
      <trkpt lat="45.31369" lon="6.10483">
        <ele>1765.4000244141</ele>
        <time>2023-08-10T07:50:12.000Z</time>
      </trkpt>
      <trkpt lat="45.31367" lon="6.10483">
        <ele>1765.4000244141</ele>
        <time>2023-08-10T07:50:22.000Z</time>
      </trkpt>
      <trkpt lat="45.31366" lon="6.10483">
        <ele>1766</ele>
        <time>2023-08-10T07:50:30.000Z</time>
      </trkpt>
      <trkpt lat="45.31366" lon="6.10483">
        <ele>1766</ele>
        <time>2023-08-10T07:50:31.000Z</time>
      </trkpt>
      <trkpt lat="45.31366" lon="6.10481">
        <ele>1766</ele>
        <time>2023-08-10T07:50:40.000Z</time>
      </trkpt>
      <trkpt lat="45.31367" lon="6.10483">
        <ele>1766</ele>
        <time>2023-08-10T07:50:50.000Z</time>
      </trkpt>
      <trkpt lat="45.31364" lon="6.10482">
        <ele>1766</ele>
        <time>2023-08-10T07:50:58.000Z</time>
      </trkpt>
      <trkpt lat="45.31362" lon="6.10489">
        <ele>1766</ele>
        <time>2023-08-10T07:51:07.000Z</time>
      </trkpt>
      <trkpt lat="45.31362" lon="6.10493">
        <ele>1766.1999511719</ele>
        <time>2023-08-10T07:51:14.000Z</time>
      </trkpt>
      <trkpt lat="45.31363" lon="6.10487">
        <ele>1766.1999511719</ele>
        <time>2023-08-10T07:51:24.000Z</time>
      </trkpt>
      <trkpt lat="45.31365" lon="6.10483">
        <ele>1766</ele>
        <time>2023-08-10T07:51:31.000Z</time>
      </trkpt>
      <trkpt lat="45.31365" lon="6.10485">
        <ele>1766.1999511719</ele>
        <time>2023-08-10T07:51:37.000Z</time>
      </trkpt>
      <trkpt lat="45.31362" lon="6.10493">
        <ele>1767</ele>
        <time>2023-08-10T07:51:44.000Z</time>
      </trkpt>
      <trkpt lat="45.3136" lon="6.10495">
        <ele>1767.1999511719</ele>
        <time>2023-08-10T07:51:46.000Z</time>
      </trkpt>
      <trkpt lat="45.31357" lon="6.10497">
        <ele>1768</ele>
        <time>2023-08-10T07:51:52.000Z</time>
      </trkpt>
      <trkpt lat="45.31354" lon="6.10498">
        <ele>1768.5999755859</ele>
        <time>2023-08-10T07:51:55.000Z</time>
      </trkpt>
      <trkpt lat="45.31353" lon="6.10501">
        <ele>1769.4000244141</ele>
        <time>2023-08-10T07:51:59.000Z</time>
      </trkpt>
      <trkpt lat="45.31353" lon="6.10501">
        <ele>1770</ele>
        <time>2023-08-10T07:52:03.000Z</time>
      </trkpt>
      <trkpt lat="45.31352" lon="6.10502">
        <ele>1770.4000244141</ele>
        <time>2023-08-10T07:52:05.000Z</time>
      </trkpt>
      <trkpt lat="45.31349" lon="6.10505">
        <ele>1771.5999755859</ele>
        <time>2023-08-10T07:52:12.000Z</time>
      </trkpt>
      <trkpt lat="45.31348" lon="6.10508">
        <ele>1772.1999511719</ele>
        <time>2023-08-10T07:52:21.000Z</time>
      </trkpt>
      <trkpt lat="45.31349" lon="6.10507">
        <ele>1772.4000244141</ele>
        <time>2023-08-10T07:52:29.000Z</time>
      </trkpt>
      <trkpt lat="45.31348" lon="6.10511">
        <ele>1772.5999755859</ele>
        <time>2023-08-10T07:52:35.000Z</time>
      </trkpt>
      <trkpt lat="45.31348" lon="6.10511">
        <ele>1772.8000488281</ele>
        <time>2023-08-10T07:52:36.000Z</time>
      </trkpt>
      <trkpt lat="45.31346" lon="6.10514">
        <ele>1773.8000488281</ele>
        <time>2023-08-10T07:52:42.000Z</time>
      </trkpt>
      <trkpt lat="45.31344" lon="6.10515">
        <ele>1774.1999511719</ele>
        <time>2023-08-10T07:52:45.000Z</time>
      </trkpt>
      <trkpt lat="45.31342" lon="6.10518">
        <ele>1775</ele>
        <time>2023-08-10T07:52:49.000Z</time>
      </trkpt>
      <trkpt lat="45.3134" lon="6.10521">
        <ele>1775.4000244141</ele>
        <time>2023-08-10T07:52:52.000Z</time>
      </trkpt>
      <trkpt lat="45.3134" lon="6.10522">
        <ele>1776</ele>
        <time>2023-08-10T07:52:55.000Z</time>
      </trkpt>
      <trkpt lat="45.31339" lon="6.10523">
        <ele>1776.8000488281</ele>
        <time>2023-08-10T07:53:00.000Z</time>
      </trkpt>
      <trkpt lat="45.31338" lon="6.10524">
        <ele>1777.1999511719</ele>
        <time>2023-08-10T07:53:03.000Z</time>
      </trkpt>
      <trkpt lat="45.31334" lon="6.10523">
        <ele>1778.1999511719</ele>
        <time>2023-08-10T07:53:10.000Z</time>
      </trkpt>
      <trkpt lat="45.31334" lon="6.10523">
        <ele>1778.4000244141</ele>
        <time>2023-08-10T07:53:11.000Z</time>
      </trkpt>
      <trkpt lat="45.3133" lon="6.10525">
        <ele>1779.4000244141</ele>
        <time>2023-08-10T07:53:20.000Z</time>
      </trkpt>
      <trkpt lat="45.31329" lon="6.10524">
        <ele>1779.8000488281</ele>
        <time>2023-08-10T07:53:21.000Z</time>
      </trkpt>
      <trkpt lat="45.31327" lon="6.10523">
        <ele>1780.5999755859</ele>
        <time>2023-08-10T07:53:26.000Z</time>
      </trkpt>
      <trkpt lat="45.31326" lon="6.10522">
        <ele>1781</ele>
        <time>2023-08-10T07:53:29.000Z</time>
      </trkpt>
      <trkpt lat="45.31324" lon="6.1052">
        <ele>1781.8000488281</ele>
        <time>2023-08-10T07:53:33.000Z</time>
      </trkpt>
      <trkpt lat="45.31322" lon="6.10519">
        <ele>1782.8000488281</ele>
        <time>2023-08-10T07:53:38.000Z</time>
      </trkpt>
      <trkpt lat="45.3132" lon="6.10518">
        <ele>1784</ele>
        <time>2023-08-10T07:53:45.000Z</time>
      </trkpt>
      <trkpt lat="45.3132" lon="6.10518">
        <ele>1784.1999511719</ele>
        <time>2023-08-10T07:53:47.000Z</time>
      </trkpt>
      <trkpt lat="45.31316" lon="6.10518">
        <ele>1785.1999511719</ele>
        <time>2023-08-10T07:53:53.000Z</time>
      </trkpt>
      <trkpt lat="45.31316" lon="6.10518">
        <ele>1785.1999511719</ele>
        <time>2023-08-10T07:53:54.000Z</time>
      </trkpt>
      <trkpt lat="45.3131" lon="6.10521">
        <ele>1786.1999511719</ele>
        <time>2023-08-10T07:54:01.000Z</time>
      </trkpt>
      <trkpt lat="45.31306" lon="6.10526">
        <ele>1786.5999755859</ele>
        <time>2023-08-10T07:54:08.000Z</time>
      </trkpt>
      <trkpt lat="45.313" lon="6.10527">
        <ele>1787.1999511719</ele>
        <time>2023-08-10T07:54:17.000Z</time>
      </trkpt>
      <trkpt lat="45.31298" lon="6.10528">
        <ele>1787.1999511719</ele>
        <time>2023-08-10T07:54:20.000Z</time>
      </trkpt>
      <trkpt lat="45.31296" lon="6.10529">
        <ele>1787.4000244141</ele>
        <time>2023-08-10T07:54:23.000Z</time>
      </trkpt>
      <trkpt lat="45.31293" lon="6.10532">
        <ele>1788.4000244141</ele>
        <time>2023-08-10T07:54:30.000Z</time>
      </trkpt>
      <trkpt lat="45.31292" lon="6.10532">
        <ele>1788.5999755859</ele>
        <time>2023-08-10T07:54:31.000Z</time>
      </trkpt>
      <trkpt lat="45.31284" lon="6.10534">
        <ele>1789.1999511719</ele>
        <time>2023-08-10T07:54:38.000Z</time>
      </trkpt>
      <trkpt lat="45.31282" lon="6.10534">
        <ele>1789.5999755859</ele>
        <time>2023-08-10T07:54:40.000Z</time>
      </trkpt>
      <trkpt lat="45.31277" lon="6.10535">
        <ele>1790</ele>
        <time>2023-08-10T07:54:47.000Z</time>
      </trkpt>
      <trkpt lat="45.31272" lon="6.10536">
        <ele>1790.5999755859</ele>
        <time>2023-08-10T07:54:54.000Z</time>
      </trkpt>
      <trkpt lat="45.31271" lon="6.10536">
        <ele>1790.5999755859</ele>
        <time>2023-08-10T07:54:55.000Z</time>
      </trkpt>
      <trkpt lat="45.31272" lon="6.10535">
        <ele>1791</ele>
        <time>2023-08-10T07:55:05.000Z</time>
      </trkpt>
      <trkpt lat="45.31273" lon="6.10536">
        <ele>1791</ele>
        <time>2023-08-10T07:55:12.000Z</time>
      </trkpt>
      <trkpt lat="45.31271" lon="6.10538">
        <ele>1791.8000488281</ele>
        <time>2023-08-10T07:55:19.000Z</time>
      </trkpt>
      <trkpt lat="45.31269" lon="6.10539">
        <ele>1792.4000244141</ele>
        <time>2023-08-10T07:55:22.000Z</time>
      </trkpt>
      <trkpt lat="45.31266" lon="6.10541">
        <ele>1792.8000488281</ele>
        <time>2023-08-10T07:55:25.000Z</time>
      </trkpt>
      <trkpt lat="45.31263" lon="6.10542">
        <ele>1794</ele>
        <time>2023-08-10T07:55:31.000Z</time>
      </trkpt>
      <trkpt lat="45.31263" lon="6.10543">
        <ele>1794</ele>
        <time>2023-08-10T07:55:32.000Z</time>
      </trkpt>
      <trkpt lat="45.31261" lon="6.10547">
        <ele>1795</ele>
        <time>2023-08-10T07:55:40.000Z</time>
      </trkpt>
      <trkpt lat="45.31261" lon="6.10547">
        <ele>1795</ele>
        <time>2023-08-10T07:55:41.000Z</time>
      </trkpt>
      <trkpt lat="45.31257" lon="6.10549">
        <ele>1796.1999511719</ele>
        <time>2023-08-10T07:55:48.000Z</time>
      </trkpt>
      <trkpt lat="45.31255" lon="6.1055">
        <ele>1796.5999755859</ele>
        <time>2023-08-10T07:55:51.000Z</time>
      </trkpt>
      <trkpt lat="45.31249" lon="6.10551">
        <ele>1797.1999511719</ele>
        <time>2023-08-10T07:55:57.000Z</time>
      </trkpt>
      <trkpt lat="45.31248" lon="6.10551">
        <ele>1797.1999511719</ele>
        <time>2023-08-10T07:55:58.000Z</time>
      </trkpt>
      <trkpt lat="45.31244" lon="6.10555">
        <ele>1798</ele>
        <time>2023-08-10T07:56:06.000Z</time>
      </trkpt>
      <trkpt lat="45.31244" lon="6.10556">
        <ele>1798.1999511719</ele>
        <time>2023-08-10T07:56:07.000Z</time>
      </trkpt>
      <trkpt lat="45.3124" lon="6.1056">
        <ele>1799.4000244141</ele>
        <time>2023-08-10T07:56:14.000Z</time>
      </trkpt>
      <trkpt lat="45.31239" lon="6.10561">
        <ele>1799.5999755859</ele>
        <time>2023-08-10T07:56:16.000Z</time>
      </trkpt>
      <trkpt lat="45.31235" lon="6.10563">
        <ele>1800.4000244141</ele>
        <time>2023-08-10T07:56:23.000Z</time>
      </trkpt>
      <trkpt lat="45.31234" lon="6.10564">
        <ele>1800.4000244141</ele>
        <time>2023-08-10T07:56:24.000Z</time>
      </trkpt>
      <trkpt lat="45.31229" lon="6.10569">
        <ele>1800.4000244141</ele>
        <time>2023-08-10T07:56:29.000Z</time>
      </trkpt>
      <trkpt lat="45.31222" lon="6.10573">
        <ele>1800.8000488281</ele>
        <time>2023-08-10T07:56:38.000Z</time>
      </trkpt>
      <trkpt lat="45.31214" lon="6.10579">
        <ele>1801</ele>
        <time>2023-08-10T07:56:46.000Z</time>
      </trkpt>
      <trkpt lat="45.31205" lon="6.10582">
        <ele>1800.5999755859</ele>
        <time>2023-08-10T07:56:54.000Z</time>
      </trkpt>
      <trkpt lat="45.31201" lon="6.10585">
        <ele>1799.5999755859</ele>
        <time>2023-08-10T07:57:01.000Z</time>
      </trkpt>
      <trkpt lat="45.31194" lon="6.10594">
        <ele>1799.5999755859</ele>
        <time>2023-08-10T07:57:11.000Z</time>
      </trkpt>
      <trkpt lat="45.31192" lon="6.10597">
        <ele>1800</ele>
        <time>2023-08-10T07:57:16.000Z</time>
      </trkpt>
      <trkpt lat="45.31187" lon="6.10603">
        <ele>1800.4000244141</ele>
        <time>2023-08-10T07:57:23.000Z</time>
      </trkpt>
      <trkpt lat="45.31185" lon="6.10612">
        <ele>1800.4000244141</ele>
        <time>2023-08-10T07:57:30.000Z</time>
      </trkpt>
      <trkpt lat="45.31184" lon="6.10619">
        <ele>1801.5999755859</ele>
        <time>2023-08-10T07:57:39.000Z</time>
      </trkpt>
      <trkpt lat="45.31184" lon="6.10621">
        <ele>1802</ele>
        <time>2023-08-10T07:57:42.000Z</time>
      </trkpt>
      <trkpt lat="45.31184" lon="6.10625">
        <ele>1802.5999755859</ele>
        <time>2023-08-10T07:57:47.000Z</time>
      </trkpt>
      <trkpt lat="45.31183" lon="6.10628">
        <ele>1803.1999511719</ele>
        <time>2023-08-10T07:57:52.000Z</time>
      </trkpt>
      <trkpt lat="45.3118" lon="6.10631">
        <ele>1803.5999755859</ele>
        <time>2023-08-10T07:57:56.000Z</time>
      </trkpt>
      <trkpt lat="45.31177" lon="6.10634">
        <ele>1804.1999511719</ele>
        <time>2023-08-10T07:58:00.000Z</time>
      </trkpt>
      <trkpt lat="45.31175" lon="6.10636">
        <ele>1804.5999755859</ele>
        <time>2023-08-10T07:58:02.000Z</time>
      </trkpt>
      <trkpt lat="45.31175" lon="6.10637">
        <ele>1804.8000488281</ele>
        <time>2023-08-10T07:58:03.000Z</time>
      </trkpt>
      <trkpt lat="45.31174" lon="6.10641">
        <ele>1805.4000244141</ele>
        <time>2023-08-10T07:58:07.000Z</time>
      </trkpt>
      <trkpt lat="45.31174" lon="6.10642">
        <ele>1805.5999755859</ele>
        <time>2023-08-10T07:58:08.000Z</time>
      </trkpt>
      <trkpt lat="45.31175" lon="6.10645">
        <ele>1806.1999511719</ele>
        <time>2023-08-10T07:58:13.000Z</time>
      </trkpt>
      <trkpt lat="45.31176" lon="6.10646">
        <ele>1806.5999755859</ele>
        <time>2023-08-10T07:58:17.000Z</time>
      </trkpt>
      <trkpt lat="45.31175" lon="6.10648">
        <ele>1806.5999755859</ele>
        <time>2023-08-10T07:58:22.000Z</time>
      </trkpt>
      <trkpt lat="45.31169" lon="6.10655">
        <ele>1807.4000244141</ele>
        <time>2023-08-10T07:58:30.000Z</time>
      </trkpt>
      <trkpt lat="45.31168" lon="6.10657">
        <ele>1807.8000488281</ele>
        <time>2023-08-10T07:58:32.000Z</time>
      </trkpt>
      <trkpt lat="45.31165" lon="6.10658">
        <ele>1808.1999511719</ele>
        <time>2023-08-10T07:58:36.000Z</time>
      </trkpt>
      <trkpt lat="45.31162" lon="6.1066">
        <ele>1808.8000488281</ele>
        <time>2023-08-10T07:58:41.000Z</time>
      </trkpt>
      <trkpt lat="45.3116" lon="6.10661">
        <ele>1809.1999511719</ele>
        <time>2023-08-10T07:58:43.000Z</time>
      </trkpt>
      <trkpt lat="45.31159" lon="6.10665">
        <ele>1810</ele>
        <time>2023-08-10T07:58:48.000Z</time>
      </trkpt>
      <trkpt lat="45.31159" lon="6.10667">
        <ele>1810.4000244141</ele>
        <time>2023-08-10T07:58:50.000Z</time>
      </trkpt>
      <trkpt lat="45.31155" lon="6.10672">
        <ele>1811.1999511719</ele>
        <time>2023-08-10T07:58:56.000Z</time>
      </trkpt>
      <trkpt lat="45.31153" lon="6.10672">
        <ele>1811.8000488281</ele>
        <time>2023-08-10T07:59:00.000Z</time>
      </trkpt>
      <trkpt lat="45.3115" lon="6.10674">
        <ele>1812.4000244141</ele>
        <time>2023-08-10T07:59:04.000Z</time>
      </trkpt>
      <trkpt lat="45.31149" lon="6.10674">
        <ele>1813.1999511719</ele>
        <time>2023-08-10T07:59:09.000Z</time>
      </trkpt>
      <trkpt lat="45.31149" lon="6.10675">
        <ele>1813.4000244141</ele>
        <time>2023-08-10T07:59:11.000Z</time>
      </trkpt>
      <trkpt lat="45.31145" lon="6.10676">
        <ele>1814.4000244141</ele>
        <time>2023-08-10T07:59:17.000Z</time>
      </trkpt>
      <trkpt lat="45.31141" lon="6.10681">
        <ele>1815.5999755859</ele>
        <time>2023-08-10T07:59:24.000Z</time>
      </trkpt>
      <trkpt lat="45.31141" lon="6.10683">
        <ele>1815.5999755859</ele>
        <time>2023-08-10T07:59:25.000Z</time>
      </trkpt>
      <trkpt lat="45.31139" lon="6.10686">
        <ele>1816.5999755859</ele>
        <time>2023-08-10T07:59:33.000Z</time>
      </trkpt>
      <trkpt lat="45.31134" lon="6.10693">
        <ele>1817.4000244141</ele>
        <time>2023-08-10T07:59:40.000Z</time>
      </trkpt>
      <trkpt lat="45.31134" lon="6.10695">
        <ele>1817.8000488281</ele>
        <time>2023-08-10T07:59:42.000Z</time>
      </trkpt>
      <trkpt lat="45.31132" lon="6.10698">
        <ele>1818.4000244141</ele>
        <time>2023-08-10T07:59:47.000Z</time>
      </trkpt>
      <trkpt lat="45.31132" lon="6.10699">
        <ele>1818.8000488281</ele>
        <time>2023-08-10T07:59:50.000Z</time>
      </trkpt>
      <trkpt lat="45.31131" lon="6.107">
        <ele>1819.4000244141</ele>
        <time>2023-08-10T07:59:54.000Z</time>
      </trkpt>
      <trkpt lat="45.31127" lon="6.10699">
        <ele>1819.8000488281</ele>
        <time>2023-08-10T08:00:00.000Z</time>
      </trkpt>
      <trkpt lat="45.31124" lon="6.10704">
        <ele>1820.4000244141</ele>
        <time>2023-08-10T08:00:07.000Z</time>
      </trkpt>
      <trkpt lat="45.31122" lon="6.10707">
        <ele>1821</ele>
        <time>2023-08-10T08:00:11.000Z</time>
      </trkpt>
      <trkpt lat="45.3112" lon="6.10708">
        <ele>1821.5999755859</ele>
        <time>2023-08-10T08:00:15.000Z</time>
      </trkpt>
      <trkpt lat="45.31115" lon="6.10708">
        <ele>1822</ele>
        <time>2023-08-10T08:00:21.000Z</time>
      </trkpt>
      <trkpt lat="45.31114" lon="6.10708">
        <ele>1822.1999511719</ele>
        <time>2023-08-10T08:00:22.000Z</time>
      </trkpt>
      <trkpt lat="45.3111" lon="6.10706">
        <ele>1822.5999755859</ele>
        <time>2023-08-10T08:00:29.000Z</time>
      </trkpt>
      <trkpt lat="45.31107" lon="6.10704">
        <ele>1823.1999511719</ele>
        <time>2023-08-10T08:00:37.000Z</time>
      </trkpt>
      <trkpt lat="45.31106" lon="6.10703">
        <ele>1823.5999755859</ele>
        <time>2023-08-10T08:00:39.000Z</time>
      </trkpt>
      <trkpt lat="45.31104" lon="6.107">
        <ele>1824</ele>
        <time>2023-08-10T08:00:44.000Z</time>
      </trkpt>
      <trkpt lat="45.31103" lon="6.10701">
        <ele>1824.4000244141</ele>
        <time>2023-08-10T08:00:47.000Z</time>
      </trkpt>
      <trkpt lat="45.31101" lon="6.10702">
        <ele>1824.4000244141</ele>
        <time>2023-08-10T08:00:51.000Z</time>
      </trkpt>
      <trkpt lat="45.31096" lon="6.10703">
        <ele>1824.8000488281</ele>
        <time>2023-08-10T08:00:58.000Z</time>
      </trkpt>
      <trkpt lat="45.31092" lon="6.10705">
        <ele>1825.1999511719</ele>
        <time>2023-08-10T08:01:04.000Z</time>
      </trkpt>
      <trkpt lat="45.3109" lon="6.10704">
        <ele>1825.4000244141</ele>
        <time>2023-08-10T08:01:07.000Z</time>
      </trkpt>
      <trkpt lat="45.31086" lon="6.10705">
        <ele>1825.8000488281</ele>
        <time>2023-08-10T08:01:12.000Z</time>
      </trkpt>
      <trkpt lat="45.31082" lon="6.10709">
        <ele>1826.5999755859</ele>
        <time>2023-08-10T08:01:18.000Z</time>
      </trkpt>
      <trkpt lat="45.31082" lon="6.10709">
        <ele>1827.4000244141</ele>
        <time>2023-08-10T08:01:25.000Z</time>
      </trkpt>
      <trkpt lat="45.31081" lon="6.10709">
        <ele>1827.5999755859</ele>
        <time>2023-08-10T08:01:27.000Z</time>
      </trkpt>
      <trkpt lat="45.31077" lon="6.10715">
        <ele>1828.4000244141</ele>
        <time>2023-08-10T08:01:34.000Z</time>
      </trkpt>
      <trkpt lat="45.31076" lon="6.10717">
        <ele>1828.5999755859</ele>
        <time>2023-08-10T08:01:36.000Z</time>
      </trkpt>
      <trkpt lat="45.31075" lon="6.10719">
        <ele>1829.1999511719</ele>
        <time>2023-08-10T08:01:41.000Z</time>
      </trkpt>
      <trkpt lat="45.31073" lon="6.10719">
        <ele>1829.8000488281</ele>
        <time>2023-08-10T08:01:45.000Z</time>
      </trkpt>
      <trkpt lat="45.31071" lon="6.1072">
        <ele>1830.4000244141</ele>
        <time>2023-08-10T08:01:50.000Z</time>
      </trkpt>
      <trkpt lat="45.31069" lon="6.10721">
        <ele>1830.8000488281</ele>
        <time>2023-08-10T08:01:54.000Z</time>
      </trkpt>
      <trkpt lat="45.31067" lon="6.10722">
        <ele>1831.1999511719</ele>
        <time>2023-08-10T08:01:56.000Z</time>
      </trkpt>
      <trkpt lat="45.31065" lon="6.10724">
        <ele>1831.8000488281</ele>
        <time>2023-08-10T08:02:00.000Z</time>
      </trkpt>
      <trkpt lat="45.31061" lon="6.10727">
        <ele>1833</ele>
        <time>2023-08-10T08:02:07.000Z</time>
      </trkpt>
      <trkpt lat="45.31062" lon="6.10727">
        <ele>1833</ele>
        <time>2023-08-10T08:02:14.000Z</time>
      </trkpt>
      <trkpt lat="45.31062" lon="6.10727">
        <ele>1832.8000488281</ele>
        <time>2023-08-10T08:02:23.000Z</time>
      </trkpt>
      <trkpt lat="45.3106" lon="6.10727">
        <ele>1832.8000488281</ele>
        <time>2023-08-10T08:02:29.000Z</time>
      </trkpt>
      <trkpt lat="45.31062" lon="6.1073">
        <ele>1832.5999755859</ele>
        <time>2023-08-10T08:02:36.000Z</time>
      </trkpt>
      <trkpt lat="45.31061" lon="6.10731">
        <ele>1832.8000488281</ele>
        <time>2023-08-10T08:02:45.000Z</time>
      </trkpt>
      <trkpt lat="45.31057" lon="6.10737">
        <ele>1833.8000488281</ele>
        <time>2023-08-10T08:02:53.000Z</time>
      </trkpt>
      <trkpt lat="45.31057" lon="6.10739">
        <ele>1834</ele>
        <time>2023-08-10T08:02:54.000Z</time>
      </trkpt>
      <trkpt lat="45.31052" lon="6.10742">
        <ele>1835.1999511719</ele>
        <time>2023-08-10T08:03:01.000Z</time>
      </trkpt>
      <trkpt lat="45.31049" lon="6.10745">
        <ele>1836.1999511719</ele>
        <time>2023-08-10T08:03:08.000Z</time>
      </trkpt>
      <trkpt lat="45.31049" lon="6.10745">
        <ele>1836.4000244141</ele>
        <time>2023-08-10T08:03:09.000Z</time>
      </trkpt>
      <trkpt lat="45.31047" lon="6.10747">
        <ele>1837.4000244141</ele>
        <time>2023-08-10T08:03:15.000Z</time>
      </trkpt>
      <trkpt lat="45.31046" lon="6.10748">
        <ele>1837.5999755859</ele>
        <time>2023-08-10T08:03:17.000Z</time>
      </trkpt>
      <trkpt lat="45.31042" lon="6.10751">
        <ele>1838</ele>
        <time>2023-08-10T08:03:25.000Z</time>
      </trkpt>
      <trkpt lat="45.3104" lon="6.10753">
        <ele>1838.4000244141</ele>
        <time>2023-08-10T08:03:29.000Z</time>
      </trkpt>
      <trkpt lat="45.3104" lon="6.10756">
        <ele>1839.5999755859</ele>
        <time>2023-08-10T08:03:36.000Z</time>
      </trkpt>
      <trkpt lat="45.31038" lon="6.10761">
        <ele>1840.1999511719</ele>
        <time>2023-08-10T08:03:46.000Z</time>
      </trkpt>
      <trkpt lat="45.31038" lon="6.10761">
        <ele>1840.5999755859</ele>
        <time>2023-08-10T08:03:51.000Z</time>
      </trkpt>
      <trkpt lat="45.31038" lon="6.10761">
        <ele>1841</ele>
        <time>2023-08-10T08:03:54.000Z</time>
      </trkpt>
      <trkpt lat="45.31036" lon="6.10764">
        <ele>1841.8000488281</ele>
        <time>2023-08-10T08:03:59.000Z</time>
      </trkpt>
      <trkpt lat="45.31035" lon="6.10768">
        <ele>1842.1999511719</ele>
        <time>2023-08-10T08:04:02.000Z</time>
      </trkpt>
      <trkpt lat="45.31032" lon="6.10773">
        <ele>1842.8000488281</ele>
        <time>2023-08-10T08:04:09.000Z</time>
      </trkpt>
      <trkpt lat="45.31032" lon="6.10774">
        <ele>1842.8000488281</ele>
        <time>2023-08-10T08:04:10.000Z</time>
      </trkpt>
      <trkpt lat="45.31032" lon="6.10781">
        <ele>1843.1999511719</ele>
        <time>2023-08-10T08:04:18.000Z</time>
      </trkpt>
      <trkpt lat="45.31031" lon="6.10792">
        <ele>1844</ele>
        <time>2023-08-10T08:04:28.000Z</time>
      </trkpt>
      <trkpt lat="45.31031" lon="6.10792">
        <ele>1844</ele>
        <time>2023-08-10T08:04:29.000Z</time>
      </trkpt>
      <trkpt lat="45.31028" lon="6.10798">
        <ele>1844.1999511719</ele>
        <time>2023-08-10T08:04:36.000Z</time>
      </trkpt>
      <trkpt lat="45.31025" lon="6.10802">
        <ele>1844.1999511719</ele>
        <time>2023-08-10T08:04:43.000Z</time>
      </trkpt>
      <trkpt lat="45.3102" lon="6.10809">
        <ele>1843.5999755859</ele>
        <time>2023-08-10T08:04:50.000Z</time>
      </trkpt>
      <trkpt lat="45.31015" lon="6.10819">
        <ele>1843.5999755859</ele>
        <time>2023-08-10T08:04:58.000Z</time>
      </trkpt>
      <trkpt lat="45.31014" lon="6.1082">
        <ele>1843.4000244141</ele>
        <time>2023-08-10T08:05:05.000Z</time>
      </trkpt>
      <trkpt lat="45.31014" lon="6.1082">
        <ele>1843.1999511719</ele>
        <time>2023-08-10T08:05:13.000Z</time>
      </trkpt>
      <trkpt lat="45.31013" lon="6.10822">
        <ele>1843.4000244141</ele>
        <time>2023-08-10T08:05:22.000Z</time>
      </trkpt>
      <trkpt lat="45.3101" lon="6.10826">
        <ele>1843.4000244141</ele>
        <time>2023-08-10T08:05:29.000Z</time>
      </trkpt>
      <trkpt lat="45.31006" lon="6.10834">
        <ele>1843.8000488281</ele>
        <time>2023-08-10T08:05:38.000Z</time>
      </trkpt>
      <trkpt lat="45.31002" lon="6.1084">
        <ele>1844.5999755859</ele>
        <time>2023-08-10T08:05:45.000Z</time>
      </trkpt>
      <trkpt lat="45.30999" lon="6.10842">
        <ele>1845</ele>
        <time>2023-08-10T08:05:49.000Z</time>
      </trkpt>
      <trkpt lat="45.30996" lon="6.10842">
        <ele>1845.5999755859</ele>
        <time>2023-08-10T08:05:54.000Z</time>
      </trkpt>
      <trkpt lat="45.30993" lon="6.10842">
        <ele>1846.1999511719</ele>
        <time>2023-08-10T08:05:57.000Z</time>
      </trkpt>
      <trkpt lat="45.30992" lon="6.10843">
        <ele>1847.4000244141</ele>
        <time>2023-08-10T08:06:03.000Z</time>
      </trkpt>
      <trkpt lat="45.30991" lon="6.10843">
        <ele>1848.4000244141</ele>
        <time>2023-08-10T08:06:08.000Z</time>
      </trkpt>
      <trkpt lat="45.3099" lon="6.10844">
        <ele>1849.1999511719</ele>
        <time>2023-08-10T08:06:13.000Z</time>
      </trkpt>
      <trkpt lat="45.30988" lon="6.10844">
        <ele>1849.4000244141</ele>
        <time>2023-08-10T08:06:14.000Z</time>
      </trkpt>
      <trkpt lat="45.30984" lon="6.10845">
        <ele>1850.5999755859</ele>
        <time>2023-08-10T08:06:19.000Z</time>
      </trkpt>
      <trkpt lat="45.30983" lon="6.10845">
        <ele>1850.8000488281</ele>
        <time>2023-08-10T08:06:20.000Z</time>
      </trkpt>
      <trkpt lat="45.30981" lon="6.10845">
        <ele>1851.5999755859</ele>
        <time>2023-08-10T08:06:27.000Z</time>
      </trkpt>
      <trkpt lat="45.30977" lon="6.10847">
        <ele>1852.8000488281</ele>
        <time>2023-08-10T08:06:34.000Z</time>
      </trkpt>
      <trkpt lat="45.30975" lon="6.10849">
        <ele>1853</ele>
        <time>2023-08-10T08:06:36.000Z</time>
      </trkpt>
      <trkpt lat="45.30972" lon="6.10852">
        <ele>1853.8000488281</ele>
        <time>2023-08-10T08:06:42.000Z</time>
      </trkpt>
      <trkpt lat="45.30972" lon="6.10853">
        <ele>1854.1999511719</ele>
        <time>2023-08-10T08:06:45.000Z</time>
      </trkpt>
      <trkpt lat="45.3097" lon="6.10855">
        <ele>1855</ele>
        <time>2023-08-10T08:06:50.000Z</time>
      </trkpt>
      <trkpt lat="45.3097" lon="6.10856">
        <ele>1855.4000244141</ele>
        <time>2023-08-10T08:06:52.000Z</time>
      </trkpt>
      <trkpt lat="45.30967" lon="6.10856">
        <ele>1856.8000488281</ele>
        <time>2023-08-10T08:07:01.000Z</time>
      </trkpt>
      <trkpt lat="45.30967" lon="6.10857">
        <ele>1857</ele>
        <time>2023-08-10T08:07:02.000Z</time>
      </trkpt>
      <trkpt lat="45.30965" lon="6.10862">
        <ele>1858</ele>
        <time>2023-08-10T08:07:09.000Z</time>
      </trkpt>
      <trkpt lat="45.30964" lon="6.10863">
        <ele>1858.5999755859</ele>
        <time>2023-08-10T08:07:13.000Z</time>
      </trkpt>
      <trkpt lat="45.30963" lon="6.10865">
        <ele>1859.4000244141</ele>
        <time>2023-08-10T08:07:16.000Z</time>
      </trkpt>
      <trkpt lat="45.30961" lon="6.10869">
        <ele>1860.1999511719</ele>
        <time>2023-08-10T08:07:23.000Z</time>
      </trkpt>
      <trkpt lat="45.3096" lon="6.1087">
        <ele>1860.4000244141</ele>
        <time>2023-08-10T08:07:24.000Z</time>
      </trkpt>
      <trkpt lat="45.30957" lon="6.10875">
        <ele>1861.1999511719</ele>
        <time>2023-08-10T08:07:30.000Z</time>
      </trkpt>
      <trkpt lat="45.30955" lon="6.10876">
        <ele>1861.5999755859</ele>
        <time>2023-08-10T08:07:32.000Z</time>
      </trkpt>
      <trkpt lat="45.30954" lon="6.10879">
        <ele>1862.4000244141</ele>
        <time>2023-08-10T08:07:38.000Z</time>
      </trkpt>
      <trkpt lat="45.30953" lon="6.1088">
        <ele>1862.5999755859</ele>
        <time>2023-08-10T08:07:40.000Z</time>
      </trkpt>
      <trkpt lat="45.30951" lon="6.10884">
        <ele>1863.4000244141</ele>
        <time>2023-08-10T08:07:45.000Z</time>
      </trkpt>
      <trkpt lat="45.30951" lon="6.10885">
        <ele>1863.5999755859</ele>
        <time>2023-08-10T08:07:47.000Z</time>
      </trkpt>
      <trkpt lat="45.3095" lon="6.10886">
        <ele>1864.8000488281</ele>
        <time>2023-08-10T08:07:54.000Z</time>
      </trkpt>
      <trkpt lat="45.30949" lon="6.10887">
        <ele>1865.1999511719</ele>
        <time>2023-08-10T08:07:56.000Z</time>
      </trkpt>
      <trkpt lat="45.30948" lon="6.10887">
        <ele>1866</ele>
        <time>2023-08-10T08:08:00.000Z</time>
      </trkpt>
      <trkpt lat="45.30946" lon="6.10889">
        <ele>1866.8000488281</ele>
        <time>2023-08-10T08:08:06.000Z</time>
      </trkpt>
      <trkpt lat="45.30946" lon="6.1089">
        <ele>1867.1999511719</ele>
        <time>2023-08-10T08:08:08.000Z</time>
      </trkpt>
      <trkpt lat="45.30944" lon="6.10892">
        <ele>1867.8000488281</ele>
        <time>2023-08-10T08:08:13.000Z</time>
      </trkpt>
      <trkpt lat="45.30943" lon="6.10892">
        <ele>1868.4000244141</ele>
        <time>2023-08-10T08:08:15.000Z</time>
      </trkpt>
      <trkpt lat="45.3094" lon="6.10893">
        <ele>1869.1999511719</ele>
        <time>2023-08-10T08:08:20.000Z</time>
      </trkpt>
      <trkpt lat="45.30939" lon="6.10894">
        <ele>1869.4000244141</ele>
        <time>2023-08-10T08:08:21.000Z</time>
      </trkpt>
      <trkpt lat="45.30938" lon="6.10893">
        <ele>1870</ele>
        <time>2023-08-10T08:08:27.000Z</time>
      </trkpt>
      <trkpt lat="45.30937" lon="6.10893">
        <ele>1870.4000244141</ele>
        <time>2023-08-10T08:08:29.000Z</time>
      </trkpt>
      <trkpt lat="45.30934" lon="6.10895">
        <ele>1871.5999755859</ele>
        <time>2023-08-10T08:08:37.000Z</time>
      </trkpt>
      <trkpt lat="45.30934" lon="6.10895">
        <ele>1871.8000488281</ele>
        <time>2023-08-10T08:08:38.000Z</time>
      </trkpt>
      <trkpt lat="45.30933" lon="6.10896">
        <ele>1872.5999755859</ele>
        <time>2023-08-10T08:08:42.000Z</time>
      </trkpt>
      <trkpt lat="45.3093" lon="6.109">
        <ele>1873.4000244141</ele>
        <time>2023-08-10T08:08:48.000Z</time>
      </trkpt>
      <trkpt lat="45.3093" lon="6.109">
        <ele>1873.5999755859</ele>
        <time>2023-08-10T08:08:50.000Z</time>
      </trkpt>
      <trkpt lat="45.3093" lon="6.10901">
        <ele>1874.4000244141</ele>
        <time>2023-08-10T08:08:55.000Z</time>
      </trkpt>
      <trkpt lat="45.3093" lon="6.10902">
        <ele>1874.8000488281</ele>
        <time>2023-08-10T08:08:58.000Z</time>
      </trkpt>
      <trkpt lat="45.30928" lon="6.10906">
        <ele>1875.5999755859</ele>
        <time>2023-08-10T08:09:04.000Z</time>
      </trkpt>
      <trkpt lat="45.30928" lon="6.10906">
        <ele>1875.8000488281</ele>
        <time>2023-08-10T08:09:05.000Z</time>
      </trkpt>
      <trkpt lat="45.30927" lon="6.10907">
        <ele>1876.8000488281</ele>
        <time>2023-08-10T08:09:11.000Z</time>
      </trkpt>
      <trkpt lat="45.30926" lon="6.10908">
        <ele>1877.1999511719</ele>
        <time>2023-08-10T08:09:12.000Z</time>
      </trkpt>
      <trkpt lat="45.30923" lon="6.10911">
        <ele>1878</ele>
        <time>2023-08-10T08:09:16.000Z</time>
      </trkpt>
      <trkpt lat="45.30921" lon="6.10913">
        <ele>1878.8000488281</ele>
        <time>2023-08-10T08:09:22.000Z</time>
      </trkpt>
      <trkpt lat="45.30921" lon="6.10914">
        <ele>1879</ele>
        <time>2023-08-10T08:09:24.000Z</time>
      </trkpt>
      <trkpt lat="45.30917" lon="6.10917">
        <ele>1880</ele>
        <time>2023-08-10T08:09:31.000Z</time>
      </trkpt>
      <trkpt lat="45.30917" lon="6.10918">
        <ele>1880.1999511719</ele>
        <time>2023-08-10T08:09:32.000Z</time>
      </trkpt>
      <trkpt lat="45.30916" lon="6.10919">
        <ele>1881</ele>
        <time>2023-08-10T08:09:40.000Z</time>
      </trkpt>
      <trkpt lat="45.30916" lon="6.10919">
        <ele>1881.1999511719</ele>
        <time>2023-08-10T08:09:41.000Z</time>
      </trkpt>
      <trkpt lat="45.30913" lon="6.10921">
        <ele>1882.4000244141</ele>
        <time>2023-08-10T08:09:47.000Z</time>
      </trkpt>
      <trkpt lat="45.30912" lon="6.10922">
        <ele>1883.4000244141</ele>
        <time>2023-08-10T08:09:53.000Z</time>
      </trkpt>
      <trkpt lat="45.30912" lon="6.10922">
        <ele>1883.5999755859</ele>
        <time>2023-08-10T08:09:55.000Z</time>
      </trkpt>
      <trkpt lat="45.3091" lon="6.10924">
        <ele>1884.4000244141</ele>
        <time>2023-08-10T08:10:01.000Z</time>
      </trkpt>
      <trkpt lat="45.3091" lon="6.10925">
        <ele>1884.5999755859</ele>
        <time>2023-08-10T08:10:02.000Z</time>
      </trkpt>
      <trkpt lat="45.3091" lon="6.10925">
        <ele>1885.4000244141</ele>
        <time>2023-08-10T08:10:08.000Z</time>
      </trkpt>
      <trkpt lat="45.30909" lon="6.10927">
        <ele>1886.1999511719</ele>
        <time>2023-08-10T08:10:12.000Z</time>
      </trkpt>
      <trkpt lat="45.30909" lon="6.10926">
        <ele>1886.5999755859</ele>
        <time>2023-08-10T08:10:14.000Z</time>
      </trkpt>
      <trkpt lat="45.30908" lon="6.10927">
        <ele>1887.4000244141</ele>
        <time>2023-08-10T08:10:19.000Z</time>
      </trkpt>
      <trkpt lat="45.30907" lon="6.10928">
        <ele>1887.5999755859</ele>
        <time>2023-08-10T08:10:20.000Z</time>
      </trkpt>
      <trkpt lat="45.30902" lon="6.10933">
        <ele>1888.5999755859</ele>
        <time>2023-08-10T08:10:27.000Z</time>
      </trkpt>
      <trkpt lat="45.30902" lon="6.10933">
        <ele>1888.8000488281</ele>
        <time>2023-08-10T08:10:29.000Z</time>
      </trkpt>
      <trkpt lat="45.30899" lon="6.10935">
        <ele>1889.5999755859</ele>
        <time>2023-08-10T08:10:34.000Z</time>
      </trkpt>
      <trkpt lat="45.30898" lon="6.10935">
        <ele>1889.8000488281</ele>
        <time>2023-08-10T08:10:36.000Z</time>
      </trkpt>
      <trkpt lat="45.30899" lon="6.10937">
        <ele>1891</ele>
        <time>2023-08-10T08:10:42.000Z</time>
      </trkpt>
      <trkpt lat="45.30904" lon="6.10936">
        <ele>1891.5999755859</ele>
        <time>2023-08-10T08:10:45.000Z</time>
      </trkpt>
      <trkpt lat="45.30901" lon="6.1094">
        <ele>1893.1999511719</ele>
        <time>2023-08-10T08:10:57.000Z</time>
      </trkpt>
      <trkpt lat="45.30901" lon="6.10944">
        <ele>1894</ele>
        <time>2023-08-10T08:11:04.000Z</time>
      </trkpt>
      <trkpt lat="45.309" lon="6.10945">
        <ele>1894.1999511719</ele>
        <time>2023-08-10T08:11:05.000Z</time>
      </trkpt>
      <trkpt lat="45.30899" lon="6.10946">
        <ele>1895.1999511719</ele>
        <time>2023-08-10T08:11:10.000Z</time>
      </trkpt>
      <trkpt lat="45.30898" lon="6.10946">
        <ele>1895.4000244141</ele>
        <time>2023-08-10T08:11:12.000Z</time>
      </trkpt>
      <trkpt lat="45.30894" lon="6.10946">
        <ele>1896.1999511719</ele>
        <time>2023-08-10T08:11:17.000Z</time>
      </trkpt>
      <trkpt lat="45.30893" lon="6.10947">
        <ele>1897</ele>
        <time>2023-08-10T08:11:20.000Z</time>
      </trkpt>
      <trkpt lat="45.30894" lon="6.10949">
        <ele>1898.5999755859</ele>
        <time>2023-08-10T08:11:28.000Z</time>
      </trkpt>
      <trkpt lat="45.30893" lon="6.10952">
        <ele>1900.1999511719</ele>
        <time>2023-08-10T08:11:38.000Z</time>
      </trkpt>
      <trkpt lat="45.30896" lon="6.10955">
        <ele>1900.5999755859</ele>
        <time>2023-08-10T08:11:43.000Z</time>
      </trkpt>
      <trkpt lat="45.30897" lon="6.10956">
        <ele>1901.4000244141</ele>
        <time>2023-08-10T08:11:48.000Z</time>
      </trkpt>
      <trkpt lat="45.30898" lon="6.10956">
        <ele>1901.8000488281</ele>
        <time>2023-08-10T08:11:50.000Z</time>
      </trkpt>
      <trkpt lat="45.30898" lon="6.10962">
        <ele>1902.5999755859</ele>
        <time>2023-08-10T08:11:57.000Z</time>
      </trkpt>
      <trkpt lat="45.30898" lon="6.10962">
        <ele>1902.8000488281</ele>
        <time>2023-08-10T08:11:58.000Z</time>
      </trkpt>
      <trkpt lat="45.309" lon="6.10962">
        <ele>1903.8000488281</ele>
        <time>2023-08-10T08:12:05.000Z</time>
      </trkpt>
      <trkpt lat="45.309" lon="6.10963">
        <ele>1904.8000488281</ele>
        <time>2023-08-10T08:12:11.000Z</time>
      </trkpt>
      <trkpt lat="45.30899" lon="6.10964">
        <ele>1905</ele>
        <time>2023-08-10T08:12:13.000Z</time>
      </trkpt>
      <trkpt lat="45.30898" lon="6.10965">
        <ele>1906</ele>
        <time>2023-08-10T08:12:22.000Z</time>
      </trkpt>
      <trkpt lat="45.30895" lon="6.10968">
        <ele>1907</ele>
        <time>2023-08-10T08:12:29.000Z</time>
      </trkpt>
      <trkpt lat="45.30896" lon="6.10969">
        <ele>1907.1999511719</ele>
        <time>2023-08-10T08:12:30.000Z</time>
      </trkpt>
      <trkpt lat="45.30894" lon="6.10969">
        <ele>1908.1999511719</ele>
        <time>2023-08-10T08:12:36.000Z</time>
      </trkpt>
      <trkpt lat="45.30894" lon="6.10969">
        <ele>1908.8000488281</ele>
        <time>2023-08-10T08:12:40.000Z</time>
      </trkpt>
      <trkpt lat="45.30892" lon="6.10969">
        <ele>1909.1999511719</ele>
        <time>2023-08-10T08:12:43.000Z</time>
      </trkpt>
      <trkpt lat="45.30889" lon="6.10969">
        <ele>1910</ele>
        <time>2023-08-10T08:12:48.000Z</time>
      </trkpt>
      <trkpt lat="45.30888" lon="6.10969">
        <ele>1910.1999511719</ele>
        <time>2023-08-10T08:12:49.000Z</time>
      </trkpt>
      <trkpt lat="45.30887" lon="6.10971">
        <ele>1911</ele>
        <time>2023-08-10T08:12:55.000Z</time>
      </trkpt>
      <trkpt lat="45.30888" lon="6.10971">
        <ele>1911.1999511719</ele>
        <time>2023-08-10T08:12:57.000Z</time>
      </trkpt>
      <trkpt lat="45.30887" lon="6.10972">
        <ele>1912</ele>
        <time>2023-08-10T08:13:02.000Z</time>
      </trkpt>
      <trkpt lat="45.30886" lon="6.10972">
        <ele>1912.4000244141</ele>
        <time>2023-08-10T08:13:04.000Z</time>
      </trkpt>
      <trkpt lat="45.30882" lon="6.10972">
        <ele>1913.5999755859</ele>
        <time>2023-08-10T08:13:12.000Z</time>
      </trkpt>
      <trkpt lat="45.30882" lon="6.10971">
        <ele>1913.8000488281</ele>
        <time>2023-08-10T08:13:13.000Z</time>
      </trkpt>
      <trkpt lat="45.30884" lon="6.10975">
        <ele>1914.5999755859</ele>
        <time>2023-08-10T08:13:20.000Z</time>
      </trkpt>
      <trkpt lat="45.30884" lon="6.10975">
        <ele>1914.8000488281</ele>
        <time>2023-08-10T08:13:21.000Z</time>
      </trkpt>
      <trkpt lat="45.30878" lon="6.10978">
        <ele>1915.8000488281</ele>
        <time>2023-08-10T08:13:29.000Z</time>
      </trkpt>
      <trkpt lat="45.30878" lon="6.10979">
        <ele>1916</ele>
        <time>2023-08-10T08:13:30.000Z</time>
      </trkpt>
      <trkpt lat="45.30875" lon="6.10981">
        <ele>1916.8000488281</ele>
        <time>2023-08-10T08:13:35.000Z</time>
      </trkpt>
      <trkpt lat="45.30875" lon="6.1098">
        <ele>1917.1999511719</ele>
        <time>2023-08-10T08:13:37.000Z</time>
      </trkpt>
      <trkpt lat="45.30874" lon="6.1098">
        <ele>1917.8000488281</ele>
        <time>2023-08-10T08:13:43.000Z</time>
      </trkpt>
      <trkpt lat="45.30873" lon="6.1098">
        <ele>1918.5999755859</ele>
        <time>2023-08-10T08:13:47.000Z</time>
      </trkpt>
      <trkpt lat="45.30872" lon="6.1098">
        <ele>1919</ele>
        <time>2023-08-10T08:13:50.000Z</time>
      </trkpt>
      <trkpt lat="45.30869" lon="6.10982">
        <ele>1920</ele>
        <time>2023-08-10T08:13:57.000Z</time>
      </trkpt>
      <trkpt lat="45.30869" lon="6.10982">
        <ele>1920</ele>
        <time>2023-08-10T08:13:58.000Z</time>
      </trkpt>
      <trkpt lat="45.3087" lon="6.10983">
        <ele>1921.1999511719</ele>
        <time>2023-08-10T08:14:04.000Z</time>
      </trkpt>
      <trkpt lat="45.30867" lon="6.10985">
        <ele>1922.1999511719</ele>
        <time>2023-08-10T08:14:11.000Z</time>
      </trkpt>
      <trkpt lat="45.30865" lon="6.10985">
        <ele>1923.1999511719</ele>
        <time>2023-08-10T08:14:19.000Z</time>
      </trkpt>
      <trkpt lat="45.30862" lon="6.10987">
        <ele>1924.1999511719</ele>
        <time>2023-08-10T08:14:27.000Z</time>
      </trkpt>
      <trkpt lat="45.30862" lon="6.10988">
        <ele>1925.1999511719</ele>
        <time>2023-08-10T08:14:35.000Z</time>
      </trkpt>
      <trkpt lat="45.30862" lon="6.10988">
        <ele>1925.4000244141</ele>
        <time>2023-08-10T08:14:36.000Z</time>
      </trkpt>
      <trkpt lat="45.30861" lon="6.1099">
        <ele>1926.1999511719</ele>
        <time>2023-08-10T08:14:42.000Z</time>
      </trkpt>
      <trkpt lat="45.30861" lon="6.1099">
        <ele>1926.4000244141</ele>
        <time>2023-08-10T08:14:45.000Z</time>
      </trkpt>
      <trkpt lat="45.30861" lon="6.10989">
        <ele>1927</ele>
        <time>2023-08-10T08:14:49.000Z</time>
      </trkpt>
      <trkpt lat="45.30859" lon="6.10988">
        <ele>1927.5999755859</ele>
        <time>2023-08-10T08:14:53.000Z</time>
      </trkpt>
      <trkpt lat="45.3086" lon="6.10989">
        <ele>1928.1999511719</ele>
        <time>2023-08-10T08:15:00.000Z</time>
      </trkpt>
      <trkpt lat="45.3086" lon="6.1099">
        <ele>1928.5999755859</ele>
        <time>2023-08-10T08:15:02.000Z</time>
      </trkpt>
      <trkpt lat="45.30857" lon="6.10989">
        <ele>1928.8000488281</ele>
        <time>2023-08-10T08:15:08.000Z</time>
      </trkpt>
      <trkpt lat="45.30854" lon="6.1099">
        <ele>1929.5999755859</ele>
        <time>2023-08-10T08:15:16.000Z</time>
      </trkpt>
      <trkpt lat="45.30854" lon="6.10991">
        <ele>1929.8000488281</ele>
        <time>2023-08-10T08:15:17.000Z</time>
      </trkpt>
      <trkpt lat="45.3085" lon="6.10995">
        <ele>1930.8000488281</ele>
        <time>2023-08-10T08:15:26.000Z</time>
      </trkpt>
      <trkpt lat="45.30848" lon="6.10998">
        <ele>1931.5999755859</ele>
        <time>2023-08-10T08:15:33.000Z</time>
      </trkpt>
      <trkpt lat="45.30848" lon="6.10997">
        <ele>1931.8000488281</ele>
        <time>2023-08-10T08:15:34.000Z</time>
      </trkpt>
      <trkpt lat="45.30845" lon="6.10998">
        <ele>1932.5999755859</ele>
        <time>2023-08-10T08:15:40.000Z</time>
      </trkpt>
      <trkpt lat="45.30843" lon="6.10999">
        <ele>1932.8000488281</ele>
        <time>2023-08-10T08:15:42.000Z</time>
      </trkpt>
      <trkpt lat="45.30842" lon="6.11">
        <ele>1934</ele>
        <time>2023-08-10T08:15:49.000Z</time>
      </trkpt>
      <trkpt lat="45.30839" lon="6.11003">
        <ele>1934.8000488281</ele>
        <time>2023-08-10T08:15:56.000Z</time>
      </trkpt>
      <trkpt lat="45.30839" lon="6.11003">
        <ele>1935</ele>
        <time>2023-08-10T08:15:58.000Z</time>
      </trkpt>
      <trkpt lat="45.30838" lon="6.11004">
        <ele>1935.5999755859</ele>
        <time>2023-08-10T08:16:03.000Z</time>
      </trkpt>
      <trkpt lat="45.30838" lon="6.11006">
        <ele>1936</ele>
        <time>2023-08-10T08:16:07.000Z</time>
      </trkpt>
      <trkpt lat="45.30837" lon="6.11007">
        <ele>1936.4000244141</ele>
        <time>2023-08-10T08:16:11.000Z</time>
      </trkpt>
      <trkpt lat="45.30838" lon="6.11009">
        <ele>1937</ele>
        <time>2023-08-10T08:16:16.000Z</time>
      </trkpt>
      <trkpt lat="45.30838" lon="6.1101">
        <ele>1937.5999755859</ele>
        <time>2023-08-10T08:16:20.000Z</time>
      </trkpt>
      <trkpt lat="45.30837" lon="6.11012">
        <ele>1938.1999511719</ele>
        <time>2023-08-10T08:16:23.000Z</time>
      </trkpt>
      <trkpt lat="45.30834" lon="6.1101">
        <ele>1939</ele>
        <time>2023-08-10T08:16:28.000Z</time>
      </trkpt>
      <trkpt lat="45.30833" lon="6.11009">
        <ele>1939.1999511719</ele>
        <time>2023-08-10T08:16:29.000Z</time>
      </trkpt>
      <trkpt lat="45.30829" lon="6.1101">
        <ele>1939.5999755859</ele>
        <time>2023-08-10T08:16:35.000Z</time>
      </trkpt>
      <trkpt lat="45.30826" lon="6.11012">
        <ele>1940.4000244141</ele>
        <time>2023-08-10T08:16:43.000Z</time>
      </trkpt>
      <trkpt lat="45.30822" lon="6.11015">
        <ele>1941.1999511719</ele>
        <time>2023-08-10T08:16:51.000Z</time>
      </trkpt>
      <trkpt lat="45.30822" lon="6.11016">
        <ele>1941.4000244141</ele>
        <time>2023-08-10T08:16:52.000Z</time>
      </trkpt>
      <trkpt lat="45.3082" lon="6.11021">
        <ele>1942.4000244141</ele>
        <time>2023-08-10T08:16:59.000Z</time>
      </trkpt>
      <trkpt lat="45.3082" lon="6.11022">
        <ele>1942.5999755859</ele>
        <time>2023-08-10T08:17:01.000Z</time>
      </trkpt>
      <trkpt lat="45.30818" lon="6.11021">
        <ele>1943</ele>
        <time>2023-08-10T08:17:06.000Z</time>
      </trkpt>
      <trkpt lat="45.30815" lon="6.11018">
        <ele>1943</ele>
        <time>2023-08-10T08:17:13.000Z</time>
      </trkpt>
      <trkpt lat="45.30809" lon="6.11019">
        <ele>1943</ele>
        <time>2023-08-10T08:17:20.000Z</time>
      </trkpt>
      <trkpt lat="45.30806" lon="6.1102">
        <ele>1943.5999755859</ele>
        <time>2023-08-10T08:17:29.000Z</time>
      </trkpt>
      <trkpt lat="45.30801" lon="6.11023">
        <ele>1944</ele>
        <time>2023-08-10T08:17:37.000Z</time>
      </trkpt>
      <trkpt lat="45.30798" lon="6.11024">
        <ele>1944.5999755859</ele>
        <time>2023-08-10T08:17:41.000Z</time>
      </trkpt>
      <trkpt lat="45.30797" lon="6.11025">
        <ele>1945.1999511719</ele>
        <time>2023-08-10T08:17:44.000Z</time>
      </trkpt>
      <trkpt lat="45.30797" lon="6.11025">
        <ele>1945.5999755859</ele>
        <time>2023-08-10T08:17:48.000Z</time>
      </trkpt>
      <trkpt lat="45.30795" lon="6.11024">
        <ele>1946.8000488281</ele>
        <time>2023-08-10T08:17:53.000Z</time>
      </trkpt>
      <trkpt lat="45.30791" lon="6.11027">
        <ele>1947.8000488281</ele>
        <time>2023-08-10T08:18:00.000Z</time>
      </trkpt>
      <trkpt lat="45.30791" lon="6.11029">
        <ele>1948.1999511719</ele>
        <time>2023-08-10T08:18:03.000Z</time>
      </trkpt>
      <trkpt lat="45.30796" lon="6.11039">
        <ele>1949</ele>
        <time>2023-08-10T08:18:11.000Z</time>
      </trkpt>
      <trkpt lat="45.30794" lon="6.11039">
        <ele>1949</ele>
        <time>2023-08-10T08:18:18.000Z</time>
      </trkpt>
      <trkpt lat="45.30794" lon="6.11038">
        <ele>1949</ele>
        <time>2023-08-10T08:18:26.000Z</time>
      </trkpt>
      <trkpt lat="45.30793" lon="6.11034">
        <ele>1949.1999511719</ele>
        <time>2023-08-10T08:18:33.000Z</time>
      </trkpt>
      <trkpt lat="45.30792" lon="6.11033">
        <ele>1948.8000488281</ele>
        <time>2023-08-10T08:18:39.000Z</time>
      </trkpt>
      <trkpt lat="45.30788" lon="6.11033">
        <ele>1948.4000244141</ele>
        <time>2023-08-10T08:18:46.000Z</time>
      </trkpt>
      <trkpt lat="45.30781" lon="6.11031">
        <ele>1949.5999755859</ele>
        <time>2023-08-10T08:18:55.000Z</time>
      </trkpt>
      <trkpt lat="45.30775" lon="6.11028">
        <ele>1950</ele>
        <time>2023-08-10T08:19:03.000Z</time>
      </trkpt>
      <trkpt lat="45.30775" lon="6.11029">
        <ele>1950</ele>
        <time>2023-08-10T08:19:10.000Z</time>
      </trkpt>
      <trkpt lat="45.30776" lon="6.11028">
        <ele>1949.8000488281</ele>
        <time>2023-08-10T08:19:13.000Z</time>
      </trkpt>
      <trkpt lat="45.30774" lon="6.11028">
        <ele>1949.5999755859</ele>
        <time>2023-08-10T08:19:21.000Z</time>
      </trkpt>
      <trkpt lat="45.30768" lon="6.11032">
        <ele>1949.4000244141</ele>
        <time>2023-08-10T08:19:29.000Z</time>
      </trkpt>
      <trkpt lat="45.30673" lon="6.11035">
        <ele>1971.4000244141</ele>
        <time>2023-08-10T08:26:55.000Z</time>
      </trkpt>
      <trkpt lat="45.30671" lon="6.11031">
        <ele>1971.1999511719</ele>
        <time>2023-08-10T08:26:58.000Z</time>
      </trkpt>
      <trkpt lat="45.30669" lon="6.11029">
        <ele>1971.1999511719</ele>
        <time>2023-08-10T08:27:05.000Z</time>
      </trkpt>
      <trkpt lat="45.30669" lon="6.11034">
        <ele>1971.1999511719</ele>
        <time>2023-08-10T08:27:17.000Z</time>
      </trkpt>
      <trkpt lat="45.30667" lon="6.11036">
        <ele>1971</ele>
        <time>2023-08-10T08:27:25.000Z</time>
      </trkpt>
      <trkpt lat="45.30661" lon="6.11041">
        <ele>1970.1999511719</ele>
        <time>2023-08-10T08:27:40.000Z</time>
      </trkpt>
      <trkpt lat="45.30662" lon="6.11044">
        <ele>1969.4000244141</ele>
        <time>2023-08-10T08:27:45.000Z</time>
      </trkpt>
      <trkpt lat="45.30661" lon="6.11044">
        <ele>1969.4000244141</ele>
        <time>2023-08-10T08:27:51.000Z</time>
      </trkpt>
      <trkpt lat="45.30649" lon="6.11035">
        <ele>1968.5999755859</ele>
        <time>2023-08-10T08:28:10.000Z</time>
      </trkpt>
      <trkpt lat="45.30647" lon="6.11034">
        <ele>1968.4000244141</ele>
        <time>2023-08-10T08:28:16.000Z</time>
      </trkpt>
      <trkpt lat="45.30647" lon="6.11033">
        <ele>1968.4000244141</ele>
        <time>2023-08-10T08:28:17.000Z</time>
      </trkpt>
      <trkpt lat="45.3064" lon="6.11029">
        <ele>1968.1999511719</ele>
        <time>2023-08-10T08:28:40.000Z</time>
      </trkpt>
      <trkpt lat="45.30614" lon="6.11018">
        <ele>1972.4000244141</ele>
        <time>2023-08-10T08:30:09.000Z</time>
      </trkpt>
      <trkpt lat="45.30614" lon="6.11019">
        <ele>1972.5999755859</ele>
        <time>2023-08-10T08:30:11.000Z</time>
      </trkpt>
      <trkpt lat="45.30614" lon="6.11011">
        <ele>1972.8000488281</ele>
        <time>2023-08-10T08:30:47.000Z</time>
      </trkpt>
      <trkpt lat="45.30606" lon="6.11006">
        <ele>1973.5999755859</ele>
        <time>2023-08-10T08:31:03.000Z</time>
      </trkpt>
      <trkpt lat="45.30604" lon="6.11005">
        <ele>1973.8000488281</ele>
        <time>2023-08-10T08:31:05.000Z</time>
      </trkpt>
      <trkpt lat="45.306" lon="6.11">
        <ele>1975.5999755859</ele>
        <time>2023-08-10T08:31:17.000Z</time>
      </trkpt>
      <trkpt lat="45.30601" lon="6.10999">
        <ele>1976</ele>
        <time>2023-08-10T08:31:20.000Z</time>
      </trkpt>
      <trkpt lat="45.30602" lon="6.11">
        <ele>1976</ele>
        <time>2023-08-10T08:31:26.000Z</time>
      </trkpt>
      <trkpt lat="45.30597" lon="6.10994">
        <ele>1976</ele>
        <time>2023-08-10T08:31:42.000Z</time>
      </trkpt>
      <trkpt lat="45.30595" lon="6.1099">
        <ele>1976.1999511719</ele>
        <time>2023-08-10T08:31:50.000Z</time>
      </trkpt>
      <trkpt lat="45.30595" lon="6.10985">
        <ele>1976.8000488281</ele>
        <time>2023-08-10T08:31:58.000Z</time>
      </trkpt>
      <trkpt lat="45.30595" lon="6.10984">
        <ele>1977</ele>
        <time>2023-08-10T08:32:00.000Z</time>
      </trkpt>
      <trkpt lat="45.30594" lon="6.10984">
        <ele>1978.1999511719</ele>
        <time>2023-08-10T08:32:08.000Z</time>
      </trkpt>
      <trkpt lat="45.30593" lon="6.10976">
        <ele>1979.1999511719</ele>
        <time>2023-08-10T08:32:14.000Z</time>
      </trkpt>
      <trkpt lat="45.30593" lon="6.10975">
        <ele>1979.8000488281</ele>
        <time>2023-08-10T08:32:16.000Z</time>
      </trkpt>
      <trkpt lat="45.30595" lon="6.10976">
        <ele>1980.1999511719</ele>
        <time>2023-08-10T08:32:20.000Z</time>
      </trkpt>
      <trkpt lat="45.30598" lon="6.10978">
        <ele>1980.5999755859</ele>
        <time>2023-08-10T08:32:24.000Z</time>
      </trkpt>
      <trkpt lat="45.30599" lon="6.10981">
        <ele>1981</ele>
        <time>2023-08-10T08:32:30.000Z</time>
      </trkpt>
      <trkpt lat="45.30598" lon="6.10979">
        <ele>1981.4000244141</ele>
        <time>2023-08-10T08:32:32.000Z</time>
      </trkpt>
      <trkpt lat="45.30594" lon="6.10973">
        <ele>1981.8000488281</ele>
        <time>2023-08-10T08:32:36.000Z</time>
      </trkpt>
      <trkpt lat="45.30588" lon="6.10967">
        <ele>1981.8000488281</ele>
        <time>2023-08-10T08:32:44.000Z</time>
      </trkpt>
      <trkpt lat="45.30581" lon="6.10962">
        <ele>1982.1999511719</ele>
        <time>2023-08-10T08:33:00.000Z</time>
      </trkpt>
      <trkpt lat="45.30581" lon="6.10961">
        <ele>1982.4000244141</ele>
        <time>2023-08-10T08:33:01.000Z</time>
      </trkpt>
      <trkpt lat="45.30579" lon="6.1096">
        <ele>1983.1999511719</ele>
        <time>2023-08-10T08:33:08.000Z</time>
      </trkpt>
      <trkpt lat="45.30578" lon="6.1096">
        <ele>1983.4000244141</ele>
        <time>2023-08-10T08:33:10.000Z</time>
      </trkpt>
      <trkpt lat="45.30574" lon="6.10958">
        <ele>1984.4000244141</ele>
        <time>2023-08-10T08:33:18.000Z</time>
      </trkpt>
      <trkpt lat="45.30576" lon="6.10951">
        <ele>1984.4000244141</ele>
        <time>2023-08-10T08:33:25.000Z</time>
      </trkpt>
      <trkpt lat="45.30571" lon="6.10947">
        <ele>1984</ele>
        <time>2023-08-10T08:33:34.000Z</time>
      </trkpt>
      <trkpt lat="45.30568" lon="6.10945">
        <ele>1983.5999755859</ele>
        <time>2023-08-10T08:33:40.000Z</time>
      </trkpt>
      <trkpt lat="45.30567" lon="6.10948">
        <ele>1984.4000244141</ele>
        <time>2023-08-10T08:33:48.000Z</time>
      </trkpt>
      <trkpt lat="45.30565" lon="6.10943">
        <ele>1985</ele>
        <time>2023-08-10T08:33:56.000Z</time>
      </trkpt>
      <trkpt lat="45.30563" lon="6.1094">
        <ele>1985.5999755859</ele>
        <time>2023-08-10T08:34:00.000Z</time>
      </trkpt>
      <trkpt lat="45.30562" lon="6.10938">
        <ele>1986</ele>
        <time>2023-08-10T08:34:04.000Z</time>
      </trkpt>
      <trkpt lat="45.30561" lon="6.10934">
        <ele>1986.5999755859</ele>
        <time>2023-08-10T08:34:08.000Z</time>
      </trkpt>
      <trkpt lat="45.30558" lon="6.10931">
        <ele>1987</ele>
        <time>2023-08-10T08:34:13.000Z</time>
      </trkpt>
      <trkpt lat="45.30557" lon="6.10929">
        <ele>1987.5999755859</ele>
        <time>2023-08-10T08:34:16.000Z</time>
      </trkpt>
      <trkpt lat="45.30557" lon="6.1093">
        <ele>1987.8000488281</ele>
        <time>2023-08-10T08:34:18.000Z</time>
      </trkpt>
      <trkpt lat="45.30556" lon="6.10929">
        <ele>1988.1999511719</ele>
        <time>2023-08-10T08:34:26.000Z</time>
      </trkpt>
      <trkpt lat="45.30555" lon="6.10927">
        <ele>1988.8000488281</ele>
        <time>2023-08-10T08:34:35.000Z</time>
      </trkpt>
      <trkpt lat="45.30554" lon="6.10926">
        <ele>1988.8000488281</ele>
        <time>2023-08-10T08:34:37.000Z</time>
      </trkpt>
      <trkpt lat="45.3055" lon="6.10926">
        <ele>1989.5999755859</ele>
        <time>2023-08-10T08:34:43.000Z</time>
      </trkpt>
      <trkpt lat="45.30547" lon="6.10923">
        <ele>1989.8000488281</ele>
        <time>2023-08-10T08:34:46.000Z</time>
      </trkpt>
      <trkpt lat="45.30548" lon="6.10922">
        <ele>1990.1999511719</ele>
        <time>2023-08-10T08:34:49.000Z</time>
      </trkpt>
      <trkpt lat="45.30547" lon="6.10922">
        <ele>1990.1999511719</ele>
        <time>2023-08-10T08:34:57.000Z</time>
      </trkpt>
      <trkpt lat="45.30545" lon="6.10923">
        <ele>1988.5999755859</ele>
        <time>2023-08-10T08:35:06.000Z</time>
      </trkpt>
      <trkpt lat="45.30543" lon="6.1092">
        <ele>1987.5999755859</ele>
        <time>2023-08-10T08:35:14.000Z</time>
      </trkpt>
      <trkpt lat="45.3054" lon="6.10915">
        <ele>1986.5999755859</ele>
        <time>2023-08-10T08:35:20.000Z</time>
      </trkpt>
      <trkpt lat="45.30537" lon="6.10913">
        <ele>1986</ele>
        <time>2023-08-10T08:35:24.000Z</time>
      </trkpt>
      <trkpt lat="45.30533" lon="6.10906">
        <ele>1985.8000488281</ele>
        <time>2023-08-10T08:35:31.000Z</time>
      </trkpt>
      <trkpt lat="45.30531" lon="6.109">
        <ele>1986.1999511719</ele>
        <time>2023-08-10T08:35:39.000Z</time>
      </trkpt>
      <trkpt lat="45.30531" lon="6.10898">
        <ele>1985.4000244141</ele>
        <time>2023-08-10T08:35:45.000Z</time>
      </trkpt>
      <trkpt lat="45.30531" lon="6.10897">
        <ele>1985.1999511719</ele>
        <time>2023-08-10T08:35:47.000Z</time>
      </trkpt>
      <trkpt lat="45.3053" lon="6.10895">
        <ele>1984.8000488281</ele>
        <time>2023-08-10T08:35:56.000Z</time>
      </trkpt>
      <trkpt lat="45.3053" lon="6.10894">
        <ele>1984.4000244141</ele>
        <time>2023-08-10T08:35:59.000Z</time>
      </trkpt>
      <trkpt lat="45.3053" lon="6.1089">
        <ele>1983.4000244141</ele>
        <time>2023-08-10T08:36:04.000Z</time>
      </trkpt>
      <trkpt lat="45.30531" lon="6.10889">
        <ele>1983.1999511719</ele>
        <time>2023-08-10T08:36:05.000Z</time>
      </trkpt>
      <trkpt lat="45.30532" lon="6.1088">
        <ele>1982.1999511719</ele>
        <time>2023-08-10T08:36:12.000Z</time>
      </trkpt>
      <trkpt lat="45.30532" lon="6.10876">
        <ele>1982</ele>
        <time>2023-08-10T08:36:14.000Z</time>
      </trkpt>
      <trkpt lat="45.30531" lon="6.10867">
        <ele>1981.5999755859</ele>
        <time>2023-08-10T08:36:22.000Z</time>
      </trkpt>
      <trkpt lat="45.30527" lon="6.10863">
        <ele>1982.1999511719</ele>
        <time>2023-08-10T08:36:29.000Z</time>
      </trkpt>
      <trkpt lat="45.30526" lon="6.10863">
        <ele>1982.1999511719</ele>
        <time>2023-08-10T08:36:30.000Z</time>
      </trkpt>
      <trkpt lat="45.30521" lon="6.10862">
        <ele>1983.1999511719</ele>
        <time>2023-08-10T08:36:38.000Z</time>
      </trkpt>
      <trkpt lat="45.3052" lon="6.10862">
        <ele>1983.5999755859</ele>
        <time>2023-08-10T08:36:41.000Z</time>
      </trkpt>
      <trkpt lat="45.30512" lon="6.10857">
        <ele>1982.5999755859</ele>
        <time>2023-08-10T08:37:00.000Z</time>
      </trkpt>
      <trkpt lat="45.30515" lon="6.10865">
        <ele>1982.5999755859</ele>
        <time>2023-08-10T08:37:07.000Z</time>
      </trkpt>
      <trkpt lat="45.30514" lon="6.10864">
        <ele>1982.5999755859</ele>
        <time>2023-08-10T08:37:14.000Z</time>
      </trkpt>
      <trkpt lat="45.3051" lon="6.10863">
        <ele>1982.4000244141</ele>
        <time>2023-08-10T08:37:21.000Z</time>
      </trkpt>
      <trkpt lat="45.30509" lon="6.10863">
        <ele>1982.1999511719</ele>
        <time>2023-08-10T08:37:24.000Z</time>
      </trkpt>
      <trkpt lat="45.30504" lon="6.10865">
        <ele>1979.5999755859</ele>
        <time>2023-08-10T08:37:43.000Z</time>
      </trkpt>
      <trkpt lat="45.30504" lon="6.10868">
        <ele>1979</ele>
        <time>2023-08-10T08:37:48.000Z</time>
      </trkpt>
      <trkpt lat="45.30503" lon="6.10869">
        <ele>1978.1999511719</ele>
        <time>2023-08-10T08:37:52.000Z</time>
      </trkpt>
      <trkpt lat="45.30503" lon="6.1087">
        <ele>1978</ele>
        <time>2023-08-10T08:37:54.000Z</time>
      </trkpt>
      <trkpt lat="45.30502" lon="6.10869">
        <ele>1976.8000488281</ele>
        <time>2023-08-10T08:38:00.000Z</time>
      </trkpt>
      <trkpt lat="45.30501" lon="6.10868">
        <ele>1976.1999511719</ele>
        <time>2023-08-10T08:38:04.000Z</time>
      </trkpt>
      <trkpt lat="45.30495" lon="6.10867">
        <ele>1973.5999755859</ele>
        <time>2023-08-10T08:38:20.000Z</time>
      </trkpt>
      <trkpt lat="45.30494" lon="6.10866">
        <ele>1973.1999511719</ele>
        <time>2023-08-10T08:38:22.000Z</time>
      </trkpt>
      <trkpt lat="45.30492" lon="6.10865">
        <ele>1972.4000244141</ele>
        <time>2023-08-10T08:38:27.000Z</time>
      </trkpt>
      <trkpt lat="45.3049" lon="6.10868">
        <ele>1971.1999511719</ele>
        <time>2023-08-10T08:38:36.000Z</time>
      </trkpt>
      <trkpt lat="45.30487" lon="6.10867">
        <ele>1970.4000244141</ele>
        <time>2023-08-10T08:38:40.000Z</time>
      </trkpt>
      <trkpt lat="45.30485" lon="6.10865">
        <ele>1969.5999755859</ele>
        <time>2023-08-10T08:38:44.000Z</time>
      </trkpt>
      <trkpt lat="45.30485" lon="6.10865">
        <ele>1969.4000244141</ele>
        <time>2023-08-10T08:38:45.000Z</time>
      </trkpt>
      <trkpt lat="45.30485" lon="6.10865">
        <ele>1968.1999511719</ele>
        <time>2023-08-10T08:38:51.000Z</time>
      </trkpt>
      <trkpt lat="45.30483" lon="6.10863">
        <ele>1967.5999755859</ele>
        <time>2023-08-10T08:38:56.000Z</time>
      </trkpt>
      <trkpt lat="45.30476" lon="6.10872">
        <ele>1963.1999511719</ele>
        <time>2023-08-10T08:39:29.000Z</time>
      </trkpt>
      <trkpt lat="45.30476" lon="6.10872">
        <ele>1962.8000488281</ele>
        <time>2023-08-10T08:39:32.000Z</time>
      </trkpt>
      <trkpt lat="45.30475" lon="6.10871">
        <ele>1962</ele>
        <time>2023-08-10T08:39:37.000Z</time>
      </trkpt>
      <trkpt lat="45.30475" lon="6.10868">
        <ele>1960.5999755859</ele>
        <time>2023-08-10T08:39:46.000Z</time>
      </trkpt>
      <trkpt lat="45.30472" lon="6.10865">
        <ele>1959.5999755859</ele>
        <time>2023-08-10T08:39:53.000Z</time>
      </trkpt>
      <trkpt lat="45.30472" lon="6.10864">
        <ele>1959.4000244141</ele>
        <time>2023-08-10T08:39:55.000Z</time>
      </trkpt>
      <trkpt lat="45.3047" lon="6.10865">
        <ele>1958.5999755859</ele>
        <time>2023-08-10T08:40:01.000Z</time>
      </trkpt>
      <trkpt lat="45.3047" lon="6.10865">
        <ele>1958.4000244141</ele>
        <time>2023-08-10T08:40:02.000Z</time>
      </trkpt>
      <trkpt lat="45.30463" lon="6.10863">
        <ele>1955</ele>
        <time>2023-08-10T08:40:28.000Z</time>
      </trkpt>
      <trkpt lat="45.30462" lon="6.10862">
        <ele>1954.4000244141</ele>
        <time>2023-08-10T08:40:32.000Z</time>
      </trkpt>
      <trkpt lat="45.3046" lon="6.10862">
        <ele>1953.4000244141</ele>
        <time>2023-08-10T08:40:39.000Z</time>
      </trkpt>
      <trkpt lat="45.3046" lon="6.10862">
        <ele>1953.1999511719</ele>
        <time>2023-08-10T08:40:40.000Z</time>
      </trkpt>
      <trkpt lat="45.30458" lon="6.10866">
        <ele>1952.4000244141</ele>
        <time>2023-08-10T08:40:48.000Z</time>
      </trkpt>
      <trkpt lat="45.30458" lon="6.10866">
        <ele>1952.1999511719</ele>
        <time>2023-08-10T08:40:49.000Z</time>
      </trkpt>
      <trkpt lat="45.30457" lon="6.1087">
        <ele>1951.1999511719</ele>
        <time>2023-08-10T08:40:57.000Z</time>
      </trkpt>
      <trkpt lat="45.30457" lon="6.10869">
        <ele>1951.1999511719</ele>
        <time>2023-08-10T08:40:58.000Z</time>
      </trkpt>
      <trkpt lat="45.30456" lon="6.10871">
        <ele>1950.5999755859</ele>
        <time>2023-08-10T08:41:04.000Z</time>
      </trkpt>
      <trkpt lat="45.30455" lon="6.10873">
        <ele>1950</ele>
        <time>2023-08-10T08:41:09.000Z</time>
      </trkpt>
      <trkpt lat="45.30454" lon="6.10872">
        <ele>1949.5999755859</ele>
        <time>2023-08-10T08:41:13.000Z</time>
      </trkpt>
      <trkpt lat="45.30448" lon="6.10876">
        <ele>1945.8000488281</ele>
        <time>2023-08-10T08:41:40.000Z</time>
      </trkpt>
      <trkpt lat="45.30448" lon="6.10876">
        <ele>1945.5999755859</ele>
        <time>2023-08-10T08:41:41.000Z</time>
      </trkpt>
      <trkpt lat="45.30444" lon="6.1088">
        <ele>1945</ele>
        <time>2023-08-10T08:41:47.000Z</time>
      </trkpt>
      <trkpt lat="45.30443" lon="6.10882">
        <ele>1944.4000244141</ele>
        <time>2023-08-10T08:41:51.000Z</time>
      </trkpt>
      <trkpt lat="45.30439" lon="6.10883">
        <ele>1943.8000488281</ele>
        <time>2023-08-10T08:41:57.000Z</time>
      </trkpt>
      <trkpt lat="45.30438" lon="6.10888">
        <ele>1942.4000244141</ele>
        <time>2023-08-10T08:42:08.000Z</time>
      </trkpt>
      <trkpt lat="45.30438" lon="6.10888">
        <ele>1942.4000244141</ele>
        <time>2023-08-10T08:42:09.000Z</time>
      </trkpt>
      <trkpt lat="45.30436" lon="6.10891">
        <ele>1941.4000244141</ele>
        <time>2023-08-10T08:42:14.000Z</time>
      </trkpt>
      <trkpt lat="45.30435" lon="6.10891">
        <ele>1941.1999511719</ele>
        <time>2023-08-10T08:42:16.000Z</time>
      </trkpt>
      <trkpt lat="45.30435" lon="6.10895">
        <ele>1940.1999511719</ele>
        <time>2023-08-10T08:42:23.000Z</time>
      </trkpt>
      <trkpt lat="45.30436" lon="6.10896">
        <ele>1940</ele>
        <time>2023-08-10T08:42:25.000Z</time>
      </trkpt>
      <trkpt lat="45.30437" lon="6.10901">
        <ele>1939.1999511719</ele>
        <time>2023-08-10T08:42:32.000Z</time>
      </trkpt>
      <trkpt lat="45.30437" lon="6.10902">
        <ele>1939</ele>
        <time>2023-08-10T08:42:33.000Z</time>
      </trkpt>
      <trkpt lat="45.30434" lon="6.10905">
        <ele>1938.1999511719</ele>
        <time>2023-08-10T08:42:40.000Z</time>
      </trkpt>
      <trkpt lat="45.30432" lon="6.10906">
        <ele>1937.8000488281</ele>
        <time>2023-08-10T08:42:43.000Z</time>
      </trkpt>
      <trkpt lat="45.30422" lon="6.10913">
        <ele>1933.4000244141</ele>
        <time>2023-08-10T08:43:16.000Z</time>
      </trkpt>
      <trkpt lat="45.30423" lon="6.10916">
        <ele>1932.5999755859</ele>
        <time>2023-08-10T08:43:20.000Z</time>
      </trkpt>
      <trkpt lat="45.30423" lon="6.10918">
        <ele>1932.1999511719</ele>
        <time>2023-08-10T08:43:24.000Z</time>
      </trkpt>
      <trkpt lat="45.30423" lon="6.10918">
        <ele>1931.5999755859</ele>
        <time>2023-08-10T08:43:29.000Z</time>
      </trkpt>
      <trkpt lat="45.30423" lon="6.10918">
        <ele>1931.5999755859</ele>
        <time>2023-08-10T08:43:30.000Z</time>
      </trkpt>
      <trkpt lat="45.30421" lon="6.10917">
        <ele>1931</ele>
        <time>2023-08-10T08:43:39.000Z</time>
      </trkpt>
      <trkpt lat="45.3042" lon="6.10922">
        <ele>1931</ele>
        <time>2023-08-10T08:43:47.000Z</time>
      </trkpt>
      <trkpt lat="45.30418" lon="6.10925">
        <ele>1930.5999755859</ele>
        <time>2023-08-10T08:43:52.000Z</time>
      </trkpt>
      <trkpt lat="45.30417" lon="6.10927">
        <ele>1930.4000244141</ele>
        <time>2023-08-10T08:43:54.000Z</time>
      </trkpt>
      <trkpt lat="45.30413" lon="6.10933">
        <ele>1929.4000244141</ele>
        <time>2023-08-10T08:44:01.000Z</time>
      </trkpt>
      <trkpt lat="45.30413" lon="6.10933">
        <ele>1929.1999511719</ele>
        <time>2023-08-10T08:44:05.000Z</time>
      </trkpt>
      <trkpt lat="45.30405" lon="6.10923">
        <ele>1927.4000244141</ele>
        <time>2023-08-10T08:44:22.000Z</time>
      </trkpt>
      <trkpt lat="45.30404" lon="6.10922">
        <ele>1927.1999511719</ele>
        <time>2023-08-10T08:44:23.000Z</time>
      </trkpt>
      <trkpt lat="45.30399" lon="6.10915">
        <ele>1926.4000244141</ele>
        <time>2023-08-10T08:44:31.000Z</time>
      </trkpt>
      <trkpt lat="45.30399" lon="6.10915">
        <ele>1926</ele>
        <time>2023-08-10T08:44:34.000Z</time>
      </trkpt>
      <trkpt lat="45.30397" lon="6.10911">
        <ele>1925.1999511719</ele>
        <time>2023-08-10T08:44:40.000Z</time>
      </trkpt>
      <trkpt lat="45.30397" lon="6.10909">
        <ele>1925</ele>
        <time>2023-08-10T08:44:43.000Z</time>
      </trkpt>
      <trkpt lat="45.30395" lon="6.10906">
        <ele>1924.8000488281</ele>
        <time>2023-08-10T08:44:47.000Z</time>
      </trkpt>
      <trkpt lat="45.30395" lon="6.10906">
        <ele>1923.8000488281</ele>
        <time>2023-08-10T08:44:54.000Z</time>
      </trkpt>
      <trkpt lat="45.30393" lon="6.10903">
        <ele>1922.8000488281</ele>
        <time>2023-08-10T08:45:00.000Z</time>
      </trkpt>
      <trkpt lat="45.30393" lon="6.109">
        <ele>1922.1999511719</ele>
        <time>2023-08-10T08:45:05.000Z</time>
      </trkpt>
      <trkpt lat="45.30393" lon="6.10898">
        <ele>1921.8000488281</ele>
        <time>2023-08-10T08:45:07.000Z</time>
      </trkpt>
      <trkpt lat="45.30393" lon="6.10899">
        <ele>1921</ele>
        <time>2023-08-10T08:45:12.000Z</time>
      </trkpt>
      <trkpt lat="45.3039" lon="6.10893">
        <ele>1920.8000488281</ele>
        <time>2023-08-10T08:45:22.000Z</time>
      </trkpt>
      <trkpt lat="45.30389" lon="6.10892">
        <ele>1920.8000488281</ele>
        <time>2023-08-10T08:45:23.000Z</time>
      </trkpt>
      <trkpt lat="45.30389" lon="6.10888">
        <ele>1920.1999511719</ele>
        <time>2023-08-10T08:45:29.000Z</time>
      </trkpt>
      <trkpt lat="45.30389" lon="6.10884">
        <ele>1919.5999755859</ele>
        <time>2023-08-10T08:45:32.000Z</time>
      </trkpt>
      <trkpt lat="45.30389" lon="6.10879">
        <ele>1919</ele>
        <time>2023-08-10T08:45:36.000Z</time>
      </trkpt>
      <trkpt lat="45.30387" lon="6.10876">
        <ele>1918.5999755859</ele>
        <time>2023-08-10T08:45:41.000Z</time>
      </trkpt>
      <trkpt lat="45.30387" lon="6.10873">
        <ele>1918</ele>
        <time>2023-08-10T08:45:45.000Z</time>
      </trkpt>
      <trkpt lat="45.30388" lon="6.1087">
        <ele>1917.4000244141</ele>
        <time>2023-08-10T08:45:49.000Z</time>
      </trkpt>
      <trkpt lat="45.30389" lon="6.10869">
        <ele>1917.1999511719</ele>
        <time>2023-08-10T08:45:53.000Z</time>
      </trkpt>
      <trkpt lat="45.30387" lon="6.10865">
        <ele>1916.5999755859</ele>
        <time>2023-08-10T08:45:59.000Z</time>
      </trkpt>
      <trkpt lat="45.30387" lon="6.10864">
        <ele>1916.4000244141</ele>
        <time>2023-08-10T08:46:01.000Z</time>
      </trkpt>
      <trkpt lat="45.30385" lon="6.1086">
        <ele>1915.5999755859</ele>
        <time>2023-08-10T08:46:08.000Z</time>
      </trkpt>
      <trkpt lat="45.30385" lon="6.1086">
        <ele>1915.4000244141</ele>
        <time>2023-08-10T08:46:09.000Z</time>
      </trkpt>
      <trkpt lat="45.30386" lon="6.10855">
        <ele>1915</ele>
        <time>2023-08-10T08:46:17.000Z</time>
      </trkpt>
      <trkpt lat="45.30384" lon="6.10848">
        <ele>1914.4000244141</ele>
        <time>2023-08-10T08:46:25.000Z</time>
      </trkpt>
      <trkpt lat="45.30383" lon="6.10846">
        <ele>1914.4000244141</ele>
        <time>2023-08-10T08:46:26.000Z</time>
      </trkpt>
      <trkpt lat="45.30379" lon="6.10835">
        <ele>1914</ele>
        <time>2023-08-10T08:46:34.000Z</time>
      </trkpt>
      <trkpt lat="45.30376" lon="6.10828">
        <ele>1914.1999511719</ele>
        <time>2023-08-10T08:46:40.000Z</time>
      </trkpt>
      <trkpt lat="45.30375" lon="6.10825">
        <ele>1914.4000244141</ele>
        <time>2023-08-10T08:46:46.000Z</time>
      </trkpt>
      <trkpt lat="45.30373" lon="6.10815">
        <ele>1914</ele>
        <time>2023-08-10T08:46:58.000Z</time>
      </trkpt>
      <trkpt lat="45.30371" lon="6.10805">
        <ele>1914</ele>
        <time>2023-08-10T08:47:06.000Z</time>
      </trkpt>
      <trkpt lat="45.30368" lon="6.10792">
        <ele>1914</ele>
        <time>2023-08-10T08:47:14.000Z</time>
      </trkpt>
      <trkpt lat="45.30369" lon="6.10782">
        <ele>1913.8000488281</ele>
        <time>2023-08-10T08:47:23.000Z</time>
      </trkpt>
      <trkpt lat="45.30371" lon="6.10772">
        <ele>1913.8000488281</ele>
        <time>2023-08-10T08:47:31.000Z</time>
      </trkpt>
      <trkpt lat="45.3037" lon="6.10761">
        <ele>1913.4000244141</ele>
        <time>2023-08-10T08:47:40.000Z</time>
      </trkpt>
      <trkpt lat="45.30369" lon="6.1076">
        <ele>1913.1999511719</ele>
        <time>2023-08-10T08:47:41.000Z</time>
      </trkpt>
      <trkpt lat="45.30368" lon="6.10756">
        <ele>1912.4000244141</ele>
        <time>2023-08-10T08:47:47.000Z</time>
      </trkpt>
      <trkpt lat="45.30368" lon="6.10756">
        <ele>1912.1999511719</ele>
        <time>2023-08-10T08:47:48.000Z</time>
      </trkpt>
      <trkpt lat="45.30367" lon="6.10749">
        <ele>1911.4000244141</ele>
        <time>2023-08-10T08:47:54.000Z</time>
      </trkpt>
      <trkpt lat="45.30366" lon="6.10747">
        <ele>1911.1999511719</ele>
        <time>2023-08-10T08:47:56.000Z</time>
      </trkpt>
      <trkpt lat="45.30359" lon="6.1074">
        <ele>1910.1999511719</ele>
        <time>2023-08-10T08:48:03.000Z</time>
      </trkpt>
      <trkpt lat="45.30358" lon="6.10739">
        <ele>1910</ele>
        <time>2023-08-10T08:48:04.000Z</time>
      </trkpt>
      <trkpt lat="45.30355" lon="6.10735">
        <ele>1909.4000244141</ele>
        <time>2023-08-10T08:48:10.000Z</time>
      </trkpt>
      <trkpt lat="45.30354" lon="6.10734">
        <ele>1909</ele>
        <time>2023-08-10T08:48:13.000Z</time>
      </trkpt>
      <trkpt lat="45.30355" lon="6.10733">
        <ele>1908.5999755859</ele>
        <time>2023-08-10T08:48:16.000Z</time>
      </trkpt>
      <trkpt lat="45.30355" lon="6.10733">
        <ele>1908.4000244141</ele>
        <time>2023-08-10T08:48:19.000Z</time>
      </trkpt>
      <trkpt lat="45.30356" lon="6.10732">
        <ele>1907.8000488281</ele>
        <time>2023-08-10T08:48:22.000Z</time>
      </trkpt>
      <trkpt lat="45.30355" lon="6.10729">
        <ele>1906.8000488281</ele>
        <time>2023-08-10T08:48:27.000Z</time>
      </trkpt>
      <trkpt lat="45.30355" lon="6.10729">
        <ele>1906.5999755859</ele>
        <time>2023-08-10T08:48:28.000Z</time>
      </trkpt>
      <trkpt lat="45.30346" lon="6.10727">
        <ele>1905.1999511719</ele>
        <time>2023-08-10T08:48:42.000Z</time>
      </trkpt>
      <trkpt lat="45.30349" lon="6.10726">
        <ele>1905.1999511719</ele>
        <time>2023-08-10T08:48:54.000Z</time>
      </trkpt>
      <trkpt lat="45.30347" lon="6.10722">
        <ele>1904.4000244141</ele>
        <time>2023-08-10T08:49:05.000Z</time>
      </trkpt>
      <trkpt lat="45.30346" lon="6.10715">
        <ele>1903.1999511719</ele>
        <time>2023-08-10T08:49:12.000Z</time>
      </trkpt>
      <trkpt lat="45.30345" lon="6.10714">
        <ele>1903</ele>
        <time>2023-08-10T08:49:13.000Z</time>
      </trkpt>
      <trkpt lat="45.30344" lon="6.10712">
        <ele>1902</ele>
        <time>2023-08-10T08:49:17.000Z</time>
      </trkpt>
      <trkpt lat="45.30343" lon="6.10711">
        <ele>1901.5999755859</ele>
        <time>2023-08-10T08:49:20.000Z</time>
      </trkpt>
      <trkpt lat="45.30341" lon="6.10708">
        <ele>1900</ele>
        <time>2023-08-10T08:49:30.000Z</time>
      </trkpt>
      <trkpt lat="45.30339" lon="6.10706">
        <ele>1899.4000244141</ele>
        <time>2023-08-10T08:49:33.000Z</time>
      </trkpt>
      <trkpt lat="45.30339" lon="6.10706">
        <ele>1899</ele>
        <time>2023-08-10T08:49:35.000Z</time>
      </trkpt>
      <trkpt lat="45.30338" lon="6.10705">
        <ele>1898.1999511719</ele>
        <time>2023-08-10T08:49:40.000Z</time>
      </trkpt>
      <trkpt lat="45.30337" lon="6.10703">
        <ele>1897.8000488281</ele>
        <time>2023-08-10T08:49:42.000Z</time>
      </trkpt>
      <trkpt lat="45.30338" lon="6.10699">
        <ele>1896.5999755859</ele>
        <time>2023-08-10T08:49:47.000Z</time>
      </trkpt>
      <trkpt lat="45.30338" lon="6.10693">
        <ele>1895.5999755859</ele>
        <time>2023-08-10T08:49:53.000Z</time>
      </trkpt>
      <trkpt lat="45.30337" lon="6.10691">
        <ele>1895.1999511719</ele>
        <time>2023-08-10T08:49:55.000Z</time>
      </trkpt>
      <trkpt lat="45.30334" lon="6.10687">
        <ele>1894.4000244141</ele>
        <time>2023-08-10T08:49:59.000Z</time>
      </trkpt>
      <trkpt lat="45.30333" lon="6.10687">
        <ele>1894</ele>
        <time>2023-08-10T08:50:02.000Z</time>
      </trkpt>
      <trkpt lat="45.30331" lon="6.10684">
        <ele>1893.4000244141</ele>
        <time>2023-08-10T08:50:06.000Z</time>
      </trkpt>
      <trkpt lat="45.3033" lon="6.10682">
        <ele>1892.5999755859</ele>
        <time>2023-08-10T08:50:10.000Z</time>
      </trkpt>
      <trkpt lat="45.30329" lon="6.10679">
        <ele>1892.1999511719</ele>
        <time>2023-08-10T08:50:12.000Z</time>
      </trkpt>
      <trkpt lat="45.30327" lon="6.10676">
        <ele>1891.1999511719</ele>
        <time>2023-08-10T08:50:17.000Z</time>
      </trkpt>
      <trkpt lat="45.30326" lon="6.10673">
        <ele>1890</ele>
        <time>2023-08-10T08:50:22.000Z</time>
      </trkpt>
      <trkpt lat="45.30325" lon="6.10673">
        <ele>1889.4000244141</ele>
        <time>2023-08-10T08:50:26.000Z</time>
      </trkpt>
      <trkpt lat="45.30325" lon="6.10672">
        <ele>1889</ele>
        <time>2023-08-10T08:50:28.000Z</time>
      </trkpt>
      <trkpt lat="45.30324" lon="6.10668">
        <ele>1888</ele>
        <time>2023-08-10T08:50:34.000Z</time>
      </trkpt>
      <trkpt lat="45.30324" lon="6.10662">
        <ele>1887</ele>
        <time>2023-08-10T08:50:40.000Z</time>
      </trkpt>
      <trkpt lat="45.30321" lon="6.10658">
        <ele>1886</ele>
        <time>2023-08-10T08:50:46.000Z</time>
      </trkpt>
      <trkpt lat="45.30321" lon="6.10658">
        <ele>1885.8000488281</ele>
        <time>2023-08-10T08:50:47.000Z</time>
      </trkpt>
      <trkpt lat="45.30317" lon="6.10657">
        <ele>1884.8000488281</ele>
        <time>2023-08-10T08:50:53.000Z</time>
      </trkpt>
      <trkpt lat="45.30316" lon="6.10655">
        <ele>1883.8000488281</ele>
        <time>2023-08-10T08:50:58.000Z</time>
      </trkpt>
      <trkpt lat="45.30317" lon="6.10654">
        <ele>1883.1999511719</ele>
        <time>2023-08-10T08:51:02.000Z</time>
      </trkpt>
      <trkpt lat="45.30319" lon="6.10653">
        <ele>1882.8000488281</ele>
        <time>2023-08-10T08:51:04.000Z</time>
      </trkpt>
      <trkpt lat="45.30321" lon="6.10652">
        <ele>1882.4000244141</ele>
        <time>2023-08-10T08:51:09.000Z</time>
      </trkpt>
      <trkpt lat="45.30321" lon="6.1065">
        <ele>1882.4000244141</ele>
        <time>2023-08-10T08:51:16.000Z</time>
      </trkpt>
      <trkpt lat="45.30321" lon="6.1065">
        <ele>1881.8000488281</ele>
        <time>2023-08-10T08:51:20.000Z</time>
      </trkpt>
      <trkpt lat="45.30312" lon="6.10649">
        <ele>1880</ele>
        <time>2023-08-10T08:51:32.000Z</time>
      </trkpt>
      <trkpt lat="45.30311" lon="6.10649">
        <ele>1879.4000244141</ele>
        <time>2023-08-10T08:51:34.000Z</time>
      </trkpt>
      <trkpt lat="45.30309" lon="6.10647">
        <ele>1878.8000488281</ele>
        <time>2023-08-10T08:51:44.000Z</time>
      </trkpt>
      <trkpt lat="45.30308" lon="6.10648">
        <ele>1878.4000244141</ele>
        <time>2023-08-10T08:51:49.000Z</time>
      </trkpt>
      <trkpt lat="45.30303" lon="6.10649">
        <ele>1876.4000244141</ele>
        <time>2023-08-10T08:52:00.000Z</time>
      </trkpt>
      <trkpt lat="45.30302" lon="6.10649">
        <ele>1876.1999511719</ele>
        <time>2023-08-10T08:52:02.000Z</time>
      </trkpt>
      <trkpt lat="45.30299" lon="6.1065">
        <ele>1875.8000488281</ele>
        <time>2023-08-10T08:52:13.000Z</time>
      </trkpt>
      <trkpt lat="45.30301" lon="6.10647">
        <ele>1875</ele>
        <time>2023-08-10T08:52:18.000Z</time>
      </trkpt>
      <trkpt lat="45.30301" lon="6.10645">
        <ele>1874.5999755859</ele>
        <time>2023-08-10T08:52:20.000Z</time>
      </trkpt>
      <trkpt lat="45.30299" lon="6.10644">
        <ele>1874</ele>
        <time>2023-08-10T08:52:24.000Z</time>
      </trkpt>
      <trkpt lat="45.30299" lon="6.10643">
        <ele>1873.5999755859</ele>
        <time>2023-08-10T08:52:26.000Z</time>
      </trkpt>
      <trkpt lat="45.30297" lon="6.10642">
        <ele>1873</ele>
        <time>2023-08-10T08:52:30.000Z</time>
      </trkpt>
      <trkpt lat="45.30296" lon="6.10642">
        <ele>1872</ele>
        <time>2023-08-10T08:52:34.000Z</time>
      </trkpt>
      <trkpt lat="45.30296" lon="6.10642">
        <ele>1871.8000488281</ele>
        <time>2023-08-10T08:52:37.000Z</time>
      </trkpt>
      <trkpt lat="45.30295" lon="6.1064">
        <ele>1871.4000244141</ele>
        <time>2023-08-10T08:52:40.000Z</time>
      </trkpt>
      <trkpt lat="45.30293" lon="6.10639">
        <ele>1870.8000488281</ele>
        <time>2023-08-10T08:52:43.000Z</time>
      </trkpt>
      <trkpt lat="45.30294" lon="6.10636">
        <ele>1870</ele>
        <time>2023-08-10T08:52:48.000Z</time>
      </trkpt>
      <trkpt lat="45.30295" lon="6.10633">
        <ele>1869.8000488281</ele>
        <time>2023-08-10T08:52:50.000Z</time>
      </trkpt>
      <trkpt lat="45.30294" lon="6.1063">
        <ele>1869</ele>
        <time>2023-08-10T08:52:54.000Z</time>
      </trkpt>
      <trkpt lat="45.30293" lon="6.10629">
        <ele>1868.8000488281</ele>
        <time>2023-08-10T08:52:56.000Z</time>
      </trkpt>
      <trkpt lat="45.30291" lon="6.10626">
        <ele>1867.5999755859</ele>
        <time>2023-08-10T08:53:03.000Z</time>
      </trkpt>
      <trkpt lat="45.30289" lon="6.10624">
        <ele>1867.1999511719</ele>
        <time>2023-08-10T08:53:05.000Z</time>
      </trkpt>
      <trkpt lat="45.30287" lon="6.10622">
        <ele>1866.4000244141</ele>
        <time>2023-08-10T08:53:08.000Z</time>
      </trkpt>
      <trkpt lat="45.3028" lon="6.10617">
        <ele>1865.4000244141</ele>
        <time>2023-08-10T08:53:15.000Z</time>
      </trkpt>
      <trkpt lat="45.30276" lon="6.10612">
        <ele>1864.5999755859</ele>
        <time>2023-08-10T08:53:23.000Z</time>
      </trkpt>
      <trkpt lat="45.30275" lon="6.10611">
        <ele>1864.4000244141</ele>
        <time>2023-08-10T08:53:25.000Z</time>
      </trkpt>
      <trkpt lat="45.3027" lon="6.10605">
        <ele>1863.4000244141</ele>
        <time>2023-08-10T08:53:32.000Z</time>
      </trkpt>
      <trkpt lat="45.30269" lon="6.10603">
        <ele>1863.4000244141</ele>
        <time>2023-08-10T08:53:34.000Z</time>
      </trkpt>
      <trkpt lat="45.30269" lon="6.10598">
        <ele>1862.4000244141</ele>
        <time>2023-08-10T08:53:39.000Z</time>
      </trkpt>
      <trkpt lat="45.30269" lon="6.10595">
        <ele>1861.1999511719</ele>
        <time>2023-08-10T08:53:46.000Z</time>
      </trkpt>
      <trkpt lat="45.30268" lon="6.10592">
        <ele>1860.4000244141</ele>
        <time>2023-08-10T08:53:50.000Z</time>
      </trkpt>
      <trkpt lat="45.30268" lon="6.1059">
        <ele>1860.1999511719</ele>
        <time>2023-08-10T08:53:52.000Z</time>
      </trkpt>
      <trkpt lat="45.30269" lon="6.10582">
        <ele>1859.4000244141</ele>
        <time>2023-08-10T08:53:58.000Z</time>
      </trkpt>
      <trkpt lat="45.30269" lon="6.10581">
        <ele>1859</ele>
        <time>2023-08-10T08:54:00.000Z</time>
      </trkpt>
      <trkpt lat="45.30265" lon="6.10573">
        <ele>1858</ele>
        <time>2023-08-10T08:54:05.000Z</time>
      </trkpt>
      <trkpt lat="45.30264" lon="6.10571">
        <ele>1857.8000488281</ele>
        <time>2023-08-10T08:54:07.000Z</time>
      </trkpt>
      <trkpt lat="45.30263" lon="6.10568">
        <ele>1857.4000244141</ele>
        <time>2023-08-10T08:54:11.000Z</time>
      </trkpt>
      <trkpt lat="45.3026" lon="6.10561">
        <ele>1856.8000488281</ele>
        <time>2023-08-10T08:54:17.000Z</time>
      </trkpt>
      <trkpt lat="45.30259" lon="6.10559">
        <ele>1856.4000244141</ele>
        <time>2023-08-10T08:54:19.000Z</time>
      </trkpt>
      <trkpt lat="45.30257" lon="6.10553">
        <ele>1856.1999511719</ele>
        <time>2023-08-10T08:54:25.000Z</time>
      </trkpt>
      <trkpt lat="45.30255" lon="6.10547">
        <ele>1856.4000244141</ele>
        <time>2023-08-10T08:54:33.000Z</time>
      </trkpt>
      <trkpt lat="45.30252" lon="6.10544">
        <ele>1855.5999755859</ele>
        <time>2023-08-10T08:54:37.000Z</time>
      </trkpt>
      <trkpt lat="45.3025" lon="6.10543">
        <ele>1854.8000488281</ele>
        <time>2023-08-10T08:54:40.000Z</time>
      </trkpt>
      <trkpt lat="45.30249" lon="6.10543">
        <ele>1854.5999755859</ele>
        <time>2023-08-10T08:54:42.000Z</time>
      </trkpt>
      <trkpt lat="45.30244" lon="6.10542">
        <ele>1853.5999755859</ele>
        <time>2023-08-10T08:54:48.000Z</time>
      </trkpt>
      <trkpt lat="45.30243" lon="6.10542">
        <ele>1853.1999511719</ele>
        <time>2023-08-10T08:54:50.000Z</time>
      </trkpt>
      <trkpt lat="45.30241" lon="6.10542">
        <ele>1852.5999755859</ele>
        <time>2023-08-10T08:54:56.000Z</time>
      </trkpt>
      <trkpt lat="45.30241" lon="6.10543">
        <ele>1852.4000244141</ele>
        <time>2023-08-10T08:54:57.000Z</time>
      </trkpt>
      <trkpt lat="45.30239" lon="6.10544">
        <ele>1851.1999511719</ele>
        <time>2023-08-10T08:55:04.000Z</time>
      </trkpt>
      <trkpt lat="45.30239" lon="6.10544">
        <ele>1851</ele>
        <time>2023-08-10T08:55:06.000Z</time>
      </trkpt>
      <trkpt lat="45.30238" lon="6.10542">
        <ele>1850</ele>
        <time>2023-08-10T08:55:11.000Z</time>
      </trkpt>
      <trkpt lat="45.30234" lon="6.10541">
        <ele>1849</ele>
        <time>2023-08-10T08:55:15.000Z</time>
      </trkpt>
      <trkpt lat="45.30229" lon="6.10543">
        <ele>1847</ele>
        <time>2023-08-10T08:55:26.000Z</time>
      </trkpt>
      <trkpt lat="45.30221" lon="6.10549">
        <ele>1844.8000488281</ele>
        <time>2023-08-10T08:55:37.000Z</time>
      </trkpt>
      <trkpt lat="45.3022" lon="6.1055">
        <ele>1844.5999755859</ele>
        <time>2023-08-10T08:55:38.000Z</time>
      </trkpt>
      <trkpt lat="45.30219" lon="6.1055">
        <ele>1843.5999755859</ele>
        <time>2023-08-10T08:55:44.000Z</time>
      </trkpt>
      <trkpt lat="45.30218" lon="6.10549">
        <ele>1842.5999755859</ele>
        <time>2023-08-10T08:55:50.000Z</time>
      </trkpt>
      <trkpt lat="45.30217" lon="6.10549">
        <ele>1842.4000244141</ele>
        <time>2023-08-10T08:55:51.000Z</time>
      </trkpt>
      <trkpt lat="45.30211" lon="6.10547">
        <ele>1840.4000244141</ele>
        <time>2023-08-10T08:56:01.000Z</time>
      </trkpt>
      <trkpt lat="45.30204" lon="6.1055">
        <ele>1838.5999755859</ele>
        <time>2023-08-10T08:56:09.000Z</time>
      </trkpt>
      <trkpt lat="45.30204" lon="6.10551">
        <ele>1838.4000244141</ele>
        <time>2023-08-10T08:56:11.000Z</time>
      </trkpt>
      <trkpt lat="45.302" lon="6.10553">
        <ele>1837.5999755859</ele>
        <time>2023-08-10T08:56:16.000Z</time>
      </trkpt>
      <trkpt lat="45.30197" lon="6.10556">
        <ele>1837</ele>
        <time>2023-08-10T08:56:19.000Z</time>
      </trkpt>
      <trkpt lat="45.30197" lon="6.10557">
        <ele>1836.5999755859</ele>
        <time>2023-08-10T08:56:21.000Z</time>
      </trkpt>
      <trkpt lat="45.30193" lon="6.10558">
        <ele>1836.4000244141</ele>
        <time>2023-08-10T08:56:25.000Z</time>
      </trkpt>
      <trkpt lat="45.30188" lon="6.10559">
        <ele>1835.5999755859</ele>
        <time>2023-08-10T08:56:32.000Z</time>
      </trkpt>
      <trkpt lat="45.30189" lon="6.10559">
        <ele>1835.5999755859</ele>
        <time>2023-08-10T08:56:33.000Z</time>
      </trkpt>
      <trkpt lat="45.30188" lon="6.10558">
        <ele>1835.4000244141</ele>
        <time>2023-08-10T08:56:43.000Z</time>
      </trkpt>
      <trkpt lat="45.30183" lon="6.10558">
        <ele>1835.4000244141</ele>
        <time>2023-08-10T08:56:51.000Z</time>
      </trkpt>
      <trkpt lat="45.30179" lon="6.10562">
        <ele>1835.5999755859</ele>
        <time>2023-08-10T08:56:58.000Z</time>
      </trkpt>
      <trkpt lat="45.30174" lon="6.10562">
        <ele>1834.8000488281</ele>
        <time>2023-08-10T08:57:08.000Z</time>
      </trkpt>
      <trkpt lat="45.30173" lon="6.10562">
        <ele>1834.4000244141</ele>
        <time>2023-08-10T08:57:11.000Z</time>
      </trkpt>
      <trkpt lat="45.3017" lon="6.10561">
        <ele>1833.8000488281</ele>
        <time>2023-08-10T08:57:16.000Z</time>
      </trkpt>
      <trkpt lat="45.30169" lon="6.10561">
        <ele>1833.4000244141</ele>
        <time>2023-08-10T08:57:18.000Z</time>
      </trkpt>
      <trkpt lat="45.30167" lon="6.10564">
        <ele>1832.4000244141</ele>
        <time>2023-08-10T08:57:24.000Z</time>
      </trkpt>
      <trkpt lat="45.30165" lon="6.10565">
        <ele>1832.1999511719</ele>
        <time>2023-08-10T08:57:26.000Z</time>
      </trkpt>
      <trkpt lat="45.3016" lon="6.10569">
        <ele>1831.5999755859</ele>
        <time>2023-08-10T08:57:31.000Z</time>
      </trkpt>
      <trkpt lat="45.30158" lon="6.1057">
        <ele>1831.1999511719</ele>
        <time>2023-08-10T08:57:35.000Z</time>
      </trkpt>
      <trkpt lat="45.30156" lon="6.10572">
        <ele>1830.5999755859</ele>
        <time>2023-08-10T08:57:39.000Z</time>
      </trkpt>
      <trkpt lat="45.30155" lon="6.10572">
        <ele>1830.1999511719</ele>
        <time>2023-08-10T08:57:41.000Z</time>
      </trkpt>
      <trkpt lat="45.30151" lon="6.10574">
        <ele>1829.4000244141</ele>
        <time>2023-08-10T08:57:47.000Z</time>
      </trkpt>
      <trkpt lat="45.30151" lon="6.10574">
        <ele>1829</ele>
        <time>2023-08-10T08:57:48.000Z</time>
      </trkpt>
      <trkpt lat="45.30147" lon="6.10578">
        <ele>1828</ele>
        <time>2023-08-10T08:57:53.000Z</time>
      </trkpt>
      <trkpt lat="45.30146" lon="6.10578">
        <ele>1827.4000244141</ele>
        <time>2023-08-10T08:57:55.000Z</time>
      </trkpt>
      <trkpt lat="45.30145" lon="6.10579">
        <ele>1826.8000488281</ele>
        <time>2023-08-10T08:57:59.000Z</time>
      </trkpt>
      <trkpt lat="45.30143" lon="6.10577">
        <ele>1825.5999755859</ele>
        <time>2023-08-10T08:58:04.000Z</time>
      </trkpt>
      <trkpt lat="45.30142" lon="6.10577">
        <ele>1825.4000244141</ele>
        <time>2023-08-10T08:58:05.000Z</time>
      </trkpt>
      <trkpt lat="45.30139" lon="6.10578">
        <ele>1824.5999755859</ele>
        <time>2023-08-10T08:58:10.000Z</time>
      </trkpt>
      <trkpt lat="45.30138" lon="6.1058">
        <ele>1823.8000488281</ele>
        <time>2023-08-10T08:58:15.000Z</time>
      </trkpt>
      <trkpt lat="45.30138" lon="6.10579">
        <ele>1823.5999755859</ele>
        <time>2023-08-10T08:58:17.000Z</time>
      </trkpt>
      <trkpt lat="45.30135" lon="6.10579">
        <ele>1823</ele>
        <time>2023-08-10T08:58:25.000Z</time>
      </trkpt>
      <trkpt lat="45.30133" lon="6.1058">
        <ele>1823</ele>
        <time>2023-08-10T08:58:31.000Z</time>
      </trkpt>
      <trkpt lat="45.30134" lon="6.10582">
        <ele>1823</ele>
        <time>2023-08-10T08:58:42.000Z</time>
      </trkpt>
      <trkpt lat="45.30134" lon="6.10582">
        <ele>1823.4000244141</ele>
        <time>2023-08-10T08:59:00.000Z</time>
      </trkpt>
      <trkpt lat="45.30133" lon="6.1058">
        <ele>1823.5999755859</ele>
        <time>2023-08-10T08:59:12.000Z</time>
      </trkpt>
      <trkpt lat="45.30134" lon="6.10583">
        <ele>1823.8000488281</ele>
        <time>2023-08-10T08:59:20.000Z</time>
      </trkpt>
      <trkpt lat="45.30134" lon="6.10582">
        <ele>1823.8000488281</ele>
        <time>2023-08-10T08:59:25.000Z</time>
      </trkpt>
      <trkpt lat="45.30134" lon="6.10581">
        <ele>1823.8000488281</ele>
        <time>2023-08-10T08:59:28.000Z</time>
      </trkpt>
      <trkpt lat="45.30135" lon="6.10582">
        <ele>1823.8000488281</ele>
        <time>2023-08-10T08:59:38.000Z</time>
      </trkpt>
      <trkpt lat="45.30134" lon="6.10581">
        <ele>1823.8000488281</ele>
        <time>2023-08-10T08:59:46.000Z</time>
      </trkpt>
      <trkpt lat="45.30135" lon="6.1058">
        <ele>1824.1999511719</ele>
        <time>2023-08-10T08:59:59.000Z</time>
      </trkpt>
      <trkpt lat="45.30132" lon="6.10581">
        <ele>1824.8000488281</ele>
        <time>2023-08-10T09:00:06.000Z</time>
      </trkpt>
      <trkpt lat="45.30131" lon="6.10581">
        <ele>1825</ele>
        <time>2023-08-10T09:00:07.000Z</time>
      </trkpt>
      <trkpt lat="45.30127" lon="6.10583">
        <ele>1825.4000244141</ele>
        <time>2023-08-10T09:00:13.000Z</time>
      </trkpt>
      <trkpt lat="45.30123" lon="6.10584">
        <ele>1825.8000488281</ele>
        <time>2023-08-10T09:00:17.000Z</time>
      </trkpt>
      <trkpt lat="45.30121" lon="6.10586">
        <ele>1826.5999755859</ele>
        <time>2023-08-10T09:00:22.000Z</time>
      </trkpt>
      <trkpt lat="45.3012" lon="6.10587">
        <ele>1827</ele>
        <time>2023-08-10T09:00:26.000Z</time>
      </trkpt>
      <trkpt lat="45.30118" lon="6.10588">
        <ele>1827.8000488281</ele>
        <time>2023-08-10T09:00:30.000Z</time>
      </trkpt>
      <trkpt lat="45.30117" lon="6.10589">
        <ele>1828</ele>
        <time>2023-08-10T09:00:31.000Z</time>
      </trkpt>
      <trkpt lat="45.30114" lon="6.10589">
        <ele>1829</ele>
        <time>2023-08-10T09:00:36.000Z</time>
      </trkpt>
      <trkpt lat="45.30114" lon="6.10589">
        <ele>1829.4000244141</ele>
        <time>2023-08-10T09:00:38.000Z</time>
      </trkpt>
      <trkpt lat="45.30114" lon="6.1059">
        <ele>1830</ele>
        <time>2023-08-10T09:00:42.000Z</time>
      </trkpt>
      <trkpt lat="45.30114" lon="6.1059">
        <ele>1830.4000244141</ele>
        <time>2023-08-10T09:00:44.000Z</time>
      </trkpt>
      <trkpt lat="45.30112" lon="6.10589">
        <ele>1831.1999511719</ele>
        <time>2023-08-10T09:00:49.000Z</time>
      </trkpt>
      <trkpt lat="45.3011" lon="6.10589">
        <ele>1831.5999755859</ele>
        <time>2023-08-10T09:00:53.000Z</time>
      </trkpt>
      <trkpt lat="45.30109" lon="6.10591">
        <ele>1832.1999511719</ele>
        <time>2023-08-10T09:00:56.000Z</time>
      </trkpt>
      <trkpt lat="45.30109" lon="6.10593">
        <ele>1832.5999755859</ele>
        <time>2023-08-10T09:01:01.000Z</time>
      </trkpt>
      <trkpt lat="45.3011" lon="6.10592">
        <ele>1833</ele>
        <time>2023-08-10T09:01:10.000Z</time>
      </trkpt>
      <trkpt lat="45.30111" lon="6.10592">
        <ele>1833</ele>
        <time>2023-08-10T09:01:20.000Z</time>
      </trkpt>
      <trkpt lat="45.30107" lon="6.10589">
        <ele>1832.8000488281</ele>
        <time>2023-08-10T09:01:27.000Z</time>
      </trkpt>
      <trkpt lat="45.30109" lon="6.1059">
        <ele>1831.8000488281</ele>
        <time>2023-08-10T09:01:35.000Z</time>
      </trkpt>
      <trkpt lat="45.30111" lon="6.10589">
        <ele>1831.1999511719</ele>
        <time>2023-08-10T09:01:40.000Z</time>
      </trkpt>
      <trkpt lat="45.30114" lon="6.10588">
        <ele>1830</ele>
        <time>2023-08-10T09:01:47.000Z</time>
      </trkpt>
      <trkpt lat="45.30114" lon="6.10588">
        <ele>1829.8000488281</ele>
        <time>2023-08-10T09:01:48.000Z</time>
      </trkpt>
      <trkpt lat="45.30117" lon="6.10587">
        <ele>1829</ele>
        <time>2023-08-10T09:01:53.000Z</time>
      </trkpt>
      <trkpt lat="45.30117" lon="6.10584">
        <ele>1828.1999511719</ele>
        <time>2023-08-10T09:01:56.000Z</time>
      </trkpt>
      <trkpt lat="45.30118" lon="6.10584">
        <ele>1828</ele>
        <time>2023-08-10T09:01:58.000Z</time>
      </trkpt>
      <trkpt lat="45.30121" lon="6.10584">
        <ele>1826.8000488281</ele>
        <time>2023-08-10T09:02:02.000Z</time>
      </trkpt>
      <trkpt lat="45.30126" lon="6.10583">
        <ele>1825.8000488281</ele>
        <time>2023-08-10T09:02:08.000Z</time>
      </trkpt>
      <trkpt lat="45.30132" lon="6.10583">
        <ele>1825.1999511719</ele>
        <time>2023-08-10T09:02:15.000Z</time>
      </trkpt>
      <trkpt lat="45.30135" lon="6.10581">
        <ele>1824.8000488281</ele>
        <time>2023-08-10T09:02:21.000Z</time>
      </trkpt>
      <trkpt lat="45.30136" lon="6.10578">
        <ele>1824.4000244141</ele>
        <time>2023-08-10T09:02:24.000Z</time>
      </trkpt>
      <trkpt lat="45.30137" lon="6.10572">
        <ele>1823.8000488281</ele>
        <time>2023-08-10T09:02:29.000Z</time>
      </trkpt>
      <trkpt lat="45.30137" lon="6.1057">
        <ele>1823.4000244141</ele>
        <time>2023-08-10T09:02:31.000Z</time>
      </trkpt>
      <trkpt lat="45.30137" lon="6.10568">
        <ele>1822.5999755859</ele>
        <time>2023-08-10T09:02:37.000Z</time>
      </trkpt>
      <trkpt lat="45.30137" lon="6.10566">
        <ele>1822.1999511719</ele>
        <time>2023-08-10T09:02:40.000Z</time>
      </trkpt>
      <trkpt lat="45.30137" lon="6.10563">
        <ele>1821.5999755859</ele>
        <time>2023-08-10T09:02:43.000Z</time>
      </trkpt>
      <trkpt lat="45.30137" lon="6.1056">
        <ele>1820.5999755859</ele>
        <time>2023-08-10T09:02:48.000Z</time>
      </trkpt>
      <trkpt lat="45.30136" lon="6.10559">
        <ele>1820.4000244141</ele>
        <time>2023-08-10T09:02:49.000Z</time>
      </trkpt>
      <trkpt lat="45.30136" lon="6.10554">
        <ele>1819.4000244141</ele>
        <time>2023-08-10T09:02:54.000Z</time>
      </trkpt>
      <trkpt lat="45.30136" lon="6.1055">
        <ele>1818.5999755859</ele>
        <time>2023-08-10T09:02:58.000Z</time>
      </trkpt>
      <trkpt lat="45.30136" lon="6.10548">
        <ele>1818.1999511719</ele>
        <time>2023-08-10T09:03:00.000Z</time>
      </trkpt>
      <trkpt lat="45.30137" lon="6.10541">
        <ele>1817.1999511719</ele>
        <time>2023-08-10T09:03:06.000Z</time>
      </trkpt>
      <trkpt lat="45.30137" lon="6.1054">
        <ele>1816.8000488281</ele>
        <time>2023-08-10T09:03:08.000Z</time>
      </trkpt>
      <trkpt lat="45.30137" lon="6.1054">
        <ele>1816</ele>
        <time>2023-08-10T09:03:12.000Z</time>
      </trkpt>
      <trkpt lat="45.30136" lon="6.10538">
        <ele>1815.5999755859</ele>
        <time>2023-08-10T09:03:15.000Z</time>
      </trkpt>
      <trkpt lat="45.30137" lon="6.10535">
        <ele>1815</ele>
        <time>2023-08-10T09:03:19.000Z</time>
      </trkpt>
      <trkpt lat="45.30137" lon="6.10531">
        <ele>1814</ele>
        <time>2023-08-10T09:03:23.000Z</time>
      </trkpt>
      <trkpt lat="45.30137" lon="6.1053">
        <ele>1814</ele>
        <time>2023-08-10T09:03:24.000Z</time>
      </trkpt>
      <trkpt lat="45.30138" lon="6.10525">
        <ele>1812.8000488281</ele>
        <time>2023-08-10T09:03:30.000Z</time>
      </trkpt>
      <trkpt lat="45.30138" lon="6.10523">
        <ele>1812.4000244141</ele>
        <time>2023-08-10T09:03:32.000Z</time>
      </trkpt>
      <trkpt lat="45.30138" lon="6.10519">
        <ele>1811.5999755859</ele>
        <time>2023-08-10T09:03:36.000Z</time>
      </trkpt>
      <trkpt lat="45.30139" lon="6.10515">
        <ele>1810.8000488281</ele>
        <time>2023-08-10T09:03:40.000Z</time>
      </trkpt>
      <trkpt lat="45.30139" lon="6.10514">
        <ele>1810.5999755859</ele>
        <time>2023-08-10T09:03:41.000Z</time>
      </trkpt>
      <trkpt lat="45.30137" lon="6.10511">
        <ele>1809.4000244141</ele>
        <time>2023-08-10T09:03:47.000Z</time>
      </trkpt>
      <trkpt lat="45.30137" lon="6.1051">
        <ele>1809</ele>
        <time>2023-08-10T09:03:49.000Z</time>
      </trkpt>
      <trkpt lat="45.30136" lon="6.10506">
        <ele>1808.1999511719</ele>
        <time>2023-08-10T09:03:53.000Z</time>
      </trkpt>
      <trkpt lat="45.30136" lon="6.10502">
        <ele>1807.4000244141</ele>
        <time>2023-08-10T09:03:58.000Z</time>
      </trkpt>
      <trkpt lat="45.30136" lon="6.10501">
        <ele>1807.1999511719</ele>
        <time>2023-08-10T09:03:59.000Z</time>
      </trkpt>
      <trkpt lat="45.30136" lon="6.10499">
        <ele>1806</ele>
        <time>2023-08-10T09:04:04.000Z</time>
      </trkpt>
      <trkpt lat="45.30137" lon="6.10497">
        <ele>1805.5999755859</ele>
        <time>2023-08-10T09:04:07.000Z</time>
      </trkpt>
      <trkpt lat="45.30137" lon="6.10494">
        <ele>1805</ele>
        <time>2023-08-10T09:04:11.000Z</time>
      </trkpt>
      <trkpt lat="45.30138" lon="6.10492">
        <ele>1804.5999755859</ele>
        <time>2023-08-10T09:04:13.000Z</time>
      </trkpt>
      <trkpt lat="45.30136" lon="6.10491">
        <ele>1803.8000488281</ele>
        <time>2023-08-10T09:04:17.000Z</time>
      </trkpt>
      <trkpt lat="45.30134" lon="6.10486">
        <ele>1802.8000488281</ele>
        <time>2023-08-10T09:04:21.000Z</time>
      </trkpt>
      <trkpt lat="45.30136" lon="6.10479">
        <ele>1801.5999755859</ele>
        <time>2023-08-10T09:04:27.000Z</time>
      </trkpt>
      <trkpt lat="45.30136" lon="6.10478">
        <ele>1801.4000244141</ele>
        <time>2023-08-10T09:04:28.000Z</time>
      </trkpt>
      <trkpt lat="45.30134" lon="6.10472">
        <ele>1800.5999755859</ele>
        <time>2023-08-10T09:04:32.000Z</time>
      </trkpt>
      <trkpt lat="45.30133" lon="6.10469">
        <ele>1800</ele>
        <time>2023-08-10T09:04:35.000Z</time>
      </trkpt>
      <trkpt lat="45.3013" lon="6.10465">
        <ele>1799.4000244141</ele>
        <time>2023-08-10T09:04:41.000Z</time>
      </trkpt>
      <trkpt lat="45.3013" lon="6.10465">
        <ele>1799.1999511719</ele>
        <time>2023-08-10T09:04:42.000Z</time>
      </trkpt>
      <trkpt lat="45.30127" lon="6.1046">
        <ele>1798.4000244141</ele>
        <time>2023-08-10T09:04:46.000Z</time>
      </trkpt>
      <trkpt lat="45.30126" lon="6.10458">
        <ele>1797.8000488281</ele>
        <time>2023-08-10T09:04:49.000Z</time>
      </trkpt>
      <trkpt lat="45.30125" lon="6.10459">
        <ele>1797.4000244141</ele>
        <time>2023-08-10T09:04:51.000Z</time>
      </trkpt>
      <trkpt lat="45.30123" lon="6.10456">
        <ele>1796.4000244141</ele>
        <time>2023-08-10T09:04:56.000Z</time>
      </trkpt>
      <trkpt lat="45.30123" lon="6.10456">
        <ele>1796.1999511719</ele>
        <time>2023-08-10T09:04:57.000Z</time>
      </trkpt>
      <trkpt lat="45.30123" lon="6.10454">
        <ele>1795.1999511719</ele>
        <time>2023-08-10T09:05:01.000Z</time>
      </trkpt>
      <trkpt lat="45.30122" lon="6.10453">
        <ele>1794.8000488281</ele>
        <time>2023-08-10T09:05:03.000Z</time>
      </trkpt>
      <trkpt lat="45.3012" lon="6.10451">
        <ele>1794.1999511719</ele>
        <time>2023-08-10T09:05:06.000Z</time>
      </trkpt>
      <trkpt lat="45.30118" lon="6.10449">
        <ele>1793</ele>
        <time>2023-08-10T09:05:11.000Z</time>
      </trkpt>
      <trkpt lat="45.30115" lon="6.10446">
        <ele>1792</ele>
        <time>2023-08-10T09:05:16.000Z</time>
      </trkpt>
      <trkpt lat="45.30114" lon="6.10443">
        <ele>1791.4000244141</ele>
        <time>2023-08-10T09:05:18.000Z</time>
      </trkpt>
      <trkpt lat="45.30113" lon="6.10442">
        <ele>1790.8000488281</ele>
        <time>2023-08-10T09:05:21.000Z</time>
      </trkpt>
      <trkpt lat="45.30112" lon="6.10438">
        <ele>1790</ele>
        <time>2023-08-10T09:05:25.000Z</time>
      </trkpt>
      <trkpt lat="45.30111" lon="6.10438">
        <ele>1789.5999755859</ele>
        <time>2023-08-10T09:05:27.000Z</time>
      </trkpt>
      <trkpt lat="45.30108" lon="6.10435">
        <ele>1788.4000244141</ele>
        <time>2023-08-10T09:05:33.000Z</time>
      </trkpt>
      <trkpt lat="45.30104" lon="6.10434">
        <ele>1787.1999511719</ele>
        <time>2023-08-10T09:05:38.000Z</time>
      </trkpt>
      <trkpt lat="45.30101" lon="6.10433">
        <ele>1786.5999755859</ele>
        <time>2023-08-10T09:05:41.000Z</time>
      </trkpt>
      <trkpt lat="45.301" lon="6.10432">
        <ele>1786</ele>
        <time>2023-08-10T09:05:43.000Z</time>
      </trkpt>
      <trkpt lat="45.30098" lon="6.1043">
        <ele>1785.1999511719</ele>
        <time>2023-08-10T09:05:48.000Z</time>
      </trkpt>
      <trkpt lat="45.30097" lon="6.10429">
        <ele>1785</ele>
        <time>2023-08-10T09:05:50.000Z</time>
      </trkpt>
      <trkpt lat="45.30098" lon="6.10423">
        <ele>1784</ele>
        <time>2023-08-10T09:05:55.000Z</time>
      </trkpt>
      <trkpt lat="45.30098" lon="6.10422">
        <ele>1783.8000488281</ele>
        <time>2023-08-10T09:05:56.000Z</time>
      </trkpt>
      <trkpt lat="45.30098" lon="6.10418">
        <ele>1782.8000488281</ele>
        <time>2023-08-10T09:06:01.000Z</time>
      </trkpt>
      <trkpt lat="45.30097" lon="6.10417">
        <ele>1782.5999755859</ele>
        <time>2023-08-10T09:06:04.000Z</time>
      </trkpt>
      <trkpt lat="45.30097" lon="6.10417">
        <ele>1782.4000244141</ele>
        <time>2023-08-10T09:06:13.000Z</time>
      </trkpt>
      <trkpt lat="45.30096" lon="6.10418">
        <ele>1782.1999511719</ele>
        <time>2023-08-10T09:06:21.000Z</time>
      </trkpt>
      <trkpt lat="45.30096" lon="6.10418">
        <ele>1782.1999511719</ele>
        <time>2023-08-10T09:06:30.000Z</time>
      </trkpt>
      <trkpt lat="45.30096" lon="6.10418">
        <ele>1782</ele>
        <time>2023-08-10T09:06:39.000Z</time>
      </trkpt>
      <trkpt lat="45.30099" lon="6.10422">
        <ele>1782</ele>
        <time>2023-08-10T09:06:46.000Z</time>
      </trkpt>
      <trkpt lat="45.30099" lon="6.10417">
        <ele>1782</ele>
        <time>2023-08-10T09:06:54.000Z</time>
      </trkpt>
      <trkpt lat="45.30098" lon="6.10413">
        <ele>1781.8000488281</ele>
        <time>2023-08-10T09:07:01.000Z</time>
      </trkpt>
      <trkpt lat="45.301" lon="6.10411">
        <ele>1782</ele>
        <time>2023-08-10T09:07:07.000Z</time>
      </trkpt>
      <trkpt lat="45.30102" lon="6.10409">
        <ele>1782</ele>
        <time>2023-08-10T09:07:28.000Z</time>
      </trkpt>
      <trkpt lat="45.30104" lon="6.10409">
        <ele>1782.4000244141</ele>
        <time>2023-08-10T09:07:35.000Z</time>
      </trkpt>
      <trkpt lat="45.30105" lon="6.1041">
        <ele>1782.1999511719</ele>
        <time>2023-08-10T09:07:41.000Z</time>
      </trkpt>
      <trkpt lat="45.30105" lon="6.10412">
        <ele>1782</ele>
        <time>2023-08-10T09:07:48.000Z</time>
      </trkpt>
      <trkpt lat="45.30105" lon="6.10412">
        <ele>1782.1999511719</ele>
        <time>2023-08-10T09:07:54.000Z</time>
      </trkpt>
      <trkpt lat="45.30105" lon="6.10413">
        <ele>1782.1999511719</ele>
        <time>2023-08-10T09:08:00.000Z</time>
      </trkpt>
      <trkpt lat="45.30106" lon="6.10413">
        <ele>1781.8000488281</ele>
        <time>2023-08-10T09:08:08.000Z</time>
      </trkpt>
      <trkpt lat="45.30106" lon="6.10413">
        <ele>1781.8000488281</ele>
        <time>2023-08-10T09:08:09.000Z</time>
      </trkpt>
      <trkpt lat="45.30106" lon="6.10411">
        <ele>1782</ele>
        <time>2023-08-10T09:08:19.000Z</time>
      </trkpt>
      <trkpt lat="45.30106" lon="6.10404">
        <ele>1781.8000488281</ele>
        <time>2023-08-10T09:08:30.000Z</time>
      </trkpt>
      <trkpt lat="45.30105" lon="6.10406">
        <ele>1781.8000488281</ele>
        <time>2023-08-10T09:08:38.000Z</time>
      </trkpt>
      <trkpt lat="45.30105" lon="6.10412">
        <ele>1781.8000488281</ele>
        <time>2023-08-10T09:08:46.000Z</time>
      </trkpt>
      <trkpt lat="45.30105" lon="6.10411">
        <ele>1781.5999755859</ele>
        <time>2023-08-10T09:08:55.000Z</time>
      </trkpt>
      <trkpt lat="45.30105" lon="6.10412">
        <ele>1781.1999511719</ele>
        <time>2023-08-10T09:09:03.000Z</time>
      </trkpt>
      <trkpt lat="45.30101" lon="6.10411">
        <ele>1781.1999511719</ele>
        <time>2023-08-10T09:09:18.000Z</time>
      </trkpt>
      <trkpt lat="45.30099" lon="6.10413">
        <ele>1781</ele>
        <time>2023-08-10T09:09:28.000Z</time>
      </trkpt>
      <trkpt lat="45.30098" lon="6.10411">
        <ele>1781</ele>
        <time>2023-08-10T09:09:39.000Z</time>
      </trkpt>
      <trkpt lat="45.30102" lon="6.10409">
        <ele>1781</ele>
        <time>2023-08-10T09:09:48.000Z</time>
      </trkpt>
      <trkpt lat="45.30103" lon="6.10406">
        <ele>1780.8000488281</ele>
        <time>2023-08-10T09:09:53.000Z</time>
      </trkpt>
      <trkpt lat="45.30101" lon="6.10405">
        <ele>1780.8000488281</ele>
        <time>2023-08-10T09:09:57.000Z</time>
      </trkpt>
      <trkpt lat="45.301" lon="6.10404">
        <ele>1780.8000488281</ele>
        <time>2023-08-10T09:10:06.000Z</time>
      </trkpt>
      <trkpt lat="45.30103" lon="6.1041">
        <ele>1781</ele>
        <time>2023-08-10T09:10:14.000Z</time>
      </trkpt>
      <trkpt lat="45.30105" lon="6.10413">
        <ele>1780.8000488281</ele>
        <time>2023-08-10T09:10:22.000Z</time>
      </trkpt>
      <trkpt lat="45.30106" lon="6.10413">
        <ele>1781</ele>
        <time>2023-08-10T09:10:30.000Z</time>
      </trkpt>
      <trkpt lat="45.30107" lon="6.10409">
        <ele>1780.8000488281</ele>
        <time>2023-08-10T09:10:38.000Z</time>
      </trkpt>
      <trkpt lat="45.30105" lon="6.10405">
        <ele>1780.8000488281</ele>
        <time>2023-08-10T09:10:46.000Z</time>
      </trkpt>
      <trkpt lat="45.30104" lon="6.10406">
        <ele>1780.8000488281</ele>
        <time>2023-08-10T09:10:57.000Z</time>
      </trkpt>
      <trkpt lat="45.30105" lon="6.10408">
        <ele>1780.8000488281</ele>
        <time>2023-08-10T09:11:05.000Z</time>
      </trkpt>
      <trkpt lat="45.30103" lon="6.10405">
        <ele>1780.5999755859</ele>
        <time>2023-08-10T09:11:14.000Z</time>
      </trkpt>
      <trkpt lat="45.30104" lon="6.10408">
        <ele>1780.5999755859</ele>
        <time>2023-08-10T09:11:24.000Z</time>
      </trkpt>
      <trkpt lat="45.30105" lon="6.10409">
        <ele>1780.5999755859</ele>
        <time>2023-08-10T09:11:32.000Z</time>
      </trkpt>
      <trkpt lat="45.30105" lon="6.10408">
        <ele>1780.5999755859</ele>
        <time>2023-08-10T09:11:40.000Z</time>
      </trkpt>
      <trkpt lat="45.30104" lon="6.10408">
        <ele>1780.5999755859</ele>
        <time>2023-08-10T09:11:48.000Z</time>
      </trkpt>
      <trkpt lat="45.30106" lon="6.10407">
        <ele>1780.5999755859</ele>
        <time>2023-08-10T09:12:00.000Z</time>
      </trkpt>
      <trkpt lat="45.30107" lon="6.10407">
        <ele>1780.5999755859</ele>
        <time>2023-08-10T09:12:10.000Z</time>
      </trkpt>
      <trkpt lat="45.30107" lon="6.10412">
        <ele>1780.4000244141</ele>
        <time>2023-08-10T09:12:18.000Z</time>
      </trkpt>
      <trkpt lat="45.30105" lon="6.10412">
        <ele>1780.5999755859</ele>
        <time>2023-08-10T09:12:26.000Z</time>
      </trkpt>
      <trkpt lat="45.30105" lon="6.10413">
        <ele>1780.4000244141</ele>
        <time>2023-08-10T09:12:37.000Z</time>
      </trkpt>
      <trkpt lat="45.30103" lon="6.10413">
        <ele>1780.1999511719</ele>
        <time>2023-08-10T09:12:45.000Z</time>
      </trkpt>
      <trkpt lat="45.30101" lon="6.1041">
        <ele>1780</ele>
        <time>2023-08-10T09:12:54.000Z</time>
      </trkpt>
      <trkpt lat="45.30102" lon="6.10413">
        <ele>1779.8000488281</ele>
        <time>2023-08-10T09:13:03.000Z</time>
      </trkpt>
      <trkpt lat="45.30103" lon="6.10413">
        <ele>1779.8000488281</ele>
        <time>2023-08-10T09:13:05.000Z</time>
      </trkpt>
      <trkpt lat="45.30105" lon="6.10414">
        <ele>1779.8000488281</ele>
        <time>2023-08-10T09:13:11.000Z</time>
      </trkpt>
      <trkpt lat="45.30104" lon="6.10411">
        <ele>1779.5999755859</ele>
        <time>2023-08-10T09:13:20.000Z</time>
      </trkpt>
      <trkpt lat="45.30104" lon="6.1041">
        <ele>1779.5999755859</ele>
        <time>2023-08-10T09:13:29.000Z</time>
      </trkpt>
      <trkpt lat="45.30105" lon="6.10411">
        <ele>1779.8000488281</ele>
        <time>2023-08-10T09:13:37.000Z</time>
      </trkpt>
      <trkpt lat="45.30098" lon="6.10419">
        <ele>1780.1999511719</ele>
        <time>2023-08-10T09:13:45.000Z</time>
      </trkpt>
      <trkpt lat="45.30096" lon="6.10419">
        <ele>1780</ele>
        <time>2023-08-10T09:13:51.000Z</time>
      </trkpt>
      <trkpt lat="45.30096" lon="6.10419">
        <ele>1780</ele>
        <time>2023-08-10T09:13:59.000Z</time>
      </trkpt>
      <trkpt lat="45.30095" lon="6.10421">
        <ele>1780</ele>
        <time>2023-08-10T09:14:05.000Z</time>
      </trkpt>
      <trkpt lat="45.30095" lon="6.10422">
        <ele>1780</ele>
        <time>2023-08-10T09:14:18.000Z</time>
      </trkpt>
      <trkpt lat="45.30093" lon="6.10419">
        <ele>1780</ele>
        <time>2023-08-10T09:14:26.000Z</time>
      </trkpt>
      <trkpt lat="45.30095" lon="6.1042">
        <ele>1780</ele>
        <time>2023-08-10T09:14:35.000Z</time>
      </trkpt>
      <trkpt lat="45.30097" lon="6.10419">
        <ele>1780</ele>
        <time>2023-08-10T09:14:45.000Z</time>
      </trkpt>
      <trkpt lat="45.30096" lon="6.10416">
        <ele>1780</ele>
        <time>2023-08-10T09:14:54.000Z</time>
      </trkpt>
      <trkpt lat="45.30094" lon="6.10418">
        <ele>1780</ele>
        <time>2023-08-10T09:15:04.000Z</time>
      </trkpt>
      <trkpt lat="45.30094" lon="6.10415">
        <ele>1780</ele>
        <time>2023-08-10T09:15:12.000Z</time>
      </trkpt>
      <trkpt lat="45.30096" lon="6.10419">
        <ele>1780</ele>
        <time>2023-08-10T09:15:19.000Z</time>
      </trkpt>
      <trkpt lat="45.30095" lon="6.10418">
        <ele>1779.8000488281</ele>
        <time>2023-08-10T09:15:26.000Z</time>
      </trkpt>
      <trkpt lat="45.30095" lon="6.10416">
        <ele>1779.8000488281</ele>
        <time>2023-08-10T09:15:33.000Z</time>
      </trkpt>
      <trkpt lat="45.30095" lon="6.10416">
        <ele>1779.8000488281</ele>
        <time>2023-08-10T09:15:40.000Z</time>
      </trkpt>
      <trkpt lat="45.30097" lon="6.10418">
        <ele>1780</ele>
        <time>2023-08-10T09:15:46.000Z</time>
      </trkpt>
      <trkpt lat="45.30095" lon="6.10419">
        <ele>1779.8000488281</ele>
        <time>2023-08-10T09:15:54.000Z</time>
      </trkpt>
      <trkpt lat="45.30095" lon="6.10418">
        <ele>1779.8000488281</ele>
        <time>2023-08-10T09:16:04.000Z</time>
      </trkpt>
      <trkpt lat="45.30096" lon="6.10418">
        <ele>1779.8000488281</ele>
        <time>2023-08-10T09:16:13.000Z</time>
      </trkpt>
      <trkpt lat="45.30095" lon="6.10417">
        <ele>1779.8000488281</ele>
        <time>2023-08-10T09:16:20.000Z</time>
      </trkpt>
      <trkpt lat="45.30094" lon="6.10418">
        <ele>1779.5999755859</ele>
        <time>2023-08-10T09:16:30.000Z</time>
      </trkpt>
      <trkpt lat="45.30095" lon="6.10418">
        <ele>1779.8000488281</ele>
        <time>2023-08-10T09:16:40.000Z</time>
      </trkpt>
      <trkpt lat="45.30096" lon="6.10417">
        <ele>1779.5999755859</ele>
        <time>2023-08-10T09:16:51.000Z</time>
      </trkpt>
      <trkpt lat="45.30097" lon="6.10415">
        <ele>1779.5999755859</ele>
        <time>2023-08-10T09:17:01.000Z</time>
      </trkpt>
      <trkpt lat="45.30097" lon="6.10417">
        <ele>1779.5999755859</ele>
        <time>2023-08-10T09:17:10.000Z</time>
      </trkpt>
      <trkpt lat="45.30095" lon="6.1042">
        <ele>1779.5999755859</ele>
        <time>2023-08-10T09:17:19.000Z</time>
      </trkpt>
      <trkpt lat="45.30097" lon="6.10415">
        <ele>1779.5999755859</ele>
        <time>2023-08-10T09:17:27.000Z</time>
      </trkpt>
      <trkpt lat="45.30095" lon="6.10417">
        <ele>1779.5999755859</ele>
        <time>2023-08-10T09:17:37.000Z</time>
      </trkpt>
      <trkpt lat="45.30095" lon="6.10416">
        <ele>1779.5999755859</ele>
        <time>2023-08-10T09:17:47.000Z</time>
      </trkpt>
      <trkpt lat="45.30094" lon="6.10414">
        <ele>1779.8000488281</ele>
        <time>2023-08-10T09:17:57.000Z</time>
      </trkpt>
      <trkpt lat="45.30097" lon="6.10416">
        <ele>1779.5999755859</ele>
        <time>2023-08-10T09:18:04.000Z</time>
      </trkpt>
      <trkpt lat="45.30102" lon="6.10412">
        <ele>1779.5999755859</ele>
        <time>2023-08-10T09:18:12.000Z</time>
      </trkpt>
      <trkpt lat="45.30102" lon="6.10412">
        <ele>1779.5999755859</ele>
        <time>2023-08-10T09:18:20.000Z</time>
      </trkpt>
      <trkpt lat="45.30102" lon="6.10411">
        <ele>1779.5999755859</ele>
        <time>2023-08-10T09:18:28.000Z</time>
      </trkpt>
      <trkpt lat="45.30103" lon="6.10408">
        <ele>1779.5999755859</ele>
        <time>2023-08-10T09:18:37.000Z</time>
      </trkpt>
      <trkpt lat="45.30103" lon="6.10407">
        <ele>1779.5999755859</ele>
        <time>2023-08-10T09:18:47.000Z</time>
      </trkpt>
      <trkpt lat="45.30104" lon="6.10405">
        <ele>1779.5999755859</ele>
        <time>2023-08-10T09:18:57.000Z</time>
      </trkpt>
      <trkpt lat="45.30104" lon="6.10406">
        <ele>1779.5999755859</ele>
        <time>2023-08-10T09:19:04.000Z</time>
      </trkpt>
      <trkpt lat="45.30106" lon="6.10405">
        <ele>1779.5999755859</ele>
        <time>2023-08-10T09:19:11.000Z</time>
      </trkpt>
      <trkpt lat="45.30105" lon="6.10407">
        <ele>1779.5999755859</ele>
        <time>2023-08-10T09:19:19.000Z</time>
      </trkpt>
      <trkpt lat="45.30103" lon="6.10407">
        <ele>1779.5999755859</ele>
        <time>2023-08-10T09:19:27.000Z</time>
      </trkpt>
      <trkpt lat="45.30101" lon="6.1041">
        <ele>1779.5999755859</ele>
        <time>2023-08-10T09:19:35.000Z</time>
      </trkpt>
      <trkpt lat="45.30098" lon="6.10413">
        <ele>1779.5999755859</ele>
        <time>2023-08-10T09:19:41.000Z</time>
      </trkpt>
      <trkpt lat="45.30098" lon="6.10412">
        <ele>1779.4000244141</ele>
        <time>2023-08-10T09:19:42.000Z</time>
      </trkpt>
      <trkpt lat="45.30096" lon="6.10408">
        <ele>1778.5999755859</ele>
        <time>2023-08-10T09:19:48.000Z</time>
      </trkpt>
      <trkpt lat="45.30095" lon="6.10407">
        <ele>1778.4000244141</ele>
        <time>2023-08-10T09:19:49.000Z</time>
      </trkpt>
      <trkpt lat="45.30094" lon="6.10406">
        <ele>1777.5999755859</ele>
        <time>2023-08-10T09:19:52.000Z</time>
      </trkpt>
      <trkpt lat="45.30093" lon="6.10402">
        <ele>1776.4000244141</ele>
        <time>2023-08-10T09:19:57.000Z</time>
      </trkpt>
      <trkpt lat="45.3009" lon="6.10397">
        <ele>1775.1999511719</ele>
        <time>2023-08-10T09:20:01.000Z</time>
      </trkpt>
      <trkpt lat="45.30086" lon="6.10393">
        <ele>1774.1999511719</ele>
        <time>2023-08-10T09:20:06.000Z</time>
      </trkpt>
      <trkpt lat="45.30083" lon="6.10391">
        <ele>1773</ele>
        <time>2023-08-10T09:20:11.000Z</time>
      </trkpt>
      <trkpt lat="45.30082" lon="6.1039">
        <ele>1772.5999755859</ele>
        <time>2023-08-10T09:20:13.000Z</time>
      </trkpt>
      <trkpt lat="45.30081" lon="6.10388">
        <ele>1772</ele>
        <time>2023-08-10T09:20:16.000Z</time>
      </trkpt>
      <trkpt lat="45.30081" lon="6.10383">
        <ele>1771.1999511719</ele>
        <time>2023-08-10T09:20:21.000Z</time>
      </trkpt>
      <trkpt lat="45.30081" lon="6.10383">
        <ele>1770.8000488281</ele>
        <time>2023-08-10T09:20:22.000Z</time>
      </trkpt>
      <trkpt lat="45.30078" lon="6.1038">
        <ele>1769.8000488281</ele>
        <time>2023-08-10T09:20:28.000Z</time>
      </trkpt>
      <trkpt lat="45.30077" lon="6.10379">
        <ele>1769.8000488281</ele>
        <time>2023-08-10T09:20:29.000Z</time>
      </trkpt>
      <trkpt lat="45.30074" lon="6.10374">
        <ele>1768.5999755859</ele>
        <time>2023-08-10T09:20:35.000Z</time>
      </trkpt>
      <trkpt lat="45.30072" lon="6.10373">
        <ele>1768.1999511719</ele>
        <time>2023-08-10T09:20:37.000Z</time>
      </trkpt>
      <trkpt lat="45.30071" lon="6.10375">
        <ele>1767.4000244141</ele>
        <time>2023-08-10T09:20:40.000Z</time>
      </trkpt>
      <trkpt lat="45.30067" lon="6.10378">
        <ele>1766.8000488281</ele>
        <time>2023-08-10T09:20:45.000Z</time>
      </trkpt>
      <trkpt lat="45.30067" lon="6.10376">
        <ele>1766.4000244141</ele>
        <time>2023-08-10T09:20:47.000Z</time>
      </trkpt>
      <trkpt lat="45.30067" lon="6.10373">
        <ele>1766</ele>
        <time>2023-08-10T09:20:50.000Z</time>
      </trkpt>
      <trkpt lat="45.30067" lon="6.10371">
        <ele>1765.1999511719</ele>
        <time>2023-08-10T09:20:53.000Z</time>
      </trkpt>
      <trkpt lat="45.3007" lon="6.10366">
        <ele>1764.1999511719</ele>
        <time>2023-08-10T09:20:57.000Z</time>
      </trkpt>
      <trkpt lat="45.30071" lon="6.10366">
        <ele>1764</ele>
        <time>2023-08-10T09:20:58.000Z</time>
      </trkpt>
      <trkpt lat="45.30073" lon="6.10363">
        <ele>1763.4000244141</ele>
        <time>2023-08-10T09:21:04.000Z</time>
      </trkpt>
      <trkpt lat="45.30075" lon="6.1036">
        <ele>1762.8000488281</ele>
        <time>2023-08-10T09:21:08.000Z</time>
      </trkpt>
      <trkpt lat="45.30076" lon="6.10356">
        <ele>1761.5999755859</ele>
        <time>2023-08-10T09:21:13.000Z</time>
      </trkpt>
      <trkpt lat="45.30074" lon="6.10357">
        <ele>1760.5999755859</ele>
        <time>2023-08-10T09:21:20.000Z</time>
      </trkpt>
      <trkpt lat="45.30073" lon="6.10358">
        <ele>1760.5999755859</ele>
        <time>2023-08-10T09:21:21.000Z</time>
      </trkpt>
      <trkpt lat="45.30073" lon="6.10358">
        <ele>1760.4000244141</ele>
        <time>2023-08-10T09:21:29.000Z</time>
      </trkpt>
      <trkpt lat="45.30073" lon="6.10353">
        <ele>1760.1999511719</ele>
        <time>2023-08-10T09:21:38.000Z</time>
      </trkpt>
      <trkpt lat="45.30074" lon="6.10343">
        <ele>1759.4000244141</ele>
        <time>2023-08-10T09:21:43.000Z</time>
      </trkpt>
      <trkpt lat="45.30074" lon="6.10341">
        <ele>1759.1999511719</ele>
        <time>2023-08-10T09:21:44.000Z</time>
      </trkpt>
      <trkpt lat="45.30074" lon="6.10337">
        <ele>1758</ele>
        <time>2023-08-10T09:21:48.000Z</time>
      </trkpt>
      <trkpt lat="45.30073" lon="6.10336">
        <ele>1757.4000244141</ele>
        <time>2023-08-10T09:21:52.000Z</time>
      </trkpt>
      <trkpt lat="45.30073" lon="6.10336">
        <ele>1757</ele>
        <time>2023-08-10T09:21:54.000Z</time>
      </trkpt>
      <trkpt lat="45.30074" lon="6.10333">
        <ele>1755.8000488281</ele>
        <time>2023-08-10T09:21:59.000Z</time>
      </trkpt>
      <trkpt lat="45.30075" lon="6.10332">
        <ele>1755.4000244141</ele>
        <time>2023-08-10T09:22:00.000Z</time>
      </trkpt>
      <trkpt lat="45.30078" lon="6.10329">
        <ele>1754.8000488281</ele>
        <time>2023-08-10T09:22:05.000Z</time>
      </trkpt>
      <trkpt lat="45.30079" lon="6.10327">
        <ele>1754.5999755859</ele>
        <time>2023-08-10T09:22:07.000Z</time>
      </trkpt>
      <trkpt lat="45.30083" lon="6.10318">
        <ele>1753.5999755859</ele>
        <time>2023-08-10T09:22:14.000Z</time>
      </trkpt>
      <trkpt lat="45.30084" lon="6.1031">
        <ele>1752.5999755859</ele>
        <time>2023-08-10T09:22:22.000Z</time>
      </trkpt>
      <trkpt lat="45.30084" lon="6.10309">
        <ele>1752.5999755859</ele>
        <time>2023-08-10T09:22:23.000Z</time>
      </trkpt>
      <trkpt lat="45.30081" lon="6.10306">
        <ele>1751.5999755859</ele>
        <time>2023-08-10T09:22:28.000Z</time>
      </trkpt>
      <trkpt lat="45.3008" lon="6.10306">
        <ele>1751.4000244141</ele>
        <time>2023-08-10T09:22:29.000Z</time>
      </trkpt>
      <trkpt lat="45.30079" lon="6.10305">
        <ele>1750.4000244141</ele>
        <time>2023-08-10T09:22:34.000Z</time>
      </trkpt>
      <trkpt lat="45.30077" lon="6.10304">
        <ele>1749.8000488281</ele>
        <time>2023-08-10T09:22:37.000Z</time>
      </trkpt>
      <trkpt lat="45.30076" lon="6.10302">
        <ele>1749.1999511719</ele>
        <time>2023-08-10T09:22:40.000Z</time>
      </trkpt>
      <trkpt lat="45.30073" lon="6.10298">
        <ele>1748</ele>
        <time>2023-08-10T09:22:46.000Z</time>
      </trkpt>
      <trkpt lat="45.30073" lon="6.10297">
        <ele>1747.8000488281</ele>
        <time>2023-08-10T09:22:47.000Z</time>
      </trkpt>
      <trkpt lat="45.30072" lon="6.10296">
        <ele>1746.8000488281</ele>
        <time>2023-08-10T09:22:51.000Z</time>
      </trkpt>
      <trkpt lat="45.30071" lon="6.10295">
        <ele>1746</ele>
        <time>2023-08-10T09:22:55.000Z</time>
      </trkpt>
      <trkpt lat="45.30071" lon="6.10295">
        <ele>1745.5999755859</ele>
        <time>2023-08-10T09:22:57.000Z</time>
      </trkpt>
      <trkpt lat="45.30071" lon="6.1029">
        <ele>1744.4000244141</ele>
        <time>2023-08-10T09:23:03.000Z</time>
      </trkpt>
      <trkpt lat="45.30072" lon="6.10285">
        <ele>1743.1999511719</ele>
        <time>2023-08-10T09:23:08.000Z</time>
      </trkpt>
      <trkpt lat="45.30072" lon="6.10282">
        <ele>1742.8000488281</ele>
        <time>2023-08-10T09:23:11.000Z</time>
      </trkpt>
      <trkpt lat="45.30071" lon="6.10278">
        <ele>1742</ele>
        <time>2023-08-10T09:23:15.000Z</time>
      </trkpt>
      <trkpt lat="45.30072" lon="6.10274">
        <ele>1741.4000244141</ele>
        <time>2023-08-10T09:23:18.000Z</time>
      </trkpt>
      <trkpt lat="45.30071" lon="6.10276">
        <ele>1741.1999511719</ele>
        <time>2023-08-10T09:23:20.000Z</time>
      </trkpt>
      <trkpt lat="45.30071" lon="6.10276">
        <ele>1741</ele>
        <time>2023-08-10T09:23:21.000Z</time>
      </trkpt>
      <trkpt lat="45.30075" lon="6.10271">
        <ele>1739.8000488281</ele>
        <time>2023-08-10T09:23:27.000Z</time>
      </trkpt>
      <trkpt lat="45.30077" lon="6.1027">
        <ele>1738.8000488281</ele>
        <time>2023-08-10T09:23:33.000Z</time>
      </trkpt>
      <trkpt lat="45.30079" lon="6.10266">
        <ele>1737.8000488281</ele>
        <time>2023-08-10T09:23:39.000Z</time>
      </trkpt>
      <trkpt lat="45.3008" lon="6.10263">
        <ele>1737.1999511719</ele>
        <time>2023-08-10T09:23:42.000Z</time>
      </trkpt>
      <trkpt lat="45.30081" lon="6.1026">
        <ele>1736.5999755859</ele>
        <time>2023-08-10T09:23:45.000Z</time>
      </trkpt>
      <trkpt lat="45.30079" lon="6.10259">
        <ele>1736.1999511719</ele>
        <time>2023-08-10T09:23:47.000Z</time>
      </trkpt>
      <trkpt lat="45.30078" lon="6.10258">
        <ele>1735.8000488281</ele>
        <time>2023-08-10T09:23:49.000Z</time>
      </trkpt>
      <trkpt lat="45.30075" lon="6.10258">
        <ele>1735.4000244141</ele>
        <time>2023-08-10T09:23:52.000Z</time>
      </trkpt>
      <trkpt lat="45.30076" lon="6.10256">
        <ele>1734.5999755859</ele>
        <time>2023-08-10T09:23:57.000Z</time>
      </trkpt>
      <trkpt lat="45.30077" lon="6.10255">
        <ele>1734.1999511719</ele>
        <time>2023-08-10T09:23:58.000Z</time>
      </trkpt>
      <trkpt lat="45.30078" lon="6.10255">
        <ele>1734.1999511719</ele>
        <time>2023-08-10T09:23:59.000Z</time>
      </trkpt>
      <trkpt lat="45.30081" lon="6.10253">
        <ele>1733.1999511719</ele>
        <time>2023-08-10T09:24:04.000Z</time>
      </trkpt>
      <trkpt lat="45.3008" lon="6.10254">
        <ele>1732.8000488281</ele>
        <time>2023-08-10T09:24:06.000Z</time>
      </trkpt>
      <trkpt lat="45.30077" lon="6.10254">
        <ele>1732.1999511719</ele>
        <time>2023-08-10T09:24:10.000Z</time>
      </trkpt>
      <trkpt lat="45.30076" lon="6.10253">
        <ele>1732</ele>
        <time>2023-08-10T09:24:11.000Z</time>
      </trkpt>
      <trkpt lat="45.30073" lon="6.10253">
        <ele>1730.8000488281</ele>
        <time>2023-08-10T09:24:16.000Z</time>
      </trkpt>
      <trkpt lat="45.30072" lon="6.10252">
        <ele>1730.4000244141</ele>
        <time>2023-08-10T09:24:18.000Z</time>
      </trkpt>
      <trkpt lat="45.30071" lon="6.10249">
        <ele>1729.5999755859</ele>
        <time>2023-08-10T09:24:22.000Z</time>
      </trkpt>
      <trkpt lat="45.30071" lon="6.10248">
        <ele>1729</ele>
        <time>2023-08-10T09:24:25.000Z</time>
      </trkpt>
      <trkpt lat="45.30072" lon="6.10246">
        <ele>1728.4000244141</ele>
        <time>2023-08-10T09:24:28.000Z</time>
      </trkpt>
      <trkpt lat="45.30073" lon="6.1024">
        <ele>1727.8000488281</ele>
        <time>2023-08-10T09:24:33.000Z</time>
      </trkpt>
      <trkpt lat="45.30073" lon="6.10239">
        <ele>1727.4000244141</ele>
        <time>2023-08-10T09:24:35.000Z</time>
      </trkpt>
      <trkpt lat="45.30075" lon="6.10234">
        <ele>1726.4000244141</ele>
        <time>2023-08-10T09:24:41.000Z</time>
      </trkpt>
      <trkpt lat="45.30075" lon="6.10229">
        <ele>1725.4000244141</ele>
        <time>2023-08-10T09:24:48.000Z</time>
      </trkpt>
      <trkpt lat="45.30075" lon="6.10227">
        <ele>1724.8000488281</ele>
        <time>2023-08-10T09:24:50.000Z</time>
      </trkpt>
      <trkpt lat="45.30075" lon="6.10226">
        <ele>1724.1999511719</ele>
        <time>2023-08-10T09:24:53.000Z</time>
      </trkpt>
      <trkpt lat="45.30075" lon="6.10226">
        <ele>1723.5999755859</ele>
        <time>2023-08-10T09:24:57.000Z</time>
      </trkpt>
      <trkpt lat="45.30076" lon="6.10224">
        <ele>1723</ele>
        <time>2023-08-10T09:24:59.000Z</time>
      </trkpt>
      <trkpt lat="45.30081" lon="6.10217">
        <ele>1722</ele>
        <time>2023-08-10T09:25:06.000Z</time>
      </trkpt>
      <trkpt lat="45.30084" lon="6.10213">
        <ele>1720.8000488281</ele>
        <time>2023-08-10T09:25:12.000Z</time>
      </trkpt>
      <trkpt lat="45.30084" lon="6.10213">
        <ele>1720.5999755859</ele>
        <time>2023-08-10T09:25:13.000Z</time>
      </trkpt>
      <trkpt lat="45.30084" lon="6.1021">
        <ele>1719.5999755859</ele>
        <time>2023-08-10T09:25:17.000Z</time>
      </trkpt>
      <trkpt lat="45.30084" lon="6.10204">
        <ele>1718.8000488281</ele>
        <time>2023-08-10T09:25:21.000Z</time>
      </trkpt>
      <trkpt lat="45.30084" lon="6.10203">
        <ele>1718.5999755859</ele>
        <time>2023-08-10T09:25:22.000Z</time>
      </trkpt>
      <trkpt lat="45.30088" lon="6.10193">
        <ele>1717.5999755859</ele>
        <time>2023-08-10T09:25:28.000Z</time>
      </trkpt>
      <trkpt lat="45.30089" lon="6.10192">
        <ele>1717.4000244141</ele>
        <time>2023-08-10T09:25:29.000Z</time>
      </trkpt>
      <trkpt lat="45.30094" lon="6.10186">
        <ele>1716.4000244141</ele>
        <time>2023-08-10T09:25:35.000Z</time>
      </trkpt>
      <trkpt lat="45.30095" lon="6.10185">
        <ele>1716.4000244141</ele>
        <time>2023-08-10T09:25:36.000Z</time>
      </trkpt>
      <trkpt lat="45.30099" lon="6.10182">
        <ele>1715.5999755859</ele>
        <time>2023-08-10T09:25:41.000Z</time>
      </trkpt>
      <trkpt lat="45.30101" lon="6.10181">
        <ele>1715.4000244141</ele>
        <time>2023-08-10T09:25:44.000Z</time>
      </trkpt>
      <trkpt lat="45.30104" lon="6.10179">
        <ele>1715</ele>
        <time>2023-08-10T09:25:48.000Z</time>
      </trkpt>
      <trkpt lat="45.30106" lon="6.10176">
        <ele>1714.1999511719</ele>
        <time>2023-08-10T09:25:52.000Z</time>
      </trkpt>
      <trkpt lat="45.30106" lon="6.10171">
        <ele>1713.4000244141</ele>
        <time>2023-08-10T09:25:57.000Z</time>
      </trkpt>
      <trkpt lat="45.30106" lon="6.1017">
        <ele>1713.1999511719</ele>
        <time>2023-08-10T09:25:58.000Z</time>
      </trkpt>
      <trkpt lat="45.30106" lon="6.10166">
        <ele>1712</ele>
        <time>2023-08-10T09:26:03.000Z</time>
      </trkpt>
      <trkpt lat="45.30107" lon="6.10164">
        <ele>1711.1999511719</ele>
        <time>2023-08-10T09:26:06.000Z</time>
      </trkpt>
      <trkpt lat="45.30108" lon="6.10163">
        <ele>1710.8000488281</ele>
        <time>2023-08-10T09:26:08.000Z</time>
      </trkpt>
      <trkpt lat="45.30113" lon="6.10157">
        <ele>1709.8000488281</ele>
        <time>2023-08-10T09:26:14.000Z</time>
      </trkpt>
      <trkpt lat="45.30113" lon="6.10156">
        <ele>1709.5999755859</ele>
        <time>2023-08-10T09:26:15.000Z</time>
      </trkpt>
      <trkpt lat="45.30115" lon="6.10149">
        <ele>1708.5999755859</ele>
        <time>2023-08-10T09:26:21.000Z</time>
      </trkpt>
      <trkpt lat="45.30117" lon="6.10146">
        <ele>1708</ele>
        <time>2023-08-10T09:26:24.000Z</time>
      </trkpt>
      <trkpt lat="45.30119" lon="6.10143">
        <ele>1707.4000244141</ele>
        <time>2023-08-10T09:26:27.000Z</time>
      </trkpt>
      <trkpt lat="45.30121" lon="6.1014">
        <ele>1706.8000488281</ele>
        <time>2023-08-10T09:26:31.000Z</time>
      </trkpt>
      <trkpt lat="45.30121" lon="6.10139">
        <ele>1706.4000244141</ele>
        <time>2023-08-10T09:26:33.000Z</time>
      </trkpt>
      <trkpt lat="45.30122" lon="6.10136">
        <ele>1705.1999511719</ele>
        <time>2023-08-10T09:26:38.000Z</time>
      </trkpt>
      <trkpt lat="45.30123" lon="6.10134">
        <ele>1704.8000488281</ele>
        <time>2023-08-10T09:26:40.000Z</time>
      </trkpt>
      <trkpt lat="45.30124" lon="6.10132">
        <ele>1704</ele>
        <time>2023-08-10T09:26:43.000Z</time>
      </trkpt>
      <trkpt lat="45.30126" lon="6.10127">
        <ele>1703</ele>
        <time>2023-08-10T09:26:48.000Z</time>
      </trkpt>
      <trkpt lat="45.30126" lon="6.10125">
        <ele>1702.5999755859</ele>
        <time>2023-08-10T09:26:50.000Z</time>
      </trkpt>
      <trkpt lat="45.30128" lon="6.1012">
        <ele>1701.8000488281</ele>
        <time>2023-08-10T09:26:54.000Z</time>
      </trkpt>
      <trkpt lat="45.30131" lon="6.10116">
        <ele>1701.4000244141</ele>
        <time>2023-08-10T09:26:57.000Z</time>
      </trkpt>
      <trkpt lat="45.30133" lon="6.10113">
        <ele>1700.8000488281</ele>
        <time>2023-08-10T09:27:00.000Z</time>
      </trkpt>
      <trkpt lat="45.30135" lon="6.10108">
        <ele>1700</ele>
        <time>2023-08-10T09:27:04.000Z</time>
      </trkpt>
      <trkpt lat="45.30135" lon="6.10106">
        <ele>1699.5999755859</ele>
        <time>2023-08-10T09:27:05.000Z</time>
      </trkpt>
      <trkpt lat="45.30136" lon="6.10102">
        <ele>1698.5999755859</ele>
        <time>2023-08-10T09:27:10.000Z</time>
      </trkpt>
      <trkpt lat="45.30136" lon="6.10101">
        <ele>1698</ele>
        <time>2023-08-10T09:27:12.000Z</time>
      </trkpt>
      <trkpt lat="45.30135" lon="6.10099">
        <ele>1697.4000244141</ele>
        <time>2023-08-10T09:27:15.000Z</time>
      </trkpt>
      <trkpt lat="45.30135" lon="6.10094">
        <ele>1696.1999511719</ele>
        <time>2023-08-10T09:27:20.000Z</time>
      </trkpt>
      <trkpt lat="45.30135" lon="6.10093">
        <ele>1695.8000488281</ele>
        <time>2023-08-10T09:27:21.000Z</time>
      </trkpt>
      <trkpt lat="45.30135" lon="6.10084">
        <ele>1695</ele>
        <time>2023-08-10T09:27:25.000Z</time>
      </trkpt>
      <trkpt lat="45.30134" lon="6.10082">
        <ele>1694.4000244141</ele>
        <time>2023-08-10T09:27:28.000Z</time>
      </trkpt>
      <trkpt lat="45.30134" lon="6.10081">
        <ele>1694</ele>
        <time>2023-08-10T09:27:30.000Z</time>
      </trkpt>
      <trkpt lat="45.30131" lon="6.10078">
        <ele>1692.8000488281</ele>
        <time>2023-08-10T09:27:34.000Z</time>
      </trkpt>
      <trkpt lat="45.30128" lon="6.1008">
        <ele>1692.4000244141</ele>
        <time>2023-08-10T09:27:36.000Z</time>
      </trkpt>
      <trkpt lat="45.30125" lon="6.10083">
        <ele>1691.8000488281</ele>
        <time>2023-08-10T09:27:39.000Z</time>
      </trkpt>
      <trkpt lat="45.30124" lon="6.10086">
        <ele>1691.4000244141</ele>
        <time>2023-08-10T09:27:42.000Z</time>
      </trkpt>
      <trkpt lat="45.30121" lon="6.10091">
        <ele>1690.5999755859</ele>
        <time>2023-08-10T09:27:51.000Z</time>
      </trkpt>
      <trkpt lat="45.30117" lon="6.10093">
        <ele>1689.5999755859</ele>
        <time>2023-08-10T09:27:55.000Z</time>
      </trkpt>
      <trkpt lat="45.30114" lon="6.10095">
        <ele>1689.4000244141</ele>
        <time>2023-08-10T09:27:58.000Z</time>
      </trkpt>
      <trkpt lat="45.3011" lon="6.10095">
        <ele>1688.5999755859</ele>
        <time>2023-08-10T09:28:05.000Z</time>
      </trkpt>
      <trkpt lat="45.3011" lon="6.10095">
        <ele>1688.4000244141</ele>
        <time>2023-08-10T09:28:06.000Z</time>
      </trkpt>
      <trkpt lat="45.3011" lon="6.10091">
        <ele>1687.4000244141</ele>
        <time>2023-08-10T09:28:10.000Z</time>
      </trkpt>
      <trkpt lat="45.30109" lon="6.10088">
        <ele>1686.5999755859</ele>
        <time>2023-08-10T09:28:14.000Z</time>
      </trkpt>
      <trkpt lat="45.30109" lon="6.10086">
        <ele>1686.4000244141</ele>
        <time>2023-08-10T09:28:16.000Z</time>
      </trkpt>
      <trkpt lat="45.30109" lon="6.10081">
        <ele>1685.1999511719</ele>
        <time>2023-08-10T09:28:21.000Z</time>
      </trkpt>
      <trkpt lat="45.30108" lon="6.10078">
        <ele>1684.5999755859</ele>
        <time>2023-08-10T09:28:23.000Z</time>
      </trkpt>
      <trkpt lat="45.30106" lon="6.10077">
        <ele>1684.1999511719</ele>
        <time>2023-08-10T09:28:25.000Z</time>
      </trkpt>
      <trkpt lat="45.30105" lon="6.10077">
        <ele>1684</ele>
        <time>2023-08-10T09:28:26.000Z</time>
      </trkpt>
      <trkpt lat="45.30101" lon="6.10076">
        <ele>1683.1999511719</ele>
        <time>2023-08-10T09:28:30.000Z</time>
      </trkpt>
      <trkpt lat="45.30101" lon="6.10076">
        <ele>1683</ele>
        <time>2023-08-10T09:28:31.000Z</time>
      </trkpt>
      <trkpt lat="45.30098" lon="6.10074">
        <ele>1681.8000488281</ele>
        <time>2023-08-10T09:28:36.000Z</time>
      </trkpt>
      <trkpt lat="45.30096" lon="6.10073">
        <ele>1681.1999511719</ele>
        <time>2023-08-10T09:28:39.000Z</time>
      </trkpt>
      <trkpt lat="45.30095" lon="6.10073">
        <ele>1680.8000488281</ele>
        <time>2023-08-10T09:28:41.000Z</time>
      </trkpt>
      <trkpt lat="45.30093" lon="6.10073">
        <ele>1679.8000488281</ele>
        <time>2023-08-10T09:28:45.000Z</time>
      </trkpt>
      <trkpt lat="45.30093" lon="6.10073">
        <ele>1679.5999755859</ele>
        <time>2023-08-10T09:28:46.000Z</time>
      </trkpt>
      <trkpt lat="45.30091" lon="6.10071">
        <ele>1678.8000488281</ele>
        <time>2023-08-10T09:28:55.000Z</time>
      </trkpt>
      <trkpt lat="45.30088" lon="6.10067">
        <ele>1679</ele>
        <time>2023-08-10T09:29:02.000Z</time>
      </trkpt>
      <trkpt lat="45.30089" lon="6.1006">
        <ele>1678.8000488281</ele>
        <time>2023-08-10T09:29:08.000Z</time>
      </trkpt>
      <trkpt lat="45.30092" lon="6.10051">
        <ele>1678.1999511719</ele>
        <time>2023-08-10T09:29:16.000Z</time>
      </trkpt>
      <trkpt lat="45.30092" lon="6.10049">
        <ele>1677.8000488281</ele>
        <time>2023-08-10T09:29:18.000Z</time>
      </trkpt>
      <trkpt lat="45.30092" lon="6.10047">
        <ele>1677.1999511719</ele>
        <time>2023-08-10T09:29:21.000Z</time>
      </trkpt>
      <trkpt lat="45.30092" lon="6.10043">
        <ele>1676.1999511719</ele>
        <time>2023-08-10T09:29:25.000Z</time>
      </trkpt>
      <trkpt lat="45.30092" lon="6.1004">
        <ele>1675.4000244141</ele>
        <time>2023-08-10T09:29:28.000Z</time>
      </trkpt>
      <trkpt lat="45.30093" lon="6.10039">
        <ele>1675.1999511719</ele>
        <time>2023-08-10T09:29:29.000Z</time>
      </trkpt>
      <trkpt lat="45.30095" lon="6.1003">
        <ele>1674</ele>
        <time>2023-08-10T09:29:34.000Z</time>
      </trkpt>
      <trkpt lat="45.30096" lon="6.10026">
        <ele>1673.8000488281</ele>
        <time>2023-08-10T09:29:36.000Z</time>
      </trkpt>
      <trkpt lat="45.30098" lon="6.10015">
        <ele>1674.4000244141</ele>
        <time>2023-08-10T09:29:43.000Z</time>
      </trkpt>
      <trkpt lat="45.30096" lon="6.10003">
        <ele>1673.8000488281</ele>
        <time>2023-08-10T09:29:51.000Z</time>
      </trkpt>
      <trkpt lat="45.30096" lon="6.1">
        <ele>1673</ele>
        <time>2023-08-10T09:29:54.000Z</time>
      </trkpt>
      <trkpt lat="45.30096" lon="6.09993">
        <ele>1672</ele>
        <time>2023-08-10T09:30:00.000Z</time>
      </trkpt>
      <trkpt lat="45.30097" lon="6.09992">
        <ele>1671.8000488281</ele>
        <time>2023-08-10T09:30:01.000Z</time>
      </trkpt>
      <trkpt lat="45.30098" lon="6.09987">
        <ele>1671.8000488281</ele>
        <time>2023-08-10T09:30:07.000Z</time>
      </trkpt>
      <trkpt lat="45.30095" lon="6.09975">
        <ele>1672</ele>
        <time>2023-08-10T09:30:14.000Z</time>
      </trkpt>
      <trkpt lat="45.30094" lon="6.09964">
        <ele>1671.1999511719</ele>
        <time>2023-08-10T09:30:21.000Z</time>
      </trkpt>
      <trkpt lat="45.30095" lon="6.0995">
        <ele>1671</ele>
        <time>2023-08-10T09:30:29.000Z</time>
      </trkpt>
      <trkpt lat="45.30094" lon="6.09946">
        <ele>1670.5999755859</ele>
        <time>2023-08-10T09:30:32.000Z</time>
      </trkpt>
      <trkpt lat="45.30094" lon="6.09939">
        <ele>1669.5999755859</ele>
        <time>2023-08-10T09:30:37.000Z</time>
      </trkpt>
      <trkpt lat="45.30098" lon="6.09931">
        <ele>1669.4000244141</ele>
        <time>2023-08-10T09:30:42.000Z</time>
      </trkpt>
      <trkpt lat="45.30108" lon="6.09927">
        <ele>1669</ele>
        <time>2023-08-10T09:30:51.000Z</time>
      </trkpt>
      <trkpt lat="45.30111" lon="6.09927">
        <ele>1668.5999755859</ele>
        <time>2023-08-10T09:30:55.000Z</time>
      </trkpt>
      <trkpt lat="45.30114" lon="6.09926">
        <ele>1667.1999511719</ele>
        <time>2023-08-10T09:30:59.000Z</time>
      </trkpt>
      <trkpt lat="45.30117" lon="6.09927">
        <ele>1666.8000488281</ele>
        <time>2023-08-10T09:31:01.000Z</time>
      </trkpt>
      <trkpt lat="45.3012" lon="6.09928">
        <ele>1666.1999511719</ele>
        <time>2023-08-10T09:31:03.000Z</time>
      </trkpt>
      <trkpt lat="45.30125" lon="6.0993">
        <ele>1665</ele>
        <time>2023-08-10T09:31:07.000Z</time>
      </trkpt>
      <trkpt lat="45.30126" lon="6.0993">
        <ele>1665</ele>
        <time>2023-08-10T09:31:08.000Z</time>
      </trkpt>
      <trkpt lat="45.30132" lon="6.09928">
        <ele>1663.8000488281</ele>
        <time>2023-08-10T09:31:14.000Z</time>
      </trkpt>
      <trkpt lat="45.30135" lon="6.09927">
        <ele>1663</ele>
        <time>2023-08-10T09:31:17.000Z</time>
      </trkpt>
      <trkpt lat="45.30135" lon="6.09928">
        <ele>1662.5999755859</ele>
        <time>2023-08-10T09:31:18.000Z</time>
      </trkpt>
      <trkpt lat="45.30137" lon="6.09928">
        <ele>1661.1999511719</ele>
        <time>2023-08-10T09:31:22.000Z</time>
      </trkpt>
      <trkpt lat="45.30139" lon="6.09927">
        <ele>1661</ele>
        <time>2023-08-10T09:31:24.000Z</time>
      </trkpt>
      <trkpt lat="45.30139" lon="6.09924">
        <ele>1660.4000244141</ele>
        <time>2023-08-10T09:31:27.000Z</time>
      </trkpt>
      <trkpt lat="45.30139" lon="6.09922">
        <ele>1660.1999511719</ele>
        <time>2023-08-10T09:31:28.000Z</time>
      </trkpt>
      <trkpt lat="45.30138" lon="6.0992">
        <ele>1659.5999755859</ele>
        <time>2023-08-10T09:31:31.000Z</time>
      </trkpt>
      <trkpt lat="45.30137" lon="6.09918">
        <ele>1659</ele>
        <time>2023-08-10T09:31:33.000Z</time>
      </trkpt>
      <trkpt lat="45.30133" lon="6.09907">
        <ele>1658</ele>
        <time>2023-08-10T09:31:39.000Z</time>
      </trkpt>
      <trkpt lat="45.30131" lon="6.09905">
        <ele>1657.5999755859</ele>
        <time>2023-08-10T09:31:41.000Z</time>
      </trkpt>
      <trkpt lat="45.30128" lon="6.09902">
        <ele>1656.8000488281</ele>
        <time>2023-08-10T09:31:45.000Z</time>
      </trkpt>
      <trkpt lat="45.30126" lon="6.09897">
        <ele>1656</ele>
        <time>2023-08-10T09:31:50.000Z</time>
      </trkpt>
      <trkpt lat="45.30127" lon="6.09896">
        <ele>1655.8000488281</ele>
        <time>2023-08-10T09:31:51.000Z</time>
      </trkpt>
      <trkpt lat="45.30129" lon="6.09895">
        <ele>1655</ele>
        <time>2023-08-10T09:31:58.000Z</time>
      </trkpt>
      <trkpt lat="45.30129" lon="6.09894">
        <ele>1654.4000244141</ele>
        <time>2023-08-10T09:32:00.000Z</time>
      </trkpt>
      <trkpt lat="45.30129" lon="6.09894">
        <ele>1653.5999755859</ele>
        <time>2023-08-10T09:32:06.000Z</time>
      </trkpt>
      <trkpt lat="45.30131" lon="6.09894">
        <ele>1653.4000244141</ele>
        <time>2023-08-10T09:32:08.000Z</time>
      </trkpt>
      <trkpt lat="45.30135" lon="6.09887">
        <ele>1653.1999511719</ele>
        <time>2023-08-10T09:32:24.000Z</time>
      </trkpt>
      <trkpt lat="45.30138" lon="6.09892">
        <ele>1652.8000488281</ele>
        <time>2023-08-10T09:32:32.000Z</time>
      </trkpt>
      <trkpt lat="45.30139" lon="6.09893">
        <ele>1652.4000244141</ele>
        <time>2023-08-10T09:32:34.000Z</time>
      </trkpt>
      <trkpt lat="45.30141" lon="6.09895">
        <ele>1651.1999511719</ele>
        <time>2023-08-10T09:32:39.000Z</time>
      </trkpt>
      <trkpt lat="45.30141" lon="6.09893">
        <ele>1650</ele>
        <time>2023-08-10T09:32:44.000Z</time>
      </trkpt>
      <trkpt lat="45.30143" lon="6.09892">
        <ele>1648.8000488281</ele>
        <time>2023-08-10T09:32:48.000Z</time>
      </trkpt>
      <trkpt lat="45.30147" lon="6.09891">
        <ele>1647.5999755859</ele>
        <time>2023-08-10T09:32:53.000Z</time>
      </trkpt>
      <trkpt lat="45.30148" lon="6.09891">
        <ele>1647</ele>
        <time>2023-08-10T09:32:55.000Z</time>
      </trkpt>
      <trkpt lat="45.30156" lon="6.09891">
        <ele>1644.4000244141</ele>
        <time>2023-08-10T09:33:08.000Z</time>
      </trkpt>
      <trkpt lat="45.30157" lon="6.09891">
        <ele>1644.1999511719</ele>
        <time>2023-08-10T09:33:09.000Z</time>
      </trkpt>
      <trkpt lat="45.30163" lon="6.0989">
        <ele>1643.4000244141</ele>
        <time>2023-08-10T09:33:15.000Z</time>
      </trkpt>
      <trkpt lat="45.30163" lon="6.0989">
        <ele>1643.1999511719</ele>
        <time>2023-08-10T09:33:17.000Z</time>
      </trkpt>
      <trkpt lat="45.30166" lon="6.0989">
        <ele>1642</ele>
        <time>2023-08-10T09:33:21.000Z</time>
      </trkpt>
      <trkpt lat="45.30169" lon="6.09891">
        <ele>1641.1999511719</ele>
        <time>2023-08-10T09:33:24.000Z</time>
      </trkpt>
      <trkpt lat="45.3017" lon="6.09891">
        <ele>1641</ele>
        <time>2023-08-10T09:33:25.000Z</time>
      </trkpt>
      <trkpt lat="45.30171" lon="6.09891">
        <ele>1639.8000488281</ele>
        <time>2023-08-10T09:33:29.000Z</time>
      </trkpt>
      <trkpt lat="45.30171" lon="6.09889">
        <ele>1639.1999511719</ele>
        <time>2023-08-10T09:33:32.000Z</time>
      </trkpt>
      <trkpt lat="45.30172" lon="6.09889">
        <ele>1638.8000488281</ele>
        <time>2023-08-10T09:33:33.000Z</time>
      </trkpt>
      <trkpt lat="45.30174" lon="6.09889">
        <ele>1638.4000244141</ele>
        <time>2023-08-10T09:33:35.000Z</time>
      </trkpt>
      <trkpt lat="45.30176" lon="6.0989">
        <ele>1637.8000488281</ele>
        <time>2023-08-10T09:33:37.000Z</time>
      </trkpt>
      <trkpt lat="45.3018" lon="6.09893">
        <ele>1637.1999511719</ele>
        <time>2023-08-10T09:33:39.000Z</time>
      </trkpt>
      <trkpt lat="45.30183" lon="6.09895">
        <ele>1636.8000488281</ele>
        <time>2023-08-10T09:33:41.000Z</time>
      </trkpt>
      <trkpt lat="45.30184" lon="6.09896">
        <ele>1636.4000244141</ele>
        <time>2023-08-10T09:33:42.000Z</time>
      </trkpt>
      <trkpt lat="45.30187" lon="6.09899">
        <ele>1635.5999755859</ele>
        <time>2023-08-10T09:33:47.000Z</time>
      </trkpt>
      <trkpt lat="45.3019" lon="6.09899">
        <ele>1635</ele>
        <time>2023-08-10T09:33:51.000Z</time>
      </trkpt>
      <trkpt lat="45.30191" lon="6.09898">
        <ele>1634.5999755859</ele>
        <time>2023-08-10T09:33:53.000Z</time>
      </trkpt>
      <trkpt lat="45.30194" lon="6.09895">
        <ele>1632.8000488281</ele>
        <time>2023-08-10T09:33:59.000Z</time>
      </trkpt>
      <trkpt lat="45.30196" lon="6.09892">
        <ele>1632.1999511719</ele>
        <time>2023-08-10T09:34:01.000Z</time>
      </trkpt>
      <trkpt lat="45.30198" lon="6.09891">
        <ele>1631.4000244141</ele>
        <time>2023-08-10T09:34:03.000Z</time>
      </trkpt>
      <trkpt lat="45.30198" lon="6.0989">
        <ele>1631.1999511719</ele>
        <time>2023-08-10T09:34:04.000Z</time>
      </trkpt>
      <trkpt lat="45.30201" lon="6.09888">
        <ele>1630</ele>
        <time>2023-08-10T09:34:08.000Z</time>
      </trkpt>
      <trkpt lat="45.30201" lon="6.09886">
        <ele>1629.1999511719</ele>
        <time>2023-08-10T09:34:11.000Z</time>
      </trkpt>
      <trkpt lat="45.30201" lon="6.09886">
        <ele>1628.8000488281</ele>
        <time>2023-08-10T09:34:12.000Z</time>
      </trkpt>
      <trkpt lat="45.30201" lon="6.09884">
        <ele>1628.8000488281</ele>
        <time>2023-08-10T09:34:13.000Z</time>
      </trkpt>
      <trkpt lat="45.302" lon="6.09884">
        <ele>1628.1999511719</ele>
        <time>2023-08-10T09:34:15.000Z</time>
      </trkpt>
      <trkpt lat="45.30198" lon="6.09883">
        <ele>1627.8000488281</ele>
        <time>2023-08-10T09:34:17.000Z</time>
      </trkpt>
      <trkpt lat="45.30198" lon="6.09883">
        <ele>1627.5999755859</ele>
        <time>2023-08-10T09:34:18.000Z</time>
      </trkpt>
      <trkpt lat="45.30193" lon="6.09883">
        <ele>1626.5999755859</ele>
        <time>2023-08-10T09:34:25.000Z</time>
      </trkpt>
      <trkpt lat="45.3019" lon="6.09879">
        <ele>1625.5999755859</ele>
        <time>2023-08-10T09:34:30.000Z</time>
      </trkpt>
      <trkpt lat="45.30189" lon="6.09873">
        <ele>1624.5999755859</ele>
        <time>2023-08-10T09:34:34.000Z</time>
      </trkpt>
      <trkpt lat="45.30189" lon="6.09872">
        <ele>1624.1999511719</ele>
        <time>2023-08-10T09:34:35.000Z</time>
      </trkpt>
      <trkpt lat="45.30193" lon="6.09862">
        <ele>1623.4000244141</ele>
        <time>2023-08-10T09:34:41.000Z</time>
      </trkpt>
      <trkpt lat="45.30193" lon="6.09857">
        <ele>1622.4000244141</ele>
        <time>2023-08-10T09:34:46.000Z</time>
      </trkpt>
      <trkpt lat="45.3019" lon="6.09855">
        <ele>1621.1999511719</ele>
        <time>2023-08-10T09:34:52.000Z</time>
      </trkpt>
      <trkpt lat="45.30189" lon="6.09853">
        <ele>1620.5999755859</ele>
        <time>2023-08-10T09:34:56.000Z</time>
      </trkpt>
      <trkpt lat="45.30189" lon="6.09853">
        <ele>1620.1999511719</ele>
        <time>2023-08-10T09:34:58.000Z</time>
      </trkpt>
      <trkpt lat="45.30187" lon="6.0985">
        <ele>1619</ele>
        <time>2023-08-10T09:35:04.000Z</time>
      </trkpt>
      <trkpt lat="45.30186" lon="6.09848">
        <ele>1618.4000244141</ele>
        <time>2023-08-10T09:35:07.000Z</time>
      </trkpt>
      <trkpt lat="45.30185" lon="6.09848">
        <ele>1617.8000488281</ele>
        <time>2023-08-10T09:35:10.000Z</time>
      </trkpt>
      <trkpt lat="45.30183" lon="6.09845">
        <ele>1617</ele>
        <time>2023-08-10T09:35:15.000Z</time>
      </trkpt>
      <trkpt lat="45.30183" lon="6.09844">
        <ele>1616.8000488281</ele>
        <time>2023-08-10T09:35:16.000Z</time>
      </trkpt>
      <trkpt lat="45.30183" lon="6.09842">
        <ele>1615.8000488281</ele>
        <time>2023-08-10T09:35:23.000Z</time>
      </trkpt>
      <trkpt lat="45.30184" lon="6.09841">
        <ele>1615.5999755859</ele>
        <time>2023-08-10T09:35:24.000Z</time>
      </trkpt>
      <trkpt lat="45.3019" lon="6.09838">
        <ele>1614.8000488281</ele>
        <time>2023-08-10T09:35:29.000Z</time>
      </trkpt>
      <trkpt lat="45.30195" lon="6.09839">
        <ele>1614.1999511719</ele>
        <time>2023-08-10T09:35:32.000Z</time>
      </trkpt>
      <trkpt lat="45.30199" lon="6.0984">
        <ele>1614</ele>
        <time>2023-08-10T09:35:35.000Z</time>
      </trkpt>
      <trkpt lat="45.302" lon="6.09842">
        <ele>1613.8000488281</ele>
        <time>2023-08-10T09:35:37.000Z</time>
      </trkpt>
      <trkpt lat="45.30201" lon="6.0984">
        <ele>1613.5999755859</ele>
        <time>2023-08-10T09:35:41.000Z</time>
      </trkpt>
      <trkpt lat="45.30201" lon="6.0984">
        <ele>1613.5999755859</ele>
        <time>2023-08-10T09:35:43.000Z</time>
      </trkpt>
      <trkpt lat="45.30198" lon="6.09841">
        <ele>1613.8000488281</ele>
        <time>2023-08-10T09:35:50.000Z</time>
      </trkpt>
      <trkpt lat="45.30195" lon="6.09839">
        <ele>1613.8000488281</ele>
        <time>2023-08-10T09:35:58.000Z</time>
      </trkpt>
      <trkpt lat="45.30202" lon="6.09833">
        <ele>1613</ele>
        <time>2023-08-10T09:36:06.000Z</time>
      </trkpt>
      <trkpt lat="45.30204" lon="6.09832">
        <ele>1612.5999755859</ele>
        <time>2023-08-10T09:36:08.000Z</time>
      </trkpt>
      <trkpt lat="45.30209" lon="6.09828">
        <ele>1612</ele>
        <time>2023-08-10T09:36:14.000Z</time>
      </trkpt>
      <trkpt lat="45.30211" lon="6.09826">
        <ele>1611.5999755859</ele>
        <time>2023-08-10T09:36:16.000Z</time>
      </trkpt>
      <trkpt lat="45.30215" lon="6.09821">
        <ele>1610.5999755859</ele>
        <time>2023-08-10T09:36:21.000Z</time>
      </trkpt>
      <trkpt lat="45.30215" lon="6.0982">
        <ele>1610.4000244141</ele>
        <time>2023-08-10T09:36:22.000Z</time>
      </trkpt>
      <trkpt lat="45.30217" lon="6.09818">
        <ele>1609.5999755859</ele>
        <time>2023-08-10T09:36:25.000Z</time>
      </trkpt>
      <trkpt lat="45.3022" lon="6.09815">
        <ele>1608.8000488281</ele>
        <time>2023-08-10T09:36:30.000Z</time>
      </trkpt>
      <trkpt lat="45.30221" lon="6.09813">
        <ele>1608.4000244141</ele>
        <time>2023-08-10T09:36:33.000Z</time>
      </trkpt>
      <trkpt lat="45.30224" lon="6.0981">
        <ele>1607.5999755859</ele>
        <time>2023-08-10T09:36:37.000Z</time>
      </trkpt>
      <trkpt lat="45.30225" lon="6.09809">
        <ele>1607.4000244141</ele>
        <time>2023-08-10T09:36:38.000Z</time>
      </trkpt>
      <trkpt lat="45.30228" lon="6.09805">
        <ele>1606.1999511719</ele>
        <time>2023-08-10T09:36:44.000Z</time>
      </trkpt>
      <trkpt lat="45.30227" lon="6.09804">
        <ele>1606.1999511719</ele>
        <time>2023-08-10T09:36:45.000Z</time>
      </trkpt>
      <trkpt lat="45.30226" lon="6.09801">
        <ele>1605.5999755859</ele>
        <time>2023-08-10T09:36:47.000Z</time>
      </trkpt>
      <trkpt lat="45.30225" lon="6.098">
        <ele>1605.1999511719</ele>
        <time>2023-08-10T09:36:49.000Z</time>
      </trkpt>
      <trkpt lat="45.30226" lon="6.09799">
        <ele>1605</ele>
        <time>2023-08-10T09:36:50.000Z</time>
      </trkpt>
      <trkpt lat="45.30228" lon="6.09796">
        <ele>1604</ele>
        <time>2023-08-10T09:36:53.000Z</time>
      </trkpt>
      <trkpt lat="45.30231" lon="6.09794">
        <ele>1603.5999755859</ele>
        <time>2023-08-10T09:36:56.000Z</time>
      </trkpt>
      <trkpt lat="45.30236" lon="6.09792">
        <ele>1603</ele>
        <time>2023-08-10T09:37:01.000Z</time>
      </trkpt>
      <trkpt lat="45.30238" lon="6.09792">
        <ele>1602.8000488281</ele>
        <time>2023-08-10T09:37:04.000Z</time>
      </trkpt>
      <trkpt lat="45.30237" lon="6.09792">
        <ele>1602.5999755859</ele>
        <time>2023-08-10T09:37:06.000Z</time>
      </trkpt>
      <trkpt lat="45.30237" lon="6.09792">
        <ele>1602</ele>
        <time>2023-08-10T09:37:10.000Z</time>
      </trkpt>
      <trkpt lat="45.30237" lon="6.09792">
        <ele>1601.8000488281</ele>
        <time>2023-08-10T09:37:11.000Z</time>
      </trkpt>
      <trkpt lat="45.30237" lon="6.09795">
        <ele>1601.5999755859</ele>
        <time>2023-08-10T09:37:19.000Z</time>
      </trkpt>
      <trkpt lat="45.30235" lon="6.09792">
        <ele>1601.4000244141</ele>
        <time>2023-08-10T09:37:25.000Z</time>
      </trkpt>
      <trkpt lat="45.30234" lon="6.09791">
        <ele>1600.8000488281</ele>
        <time>2023-08-10T09:37:28.000Z</time>
      </trkpt>
      <trkpt lat="45.30231" lon="6.09788">
        <ele>1600.1999511719</ele>
        <time>2023-08-10T09:37:32.000Z</time>
      </trkpt>
      <trkpt lat="45.30228" lon="6.09786">
        <ele>1599.5999755859</ele>
        <time>2023-08-10T09:37:35.000Z</time>
      </trkpt>
      <trkpt lat="45.30217" lon="6.0978">
        <ele>1597.4000244141</ele>
        <time>2023-08-10T09:37:47.000Z</time>
      </trkpt>
      <trkpt lat="45.302" lon="6.09776">
        <ele>1595.1999511719</ele>
        <time>2023-08-10T09:38:00.000Z</time>
      </trkpt>
      <trkpt lat="45.30196" lon="6.09773">
        <ele>1594.1999511719</ele>
        <time>2023-08-10T09:38:05.000Z</time>
      </trkpt>
      <trkpt lat="45.30194" lon="6.09772">
        <ele>1593.8000488281</ele>
        <time>2023-08-10T09:38:07.000Z</time>
      </trkpt>
      <trkpt lat="45.30191" lon="6.09772">
        <ele>1593</ele>
        <time>2023-08-10T09:38:12.000Z</time>
      </trkpt>
      <trkpt lat="45.30189" lon="6.09771">
        <ele>1592.8000488281</ele>
        <time>2023-08-10T09:38:15.000Z</time>
      </trkpt>
      <trkpt lat="45.30184" lon="6.09767">
        <ele>1592</ele>
        <time>2023-08-10T09:38:20.000Z</time>
      </trkpt>
      <trkpt lat="45.30178" lon="6.09762">
        <ele>1591.5999755859</ele>
        <time>2023-08-10T09:38:24.000Z</time>
      </trkpt>
      <trkpt lat="45.30176" lon="6.0976">
        <ele>1591</ele>
        <time>2023-08-10T09:38:27.000Z</time>
      </trkpt>
      <trkpt lat="45.30173" lon="6.09758">
        <ele>1589.8000488281</ele>
        <time>2023-08-10T09:38:31.000Z</time>
      </trkpt>
      <trkpt lat="45.30168" lon="6.09754">
        <ele>1588.8000488281</ele>
        <time>2023-08-10T09:38:37.000Z</time>
      </trkpt>
      <trkpt lat="45.30165" lon="6.09752">
        <ele>1587.8000488281</ele>
        <time>2023-08-10T09:38:42.000Z</time>
      </trkpt>
      <trkpt lat="45.30155" lon="6.09754">
        <ele>1584</ele>
        <time>2023-08-10T09:38:55.000Z</time>
      </trkpt>
      <trkpt lat="45.30154" lon="6.09753">
        <ele>1583.4000244141</ele>
        <time>2023-08-10T09:38:57.000Z</time>
      </trkpt>
      <trkpt lat="45.30152" lon="6.09753">
        <ele>1583</ele>
        <time>2023-08-10T09:38:59.000Z</time>
      </trkpt>
      <trkpt lat="45.30147" lon="6.09752">
        <ele>1582</ele>
        <time>2023-08-10T09:39:03.000Z</time>
      </trkpt>
      <trkpt lat="45.30145" lon="6.09752">
        <ele>1581.8000488281</ele>
        <time>2023-08-10T09:39:04.000Z</time>
      </trkpt>
      <trkpt lat="45.30143" lon="6.0975">
        <ele>1580.8000488281</ele>
        <time>2023-08-10T09:39:08.000Z</time>
      </trkpt>
      <trkpt lat="45.30142" lon="6.09746">
        <ele>1580.4000244141</ele>
        <time>2023-08-10T09:39:10.000Z</time>
      </trkpt>
      <trkpt lat="45.30139" lon="6.09738">
        <ele>1579.4000244141</ele>
        <time>2023-08-10T09:39:14.000Z</time>
      </trkpt>
      <trkpt lat="45.30138" lon="6.09736">
        <ele>1578.5999755859</ele>
        <time>2023-08-10T09:39:18.000Z</time>
      </trkpt>
      <trkpt lat="45.3014" lon="6.09738">
        <ele>1578.4000244141</ele>
        <time>2023-08-10T09:39:19.000Z</time>
      </trkpt>
      <trkpt lat="45.30137" lon="6.09734">
        <ele>1578.1999511719</ele>
        <time>2023-08-10T09:39:20.000Z</time>
      </trkpt>
      <trkpt lat="45.30139" lon="6.09732">
        <ele>1577.1999511719</ele>
        <time>2023-08-10T09:39:24.000Z</time>
      </trkpt>
      <trkpt lat="45.30142" lon="6.09729">
        <ele>1577</ele>
        <time>2023-08-10T09:39:27.000Z</time>
      </trkpt>
      <trkpt lat="45.30145" lon="6.09728">
        <ele>1576</ele>
        <time>2023-08-10T09:39:31.000Z</time>
      </trkpt>
      <trkpt lat="45.30148" lon="6.09728">
        <ele>1575</ele>
        <time>2023-08-10T09:39:35.000Z</time>
      </trkpt>
      <trkpt lat="45.30153" lon="6.09726">
        <ele>1573.8000488281</ele>
        <time>2023-08-10T09:39:40.000Z</time>
      </trkpt>
      <trkpt lat="45.30154" lon="6.09725">
        <ele>1573.4000244141</ele>
        <time>2023-08-10T09:39:42.000Z</time>
      </trkpt>
      <trkpt lat="45.30156" lon="6.09724">
        <ele>1572.5999755859</ele>
        <time>2023-08-10T09:39:45.000Z</time>
      </trkpt>
      <trkpt lat="45.30166" lon="6.09713">
        <ele>1572</ele>
        <time>2023-08-10T09:39:59.000Z</time>
      </trkpt>
      <trkpt lat="45.30169" lon="6.09712">
        <ele>1571.5999755859</ele>
        <time>2023-08-10T09:40:03.000Z</time>
      </trkpt>
      <trkpt lat="45.30174" lon="6.09708">
        <ele>1570.8000488281</ele>
        <time>2023-08-10T09:40:09.000Z</time>
      </trkpt>
      <trkpt lat="45.30176" lon="6.09708">
        <ele>1570.5999755859</ele>
        <time>2023-08-10T09:40:10.000Z</time>
      </trkpt>
      <trkpt lat="45.30193" lon="6.09697">
        <ele>1569.5999755859</ele>
        <time>2023-08-10T09:40:28.000Z</time>
      </trkpt>
      <trkpt lat="45.30193" lon="6.09696">
        <ele>1569.8000488281</ele>
        <time>2023-08-10T09:40:39.000Z</time>
      </trkpt>
      <trkpt lat="45.30194" lon="6.09697">
        <ele>1569.1999511719</ele>
        <time>2023-08-10T09:40:51.000Z</time>
      </trkpt>
      <trkpt lat="45.30193" lon="6.09699">
        <ele>1568.5999755859</ele>
        <time>2023-08-10T09:40:54.000Z</time>
      </trkpt>
      <trkpt lat="45.30195" lon="6.09697">
        <ele>1567.4000244141</ele>
        <time>2023-08-10T09:40:58.000Z</time>
      </trkpt>
      <trkpt lat="45.30197" lon="6.09696">
        <ele>1567.1999511719</ele>
        <time>2023-08-10T09:41:00.000Z</time>
      </trkpt>
      <trkpt lat="45.30199" lon="6.09694">
        <ele>1566.4000244141</ele>
        <time>2023-08-10T09:41:03.000Z</time>
      </trkpt>
      <trkpt lat="45.30203" lon="6.09691">
        <ele>1565.8000488281</ele>
        <time>2023-08-10T09:41:07.000Z</time>
      </trkpt>
      <trkpt lat="45.30206" lon="6.09688">
        <ele>1565.1999511719</ele>
        <time>2023-08-10T09:41:09.000Z</time>
      </trkpt>
      <trkpt lat="45.3021" lon="6.09686">
        <ele>1564.1999511719</ele>
        <time>2023-08-10T09:41:13.000Z</time>
      </trkpt>
      <trkpt lat="45.30211" lon="6.09685">
        <ele>1564.1999511719</ele>
        <time>2023-08-10T09:41:14.000Z</time>
      </trkpt>
      <trkpt lat="45.30212" lon="6.0968">
        <ele>1563.5999755859</ele>
        <time>2023-08-10T09:41:18.000Z</time>
      </trkpt>
      <trkpt lat="45.30209" lon="6.09679">
        <ele>1563.1999511719</ele>
        <time>2023-08-10T09:41:21.000Z</time>
      </trkpt>
      <trkpt lat="45.30205" lon="6.09675">
        <ele>1562.1999511719</ele>
        <time>2023-08-10T09:41:26.000Z</time>
      </trkpt>
      <trkpt lat="45.30204" lon="6.09675">
        <ele>1561.5999755859</ele>
        <time>2023-08-10T09:41:29.000Z</time>
      </trkpt>
      <trkpt lat="45.30201" lon="6.09676">
        <ele>1561.1999511719</ele>
        <time>2023-08-10T09:41:34.000Z</time>
      </trkpt>
      <trkpt lat="45.30197" lon="6.09675">
        <ele>1561.1999511719</ele>
        <time>2023-08-10T09:41:37.000Z</time>
      </trkpt>
      <trkpt lat="45.3019" lon="6.09672">
        <ele>1560</ele>
        <time>2023-08-10T09:41:43.000Z</time>
      </trkpt>
      <trkpt lat="45.30189" lon="6.0967">
        <ele>1559.5999755859</ele>
        <time>2023-08-10T09:41:45.000Z</time>
      </trkpt>
      <trkpt lat="45.30186" lon="6.09669">
        <ele>1559</ele>
        <time>2023-08-10T09:41:48.000Z</time>
      </trkpt>
      <trkpt lat="45.30181" lon="6.09666">
        <ele>1558.5999755859</ele>
        <time>2023-08-10T09:41:51.000Z</time>
      </trkpt>
      <trkpt lat="45.30177" lon="6.09663">
        <ele>1557.8000488281</ele>
        <time>2023-08-10T09:41:54.000Z</time>
      </trkpt>
      <trkpt lat="45.30173" lon="6.0966">
        <ele>1556.5999755859</ele>
        <time>2023-08-10T09:41:59.000Z</time>
      </trkpt>
      <trkpt lat="45.30169" lon="6.09656">
        <ele>1555.5999755859</ele>
        <time>2023-08-10T09:42:05.000Z</time>
      </trkpt>
      <trkpt lat="45.30169" lon="6.09656">
        <ele>1554.8000488281</ele>
        <time>2023-08-10T09:42:08.000Z</time>
      </trkpt>
      <trkpt lat="45.30169" lon="6.09656">
        <ele>1554.4000244141</ele>
        <time>2023-08-10T09:42:10.000Z</time>
      </trkpt>
      <trkpt lat="45.30168" lon="6.09656">
        <ele>1553.8000488281</ele>
        <time>2023-08-10T09:42:13.000Z</time>
      </trkpt>
      <trkpt lat="45.30168" lon="6.09656">
        <ele>1553.5999755859</ele>
        <time>2023-08-10T09:42:14.000Z</time>
      </trkpt>
      <trkpt lat="45.30168" lon="6.09656">
        <ele>1553.4000244141</ele>
        <time>2023-08-10T09:42:15.000Z</time>
      </trkpt>
      <trkpt lat="45.30166" lon="6.09656">
        <ele>1552.4000244141</ele>
        <time>2023-08-10T09:42:19.000Z</time>
      </trkpt>
      <trkpt lat="45.30164" lon="6.09654">
        <ele>1551.5999755859</ele>
        <time>2023-08-10T09:42:22.000Z</time>
      </trkpt>
      <trkpt lat="45.30162" lon="6.09653">
        <ele>1551.1999511719</ele>
        <time>2023-08-10T09:42:24.000Z</time>
      </trkpt>
      <trkpt lat="45.30161" lon="6.0965">
        <ele>1550.1999511719</ele>
        <time>2023-08-10T09:42:29.000Z</time>
      </trkpt>
      <trkpt lat="45.30161" lon="6.0965">
        <ele>1550</ele>
        <time>2023-08-10T09:42:30.000Z</time>
      </trkpt>
      <trkpt lat="45.3016" lon="6.0965">
        <ele>1549.8000488281</ele>
        <time>2023-08-10T09:42:36.000Z</time>
      </trkpt>
      <trkpt lat="45.30164" lon="6.09648">
        <ele>1550</ele>
        <time>2023-08-10T09:42:44.000Z</time>
      </trkpt>
      <trkpt lat="45.30172" lon="6.09647">
        <ele>1549.8000488281</ele>
        <time>2023-08-10T09:42:55.000Z</time>
      </trkpt>
      <trkpt lat="45.3017" lon="6.09652">
        <ele>1549.8000488281</ele>
        <time>2023-08-10T09:43:10.000Z</time>
      </trkpt>
      <trkpt lat="45.3017" lon="6.09653">
        <ele>1549.8000488281</ele>
        <time>2023-08-10T09:43:21.000Z</time>
      </trkpt>
      <trkpt lat="45.30172" lon="6.09657">
        <ele>1549.8000488281</ele>
        <time>2023-08-10T09:43:31.000Z</time>
      </trkpt>
      <trkpt lat="45.30173" lon="6.09655">
        <ele>1550</ele>
        <time>2023-08-10T09:43:36.000Z</time>
      </trkpt>
      <trkpt lat="45.30178" lon="6.09658">
        <ele>1550</ele>
        <time>2023-08-10T09:43:43.000Z</time>
      </trkpt>
      <trkpt lat="45.30182" lon="6.09655">
        <ele>1549.5999755859</ele>
        <time>2023-08-10T09:43:51.000Z</time>
      </trkpt>
      <trkpt lat="45.30182" lon="6.09649">
        <ele>1548.4000244141</ele>
        <time>2023-08-10T09:44:02.000Z</time>
      </trkpt>
      <trkpt lat="45.30176" lon="6.09644">
        <ele>1549.4000244141</ele>
        <time>2023-08-10T09:44:15.000Z</time>
      </trkpt>
      <trkpt lat="45.30173" lon="6.09649">
        <ele>1550</ele>
        <time>2023-08-10T09:44:21.000Z</time>
      </trkpt>
      <trkpt lat="45.30171" lon="6.09651">
        <ele>1550.8000488281</ele>
        <time>2023-08-10T09:44:24.000Z</time>
      </trkpt>
      <trkpt lat="45.30171" lon="6.09653">
        <ele>1551</ele>
        <time>2023-08-10T09:44:26.000Z</time>
      </trkpt>
      <trkpt lat="45.30172" lon="6.09652">
        <ele>1552</ele>
        <time>2023-08-10T09:44:31.000Z</time>
      </trkpt>
      <trkpt lat="45.30177" lon="6.09651">
        <ele>1552.8000488281</ele>
        <time>2023-08-10T09:44:38.000Z</time>
      </trkpt>
      <trkpt lat="45.30197" lon="6.09651">
        <ele>1550.4000244141</ele>
        <time>2023-08-10T09:44:59.000Z</time>
      </trkpt>
      <trkpt lat="45.30199" lon="6.09651">
        <ele>1550</ele>
        <time>2023-08-10T09:45:01.000Z</time>
      </trkpt>
      <trkpt lat="45.30199" lon="6.09653">
        <ele>1549</ele>
        <time>2023-08-10T09:45:07.000Z</time>
      </trkpt>
      <trkpt lat="45.30198" lon="6.09653">
        <ele>1549.1999511719</ele>
        <time>2023-08-10T09:45:15.000Z</time>
      </trkpt>
      <trkpt lat="45.30198" lon="6.09651">
        <ele>1549.1999511719</ele>
        <time>2023-08-10T09:45:23.000Z</time>
      </trkpt>
      <trkpt lat="45.30202" lon="6.09649">
        <ele>1549</ele>
        <time>2023-08-10T09:45:29.000Z</time>
      </trkpt>
      <trkpt lat="45.30205" lon="6.09647">
        <ele>1547.8000488281</ele>
        <time>2023-08-10T09:45:35.000Z</time>
      </trkpt>
      <trkpt lat="45.30206" lon="6.09645">
        <ele>1547.1999511719</ele>
        <time>2023-08-10T09:45:37.000Z</time>
      </trkpt>
      <trkpt lat="45.30206" lon="6.09644">
        <ele>1546.5999755859</ele>
        <time>2023-08-10T09:45:39.000Z</time>
      </trkpt>
      <trkpt lat="45.30207" lon="6.09644">
        <ele>1546</ele>
        <time>2023-08-10T09:45:42.000Z</time>
      </trkpt>
      <trkpt lat="45.30208" lon="6.09644">
        <ele>1545.8000488281</ele>
        <time>2023-08-10T09:45:43.000Z</time>
      </trkpt>
      <trkpt lat="45.30209" lon="6.09643">
        <ele>1545.5999755859</ele>
        <time>2023-08-10T09:45:44.000Z</time>
      </trkpt>
      <trkpt lat="45.30213" lon="6.0964">
        <ele>1544.4000244141</ele>
        <time>2023-08-10T09:45:49.000Z</time>
      </trkpt>
      <trkpt lat="45.30214" lon="6.09639">
        <ele>1544.1999511719</ele>
        <time>2023-08-10T09:45:50.000Z</time>
      </trkpt>
      <trkpt lat="45.30216" lon="6.09638">
        <ele>1543.1999511719</ele>
        <time>2023-08-10T09:45:54.000Z</time>
      </trkpt>
      <trkpt lat="45.30218" lon="6.09636">
        <ele>1542.5999755859</ele>
        <time>2023-08-10T09:45:57.000Z</time>
      </trkpt>
      <trkpt lat="45.30219" lon="6.09635">
        <ele>1542.1999511719</ele>
        <time>2023-08-10T09:45:59.000Z</time>
      </trkpt>
      <trkpt lat="45.30222" lon="6.09631">
        <ele>1541</ele>
        <time>2023-08-10T09:46:04.000Z</time>
      </trkpt>
      <trkpt lat="45.30221" lon="6.09631">
        <ele>1540.5999755859</ele>
        <time>2023-08-10T09:46:05.000Z</time>
      </trkpt>
      <trkpt lat="45.30219" lon="6.0963">
        <ele>1539.8000488281</ele>
        <time>2023-08-10T09:46:09.000Z</time>
      </trkpt>
      <trkpt lat="45.30212" lon="6.09627">
        <ele>1537.4000244141</ele>
        <time>2023-08-10T09:46:18.000Z</time>
      </trkpt>
      <trkpt lat="45.30209" lon="6.09624">
        <ele>1536.1999511719</ele>
        <time>2023-08-10T09:46:23.000Z</time>
      </trkpt>
      <trkpt lat="45.30208" lon="6.09624">
        <ele>1535.5999755859</ele>
        <time>2023-08-10T09:46:25.000Z</time>
      </trkpt>
      <trkpt lat="45.30204" lon="6.09623">
        <ele>1534.8000488281</ele>
        <time>2023-08-10T09:46:28.000Z</time>
      </trkpt>
      <trkpt lat="45.30196" lon="6.09619">
        <ele>1534</ele>
        <time>2023-08-10T09:46:35.000Z</time>
      </trkpt>
      <trkpt lat="45.30193" lon="6.09613">
        <ele>1533.8000488281</ele>
        <time>2023-08-10T09:46:39.000Z</time>
      </trkpt>
      <trkpt lat="45.30187" lon="6.09607">
        <ele>1533.5999755859</ele>
        <time>2023-08-10T09:46:43.000Z</time>
      </trkpt>
      <trkpt lat="45.30184" lon="6.09603">
        <ele>1532.8000488281</ele>
        <time>2023-08-10T09:46:47.000Z</time>
      </trkpt>
      <trkpt lat="45.30183" lon="6.09601">
        <ele>1532.1999511719</ele>
        <time>2023-08-10T09:46:49.000Z</time>
      </trkpt>
      <trkpt lat="45.3018" lon="6.09598">
        <ele>1531.5999755859</ele>
        <time>2023-08-10T09:46:52.000Z</time>
      </trkpt>
      <trkpt lat="45.30175" lon="6.09594">
        <ele>1530.4000244141</ele>
        <time>2023-08-10T09:46:56.000Z</time>
      </trkpt>
      <trkpt lat="45.30174" lon="6.09593">
        <ele>1530.4000244141</ele>
        <time>2023-08-10T09:46:57.000Z</time>
      </trkpt>
      <trkpt lat="45.30169" lon="6.0959">
        <ele>1529.1999511719</ele>
        <time>2023-08-10T09:47:01.000Z</time>
      </trkpt>
      <trkpt lat="45.30166" lon="6.09589">
        <ele>1528.4000244141</ele>
        <time>2023-08-10T09:47:04.000Z</time>
      </trkpt>
      <trkpt lat="45.30165" lon="6.09589">
        <ele>1528.1999511719</ele>
        <time>2023-08-10T09:47:05.000Z</time>
      </trkpt>
      <trkpt lat="45.30162" lon="6.09586">
        <ele>1527.1999511719</ele>
        <time>2023-08-10T09:47:09.000Z</time>
      </trkpt>
      <trkpt lat="45.30162" lon="6.09584">
        <ele>1526.5999755859</ele>
        <time>2023-08-10T09:47:11.000Z</time>
      </trkpt>
      <trkpt lat="45.3016" lon="6.09582">
        <ele>1526</ele>
        <time>2023-08-10T09:47:13.000Z</time>
      </trkpt>
      <trkpt lat="45.30159" lon="6.09575">
        <ele>1524.8000488281</ele>
        <time>2023-08-10T09:47:17.000Z</time>
      </trkpt>
      <trkpt lat="45.30157" lon="6.09569">
        <ele>1523.8000488281</ele>
        <time>2023-08-10T09:47:22.000Z</time>
      </trkpt>
      <trkpt lat="45.30156" lon="6.09569">
        <ele>1523.4000244141</ele>
        <time>2023-08-10T09:47:23.000Z</time>
      </trkpt>
      <trkpt lat="45.30153" lon="6.09565">
        <ele>1522.5999755859</ele>
        <time>2023-08-10T09:47:26.000Z</time>
      </trkpt>
      <trkpt lat="45.30151" lon="6.09563">
        <ele>1522.1999511719</ele>
        <time>2023-08-10T09:47:28.000Z</time>
      </trkpt>
      <trkpt lat="45.3015" lon="6.09562">
        <ele>1521.4000244141</ele>
        <time>2023-08-10T09:47:31.000Z</time>
      </trkpt>
      <trkpt lat="45.30147" lon="6.09558">
        <ele>1520.4000244141</ele>
        <time>2023-08-10T09:47:35.000Z</time>
      </trkpt>
      <trkpt lat="45.30144" lon="6.09552">
        <ele>1519.4000244141</ele>
        <time>2023-08-10T09:47:39.000Z</time>
      </trkpt>
      <trkpt lat="45.30143" lon="6.09549">
        <ele>1518.4000244141</ele>
        <time>2023-08-10T09:47:42.000Z</time>
      </trkpt>
      <trkpt lat="45.30143" lon="6.09549">
        <ele>1518.1999511719</ele>
        <time>2023-08-10T09:47:43.000Z</time>
      </trkpt>
      <trkpt lat="45.30143" lon="6.09544">
        <ele>1517.1999511719</ele>
        <time>2023-08-10T09:47:47.000Z</time>
      </trkpt>
      <trkpt lat="45.30142" lon="6.0954">
        <ele>1516.5999755859</ele>
        <time>2023-08-10T09:47:50.000Z</time>
      </trkpt>
      <trkpt lat="45.30141" lon="6.09537">
        <ele>1516</ele>
        <time>2023-08-10T09:47:52.000Z</time>
      </trkpt>
      <trkpt lat="45.30139" lon="6.09532">
        <ele>1515</ele>
        <time>2023-08-10T09:47:56.000Z</time>
      </trkpt>
      <trkpt lat="45.30138" lon="6.09529">
        <ele>1514</ele>
        <time>2023-08-10T09:48:00.000Z</time>
      </trkpt>
      <trkpt lat="45.30137" lon="6.09527">
        <ele>1513.5999755859</ele>
        <time>2023-08-10T09:48:02.000Z</time>
      </trkpt>
      <trkpt lat="45.30137" lon="6.09525">
        <ele>1512.8000488281</ele>
        <time>2023-08-10T09:48:05.000Z</time>
      </trkpt>
      <trkpt lat="45.30136" lon="6.09522">
        <ele>1511.8000488281</ele>
        <time>2023-08-10T09:48:09.000Z</time>
      </trkpt>
      <trkpt lat="45.30136" lon="6.09517">
        <ele>1510.5999755859</ele>
        <time>2023-08-10T09:48:13.000Z</time>
      </trkpt>
      <trkpt lat="45.30135" lon="6.09517">
        <ele>1510.1999511719</ele>
        <time>2023-08-10T09:48:15.000Z</time>
      </trkpt>
      <trkpt lat="45.30134" lon="6.09516">
        <ele>1510</ele>
        <time>2023-08-10T09:48:16.000Z</time>
      </trkpt>
      <trkpt lat="45.30133" lon="6.09513">
        <ele>1509.4000244141</ele>
        <time>2023-08-10T09:48:18.000Z</time>
      </trkpt>
      <trkpt lat="45.30132" lon="6.0951">
        <ele>1509</ele>
        <time>2023-08-10T09:48:20.000Z</time>
      </trkpt>
      <trkpt lat="45.30131" lon="6.09507">
        <ele>1508.1999511719</ele>
        <time>2023-08-10T09:48:23.000Z</time>
      </trkpt>
      <trkpt lat="45.3013" lon="6.09502">
        <ele>1507.1999511719</ele>
        <time>2023-08-10T09:48:27.000Z</time>
      </trkpt>
      <trkpt lat="45.3013" lon="6.09502">
        <ele>1507</ele>
        <time>2023-08-10T09:48:28.000Z</time>
      </trkpt>
      <trkpt lat="45.3013" lon="6.095">
        <ele>1506</ele>
        <time>2023-08-10T09:48:32.000Z</time>
      </trkpt>
      <trkpt lat="45.3013" lon="6.09499">
        <ele>1505.5999755859</ele>
        <time>2023-08-10T09:48:34.000Z</time>
      </trkpt>
      <trkpt lat="45.30129" lon="6.09495">
        <ele>1504.8000488281</ele>
        <time>2023-08-10T09:48:37.000Z</time>
      </trkpt>
      <trkpt lat="45.30126" lon="6.0949">
        <ele>1503.5999755859</ele>
        <time>2023-08-10T09:48:41.000Z</time>
      </trkpt>
      <trkpt lat="45.30125" lon="6.09491">
        <ele>1503.4000244141</ele>
        <time>2023-08-10T09:48:42.000Z</time>
      </trkpt>
      <trkpt lat="45.30124" lon="6.09491">
        <ele>1502.5999755859</ele>
        <time>2023-08-10T09:48:45.000Z</time>
      </trkpt>
      <trkpt lat="45.30122" lon="6.0949">
        <ele>1501.5999755859</ele>
        <time>2023-08-10T09:48:48.000Z</time>
      </trkpt>
      <trkpt lat="45.30122" lon="6.09491">
        <ele>1501.4000244141</ele>
        <time>2023-08-10T09:48:49.000Z</time>
      </trkpt>
      <trkpt lat="45.30117" lon="6.09488">
        <ele>1500.4000244141</ele>
        <time>2023-08-10T09:48:54.000Z</time>
      </trkpt>
      <trkpt lat="45.30114" lon="6.09484">
        <ele>1499.1999511719</ele>
        <time>2023-08-10T09:48:58.000Z</time>
      </trkpt>
      <trkpt lat="45.30112" lon="6.09481">
        <ele>1498.1999511719</ele>
        <time>2023-08-10T09:49:02.000Z</time>
      </trkpt>
      <trkpt lat="45.30107" lon="6.09476">
        <ele>1497</ele>
        <time>2023-08-10T09:49:06.000Z</time>
      </trkpt>
      <trkpt lat="45.301" lon="6.09468">
        <ele>1496</ele>
        <time>2023-08-10T09:49:12.000Z</time>
      </trkpt>
      <trkpt lat="45.30098" lon="6.09466">
        <ele>1495.4000244141</ele>
        <time>2023-08-10T09:49:14.000Z</time>
      </trkpt>
      <trkpt lat="45.30097" lon="6.09464">
        <ele>1495</ele>
        <time>2023-08-10T09:49:16.000Z</time>
      </trkpt>
      <trkpt lat="45.30094" lon="6.0946">
        <ele>1493.8000488281</ele>
        <time>2023-08-10T09:49:22.000Z</time>
      </trkpt>
      <trkpt lat="45.30093" lon="6.09459">
        <ele>1493.5999755859</ele>
        <time>2023-08-10T09:49:23.000Z</time>
      </trkpt>
      <trkpt lat="45.3009" lon="6.09456">
        <ele>1492.8000488281</ele>
        <time>2023-08-10T09:49:26.000Z</time>
      </trkpt>
      <trkpt lat="45.30086" lon="6.09449">
        <ele>1491.5999755859</ele>
        <time>2023-08-10T09:49:31.000Z</time>
      </trkpt>
      <trkpt lat="45.30084" lon="6.09446">
        <ele>1490.4000244141</ele>
        <time>2023-08-10T09:49:35.000Z</time>
      </trkpt>
      <trkpt lat="45.30082" lon="6.0944">
        <ele>1489.1999511719</ele>
        <time>2023-08-10T09:49:39.000Z</time>
      </trkpt>
      <trkpt lat="45.30081" lon="6.09434">
        <ele>1488.1999511719</ele>
        <time>2023-08-10T09:49:43.000Z</time>
      </trkpt>
      <trkpt lat="45.3008" lon="6.09431">
        <ele>1487.5999755859</ele>
        <time>2023-08-10T09:49:45.000Z</time>
      </trkpt>
      <trkpt lat="45.3008" lon="6.09429">
        <ele>1487.1999511719</ele>
        <time>2023-08-10T09:49:47.000Z</time>
      </trkpt>
      <trkpt lat="45.30079" lon="6.09426">
        <ele>1486.1999511719</ele>
        <time>2023-08-10T09:49:51.000Z</time>
      </trkpt>
      <trkpt lat="45.30078" lon="6.09424">
        <ele>1485.8000488281</ele>
        <time>2023-08-10T09:49:52.000Z</time>
      </trkpt>
      <trkpt lat="45.30076" lon="6.09419">
        <ele>1484.8000488281</ele>
        <time>2023-08-10T09:49:56.000Z</time>
      </trkpt>
      <trkpt lat="45.30076" lon="6.09418">
        <ele>1484.5999755859</ele>
        <time>2023-08-10T09:49:57.000Z</time>
      </trkpt>
      <trkpt lat="45.30075" lon="6.09414">
        <ele>1483.5999755859</ele>
        <time>2023-08-10T09:50:00.000Z</time>
      </trkpt>
      <trkpt lat="45.30074" lon="6.09411">
        <ele>1482.4000244141</ele>
        <time>2023-08-10T09:50:04.000Z</time>
      </trkpt>
      <trkpt lat="45.30073" lon="6.0941">
        <ele>1482</ele>
        <time>2023-08-10T09:50:05.000Z</time>
      </trkpt>
      <trkpt lat="45.30072" lon="6.09405">
        <ele>1481.4000244141</ele>
        <time>2023-08-10T09:50:08.000Z</time>
      </trkpt>
      <trkpt lat="45.30071" lon="6.09402">
        <ele>1480.4000244141</ele>
        <time>2023-08-10T09:50:11.000Z</time>
      </trkpt>
      <trkpt lat="45.30071" lon="6.09401">
        <ele>1480</ele>
        <time>2023-08-10T09:50:12.000Z</time>
      </trkpt>
      <trkpt lat="45.30072" lon="6.094">
        <ele>1479.4000244141</ele>
        <time>2023-08-10T09:50:14.000Z</time>
      </trkpt>
      <trkpt lat="45.30072" lon="6.09399">
        <ele>1479.1999511719</ele>
        <time>2023-08-10T09:50:15.000Z</time>
      </trkpt>
      <trkpt lat="45.30073" lon="6.09398">
        <ele>1478.8000488281</ele>
        <time>2023-08-10T09:50:19.000Z</time>
      </trkpt>
      <trkpt lat="45.30072" lon="6.09399">
        <ele>1478.5999755859</ele>
        <time>2023-08-10T09:50:21.000Z</time>
      </trkpt>
      <trkpt lat="45.30074" lon="6.09401">
        <ele>1478.4000244141</ele>
        <time>2023-08-10T09:50:24.000Z</time>
      </trkpt>
      <trkpt lat="45.30074" lon="6.09401">
        <ele>1478.4000244141</ele>
        <time>2023-08-10T09:50:26.000Z</time>
      </trkpt>
      <trkpt lat="45.30074" lon="6.09399">
        <ele>1478.1999511719</ele>
        <time>2023-08-10T09:50:44.000Z</time>
      </trkpt>
      <trkpt lat="45.30074" lon="6.09398">
        <ele>1478.1999511719</ele>
        <time>2023-08-10T09:50:54.000Z</time>
      </trkpt>
      <trkpt lat="45.30072" lon="6.09401">
        <ele>1478.1999511719</ele>
        <time>2023-08-10T09:51:02.000Z</time>
      </trkpt>
      <trkpt lat="45.30072" lon="6.09398">
        <ele>1478.1999511719</ele>
        <time>2023-08-10T09:51:09.000Z</time>
      </trkpt>
      <trkpt lat="45.3007" lon="6.09391">
        <ele>1477.8000488281</ele>
        <time>2023-08-10T09:51:15.000Z</time>
      </trkpt>
      <trkpt lat="45.30069" lon="6.09388">
        <ele>1477</ele>
        <time>2023-08-10T09:51:19.000Z</time>
      </trkpt>
      <trkpt lat="45.30068" lon="6.09386">
        <ele>1476.4000244141</ele>
        <time>2023-08-10T09:51:22.000Z</time>
      </trkpt>
      <trkpt lat="45.30067" lon="6.09384">
        <ele>1475.8000488281</ele>
        <time>2023-08-10T09:51:25.000Z</time>
      </trkpt>
      <trkpt lat="45.30065" lon="6.09382">
        <ele>1475.4000244141</ele>
        <time>2023-08-10T09:51:28.000Z</time>
      </trkpt>
      <trkpt lat="45.30063" lon="6.09381">
        <ele>1474.5999755859</ele>
        <time>2023-08-10T09:51:31.000Z</time>
      </trkpt>
      <trkpt lat="45.30061" lon="6.0938">
        <ele>1474</ele>
        <time>2023-08-10T09:51:34.000Z</time>
      </trkpt>
      <trkpt lat="45.30059" lon="6.0938">
        <ele>1473.5999755859</ele>
        <time>2023-08-10T09:51:36.000Z</time>
      </trkpt>
      <trkpt lat="45.30053" lon="6.09378">
        <ele>1473</ele>
        <time>2023-08-10T09:51:41.000Z</time>
      </trkpt>
      <trkpt lat="45.30044" lon="6.09375">
        <ele>1471.8000488281</ele>
        <time>2023-08-10T09:52:01.000Z</time>
      </trkpt>
      <trkpt lat="45.30043" lon="6.09378">
        <ele>1471.8000488281</ele>
        <time>2023-08-10T09:52:06.000Z</time>
      </trkpt>
      <trkpt lat="45.30032" lon="6.09377">
        <ele>1470.4000244141</ele>
        <time>2023-08-10T09:52:18.000Z</time>
      </trkpt>
      <trkpt lat="45.30027" lon="6.09376">
        <ele>1469.1999511719</ele>
        <time>2023-08-10T09:52:24.000Z</time>
      </trkpt>
      <trkpt lat="45.30026" lon="6.09375">
        <ele>1468.8000488281</ele>
        <time>2023-08-10T09:52:25.000Z</time>
      </trkpt>
      <trkpt lat="45.30025" lon="6.09372">
        <ele>1468.1999511719</ele>
        <time>2023-08-10T09:52:29.000Z</time>
      </trkpt>
      <trkpt lat="45.30026" lon="6.09371">
        <ele>1467.8000488281</ele>
        <time>2023-08-10T09:52:31.000Z</time>
      </trkpt>
      <trkpt lat="45.30027" lon="6.0937">
        <ele>1467.4000244141</ele>
        <time>2023-08-10T09:52:33.000Z</time>
      </trkpt>
      <trkpt lat="45.30026" lon="6.09364">
        <ele>1467</ele>
        <time>2023-08-10T09:52:41.000Z</time>
      </trkpt>
      <trkpt lat="45.30026" lon="6.09363">
        <ele>1466.8000488281</ele>
        <time>2023-08-10T09:52:42.000Z</time>
      </trkpt>
      <trkpt lat="45.30027" lon="6.0936">
        <ele>1466</ele>
        <time>2023-08-10T09:52:46.000Z</time>
      </trkpt>
      <trkpt lat="45.30028" lon="6.09354">
        <ele>1464.8000488281</ele>
        <time>2023-08-10T09:52:50.000Z</time>
      </trkpt>
      <trkpt lat="45.30028" lon="6.09353">
        <ele>1464.4000244141</ele>
        <time>2023-08-10T09:52:51.000Z</time>
      </trkpt>
      <trkpt lat="45.30026" lon="6.09352">
        <ele>1463.5999755859</ele>
        <time>2023-08-10T09:52:54.000Z</time>
      </trkpt>
      <trkpt lat="45.30026" lon="6.09352">
        <ele>1463.1999511719</ele>
        <time>2023-08-10T09:52:55.000Z</time>
      </trkpt>
      <trkpt lat="45.30025" lon="6.09352">
        <ele>1462.8000488281</ele>
        <time>2023-08-10T09:52:57.000Z</time>
      </trkpt>
      <trkpt lat="45.30023" lon="6.0935">
        <ele>1462.4000244141</ele>
        <time>2023-08-10T09:52:59.000Z</time>
      </trkpt>
      <trkpt lat="45.30003" lon="6.09361">
        <ele>1456</ele>
        <time>2023-08-10T09:53:27.000Z</time>
      </trkpt>
      <trkpt lat="45.29995" lon="6.09367">
        <ele>1455.1999511719</ele>
        <time>2023-08-10T09:53:38.000Z</time>
      </trkpt>
      <trkpt lat="45.29995" lon="6.09371">
        <ele>1455</ele>
        <time>2023-08-10T09:53:45.000Z</time>
      </trkpt>
      <trkpt lat="45.29994" lon="6.09371">
        <ele>1455.1999511719</ele>
        <time>2023-08-10T09:53:46.000Z</time>
      </trkpt>
      <trkpt lat="45.29993" lon="6.09371">
        <ele>1455.1999511719</ele>
        <time>2023-08-10T09:53:47.000Z</time>
      </trkpt>
      <trkpt lat="45.29973" lon="6.09399">
        <ele>1454.8000488281</ele>
        <time>2023-08-10T09:54:07.000Z</time>
      </trkpt>
      <trkpt lat="45.29972" lon="6.094">
        <ele>1454.4000244141</ele>
        <time>2023-08-10T09:54:10.000Z</time>
      </trkpt>
      <trkpt lat="45.29971" lon="6.09401">
        <ele>1454.1999511719</ele>
        <time>2023-08-10T09:54:12.000Z</time>
      </trkpt>
      <trkpt lat="45.29971" lon="6.09403">
        <ele>1453.4000244141</ele>
        <time>2023-08-10T09:54:15.000Z</time>
      </trkpt>
      <trkpt lat="45.29961" lon="6.09412">
        <ele>1452.1999511719</ele>
        <time>2023-08-10T09:54:24.000Z</time>
      </trkpt>
      <trkpt lat="45.29956" lon="6.09414">
        <ele>1451.5999755859</ele>
        <time>2023-08-10T09:54:29.000Z</time>
      </trkpt>
      <trkpt lat="45.29954" lon="6.09416">
        <ele>1451.1999511719</ele>
        <time>2023-08-10T09:54:31.000Z</time>
      </trkpt>
      <trkpt lat="45.29951" lon="6.09419">
        <ele>1450</ele>
        <time>2023-08-10T09:54:36.000Z</time>
      </trkpt>
      <trkpt lat="45.29951" lon="6.0942">
        <ele>1448.8000488281</ele>
        <time>2023-08-10T09:54:40.000Z</time>
      </trkpt>
      <trkpt lat="45.2995" lon="6.09421">
        <ele>1448</ele>
        <time>2023-08-10T09:54:45.000Z</time>
      </trkpt>
      <trkpt lat="45.2995" lon="6.09418">
        <ele>1447.8000488281</ele>
        <time>2023-08-10T09:54:48.000Z</time>
      </trkpt>
      <trkpt lat="45.29949" lon="6.09414">
        <ele>1447</ele>
        <time>2023-08-10T09:54:51.000Z</time>
      </trkpt>
      <trkpt lat="45.29949" lon="6.09411">
        <ele>1446.5999755859</ele>
        <time>2023-08-10T09:54:53.000Z</time>
      </trkpt>
      <trkpt lat="45.2995" lon="6.09403">
        <ele>1446.1999511719</ele>
        <time>2023-08-10T09:54:58.000Z</time>
      </trkpt>
      <trkpt lat="45.29952" lon="6.09397">
        <ele>1445.5999755859</ele>
        <time>2023-08-10T09:55:03.000Z</time>
      </trkpt>
      <trkpt lat="45.29954" lon="6.09392">
        <ele>1444.8000488281</ele>
        <time>2023-08-10T09:55:07.000Z</time>
      </trkpt>
      <trkpt lat="45.29954" lon="6.09391">
        <ele>1444.5999755859</ele>
        <time>2023-08-10T09:55:08.000Z</time>
      </trkpt>
      <trkpt lat="45.29957" lon="6.09387">
        <ele>1443.5999755859</ele>
        <time>2023-08-10T09:55:13.000Z</time>
      </trkpt>
      <trkpt lat="45.29958" lon="6.09387">
        <ele>1442.8000488281</ele>
        <time>2023-08-10T09:55:16.000Z</time>
      </trkpt>
      <trkpt lat="45.29963" lon="6.09386">
        <ele>1442.4000244141</ele>
        <time>2023-08-10T09:55:23.000Z</time>
      </trkpt>
      <trkpt lat="45.29963" lon="6.09384">
        <ele>1442</ele>
        <time>2023-08-10T09:55:34.000Z</time>
      </trkpt>
      <trkpt lat="45.29964" lon="6.09377">
        <ele>1441.1999511719</ele>
        <time>2023-08-10T09:55:38.000Z</time>
      </trkpt>
      <trkpt lat="45.29963" lon="6.09373">
        <ele>1440.5999755859</ele>
        <time>2023-08-10T09:55:41.000Z</time>
      </trkpt>
      <trkpt lat="45.29962" lon="6.09372">
        <ele>1440</ele>
        <time>2023-08-10T09:55:43.000Z</time>
      </trkpt>
      <trkpt lat="45.2996" lon="6.09372">
        <ele>1439</ele>
        <time>2023-08-10T09:55:47.000Z</time>
      </trkpt>
      <trkpt lat="45.29958" lon="6.09371">
        <ele>1438.4000244141</ele>
        <time>2023-08-10T09:55:49.000Z</time>
      </trkpt>
      <trkpt lat="45.29958" lon="6.09369">
        <ele>1438</ele>
        <time>2023-08-10T09:55:52.000Z</time>
      </trkpt>
      <trkpt lat="45.29958" lon="6.09368">
        <ele>1437.8000488281</ele>
        <time>2023-08-10T09:55:53.000Z</time>
      </trkpt>
      <trkpt lat="45.29958" lon="6.09368">
        <ele>1437.1999511719</ele>
        <time>2023-08-10T09:55:56.000Z</time>
      </trkpt>
      <trkpt lat="45.29958" lon="6.09366">
        <ele>1436.8000488281</ele>
        <time>2023-08-10T09:55:58.000Z</time>
      </trkpt>
      <trkpt lat="45.29961" lon="6.09361">
        <ele>1435.8000488281</ele>
        <time>2023-08-10T09:56:03.000Z</time>
      </trkpt>
      <trkpt lat="45.29961" lon="6.0936">
        <ele>1435.5999755859</ele>
        <time>2023-08-10T09:56:04.000Z</time>
      </trkpt>
      <trkpt lat="45.29962" lon="6.09357">
        <ele>1434.8000488281</ele>
        <time>2023-08-10T09:56:09.000Z</time>
      </trkpt>
      <trkpt lat="45.29963" lon="6.09351">
        <ele>1434</ele>
        <time>2023-08-10T09:56:13.000Z</time>
      </trkpt>
      <trkpt lat="45.29965" lon="6.09347">
        <ele>1433.5999755859</ele>
        <time>2023-08-10T09:56:16.000Z</time>
      </trkpt>
      <trkpt lat="45.29967" lon="6.09341">
        <ele>1433.5999755859</ele>
        <time>2023-08-10T09:56:20.000Z</time>
      </trkpt>
      <trkpt lat="45.2997" lon="6.0934">
        <ele>1433.8000488281</ele>
        <time>2023-08-10T09:56:26.000Z</time>
      </trkpt>
      <trkpt lat="45.29971" lon="6.09337">
        <ele>1433.8000488281</ele>
        <time>2023-08-10T09:56:29.000Z</time>
      </trkpt>
      <trkpt lat="45.29974" lon="6.09329">
        <ele>1432.5999755859</ele>
        <time>2023-08-10T09:56:35.000Z</time>
      </trkpt>
      <trkpt lat="45.29975" lon="6.09327">
        <ele>1432.1999511719</ele>
        <time>2023-08-10T09:56:36.000Z</time>
      </trkpt>
      <trkpt lat="45.29976" lon="6.09323">
        <ele>1431.4000244141</ele>
        <time>2023-08-10T09:56:39.000Z</time>
      </trkpt>
      <trkpt lat="45.29975" lon="6.09318">
        <ele>1430.4000244141</ele>
        <time>2023-08-10T09:56:44.000Z</time>
      </trkpt>
      <trkpt lat="45.29976" lon="6.09316">
        <ele>1429.8000488281</ele>
        <time>2023-08-10T09:56:46.000Z</time>
      </trkpt>
      <trkpt lat="45.29976" lon="6.09315">
        <ele>1429.1999511719</ele>
        <time>2023-08-10T09:56:48.000Z</time>
      </trkpt>
      <trkpt lat="45.29978" lon="6.09314">
        <ele>1428.1999511719</ele>
        <time>2023-08-10T09:56:52.000Z</time>
      </trkpt>
      <trkpt lat="45.29978" lon="6.09312">
        <ele>1427.5999755859</ele>
        <time>2023-08-10T09:56:54.000Z</time>
      </trkpt>
      <trkpt lat="45.29979" lon="6.09311">
        <ele>1427.1999511719</ele>
        <time>2023-08-10T09:56:56.000Z</time>
      </trkpt>
      <trkpt lat="45.2998" lon="6.09309">
        <ele>1426</ele>
        <time>2023-08-10T09:57:00.000Z</time>
      </trkpt>
      <trkpt lat="45.29981" lon="6.09309">
        <ele>1425.5999755859</ele>
        <time>2023-08-10T09:57:01.000Z</time>
      </trkpt>
      <trkpt lat="45.29983" lon="6.09306">
        <ele>1425</ele>
        <time>2023-08-10T09:57:04.000Z</time>
      </trkpt>
      <trkpt lat="45.29985" lon="6.09303">
        <ele>1424.1999511719</ele>
        <time>2023-08-10T09:57:08.000Z</time>
      </trkpt>
      <trkpt lat="45.29985" lon="6.09302">
        <ele>1423.8000488281</ele>
        <time>2023-08-10T09:57:09.000Z</time>
      </trkpt>
      <trkpt lat="45.29988" lon="6.093">
        <ele>1422.8000488281</ele>
        <time>2023-08-10T09:57:13.000Z</time>
      </trkpt>
      <trkpt lat="45.29989" lon="6.09299">
        <ele>1422</ele>
        <time>2023-08-10T09:57:16.000Z</time>
      </trkpt>
      <trkpt lat="45.2999" lon="6.09298">
        <ele>1421.8000488281</ele>
        <time>2023-08-10T09:57:17.000Z</time>
      </trkpt>
      <trkpt lat="45.29993" lon="6.09295">
        <ele>1420.5999755859</ele>
        <time>2023-08-10T09:57:22.000Z</time>
      </trkpt>
      <trkpt lat="45.29994" lon="6.09295">
        <ele>1420.1999511719</ele>
        <time>2023-08-10T09:57:24.000Z</time>
      </trkpt>
      <trkpt lat="45.29995" lon="6.09292">
        <ele>1419.5999755859</ele>
        <time>2023-08-10T09:57:27.000Z</time>
      </trkpt>
      <trkpt lat="45.29997" lon="6.09287">
        <ele>1418.5999755859</ele>
        <time>2023-08-10T09:57:31.000Z</time>
      </trkpt>
      <trkpt lat="45.29997" lon="6.09284">
        <ele>1418</ele>
        <time>2023-08-10T09:57:33.000Z</time>
      </trkpt>
      <trkpt lat="45.29998" lon="6.0928">
        <ele>1417.4000244141</ele>
        <time>2023-08-10T09:57:35.000Z</time>
      </trkpt>
      <trkpt lat="45.29997" lon="6.09277">
        <ele>1416.5999755859</ele>
        <time>2023-08-10T09:57:38.000Z</time>
      </trkpt>
      <trkpt lat="45.29997" lon="6.09276">
        <ele>1416.4000244141</ele>
        <time>2023-08-10T09:57:39.000Z</time>
      </trkpt>
      <trkpt lat="45.29996" lon="6.09274">
        <ele>1415.8000488281</ele>
        <time>2023-08-10T09:57:42.000Z</time>
      </trkpt>
      <trkpt lat="45.29995" lon="6.09274">
        <ele>1415.4000244141</ele>
        <time>2023-08-10T09:57:45.000Z</time>
      </trkpt>
      <trkpt lat="45.29993" lon="6.09274">
        <ele>1414</ele>
        <time>2023-08-10T09:57:50.000Z</time>
      </trkpt>
      <trkpt lat="45.29993" lon="6.09273">
        <ele>1413.4000244141</ele>
        <time>2023-08-10T09:57:53.000Z</time>
      </trkpt>
      <trkpt lat="45.29992" lon="6.09273">
        <ele>1413.4000244141</ele>
        <time>2023-08-10T09:57:54.000Z</time>
      </trkpt>
      <trkpt lat="45.29953" lon="6.09278">
        <ele>1406.8000488281</ele>
        <time>2023-08-10T09:58:30.000Z</time>
      </trkpt>
      <trkpt lat="45.29954" lon="6.09274">
        <ele>1406.4000244141</ele>
        <time>2023-08-10T09:58:33.000Z</time>
      </trkpt>
      <trkpt lat="45.29955" lon="6.09272">
        <ele>1406.1999511719</ele>
        <time>2023-08-10T09:58:34.000Z</time>
      </trkpt>
      <trkpt lat="45.29959" lon="6.09268">
        <ele>1404.8000488281</ele>
        <time>2023-08-10T09:58:39.000Z</time>
      </trkpt>
      <trkpt lat="45.29964" lon="6.09264">
        <ele>1403.5999755859</ele>
        <time>2023-08-10T09:58:44.000Z</time>
      </trkpt>
      <trkpt lat="45.29968" lon="6.09261">
        <ele>1402.5999755859</ele>
        <time>2023-08-10T09:58:48.000Z</time>
      </trkpt>
      <trkpt lat="45.2997" lon="6.09263">
        <ele>1402.4000244141</ele>
        <time>2023-08-10T09:58:49.000Z</time>
      </trkpt>
      <trkpt lat="45.29968" lon="6.09259">
        <ele>1402.1999511719</ele>
        <time>2023-08-10T09:58:50.000Z</time>
      </trkpt>
      <trkpt lat="45.29969" lon="6.09256">
        <ele>1401.1999511719</ele>
        <time>2023-08-10T09:58:54.000Z</time>
      </trkpt>
      <trkpt lat="45.29968" lon="6.09256">
        <ele>1401</ele>
        <time>2023-08-10T09:58:55.000Z</time>
      </trkpt>
      <trkpt lat="45.29967" lon="6.09256">
        <ele>1400.1999511719</ele>
        <time>2023-08-10T09:58:57.000Z</time>
      </trkpt>
      <trkpt lat="45.29964" lon="6.0925">
        <ele>1399</ele>
        <time>2023-08-10T09:59:02.000Z</time>
      </trkpt>
      <trkpt lat="45.29964" lon="6.09249">
        <ele>1398.8000488281</ele>
        <time>2023-08-10T09:59:03.000Z</time>
      </trkpt>
      <trkpt lat="45.29964" lon="6.09249">
        <ele>1398.5999755859</ele>
        <time>2023-08-10T09:59:04.000Z</time>
      </trkpt>
      <trkpt lat="45.29963" lon="6.09248">
        <ele>1398</ele>
        <time>2023-08-10T09:59:06.000Z</time>
      </trkpt>
      <trkpt lat="45.29964" lon="6.09247">
        <ele>1398</ele>
        <time>2023-08-10T09:59:07.000Z</time>
      </trkpt>
      <trkpt lat="45.29963" lon="6.09246">
        <ele>1397.5999755859</ele>
        <time>2023-08-10T09:59:09.000Z</time>
      </trkpt>
      <trkpt lat="45.29962" lon="6.09244">
        <ele>1396.8000488281</ele>
        <time>2023-08-10T09:59:13.000Z</time>
      </trkpt>
      <trkpt lat="45.29956" lon="6.09238">
        <ele>1395.5999755859</ele>
        <time>2023-08-10T09:59:18.000Z</time>
      </trkpt>
      <trkpt lat="45.29953" lon="6.09233">
        <ele>1394.5999755859</ele>
        <time>2023-08-10T09:59:24.000Z</time>
      </trkpt>
      <trkpt lat="45.2995" lon="6.0923">
        <ele>1393.5999755859</ele>
        <time>2023-08-10T09:59:28.000Z</time>
      </trkpt>
      <trkpt lat="45.2995" lon="6.09229">
        <ele>1393.1999511719</ele>
        <time>2023-08-10T09:59:29.000Z</time>
      </trkpt>
      <trkpt lat="45.29945" lon="6.09226">
        <ele>1392</ele>
        <time>2023-08-10T09:59:35.000Z</time>
      </trkpt>
      <trkpt lat="45.29944" lon="6.09226">
        <ele>1391.5999755859</ele>
        <time>2023-08-10T09:59:37.000Z</time>
      </trkpt>
      <trkpt lat="45.29912" lon="6.09235">
        <ele>1385.5999755859</ele>
        <time>2023-08-10T10:00:11.000Z</time>
      </trkpt>
      <trkpt lat="45.29912" lon="6.09236">
        <ele>1385.5999755859</ele>
        <time>2023-08-10T10:00:14.000Z</time>
      </trkpt>
      <trkpt lat="45.29912" lon="6.09235">
        <ele>1385.5999755859</ele>
        <time>2023-08-10T10:00:18.000Z</time>
      </trkpt>
      <trkpt lat="45.29912" lon="6.09232">
        <ele>1385.5999755859</ele>
        <time>2023-08-10T10:00:26.000Z</time>
      </trkpt>
      <trkpt lat="45.29913" lon="6.09223">
        <ele>1385.5999755859</ele>
        <time>2023-08-10T10:00:31.000Z</time>
      </trkpt>
      <trkpt lat="45.29914" lon="6.09219">
        <ele>1385.4000244141</ele>
        <time>2023-08-10T10:00:34.000Z</time>
      </trkpt>
      <trkpt lat="45.29918" lon="6.09214">
        <ele>1384.4000244141</ele>
        <time>2023-08-10T10:00:40.000Z</time>
      </trkpt>
      <trkpt lat="45.2992" lon="6.09211">
        <ele>1383.1999511719</ele>
        <time>2023-08-10T10:00:45.000Z</time>
      </trkpt>
      <trkpt lat="45.29921" lon="6.0921">
        <ele>1382.8000488281</ele>
        <time>2023-08-10T10:00:46.000Z</time>
      </trkpt>
      <trkpt lat="45.29924" lon="6.09206">
        <ele>1382.1999511719</ele>
        <time>2023-08-10T10:00:49.000Z</time>
      </trkpt>
      <trkpt lat="45.29925" lon="6.09201">
        <ele>1381</ele>
        <time>2023-08-10T10:00:54.000Z</time>
      </trkpt>
      <trkpt lat="45.2992" lon="6.09195">
        <ele>1379.8000488281</ele>
        <time>2023-08-10T10:00:59.000Z</time>
      </trkpt>
      <trkpt lat="45.29918" lon="6.09194">
        <ele>1379.5999755859</ele>
        <time>2023-08-10T10:01:00.000Z</time>
      </trkpt>
      <trkpt lat="45.29913" lon="6.09195">
        <ele>1378.8000488281</ele>
        <time>2023-08-10T10:01:04.000Z</time>
      </trkpt>
      <trkpt lat="45.29912" lon="6.09196">
        <ele>1378.4000244141</ele>
        <time>2023-08-10T10:01:06.000Z</time>
      </trkpt>
      <trkpt lat="45.29905" lon="6.09196">
        <ele>1377.5999755859</ele>
        <time>2023-08-10T10:01:12.000Z</time>
      </trkpt>
      <trkpt lat="45.29904" lon="6.09196">
        <ele>1377.4000244141</ele>
        <time>2023-08-10T10:01:14.000Z</time>
      </trkpt>
      <trkpt lat="45.29903" lon="6.09194">
        <ele>1376.4000244141</ele>
        <time>2023-08-10T10:01:19.000Z</time>
      </trkpt>
      <trkpt lat="45.29904" lon="6.09194">
        <ele>1376.1999511719</ele>
        <time>2023-08-10T10:01:20.000Z</time>
      </trkpt>
      <trkpt lat="45.29905" lon="6.09193">
        <ele>1376</ele>
        <time>2023-08-10T10:01:21.000Z</time>
      </trkpt>
      <trkpt lat="45.29905" lon="6.09191">
        <ele>1375.4000244141</ele>
        <time>2023-08-10T10:01:26.000Z</time>
      </trkpt>
      <trkpt lat="45.29904" lon="6.0919">
        <ele>1374.4000244141</ele>
        <time>2023-08-10T10:01:31.000Z</time>
      </trkpt>
      <trkpt lat="45.29902" lon="6.09192">
        <ele>1374</ele>
        <time>2023-08-10T10:01:33.000Z</time>
      </trkpt>
      <trkpt lat="45.29896" lon="6.09196">
        <ele>1373.8000488281</ele>
        <time>2023-08-10T10:01:39.000Z</time>
      </trkpt>
      <trkpt lat="45.2989" lon="6.09202">
        <ele>1373.1999511719</ele>
        <time>2023-08-10T10:01:45.000Z</time>
      </trkpt>
      <trkpt lat="45.29887" lon="6.09206">
        <ele>1372.8000488281</ele>
        <time>2023-08-10T10:01:49.000Z</time>
      </trkpt>
      <trkpt lat="45.2988" lon="6.09214">
        <ele>1372.1999511719</ele>
        <time>2023-08-10T10:01:59.000Z</time>
      </trkpt>
      <trkpt lat="45.29876" lon="6.0922">
        <ele>1372</ele>
        <time>2023-08-10T10:02:07.000Z</time>
      </trkpt>
      <trkpt lat="45.29876" lon="6.0922">
        <ele>1371.8000488281</ele>
        <time>2023-08-10T10:02:08.000Z</time>
      </trkpt>
      <trkpt lat="45.29877" lon="6.0924">
        <ele>1371.1999511719</ele>
        <time>2023-08-10T10:02:22.000Z</time>
      </trkpt>
      <trkpt lat="45.29875" lon="6.09243">
        <ele>1371</ele>
        <time>2023-08-10T10:02:24.000Z</time>
      </trkpt>
      <trkpt lat="45.29875" lon="6.09248">
        <ele>1370.4000244141</ele>
        <time>2023-08-10T10:02:27.000Z</time>
      </trkpt>
      <trkpt lat="45.29871" lon="6.09256">
        <ele>1370.1999511719</ele>
        <time>2023-08-10T10:02:33.000Z</time>
      </trkpt>
      <trkpt lat="45.2987" lon="6.09258">
        <ele>1370</ele>
        <time>2023-08-10T10:02:35.000Z</time>
      </trkpt>
      <trkpt lat="45.29867" lon="6.09265">
        <ele>1369.4000244141</ele>
        <time>2023-08-10T10:02:39.000Z</time>
      </trkpt>
      <trkpt lat="45.29867" lon="6.09266">
        <ele>1369.1999511719</ele>
        <time>2023-08-10T10:02:40.000Z</time>
      </trkpt>
      <trkpt lat="45.29865" lon="6.09268">
        <ele>1368.5999755859</ele>
        <time>2023-08-10T10:02:42.000Z</time>
      </trkpt>
      <trkpt lat="45.29863" lon="6.09271">
        <ele>1368.1999511719</ele>
        <time>2023-08-10T10:02:44.000Z</time>
      </trkpt>
      <trkpt lat="45.29862" lon="6.09273">
        <ele>1367.5999755859</ele>
        <time>2023-08-10T10:02:46.000Z</time>
      </trkpt>
      <trkpt lat="45.29862" lon="6.09274">
        <ele>1367</ele>
        <time>2023-08-10T10:02:49.000Z</time>
      </trkpt>
      <trkpt lat="45.29863" lon="6.09273">
        <ele>1366.4000244141</ele>
        <time>2023-08-10T10:02:51.000Z</time>
      </trkpt>
      <trkpt lat="45.29861" lon="6.09275">
        <ele>1365.8000488281</ele>
        <time>2023-08-10T10:02:54.000Z</time>
      </trkpt>
      <trkpt lat="45.2986" lon="6.09277">
        <ele>1365.5999755859</ele>
        <time>2023-08-10T10:02:55.000Z</time>
      </trkpt>
      <trkpt lat="45.29858" lon="6.09279">
        <ele>1365.1999511719</ele>
        <time>2023-08-10T10:02:57.000Z</time>
      </trkpt>
      <trkpt lat="45.29855" lon="6.09283">
        <ele>1364.4000244141</ele>
        <time>2023-08-10T10:03:00.000Z</time>
      </trkpt>
      <trkpt lat="45.29852" lon="6.09284">
        <ele>1363.8000488281</ele>
        <time>2023-08-10T10:03:03.000Z</time>
      </trkpt>
      <trkpt lat="45.29852" lon="6.09282">
        <ele>1363.4000244141</ele>
        <time>2023-08-10T10:03:05.000Z</time>
      </trkpt>
      <trkpt lat="45.29853" lon="6.09279">
        <ele>1362.8000488281</ele>
        <time>2023-08-10T10:03:07.000Z</time>
      </trkpt>
      <trkpt lat="45.29853" lon="6.09276">
        <ele>1362</ele>
        <time>2023-08-10T10:03:11.000Z</time>
      </trkpt>
      <trkpt lat="45.29853" lon="6.09276">
        <ele>1361.5999755859</ele>
        <time>2023-08-10T10:03:13.000Z</time>
      </trkpt>
      <trkpt lat="45.29853" lon="6.0927">
        <ele>1360.8000488281</ele>
        <time>2023-08-10T10:03:18.000Z</time>
      </trkpt>
      <trkpt lat="45.29852" lon="6.09268">
        <ele>1360.5999755859</ele>
        <time>2023-08-10T10:03:20.000Z</time>
      </trkpt>
      <trkpt lat="45.2985" lon="6.0925">
        <ele>1359.5999755859</ele>
        <time>2023-08-10T10:03:27.000Z</time>
      </trkpt>
      <trkpt lat="45.29849" lon="6.09248">
        <ele>1359.4000244141</ele>
        <time>2023-08-10T10:03:28.000Z</time>
      </trkpt>
      <trkpt lat="45.29848" lon="6.09237">
        <ele>1358.1999511719</ele>
        <time>2023-08-10T10:03:35.000Z</time>
      </trkpt>
      <trkpt lat="45.29848" lon="6.09236">
        <ele>1358.1999511719</ele>
        <time>2023-08-10T10:03:36.000Z</time>
      </trkpt>
      <trkpt lat="45.29848" lon="6.09229">
        <ele>1357.1999511719</ele>
        <time>2023-08-10T10:03:40.000Z</time>
      </trkpt>
      <trkpt lat="45.29848" lon="6.09223">
        <ele>1356.5999755859</ele>
        <time>2023-08-10T10:03:45.000Z</time>
      </trkpt>
      <trkpt lat="45.29849" lon="6.09216">
        <ele>1356.1999511719</ele>
        <time>2023-08-10T10:03:50.000Z</time>
      </trkpt>
      <trkpt lat="45.2985" lon="6.0921">
        <ele>1355.5999755859</ele>
        <time>2023-08-10T10:03:53.000Z</time>
      </trkpt>
      <trkpt lat="45.29849" lon="6.09202">
        <ele>1355</ele>
        <time>2023-08-10T10:03:58.000Z</time>
      </trkpt>
      <trkpt lat="45.29851" lon="6.09193">
        <ele>1354.4000244141</ele>
        <time>2023-08-10T10:04:03.000Z</time>
      </trkpt>
      <trkpt lat="45.29852" lon="6.0919">
        <ele>1353.8000488281</ele>
        <time>2023-08-10T10:04:05.000Z</time>
      </trkpt>
      <trkpt lat="45.29853" lon="6.09188">
        <ele>1352.5999755859</ele>
        <time>2023-08-10T10:04:09.000Z</time>
      </trkpt>
      <trkpt lat="45.29853" lon="6.09187">
        <ele>1352.1999511719</ele>
        <time>2023-08-10T10:04:11.000Z</time>
      </trkpt>
      <trkpt lat="45.29853" lon="6.09184">
        <ele>1351.4000244141</ele>
        <time>2023-08-10T10:04:14.000Z</time>
      </trkpt>
      <trkpt lat="45.29854" lon="6.09178">
        <ele>1350.1999511719</ele>
        <time>2023-08-10T10:04:18.000Z</time>
      </trkpt>
      <trkpt lat="45.29854" lon="6.09176">
        <ele>1349.8000488281</ele>
        <time>2023-08-10T10:04:19.000Z</time>
      </trkpt>
      <trkpt lat="45.29855" lon="6.09172">
        <ele>1349.1999511719</ele>
        <time>2023-08-10T10:04:21.000Z</time>
      </trkpt>
      <trkpt lat="45.29854" lon="6.09167">
        <ele>1348.1999511719</ele>
        <time>2023-08-10T10:04:25.000Z</time>
      </trkpt>
      <trkpt lat="45.29854" lon="6.09166">
        <ele>1347.8000488281</ele>
        <time>2023-08-10T10:04:26.000Z</time>
      </trkpt>
      <trkpt lat="45.29853" lon="6.09166">
        <ele>1347</ele>
        <time>2023-08-10T10:04:29.000Z</time>
      </trkpt>
      <trkpt lat="45.29851" lon="6.09164">
        <ele>1345.8000488281</ele>
        <time>2023-08-10T10:04:33.000Z</time>
      </trkpt>
      <trkpt lat="45.2985" lon="6.09158">
        <ele>1345.1999511719</ele>
        <time>2023-08-10T10:04:35.000Z</time>
      </trkpt>
      <trkpt lat="45.29851" lon="6.09154">
        <ele>1344.8000488281</ele>
        <time>2023-08-10T10:04:37.000Z</time>
      </trkpt>
      <trkpt lat="45.29848" lon="6.09142">
        <ele>1343.5999755859</ele>
        <time>2023-08-10T10:04:42.000Z</time>
      </trkpt>
      <trkpt lat="45.29848" lon="6.09139">
        <ele>1343.5999755859</ele>
        <time>2023-08-10T10:04:43.000Z</time>
      </trkpt>
      <trkpt lat="45.29848" lon="6.09132">
        <ele>1342.4000244141</ele>
        <time>2023-08-10T10:04:48.000Z</time>
      </trkpt>
      <trkpt lat="45.29848" lon="6.09124">
        <ele>1341.4000244141</ele>
        <time>2023-08-10T10:04:53.000Z</time>
      </trkpt>
      <trkpt lat="45.29848" lon="6.09119">
        <ele>1340.1999511719</ele>
        <time>2023-08-10T10:04:57.000Z</time>
      </trkpt>
      <trkpt lat="45.29847" lon="6.09119">
        <ele>1339.8000488281</ele>
        <time>2023-08-10T10:04:59.000Z</time>
      </trkpt>
      <trkpt lat="45.29844" lon="6.09122">
        <ele>1339</ele>
        <time>2023-08-10T10:05:03.000Z</time>
      </trkpt>
      <trkpt lat="45.29842" lon="6.09125">
        <ele>1338.5999755859</ele>
        <time>2023-08-10T10:05:06.000Z</time>
      </trkpt>
      <trkpt lat="45.29842" lon="6.09126">
        <ele>1337.8000488281</ele>
        <time>2023-08-10T10:05:09.000Z</time>
      </trkpt>
      <trkpt lat="45.2984" lon="6.09128">
        <ele>1337.1999511719</ele>
        <time>2023-08-10T10:05:12.000Z</time>
      </trkpt>
      <trkpt lat="45.29838" lon="6.09129">
        <ele>1336.5999755859</ele>
        <time>2023-08-10T10:05:14.000Z</time>
      </trkpt>
      <trkpt lat="45.29834" lon="6.09128">
        <ele>1335.5999755859</ele>
        <time>2023-08-10T10:05:19.000Z</time>
      </trkpt>
      <trkpt lat="45.29833" lon="6.09122">
        <ele>1334.5999755859</ele>
        <time>2023-08-10T10:05:25.000Z</time>
      </trkpt>
      <trkpt lat="45.29833" lon="6.0912">
        <ele>1334.4000244141</ele>
        <time>2023-08-10T10:05:26.000Z</time>
      </trkpt>
      <trkpt lat="45.29837" lon="6.09108">
        <ele>1333.4000244141</ele>
        <time>2023-08-10T10:05:35.000Z</time>
      </trkpt>
      <trkpt lat="45.29837" lon="6.09102">
        <ele>1332.4000244141</ele>
        <time>2023-08-10T10:05:40.000Z</time>
      </trkpt>
      <trkpt lat="45.29835" lon="6.09103">
        <ele>1332.1999511719</ele>
        <time>2023-08-10T10:05:41.000Z</time>
      </trkpt>
      <trkpt lat="45.29833" lon="6.09103">
        <ele>1332</ele>
        <time>2023-08-10T10:05:43.000Z</time>
      </trkpt>
      <trkpt lat="45.29834" lon="6.09103">
        <ele>1331.8000488281</ele>
        <time>2023-08-10T10:05:50.000Z</time>
      </trkpt>
      <trkpt lat="45.29834" lon="6.09104">
        <ele>1331.8000488281</ele>
        <time>2023-08-10T10:05:51.000Z</time>
      </trkpt>
      <trkpt lat="45.29835" lon="6.09103">
        <ele>1331.8000488281</ele>
        <time>2023-08-10T10:06:02.000Z</time>
      </trkpt>
      <trkpt lat="45.29831" lon="6.09107">
        <ele>1331.5999755859</ele>
        <time>2023-08-10T10:06:10.000Z</time>
      </trkpt>
      <trkpt lat="45.2983" lon="6.09111">
        <ele>1331.1999511719</ele>
        <time>2023-08-10T10:06:12.000Z</time>
      </trkpt>
      <trkpt lat="45.29823" lon="6.09122">
        <ele>1330.1999511719</ele>
        <time>2023-08-10T10:06:18.000Z</time>
      </trkpt>
      <trkpt lat="45.29822" lon="6.09121">
        <ele>1329.8000488281</ele>
        <time>2023-08-10T10:06:20.000Z</time>
      </trkpt>
      <trkpt lat="45.29822" lon="6.09117">
        <ele>1329.1999511719</ele>
        <time>2023-08-10T10:06:23.000Z</time>
      </trkpt>
      <trkpt lat="45.29822" lon="6.09116">
        <ele>1329.1999511719</ele>
        <time>2023-08-10T10:06:24.000Z</time>
      </trkpt>
      <trkpt lat="45.29822" lon="6.09113">
        <ele>1328.1999511719</ele>
        <time>2023-08-10T10:06:28.000Z</time>
      </trkpt>
      <trkpt lat="45.29822" lon="6.09108">
        <ele>1327.4000244141</ele>
        <time>2023-08-10T10:06:31.000Z</time>
      </trkpt>
      <trkpt lat="45.29823" lon="6.09107">
        <ele>1327.1999511719</ele>
        <time>2023-08-10T10:06:32.000Z</time>
      </trkpt>
      <trkpt lat="45.29823" lon="6.091">
        <ele>1326</ele>
        <time>2023-08-10T10:06:40.000Z</time>
      </trkpt>
      <trkpt lat="45.29822" lon="6.09095">
        <ele>1324.8000488281</ele>
        <time>2023-08-10T10:06:48.000Z</time>
      </trkpt>
      <trkpt lat="45.29822" lon="6.09093">
        <ele>1324.4000244141</ele>
        <time>2023-08-10T10:06:50.000Z</time>
      </trkpt>
      <trkpt lat="45.29821" lon="6.09091">
        <ele>1323.8000488281</ele>
        <time>2023-08-10T10:06:52.000Z</time>
      </trkpt>
      <trkpt lat="45.29818" lon="6.09089">
        <ele>1322.4000244141</ele>
        <time>2023-08-10T10:06:56.000Z</time>
      </trkpt>
      <trkpt lat="45.29817" lon="6.09085">
        <ele>1321.8000488281</ele>
        <time>2023-08-10T10:06:58.000Z</time>
      </trkpt>
      <trkpt lat="45.29817" lon="6.09081">
        <ele>1321.1999511719</ele>
        <time>2023-08-10T10:07:00.000Z</time>
      </trkpt>
      <trkpt lat="45.29815" lon="6.09077">
        <ele>1320.1999511719</ele>
        <time>2023-08-10T10:07:04.000Z</time>
      </trkpt>
      <trkpt lat="45.29813" lon="6.09076">
        <ele>1320</ele>
        <time>2023-08-10T10:07:06.000Z</time>
      </trkpt>
      <trkpt lat="45.29812" lon="6.09078">
        <ele>1319.5999755859</ele>
        <time>2023-08-10T10:07:08.000Z</time>
      </trkpt>
      <trkpt lat="45.29808" lon="6.09076">
        <ele>1319</ele>
        <time>2023-08-10T10:07:12.000Z</time>
      </trkpt>
      <trkpt lat="45.29805" lon="6.09072">
        <ele>1318</ele>
        <time>2023-08-10T10:07:17.000Z</time>
      </trkpt>
      <trkpt lat="45.29804" lon="6.09067">
        <ele>1317</ele>
        <time>2023-08-10T10:07:21.000Z</time>
      </trkpt>
      <trkpt lat="45.29804" lon="6.09066">
        <ele>1316.8000488281</ele>
        <time>2023-08-10T10:07:22.000Z</time>
      </trkpt>
      <trkpt lat="45.29804" lon="6.09056">
        <ele>1315.8000488281</ele>
        <time>2023-08-10T10:07:28.000Z</time>
      </trkpt>
      <trkpt lat="45.29804" lon="6.09054">
        <ele>1315.1999511719</ele>
        <time>2023-08-10T10:07:31.000Z</time>
      </trkpt>
      <trkpt lat="45.29801" lon="6.0905">
        <ele>1314.5999755859</ele>
        <time>2023-08-10T10:07:37.000Z</time>
      </trkpt>
      <trkpt lat="45.29799" lon="6.09052">
        <ele>1313.5999755859</ele>
        <time>2023-08-10T10:07:42.000Z</time>
      </trkpt>
      <trkpt lat="45.29798" lon="6.09052">
        <ele>1313.1999511719</ele>
        <time>2023-08-10T10:07:43.000Z</time>
      </trkpt>
      <trkpt lat="45.29797" lon="6.09052">
        <ele>1312.8000488281</ele>
        <time>2023-08-10T10:07:45.000Z</time>
      </trkpt>
      <trkpt lat="45.29793" lon="6.09054">
        <ele>1311.4000244141</ele>
        <time>2023-08-10T10:07:51.000Z</time>
      </trkpt>
      <trkpt lat="45.29793" lon="6.09054">
        <ele>1311.1999511719</ele>
        <time>2023-08-10T10:07:52.000Z</time>
      </trkpt>
      <trkpt lat="45.29785" lon="6.0906">
        <ele>1310.1999511719</ele>
        <time>2023-08-10T10:07:57.000Z</time>
      </trkpt>
      <trkpt lat="45.29785" lon="6.09063">
        <ele>1310.1999511719</ele>
        <time>2023-08-10T10:07:59.000Z</time>
      </trkpt>
      <trkpt lat="45.29785" lon="6.09073">
        <ele>1310.4000244141</ele>
        <time>2023-08-10T10:08:08.000Z</time>
      </trkpt>
      <trkpt lat="45.29784" lon="6.09081">
        <ele>1309.5999755859</ele>
        <time>2023-08-10T10:08:15.000Z</time>
      </trkpt>
      <trkpt lat="45.29783" lon="6.09081">
        <ele>1309.4000244141</ele>
        <time>2023-08-10T10:08:16.000Z</time>
      </trkpt>
      <trkpt lat="45.29783" lon="6.09082">
        <ele>1309</ele>
        <time>2023-08-10T10:08:17.000Z</time>
      </trkpt>
      <trkpt lat="45.29775" lon="6.09093">
        <ele>1305</ele>
        <time>2023-08-10T10:08:36.000Z</time>
      </trkpt>
      <trkpt lat="45.29772" lon="6.09094">
        <ele>1304.4000244141</ele>
        <time>2023-08-10T10:08:38.000Z</time>
      </trkpt>
      <trkpt lat="45.29771" lon="6.09095">
        <ele>1304</ele>
        <time>2023-08-10T10:08:40.000Z</time>
      </trkpt>
      <trkpt lat="45.29765" lon="6.09097">
        <ele>1303.4000244141</ele>
        <time>2023-08-10T10:08:44.000Z</time>
      </trkpt>
      <trkpt lat="45.29762" lon="6.09099">
        <ele>1302.8000488281</ele>
        <time>2023-08-10T10:08:48.000Z</time>
      </trkpt>
      <trkpt lat="45.29759" lon="6.09102">
        <ele>1302.1999511719</ele>
        <time>2023-08-10T10:08:52.000Z</time>
      </trkpt>
      <trkpt lat="45.29755" lon="6.09104">
        <ele>1302</ele>
        <time>2023-08-10T10:08:55.000Z</time>
      </trkpt>
      <trkpt lat="45.29752" lon="6.09109">
        <ele>1301.1999511719</ele>
        <time>2023-08-10T10:09:02.000Z</time>
      </trkpt>
      <trkpt lat="45.29751" lon="6.0911">
        <ele>1301</ele>
        <time>2023-08-10T10:09:03.000Z</time>
      </trkpt>
      <trkpt lat="45.29748" lon="6.09113">
        <ele>1300.1999511719</ele>
        <time>2023-08-10T10:09:07.000Z</time>
      </trkpt>
      <trkpt lat="45.29748" lon="6.09112">
        <ele>1299.8000488281</ele>
        <time>2023-08-10T10:09:08.000Z</time>
      </trkpt>
      <trkpt lat="45.29747" lon="6.09112">
        <ele>1298.8000488281</ele>
        <time>2023-08-10T10:09:13.000Z</time>
      </trkpt>
      <trkpt lat="45.29746" lon="6.09113">
        <ele>1298.1999511719</ele>
        <time>2023-08-10T10:09:16.000Z</time>
      </trkpt>
      <trkpt lat="45.29744" lon="6.09115">
        <ele>1297.5999755859</ele>
        <time>2023-08-10T10:09:18.000Z</time>
      </trkpt>
      <trkpt lat="45.29742" lon="6.09117">
        <ele>1297</ele>
        <time>2023-08-10T10:09:20.000Z</time>
      </trkpt>
      <trkpt lat="45.29739" lon="6.09119">
        <ele>1296.5999755859</ele>
        <time>2023-08-10T10:09:22.000Z</time>
      </trkpt>
      <trkpt lat="45.29736" lon="6.09121">
        <ele>1296.4000244141</ele>
        <time>2023-08-10T10:09:23.000Z</time>
      </trkpt>
      <trkpt lat="45.29731" lon="6.09123">
        <ele>1295.4000244141</ele>
        <time>2023-08-10T10:09:28.000Z</time>
      </trkpt>
      <trkpt lat="45.2973" lon="6.09122">
        <ele>1295.4000244141</ele>
        <time>2023-08-10T10:09:29.000Z</time>
      </trkpt>
      <trkpt lat="45.29725" lon="6.09121">
        <ele>1294.8000488281</ele>
        <time>2023-08-10T10:09:36.000Z</time>
      </trkpt>
      <trkpt lat="45.29725" lon="6.09121">
        <ele>1294.5999755859</ele>
        <time>2023-08-10T10:09:37.000Z</time>
      </trkpt>
      <trkpt lat="45.29724" lon="6.0912">
        <ele>1294.4000244141</ele>
        <time>2023-08-10T10:09:39.000Z</time>
      </trkpt>
      <trkpt lat="45.29723" lon="6.09119">
        <ele>1294.1999511719</ele>
        <time>2023-08-10T10:09:40.000Z</time>
      </trkpt>
      <trkpt lat="45.29718" lon="6.09115">
        <ele>1293.1999511719</ele>
        <time>2023-08-10T10:09:45.000Z</time>
      </trkpt>
      <trkpt lat="45.29714" lon="6.09113">
        <ele>1292.1999511719</ele>
        <time>2023-08-10T10:09:50.000Z</time>
      </trkpt>
      <trkpt lat="45.29713" lon="6.09112">
        <ele>1292.1999511719</ele>
        <time>2023-08-10T10:09:51.000Z</time>
      </trkpt>
      <trkpt lat="45.29707" lon="6.0911">
        <ele>1291.4000244141</ele>
        <time>2023-08-10T10:09:58.000Z</time>
      </trkpt>
      <trkpt lat="45.29707" lon="6.09109">
        <ele>1291.1999511719</ele>
        <time>2023-08-10T10:09:59.000Z</time>
      </trkpt>
      <trkpt lat="45.29698" lon="6.09116">
        <ele>1288.5999755859</ele>
        <time>2023-08-10T10:10:13.000Z</time>
      </trkpt>
      <trkpt lat="45.29698" lon="6.09116">
        <ele>1288.1999511719</ele>
        <time>2023-08-10T10:10:15.000Z</time>
      </trkpt>
      <trkpt lat="45.29697" lon="6.0912">
        <ele>1285.1999511719</ele>
        <time>2023-08-10T10:10:29.000Z</time>
      </trkpt>
      <trkpt lat="45.29695" lon="6.09126">
        <ele>1284.5999755859</ele>
        <time>2023-08-10T10:10:33.000Z</time>
      </trkpt>
      <trkpt lat="45.29695" lon="6.09125">
        <ele>1284.1999511719</ele>
        <time>2023-08-10T10:10:38.000Z</time>
      </trkpt>
      <trkpt lat="45.29695" lon="6.09125">
        <ele>1284.1999511719</ele>
        <time>2023-08-10T10:10:39.000Z</time>
      </trkpt>
      <trkpt lat="45.29696" lon="6.09125">
        <ele>1284.1999511719</ele>
        <time>2023-08-10T10:10:41.000Z</time>
      </trkpt>
      <trkpt lat="45.297" lon="6.09131">
        <ele>1283.8000488281</ele>
        <time>2023-08-10T10:11:05.000Z</time>
      </trkpt>
      <trkpt lat="45.29703" lon="6.09143">
        <ele>1283.4000244141</ele>
        <time>2023-08-10T10:11:12.000Z</time>
      </trkpt>
      <trkpt lat="45.29703" lon="6.09146">
        <ele>1283.1999511719</ele>
        <time>2023-08-10T10:11:13.000Z</time>
      </trkpt>
      <trkpt lat="45.29705" lon="6.09162">
        <ele>1282.5999755859</ele>
        <time>2023-08-10T10:11:21.000Z</time>
      </trkpt>
      <trkpt lat="45.29701" lon="6.09168">
        <ele>1282.5999755859</ele>
        <time>2023-08-10T10:11:24.000Z</time>
      </trkpt>
      <trkpt lat="45.29699" lon="6.09168">
        <ele>1282.1999511719</ele>
        <time>2023-08-10T10:11:26.000Z</time>
      </trkpt>
      <trkpt lat="45.297" lon="6.09167">
        <ele>1282.1999511719</ele>
        <time>2023-08-10T10:11:27.000Z</time>
      </trkpt>
      <trkpt lat="45.29695" lon="6.09166">
        <ele>1282.1999511719</ele>
        <time>2023-08-10T10:11:28.000Z</time>
      </trkpt>
      <trkpt lat="45.29686" lon="6.09156">
        <ele>1281.1999511719</ele>
        <time>2023-08-10T10:11:34.000Z</time>
      </trkpt>
      <trkpt lat="45.29686" lon="6.09155">
        <ele>1281</ele>
        <time>2023-08-10T10:11:35.000Z</time>
      </trkpt>
      <trkpt lat="45.29683" lon="6.09145">
        <ele>1279.8000488281</ele>
        <time>2023-08-10T10:11:40.000Z</time>
      </trkpt>
      <trkpt lat="45.29683" lon="6.09143">
        <ele>1279.5999755859</ele>
        <time>2023-08-10T10:11:41.000Z</time>
      </trkpt>
      <trkpt lat="45.2968" lon="6.09136">
        <ele>1278.8000488281</ele>
        <time>2023-08-10T10:11:46.000Z</time>
      </trkpt>
      <trkpt lat="45.29679" lon="6.0913">
        <ele>1278.4000244141</ele>
        <time>2023-08-10T10:11:49.000Z</time>
      </trkpt>
      <trkpt lat="45.29678" lon="6.09122">
        <ele>1277.5999755859</ele>
        <time>2023-08-10T10:11:53.000Z</time>
      </trkpt>
      <trkpt lat="45.29678" lon="6.09116">
        <ele>1277</ele>
        <time>2023-08-10T10:11:57.000Z</time>
      </trkpt>
      <trkpt lat="45.29678" lon="6.09113">
        <ele>1276.5999755859</ele>
        <time>2023-08-10T10:11:58.000Z</time>
      </trkpt>
      <trkpt lat="45.29676" lon="6.09101">
        <ele>1276.1999511719</ele>
        <time>2023-08-10T10:12:04.000Z</time>
      </trkpt>
      <trkpt lat="45.29675" lon="6.09094">
        <ele>1275.5999755859</ele>
        <time>2023-08-10T10:12:08.000Z</time>
      </trkpt>
      <trkpt lat="45.29675" lon="6.09088">
        <ele>1275</ele>
        <time>2023-08-10T10:12:12.000Z</time>
      </trkpt>
      <trkpt lat="45.29675" lon="6.09084">
        <ele>1274.4000244141</ele>
        <time>2023-08-10T10:12:17.000Z</time>
      </trkpt>
      <trkpt lat="45.29674" lon="6.09081">
        <ele>1273.8000488281</ele>
        <time>2023-08-10T10:12:21.000Z</time>
      </trkpt>
      <trkpt lat="45.29671" lon="6.09083">
        <ele>1273.8000488281</ele>
        <time>2023-08-10T10:12:27.000Z</time>
      </trkpt>
      <trkpt lat="45.2967" lon="6.09085">
        <ele>1273.8000488281</ele>
        <time>2023-08-10T10:12:29.000Z</time>
      </trkpt>
      <trkpt lat="45.29673" lon="6.0908">
        <ele>1273.8000488281</ele>
        <time>2023-08-10T10:12:37.000Z</time>
      </trkpt>
      <trkpt lat="45.29675" lon="6.09079">
        <ele>1273.8000488281</ele>
        <time>2023-08-10T10:12:44.000Z</time>
      </trkpt>
      <trkpt lat="45.29672" lon="6.09075">
        <ele>1273.8000488281</ele>
        <time>2023-08-10T10:12:59.000Z</time>
      </trkpt>
      <trkpt lat="45.29671" lon="6.09075">
        <ele>1273.8000488281</ele>
        <time>2023-08-10T10:13:07.000Z</time>
      </trkpt>
      <trkpt lat="45.29669" lon="6.0908">
        <ele>1273.8000488281</ele>
        <time>2023-08-10T10:13:14.000Z</time>
      </trkpt>
      <trkpt lat="45.29666" lon="6.09089">
        <ele>1273.1999511719</ele>
        <time>2023-08-10T10:13:19.000Z</time>
      </trkpt>
      <trkpt lat="45.29664" lon="6.09091">
        <ele>1272.8000488281</ele>
        <time>2023-08-10T10:13:21.000Z</time>
      </trkpt>
      <trkpt lat="45.29663" lon="6.0909">
        <ele>1272.1999511719</ele>
        <time>2023-08-10T10:13:23.000Z</time>
      </trkpt>
      <trkpt lat="45.29663" lon="6.09084">
        <ele>1271.1999511719</ele>
        <time>2023-08-10T10:13:27.000Z</time>
      </trkpt>
      <trkpt lat="45.29661" lon="6.0908">
        <ele>1270</ele>
        <time>2023-08-10T10:13:31.000Z</time>
      </trkpt>
      <trkpt lat="45.2966" lon="6.0908">
        <ele>1269.1999511719</ele>
        <time>2023-08-10T10:13:34.000Z</time>
      </trkpt>
      <trkpt lat="45.29659" lon="6.09078">
        <ele>1268.8000488281</ele>
        <time>2023-08-10T10:13:35.000Z</time>
      </trkpt>
      <trkpt lat="45.29657" lon="6.09071">
        <ele>1267.8000488281</ele>
        <time>2023-08-10T10:13:39.000Z</time>
      </trkpt>
      <trkpt lat="45.29657" lon="6.09069">
        <ele>1267</ele>
        <time>2023-08-10T10:13:41.000Z</time>
      </trkpt>
      <trkpt lat="45.29657" lon="6.09067">
        <ele>1266.5999755859</ele>
        <time>2023-08-10T10:13:43.000Z</time>
      </trkpt>
      <trkpt lat="45.29656" lon="6.09058">
        <ele>1265.4000244141</ele>
        <time>2023-08-10T10:13:49.000Z</time>
      </trkpt>
      <trkpt lat="45.29655" lon="6.09057">
        <ele>1265.1999511719</ele>
        <time>2023-08-10T10:13:50.000Z</time>
      </trkpt>
      <trkpt lat="45.29654" lon="6.09056">
        <ele>1264.1999511719</ele>
        <time>2023-08-10T10:13:53.000Z</time>
      </trkpt>
      <trkpt lat="45.29653" lon="6.09053">
        <ele>1263.1999511719</ele>
        <time>2023-08-10T10:13:57.000Z</time>
      </trkpt>
      <trkpt lat="45.29652" lon="6.09049">
        <ele>1262</ele>
        <time>2023-08-10T10:14:01.000Z</time>
      </trkpt>
      <trkpt lat="45.29649" lon="6.09045">
        <ele>1261</ele>
        <time>2023-08-10T10:14:05.000Z</time>
      </trkpt>
      <trkpt lat="45.29646" lon="6.09039">
        <ele>1259.8000488281</ele>
        <time>2023-08-10T10:14:10.000Z</time>
      </trkpt>
      <trkpt lat="45.29644" lon="6.09037">
        <ele>1259.1999511719</ele>
        <time>2023-08-10T10:14:13.000Z</time>
      </trkpt>
      <trkpt lat="45.29644" lon="6.09035">
        <ele>1258.5999755859</ele>
        <time>2023-08-10T10:14:15.000Z</time>
      </trkpt>
      <trkpt lat="45.29641" lon="6.09028">
        <ele>1257.4000244141</ele>
        <time>2023-08-10T10:14:20.000Z</time>
      </trkpt>
      <trkpt lat="45.29641" lon="6.09026">
        <ele>1257.1999511719</ele>
        <time>2023-08-10T10:14:21.000Z</time>
      </trkpt>
      <trkpt lat="45.2964" lon="6.09024">
        <ele>1256.4000244141</ele>
        <time>2023-08-10T10:14:24.000Z</time>
      </trkpt>
      <trkpt lat="45.2964" lon="6.0902">
        <ele>1255.1999511719</ele>
        <time>2023-08-10T10:14:29.000Z</time>
      </trkpt>
      <trkpt lat="45.29639" lon="6.09015">
        <ele>1254.1999511719</ele>
        <time>2023-08-10T10:14:34.000Z</time>
      </trkpt>
      <trkpt lat="45.29638" lon="6.09012">
        <ele>1253.4000244141</ele>
        <time>2023-08-10T10:14:37.000Z</time>
      </trkpt>
      <trkpt lat="45.29637" lon="6.09009">
        <ele>1253</ele>
        <time>2023-08-10T10:14:39.000Z</time>
      </trkpt>
      <trkpt lat="45.29637" lon="6.09012">
        <ele>1252</ele>
        <time>2023-08-10T10:14:43.000Z</time>
      </trkpt>
      <trkpt lat="45.29637" lon="6.09013">
        <ele>1251.8000488281</ele>
        <time>2023-08-10T10:14:44.000Z</time>
      </trkpt>
      <trkpt lat="45.29638" lon="6.09015">
        <ele>1251.8000488281</ele>
        <time>2023-08-10T10:14:45.000Z</time>
      </trkpt>
      <trkpt lat="45.2964" lon="6.09016">
        <ele>1251.8000488281</ele>
        <time>2023-08-10T10:14:51.000Z</time>
      </trkpt>
      <trkpt lat="45.29641" lon="6.09013">
        <ele>1251.8000488281</ele>
        <time>2023-08-10T10:14:58.000Z</time>
      </trkpt>
      <trkpt lat="45.29637" lon="6.09007">
        <ele>1251.8000488281</ele>
        <time>2023-08-10T10:15:04.000Z</time>
      </trkpt>
      <trkpt lat="45.29634" lon="6.09003">
        <ele>1250.8000488281</ele>
        <time>2023-08-10T10:15:09.000Z</time>
      </trkpt>
      <trkpt lat="45.29634" lon="6.09002">
        <ele>1250.1999511719</ele>
        <time>2023-08-10T10:15:12.000Z</time>
      </trkpt>
      <trkpt lat="45.29633" lon="6.09001">
        <ele>1249.5999755859</ele>
        <time>2023-08-10T10:15:14.000Z</time>
      </trkpt>
      <trkpt lat="45.29632" lon="6.08998">
        <ele>1248.5999755859</ele>
        <time>2023-08-10T10:15:18.000Z</time>
      </trkpt>
      <trkpt lat="45.29631" lon="6.08994">
        <ele>1247.5999755859</ele>
        <time>2023-08-10T10:15:21.000Z</time>
      </trkpt>
      <trkpt lat="45.29631" lon="6.08993">
        <ele>1247.4000244141</ele>
        <time>2023-08-10T10:15:22.000Z</time>
      </trkpt>
      <trkpt lat="45.2963" lon="6.08984">
        <ele>1246.4000244141</ele>
        <time>2023-08-10T10:15:28.000Z</time>
      </trkpt>
      <trkpt lat="45.29628" lon="6.08982">
        <ele>1246</ele>
        <time>2023-08-10T10:15:30.000Z</time>
      </trkpt>
      <trkpt lat="45.29623" lon="6.08981">
        <ele>1245.4000244141</ele>
        <time>2023-08-10T10:15:34.000Z</time>
      </trkpt>
      <trkpt lat="45.29621" lon="6.0898">
        <ele>1244.5999755859</ele>
        <time>2023-08-10T10:15:38.000Z</time>
      </trkpt>
      <trkpt lat="45.2962" lon="6.0898">
        <ele>1244.4000244141</ele>
        <time>2023-08-10T10:15:39.000Z</time>
      </trkpt>
      <trkpt lat="45.29614" lon="6.08981">
        <ele>1243.1999511719</ele>
        <time>2023-08-10T10:15:44.000Z</time>
      </trkpt>
      <trkpt lat="45.29612" lon="6.08977">
        <ele>1242.5999755859</ele>
        <time>2023-08-10T10:15:47.000Z</time>
      </trkpt>
      <trkpt lat="45.2961" lon="6.08976">
        <ele>1242</ele>
        <time>2023-08-10T10:15:49.000Z</time>
      </trkpt>
      <trkpt lat="45.29607" lon="6.08973">
        <ele>1240.8000488281</ele>
        <time>2023-08-10T10:15:54.000Z</time>
      </trkpt>
      <trkpt lat="45.29603" lon="6.08972">
        <ele>1239.5999755859</ele>
        <time>2023-08-10T10:15:59.000Z</time>
      </trkpt>
      <trkpt lat="45.29601" lon="6.08971">
        <ele>1239.1999511719</ele>
        <time>2023-08-10T10:16:01.000Z</time>
      </trkpt>
      <trkpt lat="45.29599" lon="6.0897">
        <ele>1238.4000244141</ele>
        <time>2023-08-10T10:16:04.000Z</time>
      </trkpt>
      <trkpt lat="45.29598" lon="6.0897">
        <ele>1237.5999755859</ele>
        <time>2023-08-10T10:16:07.000Z</time>
      </trkpt>
      <trkpt lat="45.29597" lon="6.0897">
        <ele>1237.4000244141</ele>
        <time>2023-08-10T10:16:08.000Z</time>
      </trkpt>
      <trkpt lat="45.29595" lon="6.08968">
        <ele>1236.4000244141</ele>
        <time>2023-08-10T10:16:13.000Z</time>
      </trkpt>
      <trkpt lat="45.29594" lon="6.08968">
        <ele>1236</ele>
        <time>2023-08-10T10:16:14.000Z</time>
      </trkpt>
      <trkpt lat="45.29593" lon="6.08966">
        <ele>1235.1999511719</ele>
        <time>2023-08-10T10:16:17.000Z</time>
      </trkpt>
      <trkpt lat="45.2959" lon="6.08964">
        <ele>1234.1999511719</ele>
        <time>2023-08-10T10:16:21.000Z</time>
      </trkpt>
      <trkpt lat="45.2959" lon="6.08964">
        <ele>1233.8000488281</ele>
        <time>2023-08-10T10:16:22.000Z</time>
      </trkpt>
      <trkpt lat="45.2959" lon="6.08966">
        <ele>1233.4000244141</ele>
        <time>2023-08-10T10:16:24.000Z</time>
      </trkpt>
      <trkpt lat="45.29589" lon="6.08966">
        <ele>1233</ele>
        <time>2023-08-10T10:16:25.000Z</time>
      </trkpt>
      <trkpt lat="45.29588" lon="6.08969">
        <ele>1232.4000244141</ele>
        <time>2023-08-10T10:16:28.000Z</time>
      </trkpt>
      <trkpt lat="45.29585" lon="6.08969">
        <ele>1230.5999755859</ele>
        <time>2023-08-10T10:16:34.000Z</time>
      </trkpt>
      <trkpt lat="45.29582" lon="6.08971">
        <ele>1229.5999755859</ele>
        <time>2023-08-10T10:16:39.000Z</time>
      </trkpt>
      <trkpt lat="45.29582" lon="6.08973">
        <ele>1229</ele>
        <time>2023-08-10T10:16:41.000Z</time>
      </trkpt>
      <trkpt lat="45.29581" lon="6.08974">
        <ele>1228.4000244141</ele>
        <time>2023-08-10T10:16:43.000Z</time>
      </trkpt>
      <trkpt lat="45.2958" lon="6.08974">
        <ele>1228</ele>
        <time>2023-08-10T10:16:45.000Z</time>
      </trkpt>
      <trkpt lat="45.29575" lon="6.08972">
        <ele>1226.8000488281</ele>
        <time>2023-08-10T10:16:51.000Z</time>
      </trkpt>
      <trkpt lat="45.29574" lon="6.08971">
        <ele>1226.1999511719</ele>
        <time>2023-08-10T10:16:54.000Z</time>
      </trkpt>
      <trkpt lat="45.29573" lon="6.0897">
        <ele>1225.1999511719</ele>
        <time>2023-08-10T10:16:58.000Z</time>
      </trkpt>
      <trkpt lat="45.29573" lon="6.0897">
        <ele>1225</ele>
        <time>2023-08-10T10:16:59.000Z</time>
      </trkpt>
      <trkpt lat="45.29571" lon="6.08971">
        <ele>1223.8000488281</ele>
        <time>2023-08-10T10:17:03.000Z</time>
      </trkpt>
      <trkpt lat="45.29571" lon="6.08974">
        <ele>1223.4000244141</ele>
        <time>2023-08-10T10:17:05.000Z</time>
      </trkpt>
      <trkpt lat="45.2957" lon="6.08978">
        <ele>1222.8000488281</ele>
        <time>2023-08-10T10:17:08.000Z</time>
      </trkpt>
      <trkpt lat="45.29569" lon="6.08982">
        <ele>1222</ele>
        <time>2023-08-10T10:17:13.000Z</time>
      </trkpt>
      <trkpt lat="45.29568" lon="6.08982">
        <ele>1221.5999755859</ele>
        <time>2023-08-10T10:17:14.000Z</time>
      </trkpt>
      <trkpt lat="45.29565" lon="6.08984">
        <ele>1220.5999755859</ele>
        <time>2023-08-10T10:17:19.000Z</time>
      </trkpt>
      <trkpt lat="45.29565" lon="6.08984">
        <ele>1220.4000244141</ele>
        <time>2023-08-10T10:17:20.000Z</time>
      </trkpt>
      <trkpt lat="45.29565" lon="6.08983">
        <ele>1220</ele>
        <time>2023-08-10T10:17:21.000Z</time>
      </trkpt>
      <trkpt lat="45.29564" lon="6.08982">
        <ele>1219.5999755859</ele>
        <time>2023-08-10T10:17:23.000Z</time>
      </trkpt>
      <trkpt lat="45.29561" lon="6.08981">
        <ele>1218.4000244141</ele>
        <time>2023-08-10T10:17:28.000Z</time>
      </trkpt>
      <trkpt lat="45.2955" lon="6.08987">
        <ele>1214.5999755859</ele>
        <time>2023-08-10T10:17:44.000Z</time>
      </trkpt>
      <trkpt lat="45.2955" lon="6.08991">
        <ele>1213</ele>
        <time>2023-08-10T10:17:50.000Z</time>
      </trkpt>
      <trkpt lat="45.29549" lon="6.08997">
        <ele>1211.1999511719</ele>
        <time>2023-08-10T10:17:56.000Z</time>
      </trkpt>
      <trkpt lat="45.2955" lon="6.08995">
        <ele>1210.5999755859</ele>
        <time>2023-08-10T10:18:00.000Z</time>
      </trkpt>
      <trkpt lat="45.2955" lon="6.08994">
        <ele>1210.1999511719</ele>
        <time>2023-08-10T10:18:01.000Z</time>
      </trkpt>
      <trkpt lat="45.2955" lon="6.08992">
        <ele>1209.1999511719</ele>
        <time>2023-08-10T10:18:05.000Z</time>
      </trkpt>
      <trkpt lat="45.29548" lon="6.08989">
        <ele>1208.5999755859</ele>
        <time>2023-08-10T10:18:08.000Z</time>
      </trkpt>
      <trkpt lat="45.29546" lon="6.08988">
        <ele>1208.1999511719</ele>
        <time>2023-08-10T10:18:10.000Z</time>
      </trkpt>
      <trkpt lat="45.29543" lon="6.08987">
        <ele>1207</ele>
        <time>2023-08-10T10:18:15.000Z</time>
      </trkpt>
      <trkpt lat="45.29536" lon="6.08986">
        <ele>1205.4000244141</ele>
        <time>2023-08-10T10:18:21.000Z</time>
      </trkpt>
      <trkpt lat="45.29534" lon="6.08987">
        <ele>1204.8000488281</ele>
        <time>2023-08-10T10:18:23.000Z</time>
      </trkpt>
      <trkpt lat="45.29526" lon="6.08985">
        <ele>1202</ele>
        <time>2023-08-10T10:18:33.000Z</time>
      </trkpt>
      <trkpt lat="45.29526" lon="6.08982">
        <ele>1201.1999511719</ele>
        <time>2023-08-10T10:18:37.000Z</time>
      </trkpt>
      <trkpt lat="45.29526" lon="6.08981">
        <ele>1201</ele>
        <time>2023-08-10T10:18:38.000Z</time>
      </trkpt>
      <trkpt lat="45.29525" lon="6.08976">
        <ele>1200</ele>
        <time>2023-08-10T10:18:43.000Z</time>
      </trkpt>
      <trkpt lat="45.29525" lon="6.08975">
        <ele>1199.5999755859</ele>
        <time>2023-08-10T10:18:45.000Z</time>
      </trkpt>
      <trkpt lat="45.29526" lon="6.08973">
        <ele>1199</ele>
        <time>2023-08-10T10:18:49.000Z</time>
      </trkpt>
      <trkpt lat="45.29526" lon="6.0897">
        <ele>1198.5999755859</ele>
        <time>2023-08-10T10:18:53.000Z</time>
      </trkpt>
      <trkpt lat="45.29526" lon="6.08969">
        <ele>1197.8000488281</ele>
        <time>2023-08-10T10:18:57.000Z</time>
      </trkpt>
      <trkpt lat="45.29526" lon="6.08967">
        <ele>1196.8000488281</ele>
        <time>2023-08-10T10:19:01.000Z</time>
      </trkpt>
      <trkpt lat="45.29526" lon="6.08965">
        <ele>1196</ele>
        <time>2023-08-10T10:19:05.000Z</time>
      </trkpt>
      <trkpt lat="45.29526" lon="6.08964">
        <ele>1195.8000488281</ele>
        <time>2023-08-10T10:19:06.000Z</time>
      </trkpt>
      <trkpt lat="45.29524" lon="6.08959">
        <ele>1194.5999755859</ele>
        <time>2023-08-10T10:19:11.000Z</time>
      </trkpt>
      <trkpt lat="45.29522" lon="6.08957">
        <ele>1193.8000488281</ele>
        <time>2023-08-10T10:19:14.000Z</time>
      </trkpt>
      <trkpt lat="45.29522" lon="6.08956">
        <ele>1193.5999755859</ele>
        <time>2023-08-10T10:19:16.000Z</time>
      </trkpt>
      <trkpt lat="45.29522" lon="6.08953">
        <ele>1192.4000244141</ele>
        <time>2023-08-10T10:19:21.000Z</time>
      </trkpt>
      <trkpt lat="45.29522" lon="6.08953">
        <ele>1192</ele>
        <time>2023-08-10T10:19:23.000Z</time>
      </trkpt>
      <trkpt lat="45.2952" lon="6.08954">
        <ele>1191.4000244141</ele>
        <time>2023-08-10T10:19:26.000Z</time>
      </trkpt>
      <trkpt lat="45.29515" lon="6.08956">
        <ele>1190.1999511719</ele>
        <time>2023-08-10T10:19:31.000Z</time>
      </trkpt>
      <trkpt lat="45.29514" lon="6.08955">
        <ele>1190</ele>
        <time>2023-08-10T10:19:32.000Z</time>
      </trkpt>
      <trkpt lat="45.29513" lon="6.08953">
        <ele>1189.1999511719</ele>
        <time>2023-08-10T10:19:35.000Z</time>
      </trkpt>
      <trkpt lat="45.29512" lon="6.08951">
        <ele>1188.5999755859</ele>
        <time>2023-08-10T10:19:38.000Z</time>
      </trkpt>
      <trkpt lat="45.2951" lon="6.0895">
        <ele>1188</ele>
        <time>2023-08-10T10:19:40.000Z</time>
      </trkpt>
      <trkpt lat="45.29509" lon="6.08948">
        <ele>1187</ele>
        <time>2023-08-10T10:19:44.000Z</time>
      </trkpt>
      <trkpt lat="45.29508" lon="6.08946">
        <ele>1186.5999755859</ele>
        <time>2023-08-10T10:19:46.000Z</time>
      </trkpt>
      <trkpt lat="45.29507" lon="6.08944">
        <ele>1186</ele>
        <time>2023-08-10T10:19:49.000Z</time>
      </trkpt>
      <trkpt lat="45.29507" lon="6.0894">
        <ele>1185.4000244141</ele>
        <time>2023-08-10T10:19:52.000Z</time>
      </trkpt>
      <trkpt lat="45.29506" lon="6.08937">
        <ele>1184.8000488281</ele>
        <time>2023-08-10T10:19:55.000Z</time>
      </trkpt>
      <trkpt lat="45.29504" lon="6.08935">
        <ele>1183.5999755859</ele>
        <time>2023-08-10T10:20:00.000Z</time>
      </trkpt>
      <trkpt lat="45.29503" lon="6.08932">
        <ele>1182.4000244141</ele>
        <time>2023-08-10T10:20:05.000Z</time>
      </trkpt>
      <trkpt lat="45.29504" lon="6.0893">
        <ele>1182.1999511719</ele>
        <time>2023-08-10T10:20:08.000Z</time>
      </trkpt>
      <trkpt lat="45.29503" lon="6.08929">
        <ele>1181.4000244141</ele>
        <time>2023-08-10T10:20:11.000Z</time>
      </trkpt>
      <trkpt lat="45.29504" lon="6.08926">
        <ele>1180.5999755859</ele>
        <time>2023-08-10T10:20:16.000Z</time>
      </trkpt>
      <trkpt lat="45.29504" lon="6.08927">
        <ele>1180.1999511719</ele>
        <time>2023-08-10T10:20:17.000Z</time>
      </trkpt>
      <trkpt lat="45.29504" lon="6.08926">
        <ele>1179.1999511719</ele>
        <time>2023-08-10T10:20:21.000Z</time>
      </trkpt>
      <trkpt lat="45.29504" lon="6.08925">
        <ele>1178.8000488281</ele>
        <time>2023-08-10T10:20:23.000Z</time>
      </trkpt>
      <trkpt lat="45.29505" lon="6.08922">
        <ele>1178.1999511719</ele>
        <time>2023-08-10T10:20:26.000Z</time>
      </trkpt>
      <trkpt lat="45.29505" lon="6.08916">
        <ele>1177</ele>
        <time>2023-08-10T10:20:30.000Z</time>
      </trkpt>
      <trkpt lat="45.29505" lon="6.0891">
        <ele>1175.8000488281</ele>
        <time>2023-08-10T10:20:35.000Z</time>
      </trkpt>
      <trkpt lat="45.29506" lon="6.08909">
        <ele>1175.1999511719</ele>
        <time>2023-08-10T10:20:37.000Z</time>
      </trkpt>
      <trkpt lat="45.29506" lon="6.08906">
        <ele>1174.5999755859</ele>
        <time>2023-08-10T10:20:40.000Z</time>
      </trkpt>
      <trkpt lat="45.29505" lon="6.089">
        <ele>1173.5999755859</ele>
        <time>2023-08-10T10:20:45.000Z</time>
      </trkpt>
      <trkpt lat="45.29506" lon="6.08899">
        <ele>1173.4000244141</ele>
        <time>2023-08-10T10:20:46.000Z</time>
      </trkpt>
      <trkpt lat="45.29506" lon="6.08893">
        <ele>1172.1999511719</ele>
        <time>2023-08-10T10:20:52.000Z</time>
      </trkpt>
      <trkpt lat="45.29506" lon="6.08893">
        <ele>1172.1999511719</ele>
        <time>2023-08-10T10:20:53.000Z</time>
      </trkpt>
      <trkpt lat="45.29506" lon="6.08891">
        <ele>1171.1999511719</ele>
        <time>2023-08-10T10:20:57.000Z</time>
      </trkpt>
      <trkpt lat="45.29506" lon="6.08889">
        <ele>1170.4000244141</ele>
        <time>2023-08-10T10:21:00.000Z</time>
      </trkpt>
      <trkpt lat="45.29506" lon="6.08888">
        <ele>1170.1999511719</ele>
        <time>2023-08-10T10:21:02.000Z</time>
      </trkpt>
      <trkpt lat="45.29506" lon="6.08884">
        <ele>1169</ele>
        <time>2023-08-10T10:21:07.000Z</time>
      </trkpt>
      <trkpt lat="45.29506" lon="6.08884">
        <ele>1168.8000488281</ele>
        <time>2023-08-10T10:21:08.000Z</time>
      </trkpt>
      <trkpt lat="45.29506" lon="6.08882">
        <ele>1167.8000488281</ele>
        <time>2023-08-10T10:21:12.000Z</time>
      </trkpt>
      <trkpt lat="45.29505" lon="6.08879">
        <ele>1166.8000488281</ele>
        <time>2023-08-10T10:21:18.000Z</time>
      </trkpt>
      <trkpt lat="45.29504" lon="6.08875">
        <ele>1165.8000488281</ele>
        <time>2023-08-10T10:21:24.000Z</time>
      </trkpt>
      <trkpt lat="45.29504" lon="6.08875">
        <ele>1165.4000244141</ele>
        <time>2023-08-10T10:21:25.000Z</time>
      </trkpt>
      <trkpt lat="45.29505" lon="6.08874">
        <ele>1164.5999755859</ele>
        <time>2023-08-10T10:21:28.000Z</time>
      </trkpt>
      <trkpt lat="45.29507" lon="6.0887">
        <ele>1163.5999755859</ele>
        <time>2023-08-10T10:21:34.000Z</time>
      </trkpt>
      <trkpt lat="45.29508" lon="6.0887">
        <ele>1163.4000244141</ele>
        <time>2023-08-10T10:21:35.000Z</time>
      </trkpt>
      <trkpt lat="45.2951" lon="6.08867">
        <ele>1162.1999511719</ele>
        <time>2023-08-10T10:21:39.000Z</time>
      </trkpt>
      <trkpt lat="45.29512" lon="6.08865">
        <ele>1161.1999511719</ele>
        <time>2023-08-10T10:21:43.000Z</time>
      </trkpt>
      <trkpt lat="45.29522" lon="6.08862">
        <ele>1160.4000244141</ele>
        <time>2023-08-10T10:21:52.000Z</time>
      </trkpt>
      <trkpt lat="45.29523" lon="6.08862">
        <ele>1160.4000244141</ele>
        <time>2023-08-10T10:21:53.000Z</time>
      </trkpt>
      <trkpt lat="45.29528" lon="6.08855">
        <ele>1160.8000488281</ele>
        <time>2023-08-10T10:22:00.000Z</time>
      </trkpt>
      <trkpt lat="45.2953" lon="6.08841">
        <ele>1161.5999755859</ele>
        <time>2023-08-10T10:22:08.000Z</time>
      </trkpt>
      <trkpt lat="45.29533" lon="6.08831">
        <ele>1162</ele>
        <time>2023-08-10T10:22:16.000Z</time>
      </trkpt>
      <trkpt lat="45.29532" lon="6.08827">
        <ele>1162.1999511719</ele>
        <time>2023-08-10T10:22:22.000Z</time>
      </trkpt>
      <trkpt lat="45.29534" lon="6.0882">
        <ele>1161</ele>
        <time>2023-08-10T10:22:30.000Z</time>
      </trkpt>
      <trkpt lat="45.29536" lon="6.08815">
        <ele>1160.1999511719</ele>
        <time>2023-08-10T10:22:34.000Z</time>
      </trkpt>
      <trkpt lat="45.29538" lon="6.0881">
        <ele>1159.1999511719</ele>
        <time>2023-08-10T10:22:41.000Z</time>
      </trkpt>
      <trkpt lat="45.29539" lon="6.08809">
        <ele>1159</ele>
        <time>2023-08-10T10:22:42.000Z</time>
      </trkpt>
      <trkpt lat="45.29543" lon="6.08798">
        <ele>1157.8000488281</ele>
        <time>2023-08-10T10:22:48.000Z</time>
      </trkpt>
      <trkpt lat="45.29542" lon="6.08796">
        <ele>1157.4000244141</ele>
        <time>2023-08-10T10:22:50.000Z</time>
      </trkpt>
      <trkpt lat="45.29542" lon="6.0879">
        <ele>1156.8000488281</ele>
        <time>2023-08-10T10:22:55.000Z</time>
      </trkpt>
      <trkpt lat="45.29542" lon="6.08789">
        <ele>1156.5999755859</ele>
        <time>2023-08-10T10:22:56.000Z</time>
      </trkpt>
      <trkpt lat="45.29543" lon="6.08784">
        <ele>1156</ele>
        <time>2023-08-10T10:22:59.000Z</time>
      </trkpt>
      <trkpt lat="45.29543" lon="6.08781">
        <ele>1155.4000244141</ele>
        <time>2023-08-10T10:23:02.000Z</time>
      </trkpt>
      <trkpt lat="45.29543" lon="6.08778">
        <ele>1154.5999755859</ele>
        <time>2023-08-10T10:23:06.000Z</time>
      </trkpt>
      <trkpt lat="45.29543" lon="6.08777">
        <ele>1154.1999511719</ele>
        <time>2023-08-10T10:23:07.000Z</time>
      </trkpt>
      <trkpt lat="45.29544" lon="6.08772">
        <ele>1153.1999511719</ele>
        <time>2023-08-10T10:23:11.000Z</time>
      </trkpt>
      <trkpt lat="45.29545" lon="6.08769">
        <ele>1152.4000244141</ele>
        <time>2023-08-10T10:23:15.000Z</time>
      </trkpt>
      <trkpt lat="45.29547" lon="6.08766">
        <ele>1152</ele>
        <time>2023-08-10T10:23:20.000Z</time>
      </trkpt>
      <trkpt lat="45.29547" lon="6.08765">
        <ele>1151.1999511719</ele>
        <time>2023-08-10T10:23:24.000Z</time>
      </trkpt>
      <trkpt lat="45.29548" lon="6.08763">
        <ele>1150.8000488281</ele>
        <time>2023-08-10T10:23:26.000Z</time>
      </trkpt>
      <trkpt lat="45.29549" lon="6.08761">
        <ele>1149.8000488281</ele>
        <time>2023-08-10T10:23:30.000Z</time>
      </trkpt>
      <trkpt lat="45.29549" lon="6.08761">
        <ele>1149.4000244141</ele>
        <time>2023-08-10T10:23:31.000Z</time>
      </trkpt>
      <trkpt lat="45.29551" lon="6.08758">
        <ele>1148.8000488281</ele>
        <time>2023-08-10T10:23:34.000Z</time>
      </trkpt>
      <trkpt lat="45.29552" lon="6.08754">
        <ele>1147.5999755859</ele>
        <time>2023-08-10T10:23:38.000Z</time>
      </trkpt>
      <trkpt lat="45.29553" lon="6.0875">
        <ele>1146.5999755859</ele>
        <time>2023-08-10T10:23:42.000Z</time>
      </trkpt>
      <trkpt lat="45.29555" lon="6.08744">
        <ele>1145.4000244141</ele>
        <time>2023-08-10T10:23:47.000Z</time>
      </trkpt>
      <trkpt lat="45.29556" lon="6.08741">
        <ele>1144.1999511719</ele>
        <time>2023-08-10T10:23:52.000Z</time>
      </trkpt>
      <trkpt lat="45.29557" lon="6.08739">
        <ele>1143.8000488281</ele>
        <time>2023-08-10T10:23:54.000Z</time>
      </trkpt>
      <trkpt lat="45.29559" lon="6.08736">
        <ele>1143</ele>
        <time>2023-08-10T10:23:57.000Z</time>
      </trkpt>
      <trkpt lat="45.29561" lon="6.08732">
        <ele>1142</ele>
        <time>2023-08-10T10:24:01.000Z</time>
      </trkpt>
      <trkpt lat="45.29564" lon="6.08729">
        <ele>1140.8000488281</ele>
        <time>2023-08-10T10:24:07.000Z</time>
      </trkpt>
      <trkpt lat="45.29564" lon="6.08728">
        <ele>1140.5999755859</ele>
        <time>2023-08-10T10:24:08.000Z</time>
      </trkpt>
      <trkpt lat="45.2957" lon="6.08727">
        <ele>1139.8000488281</ele>
        <time>2023-08-10T10:24:14.000Z</time>
      </trkpt>
      <trkpt lat="45.29575" lon="6.08725">
        <ele>1139.4000244141</ele>
        <time>2023-08-10T10:24:18.000Z</time>
      </trkpt>
      <trkpt lat="45.29581" lon="6.08723">
        <ele>1139.1999511719</ele>
        <time>2023-08-10T10:24:25.000Z</time>
      </trkpt>
      <trkpt lat="45.29582" lon="6.08723">
        <ele>1138.5999755859</ele>
        <time>2023-08-10T10:24:27.000Z</time>
      </trkpt>
      <trkpt lat="45.29584" lon="6.08722">
        <ele>1137.8000488281</ele>
        <time>2023-08-10T10:24:33.000Z</time>
      </trkpt>
      <trkpt lat="45.29585" lon="6.08719">
        <ele>1137.8000488281</ele>
        <time>2023-08-10T10:24:43.000Z</time>
      </trkpt>
      <trkpt lat="45.29583" lon="6.08719">
        <ele>1137.8000488281</ele>
        <time>2023-08-10T10:24:51.000Z</time>
      </trkpt>
      <trkpt lat="45.29576" lon="6.08716">
        <ele>1135.4000244141</ele>
        <time>2023-08-10T10:25:04.000Z</time>
      </trkpt>
      <trkpt lat="45.29574" lon="6.08715">
        <ele>1134.1999511719</ele>
        <time>2023-08-10T10:25:09.000Z</time>
      </trkpt>
      <trkpt lat="45.2957" lon="6.08713">
        <ele>1133.1999511719</ele>
        <time>2023-08-10T10:25:14.000Z</time>
      </trkpt>
      <trkpt lat="45.2957" lon="6.08714">
        <ele>1131</ele>
        <time>2023-08-10T10:25:23.000Z</time>
      </trkpt>
      <trkpt lat="45.2957" lon="6.08714">
        <ele>1131</ele>
        <time>2023-08-10T10:25:24.000Z</time>
      </trkpt>
      <trkpt lat="45.29563" lon="6.08712">
        <ele>1128.8000488281</ele>
        <time>2023-08-10T10:25:37.000Z</time>
      </trkpt>
      <trkpt lat="45.29562" lon="6.08711">
        <ele>1128.5999755859</ele>
        <time>2023-08-10T10:25:38.000Z</time>
      </trkpt>
      <trkpt lat="45.29561" lon="6.0871">
        <ele>1127.5999755859</ele>
        <time>2023-08-10T10:25:41.000Z</time>
      </trkpt>
      <trkpt lat="45.29561" lon="6.0871">
        <ele>1127.1999511719</ele>
        <time>2023-08-10T10:25:44.000Z</time>
      </trkpt>
      <trkpt lat="45.29561" lon="6.08709">
        <ele>1126.5999755859</ele>
        <time>2023-08-10T10:25:48.000Z</time>
      </trkpt>
      <trkpt lat="45.29562" lon="6.08707">
        <ele>1126</ele>
        <time>2023-08-10T10:25:52.000Z</time>
      </trkpt>
      <trkpt lat="45.29563" lon="6.08706">
        <ele>1125.5999755859</ele>
        <time>2023-08-10T10:25:54.000Z</time>
      </trkpt>
      <trkpt lat="45.29571" lon="6.08704">
        <ele>1124.4000244141</ele>
        <time>2023-08-10T10:25:59.000Z</time>
      </trkpt>
      <trkpt lat="45.29572" lon="6.08703">
        <ele>1124.1999511719</ele>
        <time>2023-08-10T10:26:00.000Z</time>
      </trkpt>
      <trkpt lat="45.29573" lon="6.08703">
        <ele>1123.1999511719</ele>
        <time>2023-08-10T10:26:04.000Z</time>
      </trkpt>
      <trkpt lat="45.29575" lon="6.08702">
        <ele>1122.5999755859</ele>
        <time>2023-08-10T10:26:07.000Z</time>
      </trkpt>
      <trkpt lat="45.29575" lon="6.08702">
        <ele>1122</ele>
        <time>2023-08-10T10:26:09.000Z</time>
      </trkpt>
      <trkpt lat="45.29569" lon="6.08699">
        <ele>1121</ele>
        <time>2023-08-10T10:26:16.000Z</time>
      </trkpt>
      <trkpt lat="45.29564" lon="6.08699">
        <ele>1120</ele>
        <time>2023-08-10T10:26:24.000Z</time>
      </trkpt>
      <trkpt lat="45.2956" lon="6.08698">
        <ele>1119.4000244141</ele>
        <time>2023-08-10T10:26:26.000Z</time>
      </trkpt>
      <trkpt lat="45.29558" lon="6.08699">
        <ele>1119</ele>
        <time>2023-08-10T10:26:30.000Z</time>
      </trkpt>
      <trkpt lat="45.29559" lon="6.087">
        <ele>1119</ele>
        <time>2023-08-10T10:26:32.000Z</time>
      </trkpt>
      <trkpt lat="45.29558" lon="6.087">
        <ele>1118.8000488281</ele>
        <time>2023-08-10T10:26:34.000Z</time>
      </trkpt>
      <trkpt lat="45.29556" lon="6.08698">
        <ele>1118.1999511719</ele>
        <time>2023-08-10T10:26:38.000Z</time>
      </trkpt>
      <trkpt lat="45.29555" lon="6.08699">
        <ele>1117.8000488281</ele>
        <time>2023-08-10T10:26:40.000Z</time>
      </trkpt>
      <trkpt lat="45.29552" lon="6.08699">
        <ele>1116.4000244141</ele>
        <time>2023-08-10T10:26:44.000Z</time>
      </trkpt>
      <trkpt lat="45.2955" lon="6.08699">
        <ele>1115.8000488281</ele>
        <time>2023-08-10T10:26:46.000Z</time>
      </trkpt>
      <trkpt lat="45.2955" lon="6.087">
        <ele>1115.4000244141</ele>
        <time>2023-08-10T10:26:47.000Z</time>
      </trkpt>
      <trkpt lat="45.29547" lon="6.08699">
        <ele>1114.4000244141</ele>
        <time>2023-08-10T10:26:51.000Z</time>
      </trkpt>
      <trkpt lat="45.29544" lon="6.08698">
        <ele>1113.4000244141</ele>
        <time>2023-08-10T10:26:56.000Z</time>
      </trkpt>
      <trkpt lat="45.2954" lon="6.08697">
        <ele>1113.1999511719</ele>
        <time>2023-08-10T10:27:01.000Z</time>
      </trkpt>
      <trkpt lat="45.29506" lon="6.08698">
        <ele>1114.4000244141</ele>
        <time>2023-08-10T10:27:24.000Z</time>
      </trkpt>
      <trkpt lat="45.29506" lon="6.08696">
        <ele>1114.8000488281</ele>
        <time>2023-08-10T10:27:30.000Z</time>
      </trkpt>
      <trkpt lat="45.2951" lon="6.08693">
        <ele>1115.1999511719</ele>
        <time>2023-08-10T10:27:37.000Z</time>
      </trkpt>
      <trkpt lat="45.29512" lon="6.08694">
        <ele>1115.1999511719</ele>
        <time>2023-08-10T10:27:44.000Z</time>
      </trkpt>
      <trkpt lat="45.29517" lon="6.08697">
        <ele>1115.1999511719</ele>
        <time>2023-08-10T10:27:57.000Z</time>
      </trkpt>
      <trkpt lat="45.29515" lon="6.08696">
        <ele>1115.5999755859</ele>
        <time>2023-08-10T10:28:00.000Z</time>
      </trkpt>
      <trkpt lat="45.29515" lon="6.08693">
        <ele>1115.5999755859</ele>
        <time>2023-08-10T10:28:06.000Z</time>
      </trkpt>
      <trkpt lat="45.29513" lon="6.08688">
        <ele>1115</ele>
        <time>2023-08-10T10:28:13.000Z</time>
      </trkpt>
      <trkpt lat="45.29515" lon="6.08676">
        <ele>1114.1999511719</ele>
        <time>2023-08-10T10:28:20.000Z</time>
      </trkpt>
      <trkpt lat="45.29514" lon="6.08668">
        <ele>1113.1999511719</ele>
        <time>2023-08-10T10:28:26.000Z</time>
      </trkpt>
      <trkpt lat="45.29514" lon="6.08667">
        <ele>1112.8000488281</ele>
        <time>2023-08-10T10:28:28.000Z</time>
      </trkpt>
      <trkpt lat="45.29515" lon="6.08665">
        <ele>1112.1999511719</ele>
        <time>2023-08-10T10:28:31.000Z</time>
      </trkpt>
      <trkpt lat="45.29518" lon="6.08661">
        <ele>1111.5999755859</ele>
        <time>2023-08-10T10:28:34.000Z</time>
      </trkpt>
      <trkpt lat="45.2952" lon="6.08657">
        <ele>1110.8000488281</ele>
        <time>2023-08-10T10:28:37.000Z</time>
      </trkpt>
      <trkpt lat="45.29525" lon="6.08652">
        <ele>1109.8000488281</ele>
        <time>2023-08-10T10:28:41.000Z</time>
      </trkpt>
      <trkpt lat="45.29526" lon="6.08651">
        <ele>1109.4000244141</ele>
        <time>2023-08-10T10:28:43.000Z</time>
      </trkpt>
      <trkpt lat="45.29525" lon="6.08652">
        <ele>1109.1999511719</ele>
        <time>2023-08-10T10:28:44.000Z</time>
      </trkpt>
      <trkpt lat="45.29525" lon="6.08653">
        <ele>1109.1999511719</ele>
        <time>2023-08-10T10:28:49.000Z</time>
      </trkpt>
      <trkpt lat="45.29525" lon="6.08651">
        <ele>1109.4000244141</ele>
        <time>2023-08-10T10:28:58.000Z</time>
      </trkpt>
      <trkpt lat="45.29526" lon="6.08644">
        <ele>1109.1999511719</ele>
        <time>2023-08-10T10:29:05.000Z</time>
      </trkpt>
      <trkpt lat="45.29527" lon="6.0864">
        <ele>1108.5999755859</ele>
        <time>2023-08-10T10:29:07.000Z</time>
      </trkpt>
      <trkpt lat="45.2953" lon="6.08634">
        <ele>1107.4000244141</ele>
        <time>2023-08-10T10:29:12.000Z</time>
      </trkpt>
      <trkpt lat="45.29533" lon="6.08628">
        <ele>1106.4000244141</ele>
        <time>2023-08-10T10:29:17.000Z</time>
      </trkpt>
      <trkpt lat="45.29535" lon="6.08624">
        <ele>1105.5999755859</ele>
        <time>2023-08-10T10:29:20.000Z</time>
      </trkpt>
      <trkpt lat="45.29537" lon="6.08623">
        <ele>1105</ele>
        <time>2023-08-10T10:29:22.000Z</time>
      </trkpt>
      <trkpt lat="45.29541" lon="6.08619">
        <ele>1104</ele>
        <time>2023-08-10T10:29:27.000Z</time>
      </trkpt>
      <trkpt lat="45.29541" lon="6.08619">
        <ele>1103.4000244141</ele>
        <time>2023-08-10T10:29:29.000Z</time>
      </trkpt>
      <trkpt lat="45.29556" lon="6.08575">
        <ele>1096.8000488281</ele>
        <time>2023-08-10T10:30:04.000Z</time>
      </trkpt>
      <trkpt lat="45.29559" lon="6.08568">
        <ele>1095.5999755859</ele>
        <time>2023-08-10T10:30:08.000Z</time>
      </trkpt>
      <trkpt lat="45.29561" lon="6.08564">
        <ele>1094.4000244141</ele>
        <time>2023-08-10T10:30:13.000Z</time>
      </trkpt>
      <trkpt lat="45.2956" lon="6.08559">
        <ele>1093.1999511719</ele>
        <time>2023-08-10T10:30:18.000Z</time>
      </trkpt>
      <trkpt lat="45.2956" lon="6.08554">
        <ele>1092.1999511719</ele>
        <time>2023-08-10T10:30:22.000Z</time>
      </trkpt>
      <trkpt lat="45.29556" lon="6.08546">
        <ele>1091.4000244141</ele>
        <time>2023-08-10T10:30:26.000Z</time>
      </trkpt>
      <trkpt lat="45.29556" lon="6.08543">
        <ele>1091</ele>
        <time>2023-08-10T10:30:27.000Z</time>
      </trkpt>
      <trkpt lat="45.29555" lon="6.08532">
        <ele>1090</ele>
        <time>2023-08-10T10:30:32.000Z</time>
      </trkpt>
      <trkpt lat="45.29555" lon="6.08531">
        <ele>1089.8000488281</ele>
        <time>2023-08-10T10:30:33.000Z</time>
      </trkpt>
      <trkpt lat="45.29557" lon="6.08525">
        <ele>1089</ele>
        <time>2023-08-10T10:30:37.000Z</time>
      </trkpt>
      <trkpt lat="45.2956" lon="6.08518">
        <ele>1088</ele>
        <time>2023-08-10T10:30:41.000Z</time>
      </trkpt>
      <trkpt lat="45.29563" lon="6.08513">
        <ele>1087.1999511719</ele>
        <time>2023-08-10T10:30:44.000Z</time>
      </trkpt>
      <trkpt lat="45.29565" lon="6.08512">
        <ele>1086.8000488281</ele>
        <time>2023-08-10T10:30:46.000Z</time>
      </trkpt>
      <trkpt lat="45.29567" lon="6.08506">
        <ele>1085.8000488281</ele>
        <time>2023-08-10T10:30:51.000Z</time>
      </trkpt>
      <trkpt lat="45.29568" lon="6.08502">
        <ele>1085</ele>
        <time>2023-08-10T10:30:54.000Z</time>
      </trkpt>
      <trkpt lat="45.29569" lon="6.08499">
        <ele>1084.5999755859</ele>
        <time>2023-08-10T10:30:56.000Z</time>
      </trkpt>
      <trkpt lat="45.29571" lon="6.08495">
        <ele>1083.5999755859</ele>
        <time>2023-08-10T10:31:00.000Z</time>
      </trkpt>
      <trkpt lat="45.29574" lon="6.08492">
        <ele>1083.1999511719</ele>
        <time>2023-08-10T10:31:02.000Z</time>
      </trkpt>
      <trkpt lat="45.29581" lon="6.08487">
        <ele>1082.4000244141</ele>
        <time>2023-08-10T10:31:07.000Z</time>
      </trkpt>
      <trkpt lat="45.29583" lon="6.08485">
        <ele>1081.8000488281</ele>
        <time>2023-08-10T10:31:09.000Z</time>
      </trkpt>
      <trkpt lat="45.29588" lon="6.08481">
        <ele>1081.1999511719</ele>
        <time>2023-08-10T10:31:13.000Z</time>
      </trkpt>
      <trkpt lat="45.29592" lon="6.08476">
        <ele>1080.1999511719</ele>
        <time>2023-08-10T10:31:18.000Z</time>
      </trkpt>
      <trkpt lat="45.29592" lon="6.08475">
        <ele>1080</ele>
        <time>2023-08-10T10:31:19.000Z</time>
      </trkpt>
      <trkpt lat="45.29597" lon="6.08468">
        <ele>1078.8000488281</ele>
        <time>2023-08-10T10:31:25.000Z</time>
      </trkpt>
      <trkpt lat="45.29598" lon="6.08467">
        <ele>1078.5999755859</ele>
        <time>2023-08-10T10:31:26.000Z</time>
      </trkpt>
      <trkpt lat="45.29602" lon="6.08463">
        <ele>1077.5999755859</ele>
        <time>2023-08-10T10:31:30.000Z</time>
      </trkpt>
      <trkpt lat="45.29605" lon="6.0846">
        <ele>1077.1999511719</ele>
        <time>2023-08-10T10:31:33.000Z</time>
      </trkpt>
      <trkpt lat="45.29607" lon="6.08458">
        <ele>1076.5999755859</ele>
        <time>2023-08-10T10:31:36.000Z</time>
      </trkpt>
      <trkpt lat="45.2961" lon="6.08454">
        <ele>1075.8000488281</ele>
        <time>2023-08-10T10:31:40.000Z</time>
      </trkpt>
      <trkpt lat="45.2961" lon="6.08453">
        <ele>1075.5999755859</ele>
        <time>2023-08-10T10:31:41.000Z</time>
      </trkpt>
      <trkpt lat="45.29613" lon="6.08451">
        <ele>1074.4000244141</ele>
        <time>2023-08-10T10:31:46.000Z</time>
      </trkpt>
      <trkpt lat="45.29613" lon="6.08449">
        <ele>1073.8000488281</ele>
        <time>2023-08-10T10:31:48.000Z</time>
      </trkpt>
      <trkpt lat="45.29615" lon="6.08447">
        <ele>1073.4000244141</ele>
        <time>2023-08-10T10:31:50.000Z</time>
      </trkpt>
      <trkpt lat="45.29618" lon="6.08442">
        <ele>1072</ele>
        <time>2023-08-10T10:31:54.000Z</time>
      </trkpt>
      <trkpt lat="45.29619" lon="6.08442">
        <ele>1071.5999755859</ele>
        <time>2023-08-10T10:31:56.000Z</time>
      </trkpt>
      <trkpt lat="45.29619" lon="6.08441">
        <ele>1071.4000244141</ele>
        <time>2023-08-10T10:31:57.000Z</time>
      </trkpt>
      <trkpt lat="45.2962" lon="6.08439">
        <ele>1071</ele>
        <time>2023-08-10T10:32:04.000Z</time>
      </trkpt>
      <trkpt lat="45.29628" lon="6.0843">
        <ele>1070</ele>
        <time>2023-08-10T10:32:11.000Z</time>
      </trkpt>
      <trkpt lat="45.29629" lon="6.08429">
        <ele>1069.8000488281</ele>
        <time>2023-08-10T10:32:12.000Z</time>
      </trkpt>
      <trkpt lat="45.29631" lon="6.08424">
        <ele>1069</ele>
        <time>2023-08-10T10:32:16.000Z</time>
      </trkpt>
      <trkpt lat="45.29632" lon="6.08419">
        <ele>1068</ele>
        <time>2023-08-10T10:32:19.000Z</time>
      </trkpt>
      <trkpt lat="45.29633" lon="6.08418">
        <ele>1067.8000488281</ele>
        <time>2023-08-10T10:32:20.000Z</time>
      </trkpt>
      <trkpt lat="45.29633" lon="6.08411">
        <ele>1067</ele>
        <time>2023-08-10T10:32:26.000Z</time>
      </trkpt>
      <trkpt lat="45.29633" lon="6.0841">
        <ele>1066.8000488281</ele>
        <time>2023-08-10T10:32:27.000Z</time>
      </trkpt>
      <trkpt lat="45.29635" lon="6.08401">
        <ele>1065.8000488281</ele>
        <time>2023-08-10T10:32:33.000Z</time>
      </trkpt>
      <trkpt lat="45.29635" lon="6.084">
        <ele>1065.4000244141</ele>
        <time>2023-08-10T10:32:34.000Z</time>
      </trkpt>
      <trkpt lat="45.29636" lon="6.08394">
        <ele>1064.4000244141</ele>
        <time>2023-08-10T10:32:38.000Z</time>
      </trkpt>
      <trkpt lat="45.29637" lon="6.08392">
        <ele>1064</ele>
        <time>2023-08-10T10:32:40.000Z</time>
      </trkpt>
      <trkpt lat="45.29639" lon="6.08388">
        <ele>1063.4000244141</ele>
        <time>2023-08-10T10:32:43.000Z</time>
      </trkpt>
      <trkpt lat="45.29642" lon="6.0838">
        <ele>1062.1999511719</ele>
        <time>2023-08-10T10:32:48.000Z</time>
      </trkpt>
      <trkpt lat="45.29644" lon="6.0837">
        <ele>1061.1999511719</ele>
        <time>2023-08-10T10:32:54.000Z</time>
      </trkpt>
      <trkpt lat="45.29644" lon="6.08368">
        <ele>1060.8000488281</ele>
        <time>2023-08-10T10:32:56.000Z</time>
      </trkpt>
      <trkpt lat="45.29644" lon="6.08363">
        <ele>1060.1999511719</ele>
        <time>2023-08-10T10:32:59.000Z</time>
      </trkpt>
      <trkpt lat="45.29644" lon="6.08355">
        <ele>1059</ele>
        <time>2023-08-10T10:33:04.000Z</time>
      </trkpt>
      <trkpt lat="45.29643" lon="6.08347">
        <ele>1057.8000488281</ele>
        <time>2023-08-10T10:33:09.000Z</time>
      </trkpt>
      <trkpt lat="45.29643" lon="6.08343">
        <ele>1057.1999511719</ele>
        <time>2023-08-10T10:33:12.000Z</time>
      </trkpt>
      <trkpt lat="45.29643" lon="6.08337">
        <ele>1056.8000488281</ele>
        <time>2023-08-10T10:33:15.000Z</time>
      </trkpt>
      <trkpt lat="45.29642" lon="6.08327">
        <ele>1056</ele>
        <time>2023-08-10T10:33:20.000Z</time>
      </trkpt>
      <trkpt lat="45.29642" lon="6.08326">
        <ele>1055.8000488281</ele>
        <time>2023-08-10T10:33:21.000Z</time>
      </trkpt>
      <trkpt lat="45.29644" lon="6.08317">
        <ele>1054.5999755859</ele>
        <time>2023-08-10T10:33:27.000Z</time>
      </trkpt>
      <trkpt lat="45.29646" lon="6.08309">
        <ele>1053.4000244141</ele>
        <time>2023-08-10T10:33:32.000Z</time>
      </trkpt>
      <trkpt lat="45.29647" lon="6.08308">
        <ele>1053.1999511719</ele>
        <time>2023-08-10T10:33:33.000Z</time>
      </trkpt>
      <trkpt lat="45.29648" lon="6.08301">
        <ele>1052.4000244141</ele>
        <time>2023-08-10T10:33:37.000Z</time>
      </trkpt>
      <trkpt lat="45.2965" lon="6.08296">
        <ele>1051.5999755859</ele>
        <time>2023-08-10T10:33:40.000Z</time>
      </trkpt>
      <trkpt lat="45.29651" lon="6.08292">
        <ele>1051.1999511719</ele>
        <time>2023-08-10T10:33:42.000Z</time>
      </trkpt>
      <trkpt lat="45.29653" lon="6.08282">
        <ele>1050</ele>
        <time>2023-08-10T10:33:48.000Z</time>
      </trkpt>
      <trkpt lat="45.29654" lon="6.08278">
        <ele>1049.5999755859</ele>
        <time>2023-08-10T10:33:50.000Z</time>
      </trkpt>
      <trkpt lat="45.29657" lon="6.08265">
        <ele>1048.8000488281</ele>
        <time>2023-08-10T10:33:55.000Z</time>
      </trkpt>
      <trkpt lat="45.29657" lon="6.08258">
        <ele>1047.8000488281</ele>
        <time>2023-08-10T10:33:59.000Z</time>
      </trkpt>
      <trkpt lat="45.29657" lon="6.08257">
        <ele>1047.5999755859</ele>
        <time>2023-08-10T10:34:00.000Z</time>
      </trkpt>
      <trkpt lat="45.29658" lon="6.08247">
        <ele>1046.5999755859</ele>
        <time>2023-08-10T10:34:05.000Z</time>
      </trkpt>
      <trkpt lat="45.29658" lon="6.08243">
        <ele>1046</ele>
        <time>2023-08-10T10:34:08.000Z</time>
      </trkpt>
      <trkpt lat="45.29658" lon="6.0824">
        <ele>1045.5999755859</ele>
        <time>2023-08-10T10:34:10.000Z</time>
      </trkpt>
      <trkpt lat="45.29659" lon="6.08229">
        <ele>1044.4000244141</ele>
        <time>2023-08-10T10:34:16.000Z</time>
      </trkpt>
      <trkpt lat="45.29661" lon="6.0822">
        <ele>1043.1999511719</ele>
        <time>2023-08-10T10:34:23.000Z</time>
      </trkpt>
      <trkpt lat="45.2966" lon="6.08209">
        <ele>1042.1999511719</ele>
        <time>2023-08-10T10:34:29.000Z</time>
      </trkpt>
      <trkpt lat="45.29661" lon="6.08204">
        <ele>1041.4000244141</ele>
        <time>2023-08-10T10:34:32.000Z</time>
      </trkpt>
      <trkpt lat="45.29662" lon="6.08198">
        <ele>1041</ele>
        <time>2023-08-10T10:34:35.000Z</time>
      </trkpt>
      <trkpt lat="45.29662" lon="6.08188">
        <ele>1040</ele>
        <time>2023-08-10T10:34:42.000Z</time>
      </trkpt>
      <trkpt lat="45.29662" lon="6.08181">
        <ele>1038.8000488281</ele>
        <time>2023-08-10T10:34:48.000Z</time>
      </trkpt>
      <trkpt lat="45.29661" lon="6.08174">
        <ele>1038.1999511719</ele>
        <time>2023-08-10T10:34:52.000Z</time>
      </trkpt>
      <trkpt lat="45.2966" lon="6.0817">
        <ele>1037.8000488281</ele>
        <time>2023-08-10T10:34:54.000Z</time>
      </trkpt>
      <trkpt lat="45.2966" lon="6.08157">
        <ele>1036.5999755859</ele>
        <time>2023-08-10T10:35:00.000Z</time>
      </trkpt>
      <trkpt lat="45.2966" lon="6.08156">
        <ele>1036.4000244141</ele>
        <time>2023-08-10T10:35:01.000Z</time>
      </trkpt>
      <trkpt lat="45.2966" lon="6.08147">
        <ele>1035.5999755859</ele>
        <time>2023-08-10T10:35:06.000Z</time>
      </trkpt>
      <trkpt lat="45.2966" lon="6.08141">
        <ele>1035</ele>
        <time>2023-08-10T10:35:09.000Z</time>
      </trkpt>
      <trkpt lat="45.2966" lon="6.08135">
        <ele>1034.5999755859</ele>
        <time>2023-08-10T10:35:12.000Z</time>
      </trkpt>
      <trkpt lat="45.29659" lon="6.08127">
        <ele>1033.8000488281</ele>
        <time>2023-08-10T10:35:17.000Z</time>
      </trkpt>
      <trkpt lat="45.29659" lon="6.08128">
        <ele>1033.1999511719</ele>
        <time>2023-08-10T10:35:20.000Z</time>
      </trkpt>
      <trkpt lat="45.29658" lon="6.0813">
        <ele>1033</ele>
        <time>2023-08-10T10:35:23.000Z</time>
      </trkpt>
      <trkpt lat="45.29654" lon="6.0813">
        <ele>1032.8000488281</ele>
        <time>2023-08-10T10:35:31.000Z</time>
      </trkpt>
      <trkpt lat="45.29654" lon="6.0812">
        <ele>1032.5999755859</ele>
        <time>2023-08-10T10:35:37.000Z</time>
      </trkpt>
      <trkpt lat="45.29654" lon="6.08116">
        <ele>1032.1999511719</ele>
        <time>2023-08-10T10:35:39.000Z</time>
      </trkpt>
      <trkpt lat="45.29654" lon="6.08107">
        <ele>1031.1999511719</ele>
        <time>2023-08-10T10:35:44.000Z</time>
      </trkpt>
      <trkpt lat="45.29655" lon="6.08096">
        <ele>1030.1999511719</ele>
        <time>2023-08-10T10:35:50.000Z</time>
      </trkpt>
      <trkpt lat="45.29655" lon="6.08091">
        <ele>1029.5999755859</ele>
        <time>2023-08-10T10:35:53.000Z</time>
      </trkpt>
      <trkpt lat="45.29656" lon="6.08085">
        <ele>1029</ele>
        <time>2023-08-10T10:35:56.000Z</time>
      </trkpt>
      <trkpt lat="45.29656" lon="6.08079">
        <ele>1028</ele>
        <time>2023-08-10T10:36:02.000Z</time>
      </trkpt>
      <trkpt lat="45.29656" lon="6.08077">
        <ele>1027.8000488281</ele>
        <time>2023-08-10T10:36:05.000Z</time>
      </trkpt>
      <trkpt lat="45.29657" lon="6.08066">
        <ele>1027.1999511719</ele>
        <time>2023-08-10T10:36:11.000Z</time>
      </trkpt>
      <trkpt lat="45.29658" lon="6.08061">
        <ele>1026.8000488281</ele>
        <time>2023-08-10T10:36:13.000Z</time>
      </trkpt>
      <trkpt lat="45.2966" lon="6.08052">
        <ele>1025.5999755859</ele>
        <time>2023-08-10T10:36:17.000Z</time>
      </trkpt>
      <trkpt lat="45.2966" lon="6.08048">
        <ele>1025.1999511719</ele>
        <time>2023-08-10T10:36:19.000Z</time>
      </trkpt>
      <trkpt lat="45.29659" lon="6.08042">
        <ele>1024.5999755859</ele>
        <time>2023-08-10T10:36:23.000Z</time>
      </trkpt>
      <trkpt lat="45.29659" lon="6.08039">
        <ele>1024.1999511719</ele>
        <time>2023-08-10T10:36:25.000Z</time>
      </trkpt>
      <trkpt lat="45.29657" lon="6.08029">
        <ele>1023.5999755859</ele>
        <time>2023-08-10T10:36:30.000Z</time>
      </trkpt>
      <trkpt lat="45.29657" lon="6.08028">
        <ele>1023.4000244141</ele>
        <time>2023-08-10T10:36:31.000Z</time>
      </trkpt>
      <trkpt lat="45.29657" lon="6.08019">
        <ele>1022.4000244141</ele>
        <time>2023-08-10T10:36:37.000Z</time>
      </trkpt>
      <trkpt lat="45.29657" lon="6.08014">
        <ele>1021.799987793</ele>
        <time>2023-08-10T10:36:40.000Z</time>
      </trkpt>
      <trkpt lat="45.29657" lon="6.0801">
        <ele>1021.4000244141</ele>
        <time>2023-08-10T10:36:43.000Z</time>
      </trkpt>
      <trkpt lat="45.29657" lon="6.08002">
        <ele>1020.200012207</ele>
        <time>2023-08-10T10:36:48.000Z</time>
      </trkpt>
      <trkpt lat="45.29657" lon="6.07994">
        <ele>1019.200012207</ele>
        <time>2023-08-10T10:36:52.000Z</time>
      </trkpt>
      <trkpt lat="45.29657" lon="6.07993">
        <ele>1019</ele>
        <time>2023-08-10T10:36:53.000Z</time>
      </trkpt>
      <trkpt lat="45.29658" lon="6.07987">
        <ele>1018</ele>
        <time>2023-08-10T10:36:57.000Z</time>
      </trkpt>
      <trkpt lat="45.29659" lon="6.07984">
        <ele>1017.200012207</ele>
        <time>2023-08-10T10:37:00.000Z</time>
      </trkpt>
      <trkpt lat="45.29658" lon="6.07983">
        <ele>1016.799987793</ele>
        <time>2023-08-10T10:37:02.000Z</time>
      </trkpt>
      <trkpt lat="45.29657" lon="6.07983">
        <ele>1016</ele>
        <time>2023-08-10T10:37:07.000Z</time>
      </trkpt>
      <trkpt lat="45.29658" lon="6.07984">
        <ele>1015.799987793</ele>
        <time>2023-08-10T10:37:10.000Z</time>
      </trkpt>
      <trkpt lat="45.29658" lon="6.07983">
        <ele>1015.799987793</ele>
        <time>2023-08-10T10:37:12.000Z</time>
      </trkpt>
      <trkpt lat="45.29657" lon="6.07982">
        <ele>1015.799987793</ele>
        <time>2023-08-10T10:37:14.000Z</time>
      </trkpt>
      <trkpt lat="45.29658" lon="6.0798">
        <ele>1015.5999755859</ele>
        <time>2023-08-10T10:37:17.000Z</time>
      </trkpt>
      <trkpt lat="45.29657" lon="6.07976">
        <ele>1015.5999755859</ele>
        <time>2023-08-10T10:37:25.000Z</time>
      </trkpt>
      <trkpt lat="45.2966" lon="6.07968">
        <ele>1014.5999755859</ele>
        <time>2023-08-10T10:37:31.000Z</time>
      </trkpt>
      <trkpt lat="45.29661" lon="6.07966">
        <ele>1014.4000244141</ele>
        <time>2023-08-10T10:37:32.000Z</time>
      </trkpt>
      <trkpt lat="45.29667" lon="6.0796">
        <ele>1013.4000244141</ele>
        <time>2023-08-10T10:37:37.000Z</time>
      </trkpt>
      <trkpt lat="45.29671" lon="6.07956">
        <ele>1013</ele>
        <time>2023-08-10T10:37:40.000Z</time>
      </trkpt>
      <trkpt lat="45.29672" lon="6.07957">
        <ele>1012.4000244141</ele>
        <time>2023-08-10T10:37:45.000Z</time>
      </trkpt>
      <trkpt lat="45.29674" lon="6.07956">
        <ele>1012.4000244141</ele>
        <time>2023-08-10T10:37:47.000Z</time>
      </trkpt>
      <trkpt lat="45.29673" lon="6.07955">
        <ele>1012.200012207</ele>
        <time>2023-08-10T10:37:49.000Z</time>
      </trkpt>
      <trkpt lat="45.29671" lon="6.07954">
        <ele>1012.200012207</ele>
        <time>2023-08-10T10:37:51.000Z</time>
      </trkpt>
      <trkpt lat="45.29666" lon="6.07953">
        <ele>1012.200012207</ele>
        <time>2023-08-10T10:37:56.000Z</time>
      </trkpt>
      <trkpt lat="45.29657" lon="6.07951">
        <ele>1012.5999755859</ele>
        <time>2023-08-10T10:38:03.000Z</time>
      </trkpt>
      <trkpt lat="45.29649" lon="6.07951">
        <ele>1012.5999755859</ele>
        <time>2023-08-10T10:38:10.000Z</time>
      </trkpt>
      <trkpt lat="45.29641" lon="6.07957">
        <ele>1012.5999755859</ele>
        <time>2023-08-10T10:38:18.000Z</time>
      </trkpt>
      <trkpt lat="45.29629" lon="6.07962">
        <ele>1013</ele>
        <time>2023-08-10T10:38:25.000Z</time>
      </trkpt>
      <trkpt lat="45.29619" lon="6.07969">
        <ele>1013.200012207</ele>
        <time>2023-08-10T10:38:33.000Z</time>
      </trkpt>
      <trkpt lat="45.29615" lon="6.07972">
        <ele>1013.4000244141</ele>
        <time>2023-08-10T10:38:36.000Z</time>
      </trkpt>
      <trkpt lat="45.29608" lon="6.07978">
        <ele>1013.5999755859</ele>
        <time>2023-08-10T10:38:40.000Z</time>
      </trkpt>
      <trkpt lat="45.29602" lon="6.07981">
        <ele>1013.799987793</ele>
        <time>2023-08-10T10:38:46.000Z</time>
      </trkpt>
      <trkpt lat="45.29597" lon="6.07985">
        <ele>1014</ele>
        <time>2023-08-10T10:38:52.000Z</time>
      </trkpt>
      <trkpt lat="45.29597" lon="6.07988">
        <ele>1014.200012207</ele>
        <time>2023-08-10T10:38:54.000Z</time>
      </trkpt>
      <trkpt lat="45.29594" lon="6.07991">
        <ele>1014.4000244141</ele>
        <time>2023-08-10T10:38:57.000Z</time>
      </trkpt>
      <trkpt lat="45.29588" lon="6.07994">
        <ele>1014.4000244141</ele>
        <time>2023-08-10T10:39:01.000Z</time>
      </trkpt>
      <trkpt lat="45.29587" lon="6.07995">
        <ele>1014.5999755859</ele>
        <time>2023-08-10T10:39:02.000Z</time>
      </trkpt>
      <trkpt lat="45.29581" lon="6.08">
        <ele>1014.799987793</ele>
        <time>2023-08-10T10:39:07.000Z</time>
      </trkpt>
      <trkpt lat="45.29575" lon="6.08004">
        <ele>1015</ele>
        <time>2023-08-10T10:39:12.000Z</time>
      </trkpt>
      <trkpt lat="45.29564" lon="6.08008">
        <ele>1015.4000244141</ele>
        <time>2023-08-10T10:39:21.000Z</time>
      </trkpt>
      <trkpt lat="45.29558" lon="6.08011">
        <ele>1015.4000244141</ele>
        <time>2023-08-10T10:39:25.000Z</time>
      </trkpt>
      <trkpt lat="45.29555" lon="6.08014">
        <ele>1015.5999755859</ele>
        <time>2023-08-10T10:39:28.000Z</time>
      </trkpt>
      <trkpt lat="45.29547" lon="6.08021">
        <ele>1015.799987793</ele>
        <time>2023-08-10T10:39:35.000Z</time>
      </trkpt>
      <trkpt lat="45.29534" lon="6.08027">
        <ele>1016.200012207</ele>
        <time>2023-08-10T10:39:44.000Z</time>
      </trkpt>
      <trkpt lat="45.29531" lon="6.08028">
        <ele>1016.200012207</ele>
        <time>2023-08-10T10:39:47.000Z</time>
      </trkpt>
      <trkpt lat="45.2953" lon="6.08029">
        <ele>1016.200012207</ele>
        <time>2023-08-10T10:39:51.000Z</time>
      </trkpt>
      <trkpt lat="45.29527" lon="6.08029">
        <ele>1016.200012207</ele>
        <time>2023-08-10T10:39:59.000Z</time>
      </trkpt>
      <trkpt lat="45.29517" lon="6.08027">
        <ele>1016.4000244141</ele>
        <time>2023-08-10T10:40:06.000Z</time>
      </trkpt>
      <trkpt lat="45.29516" lon="6.08026">
        <ele>1016.5999755859</ele>
        <time>2023-08-10T10:40:07.000Z</time>
      </trkpt>
      <trkpt lat="45.29509" lon="6.08021">
        <ele>1016.799987793</ele>
        <time>2023-08-10T10:40:14.000Z</time>
      </trkpt>
      <trkpt lat="45.29498" lon="6.08018">
        <ele>1017.200012207</ele>
        <time>2023-08-10T10:40:22.000Z</time>
      </trkpt>
      <trkpt lat="45.2949" lon="6.08018">
        <ele>1017.5999755859</ele>
        <time>2023-08-10T10:40:28.000Z</time>
      </trkpt>
      <trkpt lat="45.29488" lon="6.08018">
        <ele>1017.5999755859</ele>
        <time>2023-08-10T10:40:30.000Z</time>
      </trkpt>
      <trkpt lat="45.29479" lon="6.08021">
        <ele>1018.200012207</ele>
        <time>2023-08-10T10:40:37.000Z</time>
      </trkpt>
      <trkpt lat="45.29473" lon="6.08024">
        <ele>1018.5999755859</ele>
        <time>2023-08-10T10:40:41.000Z</time>
      </trkpt>
      <trkpt lat="45.29468" lon="6.08025">
        <ele>1019</ele>
        <time>2023-08-10T10:40:44.000Z</time>
      </trkpt>
      <trkpt lat="45.29461" lon="6.08029">
        <ele>1019.200012207</ele>
        <time>2023-08-10T10:40:49.000Z</time>
      </trkpt>
      <trkpt lat="45.29454" lon="6.0803">
        <ele>1019.4000244141</ele>
        <time>2023-08-10T10:40:55.000Z</time>
      </trkpt>
      <trkpt lat="45.29445" lon="6.08034">
        <ele>1019.5999755859</ele>
        <time>2023-08-10T10:41:00.000Z</time>
      </trkpt>
      <trkpt lat="45.29444" lon="6.08034">
        <ele>1019.5999755859</ele>
        <time>2023-08-10T10:41:01.000Z</time>
      </trkpt>
      <trkpt lat="45.29435" lon="6.08033">
        <ele>1020.200012207</ele>
        <time>2023-08-10T10:41:10.000Z</time>
      </trkpt>
      <trkpt lat="45.29425" lon="6.08028">
        <ele>1020.5999755859</ele>
        <time>2023-08-10T10:41:18.000Z</time>
      </trkpt>
      <trkpt lat="45.29415" lon="6.0803">
        <ele>1020.5999755859</ele>
        <time>2023-08-10T10:41:25.000Z</time>
      </trkpt>
      <trkpt lat="45.29412" lon="6.0803">
        <ele>1020.799987793</ele>
        <time>2023-08-10T10:41:27.000Z</time>
      </trkpt>
      <trkpt lat="45.29395" lon="6.08022">
        <ele>1020.799987793</ele>
        <time>2023-08-10T10:41:35.000Z</time>
      </trkpt>
      <trkpt lat="45.29387" lon="6.08015">
        <ele>1021</ele>
        <time>2023-08-10T10:41:42.000Z</time>
      </trkpt>
      <trkpt lat="45.29377" lon="6.08005">
        <ele>1021.4000244141</ele>
        <time>2023-08-10T10:41:51.000Z</time>
      </trkpt>
      <trkpt lat="45.29371" lon="6.08">
        <ele>1021.799987793</ele>
        <time>2023-08-10T10:41:58.000Z</time>
      </trkpt>
      <trkpt lat="45.29368" lon="6.07999">
        <ele>1021.799987793</ele>
        <time>2023-08-10T10:42:00.000Z</time>
      </trkpt>
      <trkpt lat="45.29356" lon="6.07995">
        <ele>1022.5999755859</ele>
        <time>2023-08-10T10:42:11.000Z</time>
      </trkpt>
      <trkpt lat="45.29342" lon="6.07988">
        <ele>1025</ele>
        <time>2023-08-10T10:42:26.000Z</time>
      </trkpt>
      <trkpt lat="45.2934" lon="6.07988">
        <ele>1025.5999755859</ele>
        <time>2023-08-10T10:42:29.000Z</time>
      </trkpt>
      <trkpt lat="45.2934" lon="6.07989">
        <ele>1025.5999755859</ele>
        <time>2023-08-10T10:42:30.000Z</time>
      </trkpt>
      <trkpt lat="45.29339" lon="6.07989">
        <ele>1026.1999511719</ele>
        <time>2023-08-10T10:42:33.000Z</time>
      </trkpt>
      <trkpt lat="45.29337" lon="6.07988">
        <ele>1026.8000488281</ele>
        <time>2023-08-10T10:42:36.000Z</time>
      </trkpt>
      <trkpt lat="45.29334" lon="6.07986">
        <ele>1027.1999511719</ele>
        <time>2023-08-10T10:42:39.000Z</time>
      </trkpt>
      <trkpt lat="45.29327" lon="6.07979">
        <ele>1027.4000244141</ele>
        <time>2023-08-10T10:42:44.000Z</time>
      </trkpt>
      <trkpt lat="45.29325" lon="6.07981">
        <ele>1027.1999511719</ele>
        <time>2023-08-10T10:43:12.000Z</time>
      </trkpt>
      <trkpt lat="45.29322" lon="6.07983">
        <ele>1027.8000488281</ele>
        <time>2023-08-10T10:43:23.000Z</time>
      </trkpt>
      <trkpt lat="45.29321" lon="6.07985">
        <ele>1028.4000244141</ele>
        <time>2023-08-10T10:43:26.000Z</time>
      </trkpt>
      <trkpt lat="45.29303" lon="6.07987">
        <ele>1031.4000244141</ele>
        <time>2023-08-10T10:43:47.000Z</time>
      </trkpt>
      <trkpt lat="45.29302" lon="6.07987">
        <ele>1031.5999755859</ele>
        <time>2023-08-10T10:43:48.000Z</time>
      </trkpt>
      <trkpt lat="45.29292" lon="6.0799">
        <ele>1032.8000488281</ele>
        <time>2023-08-10T10:43:55.000Z</time>
      </trkpt>
      <trkpt lat="45.29288" lon="6.07991">
        <ele>1033.5999755859</ele>
        <time>2023-08-10T10:43:59.000Z</time>
      </trkpt>
      <trkpt lat="45.29276" lon="6.07992">
        <ele>1036</ele>
        <time>2023-08-10T10:44:13.000Z</time>
      </trkpt>
      <trkpt lat="45.29271" lon="6.07992">
        <ele>1036.5999755859</ele>
        <time>2023-08-10T10:44:17.000Z</time>
      </trkpt>
      <trkpt lat="45.29268" lon="6.07993">
        <ele>1037.1999511719</ele>
        <time>2023-08-10T10:44:20.000Z</time>
      </trkpt>
      <trkpt lat="45.29264" lon="6.07995">
        <ele>1037.8000488281</ele>
        <time>2023-08-10T10:44:24.000Z</time>
      </trkpt>
      <trkpt lat="45.29261" lon="6.07999">
        <ele>1038.5999755859</ele>
        <time>2023-08-10T10:44:29.000Z</time>
      </trkpt>
      <trkpt lat="45.29262" lon="6.08001">
        <ele>1039.1999511719</ele>
        <time>2023-08-10T10:44:32.000Z</time>
      </trkpt>
      <trkpt lat="45.29262" lon="6.08">
        <ele>1039.1999511719</ele>
        <time>2023-08-10T10:44:33.000Z</time>
      </trkpt>
      <trkpt lat="45.29262" lon="6.08">
        <ele>1039.5999755859</ele>
        <time>2023-08-10T10:44:35.000Z</time>
      </trkpt>
      <trkpt lat="45.29258" lon="6.07996">
        <ele>1041.4000244141</ele>
        <time>2023-08-10T10:44:44.000Z</time>
      </trkpt>
      <trkpt lat="45.29253" lon="6.07995">
        <ele>1042.4000244141</ele>
        <time>2023-08-10T10:44:50.000Z</time>
      </trkpt>
      <trkpt lat="45.29252" lon="6.07995">
        <ele>1042.5999755859</ele>
        <time>2023-08-10T10:44:51.000Z</time>
      </trkpt>
      <trkpt lat="45.29245" lon="6.07994">
        <ele>1043.5999755859</ele>
        <time>2023-08-10T10:44:57.000Z</time>
      </trkpt>
      <trkpt lat="45.2924" lon="6.07993">
        <ele>1044.5999755859</ele>
        <time>2023-08-10T10:45:03.000Z</time>
      </trkpt>
      <trkpt lat="45.29241" lon="6.07995">
        <ele>1044.8000488281</ele>
        <time>2023-08-10T10:45:05.000Z</time>
      </trkpt>
      <trkpt lat="45.29239" lon="6.07998">
        <ele>1045.1999511719</ele>
        <time>2023-08-10T10:45:10.000Z</time>
      </trkpt>
      <trkpt lat="45.29239" lon="6.08">
        <ele>1045.5999755859</ele>
        <time>2023-08-10T10:45:13.000Z</time>
      </trkpt>
      <trkpt lat="45.29241" lon="6.08002">
        <ele>1045.5999755859</ele>
        <time>2023-08-10T10:45:19.000Z</time>
      </trkpt>
      <trkpt lat="45.29236" lon="6.08005">
        <ele>1045.5999755859</ele>
        <time>2023-08-10T10:45:30.000Z</time>
      </trkpt>
      <trkpt lat="45.29234" lon="6.08007">
        <ele>1045.5999755859</ele>
        <time>2023-08-10T10:45:35.000Z</time>
      </trkpt>
      <trkpt lat="45.29225" lon="6.08001">
        <ele>1046</ele>
        <time>2023-08-10T10:45:43.000Z</time>
      </trkpt>
      <trkpt lat="45.29219" lon="6.07999">
        <ele>1046.4000244141</ele>
        <time>2023-08-10T10:45:51.000Z</time>
      </trkpt>
      <trkpt lat="45.29209" lon="6.07996">
        <ele>1046.8000488281</ele>
        <time>2023-08-10T10:45:58.000Z</time>
      </trkpt>
      <trkpt lat="45.29202" lon="6.07995">
        <ele>1047.8000488281</ele>
        <time>2023-08-10T10:46:07.000Z</time>
      </trkpt>
      <trkpt lat="45.29196" lon="6.07993">
        <ele>1048.8000488281</ele>
        <time>2023-08-10T10:46:13.000Z</time>
      </trkpt>
      <trkpt lat="45.29195" lon="6.07993">
        <ele>1049</ele>
        <time>2023-08-10T10:46:14.000Z</time>
      </trkpt>
      <trkpt lat="45.29189" lon="6.07993">
        <ele>1050.1999511719</ele>
        <time>2023-08-10T10:46:23.000Z</time>
      </trkpt>
      <trkpt lat="45.29188" lon="6.07996">
        <ele>1051</ele>
        <time>2023-08-10T10:46:28.000Z</time>
      </trkpt>
      <trkpt lat="45.29186" lon="6.07996">
        <ele>1051.5999755859</ele>
        <time>2023-08-10T10:46:31.000Z</time>
      </trkpt>
      <trkpt lat="45.29181" lon="6.07999">
        <ele>1052.1999511719</ele>
        <time>2023-08-10T10:46:36.000Z</time>
      </trkpt>
      <trkpt lat="45.29179" lon="6.08">
        <ele>1052.8000488281</ele>
        <time>2023-08-10T10:46:40.000Z</time>
      </trkpt>
      <trkpt lat="45.29178" lon="6.08001">
        <ele>1053.1999511719</ele>
        <time>2023-08-10T10:46:44.000Z</time>
      </trkpt>
      <trkpt lat="45.29178" lon="6.08002">
        <ele>1053.5999755859</ele>
        <time>2023-08-10T10:46:47.000Z</time>
      </trkpt>
      <trkpt lat="45.29177" lon="6.08006">
        <ele>1054</ele>
        <time>2023-08-10T10:46:56.000Z</time>
      </trkpt>
      <trkpt lat="45.29183" lon="6.08005">
        <ele>1054</ele>
        <time>2023-08-10T10:47:07.000Z</time>
      </trkpt>
      <trkpt lat="45.29183" lon="6.08009">
        <ele>1054.4000244141</ele>
        <time>2023-08-10T10:47:15.000Z</time>
      </trkpt>
      <trkpt lat="45.29177" lon="6.08016">
        <ele>1055.4000244141</ele>
        <time>2023-08-10T10:47:21.000Z</time>
      </trkpt>
      <trkpt lat="45.29176" lon="6.08017">
        <ele>1055.5999755859</ele>
        <time>2023-08-10T10:47:22.000Z</time>
      </trkpt>
      <trkpt lat="45.29173" lon="6.08024">
        <ele>1056.8000488281</ele>
        <time>2023-08-10T10:47:29.000Z</time>
      </trkpt>
      <trkpt lat="45.29173" lon="6.08024">
        <ele>1056.8000488281</ele>
        <time>2023-08-10T10:47:30.000Z</time>
      </trkpt>
      <trkpt lat="45.29172" lon="6.08025">
        <ele>1057.5999755859</ele>
        <time>2023-08-10T10:47:35.000Z</time>
      </trkpt>
      <trkpt lat="45.29172" lon="6.08026">
        <ele>1057.8000488281</ele>
        <time>2023-08-10T10:47:36.000Z</time>
      </trkpt>
      <trkpt lat="45.29171" lon="6.08027">
        <ele>1058.1999511719</ele>
        <time>2023-08-10T10:47:39.000Z</time>
      </trkpt>
      <trkpt lat="45.29167" lon="6.08028">
        <ele>1058.8000488281</ele>
        <time>2023-08-10T10:47:44.000Z</time>
      </trkpt>
      <trkpt lat="45.29166" lon="6.08027">
        <ele>1059</ele>
        <time>2023-08-10T10:47:46.000Z</time>
      </trkpt>
      <trkpt lat="45.29157" lon="6.08027">
        <ele>1059.8000488281</ele>
        <time>2023-08-10T10:47:53.000Z</time>
      </trkpt>
      <trkpt lat="45.29155" lon="6.08028">
        <ele>1060.1999511719</ele>
        <time>2023-08-10T10:47:55.000Z</time>
      </trkpt>
      <trkpt lat="45.29146" lon="6.08033">
        <ele>1061.8000488281</ele>
        <time>2023-08-10T10:48:06.000Z</time>
      </trkpt>
      <trkpt lat="45.29144" lon="6.08036">
        <ele>1062.1999511719</ele>
        <time>2023-08-10T10:48:09.000Z</time>
      </trkpt>
      <trkpt lat="45.29142" lon="6.08041">
        <ele>1063</ele>
        <time>2023-08-10T10:48:14.000Z</time>
      </trkpt>
      <trkpt lat="45.29141" lon="6.08042">
        <ele>1063.1999511719</ele>
        <time>2023-08-10T10:48:15.000Z</time>
      </trkpt>
      <trkpt lat="45.29137" lon="6.08046">
        <ele>1064.1999511719</ele>
        <time>2023-08-10T10:48:21.000Z</time>
      </trkpt>
      <trkpt lat="45.29135" lon="6.08046">
        <ele>1064.5999755859</ele>
        <time>2023-08-10T10:48:23.000Z</time>
      </trkpt>
      <trkpt lat="45.29119" lon="6.08047">
        <ele>1067</ele>
        <time>2023-08-10T10:48:51.000Z</time>
      </trkpt>
      <trkpt lat="45.29087" lon="6.08052">
        <ele>1068.4000244141</ele>
        <time>2023-08-10T10:49:18.000Z</time>
      </trkpt>
      <trkpt lat="45.2908" lon="6.08047">
        <ele>1069</ele>
        <time>2023-08-10T10:49:23.000Z</time>
      </trkpt>
      <trkpt lat="45.29078" lon="6.08046">
        <ele>1069.5999755859</ele>
        <time>2023-08-10T10:49:26.000Z</time>
      </trkpt>
      <trkpt lat="45.29074" lon="6.08044">
        <ele>1070.1999511719</ele>
        <time>2023-08-10T10:49:30.000Z</time>
      </trkpt>
      <trkpt lat="45.29071" lon="6.08043">
        <ele>1070.8000488281</ele>
        <time>2023-08-10T10:49:33.000Z</time>
      </trkpt>
      <trkpt lat="45.2906" lon="6.08042">
        <ele>1071.5999755859</ele>
        <time>2023-08-10T10:49:39.000Z</time>
      </trkpt>
      <trkpt lat="45.2906" lon="6.08041">
        <ele>1071.8000488281</ele>
        <time>2023-08-10T10:49:41.000Z</time>
      </trkpt>
      <trkpt lat="45.29051" lon="6.08041">
        <ele>1072.5999755859</ele>
        <time>2023-08-10T10:49:47.000Z</time>
      </trkpt>
      <trkpt lat="45.29051" lon="6.0804">
        <ele>1072.8000488281</ele>
        <time>2023-08-10T10:49:50.000Z</time>
      </trkpt>
      <trkpt lat="45.29045" lon="6.08037">
        <ele>1073.4000244141</ele>
        <time>2023-08-10T10:49:54.000Z</time>
      </trkpt>
      <trkpt lat="45.29044" lon="6.08037">
        <ele>1074</ele>
        <time>2023-08-10T10:49:57.000Z</time>
      </trkpt>
      <trkpt lat="45.2904" lon="6.08035">
        <ele>1075</ele>
        <time>2023-08-10T10:50:02.000Z</time>
      </trkpt>
      <trkpt lat="45.29035" lon="6.08031">
        <ele>1076</ele>
        <time>2023-08-10T10:50:09.000Z</time>
      </trkpt>
      <trkpt lat="45.29034" lon="6.0803">
        <ele>1076</ele>
        <time>2023-08-10T10:50:10.000Z</time>
      </trkpt>
      <trkpt lat="45.2903" lon="6.0803">
        <ele>1077.1999511719</ele>
        <time>2023-08-10T10:50:16.000Z</time>
      </trkpt>
      <trkpt lat="45.29029" lon="6.0803">
        <ele>1077.4000244141</ele>
        <time>2023-08-10T10:50:17.000Z</time>
      </trkpt>
      <trkpt lat="45.29008" lon="6.08027">
        <ele>1078.1999511719</ele>
        <time>2023-08-10T10:50:45.000Z</time>
      </trkpt>
      <trkpt lat="45.29006" lon="6.08025">
        <ele>1078.1999511719</ele>
        <time>2023-08-10T10:50:49.000Z</time>
      </trkpt>
      <trkpt lat="45.29005" lon="6.08025">
        <ele>1078.5999755859</ele>
        <time>2023-08-10T10:50:51.000Z</time>
      </trkpt>
      <trkpt lat="45.28999" lon="6.08022">
        <ele>1079.4000244141</ele>
        <time>2023-08-10T10:50:56.000Z</time>
      </trkpt>
      <trkpt lat="45.28998" lon="6.08017">
        <ele>1079.8000488281</ele>
        <time>2023-08-10T10:50:59.000Z</time>
      </trkpt>
      <trkpt lat="45.28997" lon="6.08011">
        <ele>1080.4000244141</ele>
        <time>2023-08-10T10:51:04.000Z</time>
      </trkpt>
      <trkpt lat="45.28993" lon="6.08006">
        <ele>1081</ele>
        <time>2023-08-10T10:51:07.000Z</time>
      </trkpt>
      <trkpt lat="45.28991" lon="6.08">
        <ele>1081.4000244141</ele>
        <time>2023-08-10T10:51:11.000Z</time>
      </trkpt>
      <trkpt lat="45.28988" lon="6.07989">
        <ele>1082.1999511719</ele>
        <time>2023-08-10T10:51:17.000Z</time>
      </trkpt>
      <trkpt lat="45.28987" lon="6.07987">
        <ele>1082.5999755859</ele>
        <time>2023-08-10T10:51:19.000Z</time>
      </trkpt>
      <trkpt lat="45.28983" lon="6.0798">
        <ele>1083.4000244141</ele>
        <time>2023-08-10T10:51:24.000Z</time>
      </trkpt>
      <trkpt lat="45.28979" lon="6.07977">
        <ele>1083.5999755859</ele>
        <time>2023-08-10T10:51:27.000Z</time>
      </trkpt>
      <trkpt lat="45.28976" lon="6.07973">
        <ele>1083.5999755859</ele>
        <time>2023-08-10T10:51:31.000Z</time>
      </trkpt>
      <trkpt lat="45.28977" lon="6.07967">
        <ele>1083.4000244141</ele>
        <time>2023-08-10T10:51:37.000Z</time>
      </trkpt>
      <trkpt lat="45.28977" lon="6.07956">
        <ele>1082.4000244141</ele>
        <time>2023-08-10T10:51:44.000Z</time>
      </trkpt>
      <trkpt lat="45.28975" lon="6.07947">
        <ele>1081.4000244141</ele>
        <time>2023-08-10T10:51:50.000Z</time>
      </trkpt>
      <trkpt lat="45.28975" lon="6.07945">
        <ele>1081.1999511719</ele>
        <time>2023-08-10T10:51:51.000Z</time>
      </trkpt>
      <trkpt lat="45.28969" lon="6.07929">
        <ele>1080.1999511719</ele>
        <time>2023-08-10T10:51:59.000Z</time>
      </trkpt>
      <trkpt lat="45.28968" lon="6.07927">
        <ele>1080.1999511719</ele>
        <time>2023-08-10T10:52:00.000Z</time>
      </trkpt>
      <trkpt lat="45.28967" lon="6.07927">
        <ele>1079.4000244141</ele>
        <time>2023-08-10T10:52:06.000Z</time>
      </trkpt>
      <trkpt lat="45.28965" lon="6.07926">
        <ele>1079.1999511719</ele>
        <time>2023-08-10T10:52:10.000Z</time>
      </trkpt>
      <trkpt lat="45.28961" lon="6.07921">
        <ele>1079</ele>
        <time>2023-08-10T10:52:13.000Z</time>
      </trkpt>
      <trkpt lat="45.28954" lon="6.07912">
        <ele>1078.1999511719</ele>
        <time>2023-08-10T10:52:20.000Z</time>
      </trkpt>
      <trkpt lat="45.28949" lon="6.07907">
        <ele>1077</ele>
        <time>2023-08-10T10:52:27.000Z</time>
      </trkpt>
      <trkpt lat="45.28948" lon="6.07907">
        <ele>1076.8000488281</ele>
        <time>2023-08-10T10:52:28.000Z</time>
      </trkpt>
      <trkpt lat="45.28944" lon="6.079">
        <ele>1076.1999511719</ele>
        <time>2023-08-10T10:52:34.000Z</time>
      </trkpt>
      <trkpt lat="45.2894" lon="6.07892">
        <ele>1075.8000488281</ele>
        <time>2023-08-10T10:52:39.000Z</time>
      </trkpt>
      <trkpt lat="45.2894" lon="6.07889">
        <ele>1075.8000488281</ele>
        <time>2023-08-10T10:52:41.000Z</time>
      </trkpt>
      <trkpt lat="45.2894" lon="6.07877">
        <ele>1074.8000488281</ele>
        <time>2023-08-10T10:52:49.000Z</time>
      </trkpt>
      <trkpt lat="45.28942" lon="6.07867">
        <ele>1074.4000244141</ele>
        <time>2023-08-10T10:52:54.000Z</time>
      </trkpt>
      <trkpt lat="45.28939" lon="6.07854">
        <ele>1074.4000244141</ele>
        <time>2023-08-10T10:53:00.000Z</time>
      </trkpt>
      <trkpt lat="45.28937" lon="6.07848">
        <ele>1073.8000488281</ele>
        <time>2023-08-10T10:53:06.000Z</time>
      </trkpt>
      <trkpt lat="45.28937" lon="6.07847">
        <ele>1073.4000244141</ele>
        <time>2023-08-10T10:53:07.000Z</time>
      </trkpt>
      <trkpt lat="45.28933" lon="6.07843">
        <ele>1072.5999755859</ele>
        <time>2023-08-10T10:53:11.000Z</time>
      </trkpt>
      <trkpt lat="45.28929" lon="6.07839">
        <ele>1071.8000488281</ele>
        <time>2023-08-10T10:53:14.000Z</time>
      </trkpt>
      <trkpt lat="45.28927" lon="6.07838">
        <ele>1071.5999755859</ele>
        <time>2023-08-10T10:53:15.000Z</time>
      </trkpt>
      <trkpt lat="45.28921" lon="6.07831">
        <ele>1070.5999755859</ele>
        <time>2023-08-10T10:53:22.000Z</time>
      </trkpt>
      <trkpt lat="45.28917" lon="6.07821">
        <ele>1069.5999755859</ele>
        <time>2023-08-10T10:53:28.000Z</time>
      </trkpt>
      <trkpt lat="45.28917" lon="6.0782">
        <ele>1069.4000244141</ele>
        <time>2023-08-10T10:53:29.000Z</time>
      </trkpt>
      <trkpt lat="45.28917" lon="6.07809">
        <ele>1068.4000244141</ele>
        <time>2023-08-10T10:53:35.000Z</time>
      </trkpt>
      <trkpt lat="45.28915" lon="6.0781">
        <ele>1068.1999511719</ele>
        <time>2023-08-10T10:53:36.000Z</time>
      </trkpt>
      <trkpt lat="45.28917" lon="6.07801">
        <ele>1067</ele>
        <time>2023-08-10T10:53:41.000Z</time>
      </trkpt>
      <trkpt lat="45.28916" lon="6.07798">
        <ele>1066.5999755859</ele>
        <time>2023-08-10T10:53:43.000Z</time>
      </trkpt>
      <trkpt lat="45.28914" lon="6.07789">
        <ele>1065.8000488281</ele>
        <time>2023-08-10T10:53:47.000Z</time>
      </trkpt>
      <trkpt lat="45.28908" lon="6.07781">
        <ele>1064.8000488281</ele>
        <time>2023-08-10T10:53:52.000Z</time>
      </trkpt>
      <trkpt lat="45.28901" lon="6.07772">
        <ele>1063.8000488281</ele>
        <time>2023-08-10T10:53:59.000Z</time>
      </trkpt>
      <trkpt lat="45.28899" lon="6.07769">
        <ele>1063.8000488281</ele>
        <time>2023-08-10T10:54:01.000Z</time>
      </trkpt>
      <trkpt lat="45.28893" lon="6.07759">
        <ele>1062.5999755859</ele>
        <time>2023-08-10T10:54:07.000Z</time>
      </trkpt>
      <trkpt lat="45.2889" lon="6.07756">
        <ele>1062.1999511719</ele>
        <time>2023-08-10T10:54:09.000Z</time>
      </trkpt>
      <trkpt lat="45.28886" lon="6.07749">
        <ele>1061.5999755859</ele>
        <time>2023-08-10T10:54:14.000Z</time>
      </trkpt>
      <trkpt lat="45.28885" lon="6.0775">
        <ele>1061</ele>
        <time>2023-08-10T10:54:17.000Z</time>
      </trkpt>
      <trkpt lat="45.28885" lon="6.0775">
        <ele>1061</ele>
        <time>2023-08-10T10:54:18.000Z</time>
      </trkpt>
      <trkpt lat="45.28884" lon="6.07747">
        <ele>1060.5999755859</ele>
        <time>2023-08-10T10:54:29.000Z</time>
      </trkpt>
      <trkpt lat="45.28884" lon="6.07748">
        <ele>1060.5999755859</ele>
        <time>2023-08-10T10:54:30.000Z</time>
      </trkpt>
      <trkpt lat="45.28884" lon="6.07749">
        <ele>1060.4000244141</ele>
        <time>2023-08-10T10:54:38.000Z</time>
      </trkpt>
      <trkpt lat="45.28879" lon="6.07742">
        <ele>1059.8000488281</ele>
        <time>2023-08-10T10:54:45.000Z</time>
      </trkpt>
      <trkpt lat="45.28877" lon="6.07739">
        <ele>1059.4000244141</ele>
        <time>2023-08-10T10:54:48.000Z</time>
      </trkpt>
      <trkpt lat="45.28873" lon="6.07731">
        <ele>1058.5999755859</ele>
        <time>2023-08-10T10:54:53.000Z</time>
      </trkpt>
      <trkpt lat="45.28871" lon="6.07726">
        <ele>1058.4000244141</ele>
        <time>2023-08-10T10:54:55.000Z</time>
      </trkpt>
      <trkpt lat="45.28866" lon="6.07717">
        <ele>1057.5999755859</ele>
        <time>2023-08-10T10:55:00.000Z</time>
      </trkpt>
      <trkpt lat="45.28865" lon="6.07715">
        <ele>1057.4000244141</ele>
        <time>2023-08-10T10:55:02.000Z</time>
      </trkpt>
      <trkpt lat="45.28861" lon="6.07705">
        <ele>1056.1999511719</ele>
        <time>2023-08-10T10:55:09.000Z</time>
      </trkpt>
      <trkpt lat="45.28856" lon="6.07694">
        <ele>1055.1999511719</ele>
        <time>2023-08-10T10:55:15.000Z</time>
      </trkpt>
      <trkpt lat="45.28852" lon="6.07694">
        <ele>1054.8000488281</ele>
        <time>2023-08-10T10:55:18.000Z</time>
      </trkpt>
      <trkpt lat="45.28839" lon="6.07696">
        <ele>1054.8000488281</ele>
        <time>2023-08-10T10:55:25.000Z</time>
      </trkpt>
      <trkpt lat="45.2883" lon="6.07693">
        <ele>1055.4000244141</ele>
        <time>2023-08-10T10:55:31.000Z</time>
      </trkpt>
      <trkpt lat="45.28827" lon="6.07688">
        <ele>1055.5999755859</ele>
        <time>2023-08-10T10:55:37.000Z</time>
      </trkpt>
      <trkpt lat="45.28818" lon="6.07678">
        <ele>1056.1999511719</ele>
        <time>2023-08-10T10:55:44.000Z</time>
      </trkpt>
      <trkpt lat="45.28817" lon="6.07677">
        <ele>1056.1999511719</ele>
        <time>2023-08-10T10:55:45.000Z</time>
      </trkpt>
      <trkpt lat="45.28811" lon="6.07678">
        <ele>1056.5999755859</ele>
        <time>2023-08-10T10:55:51.000Z</time>
      </trkpt>
      <trkpt lat="45.28804" lon="6.07682">
        <ele>1056.8000488281</ele>
        <time>2023-08-10T10:55:58.000Z</time>
      </trkpt>
      <trkpt lat="45.28795" lon="6.07687">
        <ele>1057</ele>
        <time>2023-08-10T10:56:04.000Z</time>
      </trkpt>
      <trkpt lat="45.28784" lon="6.07695">
        <ele>1057.1999511719</ele>
        <time>2023-08-10T10:56:11.000Z</time>
      </trkpt>
      <trkpt lat="45.28781" lon="6.07697">
        <ele>1057.1999511719</ele>
        <time>2023-08-10T10:56:19.000Z</time>
      </trkpt>
      <trkpt lat="45.2878" lon="6.07697">
        <ele>1057.1999511719</ele>
        <time>2023-08-10T10:56:20.000Z</time>
      </trkpt>
      <trkpt lat="45.28779" lon="6.07694">
        <ele>1057.1999511719</ele>
        <time>2023-08-10T10:56:26.000Z</time>
      </trkpt>
      <trkpt lat="45.28777" lon="6.0769">
        <ele>1057</ele>
        <time>2023-08-10T10:56:36.000Z</time>
      </trkpt>
      <trkpt lat="45.28775" lon="6.07694">
        <ele>1057</ele>
        <time>2023-08-10T10:56:44.000Z</time>
      </trkpt>
      <trkpt lat="45.28774" lon="6.07695">
        <ele>1056.8000488281</ele>
        <time>2023-08-10T10:56:50.000Z</time>
      </trkpt>
      <trkpt lat="45.28772" lon="6.07697">
        <ele>1056.8000488281</ele>
        <time>2023-08-10T10:56:55.000Z</time>
      </trkpt>
      <trkpt lat="45.28767" lon="6.07702">
        <ele>1057</ele>
        <time>2023-08-10T10:57:02.000Z</time>
      </trkpt>
      <trkpt lat="45.2876" lon="6.07705">
        <ele>1057.1999511719</ele>
        <time>2023-08-10T10:57:09.000Z</time>
      </trkpt>
      <trkpt lat="45.28746" lon="6.07716">
        <ele>1057.4000244141</ele>
        <time>2023-08-10T10:57:17.000Z</time>
      </trkpt>
      <trkpt lat="45.28744" lon="6.07719">
        <ele>1057.8000488281</ele>
        <time>2023-08-10T10:57:22.000Z</time>
      </trkpt>
      <trkpt lat="45.28734" lon="6.07727">
        <ele>1058.1999511719</ele>
        <time>2023-08-10T10:57:29.000Z</time>
      </trkpt>
      <trkpt lat="45.28733" lon="6.07728">
        <ele>1058.4000244141</ele>
        <time>2023-08-10T10:57:30.000Z</time>
      </trkpt>
      <trkpt lat="45.28732" lon="6.07729">
        <ele>1058.4000244141</ele>
        <time>2023-08-10T10:57:34.000Z</time>
      </trkpt>
      <trkpt lat="45.28726" lon="6.07733">
        <ele>1058.5999755859</ele>
        <time>2023-08-10T10:57:39.000Z</time>
      </trkpt>
      <trkpt lat="45.28719" lon="6.07739">
        <ele>1058.8000488281</ele>
        <time>2023-08-10T10:57:46.000Z</time>
      </trkpt>
      <trkpt lat="45.28711" lon="6.07746">
        <ele>1059.1999511719</ele>
        <time>2023-08-10T10:57:52.000Z</time>
      </trkpt>
      <trkpt lat="45.28703" lon="6.07754">
        <ele>1059.4000244141</ele>
        <time>2023-08-10T10:57:56.000Z</time>
      </trkpt>
      <trkpt lat="45.28697" lon="6.0776">
        <ele>1059.5999755859</ele>
        <time>2023-08-10T10:58:01.000Z</time>
      </trkpt>
      <trkpt lat="45.28659" lon="6.07771">
        <ele>1060</ele>
        <time>2023-08-10T10:58:40.000Z</time>
      </trkpt>
      <trkpt lat="45.28659" lon="6.07771">
        <ele>1060.4000244141</ele>
        <time>2023-08-10T10:58:42.000Z</time>
      </trkpt>
      <trkpt lat="45.28658" lon="6.07772">
        <ele>1061</ele>
        <time>2023-08-10T10:58:46.000Z</time>
      </trkpt>
      <trkpt lat="45.28658" lon="6.07772">
        <ele>1061.1999511719</ele>
        <time>2023-08-10T10:58:47.000Z</time>
      </trkpt>
      <trkpt lat="45.2861" lon="6.07764">
        <ele>1065.1999511719</ele>
        <time>2023-08-10T10:59:14.000Z</time>
      </trkpt>
      <trkpt lat="45.28605" lon="6.07762">
        <ele>1065.5999755859</ele>
        <time>2023-08-10T10:59:18.000Z</time>
      </trkpt>
      <trkpt lat="45.28604" lon="6.07761">
        <ele>1065.8000488281</ele>
        <time>2023-08-10T10:59:20.000Z</time>
      </trkpt>
      <trkpt lat="45.28586" lon="6.07752">
        <ele>1066</ele>
        <time>2023-08-10T10:59:38.000Z</time>
      </trkpt>
      <trkpt lat="45.28585" lon="6.07746">
        <ele>1066.1999511719</ele>
        <time>2023-08-10T10:59:42.000Z</time>
      </trkpt>
      <trkpt lat="45.28587" lon="6.07745">
        <ele>1066</ele>
        <time>2023-08-10T10:59:49.000Z</time>
      </trkpt>
      <trkpt lat="45.2856" lon="6.07735">
        <ele>1049.7</ele>
        <time>2023-08-10T11:00:17Z</time>
      </trkpt>
      <trkpt lat="45.28527" lon="6.07739">
        <ele>1050.7</ele>
        <time>2023-08-10T11:00:42Z</time>
      </trkpt>
      <trkpt lat="45.28495" lon="6.0775">
        <ele>1052.8</ele>
        <time>2023-08-10T11:01:07Z</time>
      </trkpt>
      <trkpt lat="45.28463" lon="6.07786">
        <ele>1059.4</ele>
        <time>2023-08-10T11:01:32Z</time>
      </trkpt>
      <trkpt lat="45.28429" lon="6.07806">
        <ele>1064.1</ele>
        <time>2023-08-10T11:01:57Z</time>
      </trkpt>
      <trkpt lat="45.28392" lon="6.07807">
        <ele>1064.4</ele>
        <time>2023-08-10T11:02:22Z</time>
      </trkpt>
      <trkpt lat="45.28364" lon="6.078">
        <ele>1062.9</ele>
        <time>2023-08-10T11:02:47Z</time>
      </trkpt>
      <trkpt lat="45.2834" lon="6.07803">
        <ele>1063.3</ele>
        <time>2023-08-10T11:03:12Z</time>
      </trkpt>
      <trkpt lat="45.28305" lon="6.07817">
        <ele>1067.8</ele>
        <time>2023-08-10T11:03:37Z</time>
      </trkpt>
      <trkpt lat="45.28256" lon="6.07829">
        <ele>1071.2</ele>
        <time>2023-08-10T11:04:02Z</time>
      </trkpt>
      <trkpt lat="45.28232" lon="6.07844">
        <ele>1075.8</ele>
        <time>2023-08-10T11:04:27Z</time>
      </trkpt>
      <trkpt lat="45.28212" lon="6.07842">
        <ele>1077</ele>
        <time>2023-08-10T11:04:52Z</time>
      </trkpt>
      <trkpt lat="45.28197" lon="6.07825">
        <ele>1075.6</ele>
        <time>2023-08-10T11:05:17Z</time>
      </trkpt>
      <trkpt lat="45.28192" lon="6.07807">
        <ele>1073.5</ele>
        <time>2023-08-10T11:05:42Z</time>
      </trkpt>
      <trkpt lat="45.28176" lon="6.07786">
        <ele>1073.6</ele>
        <time>2023-08-10T11:06:07Z</time>
      </trkpt>
      <trkpt lat="45.28155" lon="6.07774">
        <ele>1075.4</ele>
        <time>2023-08-10T11:06:32Z</time>
      </trkpt>
      <trkpt lat="45.28134" lon="6.07786">
        <ele>1093.4000244141</ele>
        <time>2023-08-10T11:07:02.000Z</time>
      </trkpt>
      <trkpt lat="45.28132" lon="6.07778">
        <ele>1093.4000244141</ele>
        <time>2023-08-10T11:07:07.000Z</time>
      </trkpt>
      <trkpt lat="45.28129" lon="6.07768">
        <ele>1093.4000244141</ele>
        <time>2023-08-10T11:07:14.000Z</time>
      </trkpt>
      <trkpt lat="45.28126" lon="6.07761">
        <ele>1093.4000244141</ele>
        <time>2023-08-10T11:07:19.000Z</time>
      </trkpt>
      <trkpt lat="45.2812" lon="6.0775">
        <ele>1093.4000244141</ele>
        <time>2023-08-10T11:07:25.000Z</time>
      </trkpt>
      <trkpt lat="45.28114" lon="6.07743">
        <ele>1093.5999755859</ele>
        <time>2023-08-10T11:07:30.000Z</time>
      </trkpt>
      <trkpt lat="45.28114" lon="6.07744">
        <ele>1093.8000488281</ele>
        <time>2023-08-10T11:07:33.000Z</time>
      </trkpt>
      <trkpt lat="45.28113" lon="6.07743">
        <ele>1093.8000488281</ele>
        <time>2023-08-10T11:07:36.000Z</time>
      </trkpt>
      <trkpt lat="45.28108" lon="6.07744">
        <ele>1094</ele>
        <time>2023-08-10T11:07:42.000Z</time>
      </trkpt>
      <trkpt lat="45.28108" lon="6.07743">
        <ele>1094</ele>
        <time>2023-08-10T11:07:47.000Z</time>
      </trkpt>
      <trkpt lat="45.28107" lon="6.07739">
        <ele>1093.8000488281</ele>
        <time>2023-08-10T11:07:53.000Z</time>
      </trkpt>
      <trkpt lat="45.28109" lon="6.07732">
        <ele>1093.5999755859</ele>
        <time>2023-08-10T11:07:57.000Z</time>
      </trkpt>
      <trkpt lat="45.28112" lon="6.07724">
        <ele>1093.5999755859</ele>
        <time>2023-08-10T11:08:03.000Z</time>
      </trkpt>
      <trkpt lat="45.28115" lon="6.07713">
        <ele>1093.5999755859</ele>
        <time>2023-08-10T11:08:08.000Z</time>
      </trkpt>
      <trkpt lat="45.28117" lon="6.07702">
        <ele>1092.8000488281</ele>
        <time>2023-08-10T11:08:13.000Z</time>
      </trkpt>
      <trkpt lat="45.2812" lon="6.07697">
        <ele>1092.4000244141</ele>
        <time>2023-08-10T11:08:16.000Z</time>
      </trkpt>
      <trkpt lat="45.28123" lon="6.07691">
        <ele>1091.5999755859</ele>
        <time>2023-08-10T11:08:20.000Z</time>
      </trkpt>
      <trkpt lat="45.28125" lon="6.07687">
        <ele>1091.1999511719</ele>
        <time>2023-08-10T11:08:23.000Z</time>
      </trkpt>
      <trkpt lat="45.28129" lon="6.0768">
        <ele>1090.8000488281</ele>
        <time>2023-08-10T11:08:26.000Z</time>
      </trkpt>
      <trkpt lat="45.2813" lon="6.07678">
        <ele>1090.1999511719</ele>
        <time>2023-08-10T11:08:28.000Z</time>
      </trkpt>
      <trkpt lat="45.28132" lon="6.07674">
        <ele>1089.8000488281</ele>
        <time>2023-08-10T11:08:31.000Z</time>
      </trkpt>
      <trkpt lat="45.28134" lon="6.0767">
        <ele>1089.1999511719</ele>
        <time>2023-08-10T11:08:35.000Z</time>
      </trkpt>
      <trkpt lat="45.28135" lon="6.07667">
        <ele>1089</ele>
        <time>2023-08-10T11:08:37.000Z</time>
      </trkpt>
      <trkpt lat="45.28139" lon="6.07655">
        <ele>1088.1999511719</ele>
        <time>2023-08-10T11:08:42.000Z</time>
      </trkpt>
      <trkpt lat="45.2814" lon="6.07652">
        <ele>1088.1999511719</ele>
        <time>2023-08-10T11:08:44.000Z</time>
      </trkpt>
      <trkpt lat="45.28141" lon="6.0765">
        <ele>1087.8000488281</ele>
        <time>2023-08-10T11:08:46.000Z</time>
      </trkpt>
    </trkseg>
  </trk>
</gpx>